<?xml version="1.0" encoding="UTF-8" standalone="no" ?>
<gpx xmlns="http://www.topografix.com/GPX/1/1" xmlns:xsi="http://www.w3.org/2001/XMLSchema-instance" xsi:schemaLocation="http://www.topografix.com/GPX/1/1 http://www.topografix.com/GPX/1/1/gpx.xsd" version="1.1" creator="VisuGPX - https://www.visugpx.com">
  <metadata>
    <name>tHiBaLdUs : Trail aux étoiles 2010 ravito 1 jusqu\'à l\'arrivée</name>
    <desc><![CDATA[Distance = 50 kms / Dénivelé positif = 2200 m]]></desc>
  </metadata>
  <trk>
    <name><![CDATA[tHiBaLdUs : Trail aux étoiles 2010 ravito 1 jusqu\'à l\'arrivée_1]]></name>
    <trkseg>
      <trkpt lat="44.00902" lon="3.64779">
        <ele>243.2</ele>
        <time>2010-03-07T02:26:07Z</time>
      </trkpt>
      <trkpt lat="44.00941" lon="3.64798">
        <ele>239.4</ele>
        <time>2010-03-07T02:26:12Z</time>
      </trkpt>
      <trkpt lat="44.00948" lon="3.64809">
        <ele>237.3</ele>
        <time>2010-03-07T02:26:17Z</time>
      </trkpt>
      <trkpt lat="44.00949" lon="3.64806">
        <ele>237.2</ele>
        <time>2010-03-07T02:26:22Z</time>
      </trkpt>
      <trkpt lat="44.00957" lon="3.648">
        <ele>238.5</ele>
        <time>2010-03-07T02:26:27Z</time>
      </trkpt>
      <trkpt lat="44.00966" lon="3.64786">
        <ele>240</ele>
        <time>2010-03-07T02:26:37Z</time>
      </trkpt>
      <trkpt lat="44.00973" lon="3.64781">
        <ele>239.8</ele>
        <time>2010-03-07T02:26:42Z</time>
      </trkpt>
      <trkpt lat="44.00974" lon="3.64774">
        <ele>241.5</ele>
        <time>2010-03-07T02:26:47Z</time>
      </trkpt>
      <trkpt lat="44.00984" lon="3.64769">
        <ele>242.7</ele>
        <time>2010-03-07T02:26:52Z</time>
      </trkpt>
      <trkpt lat="44.00993" lon="3.6478">
        <ele>238.6</ele>
        <time>2010-03-07T02:26:57Z</time>
      </trkpt>
      <trkpt lat="44.00999" lon="3.64792">
        <ele>239</ele>
        <time>2010-03-07T02:27:02Z</time>
      </trkpt>
      <trkpt lat="44.01005" lon="3.64797">
        <ele>239.3</ele>
        <time>2010-03-07T02:27:07Z</time>
      </trkpt>
      <trkpt lat="44.01022" lon="3.64825">
        <ele>241.8</ele>
        <time>2010-03-07T02:27:22Z</time>
      </trkpt>
      <trkpt lat="44.01067" lon="3.64861">
        <ele>244.8</ele>
        <time>2010-03-07T02:27:57Z</time>
      </trkpt>
      <trkpt lat="44.01087" lon="3.64866">
        <ele>246.6</ele>
        <time>2010-03-07T02:28:17Z</time>
      </trkpt>
      <trkpt lat="44.01115" lon="3.64861">
        <ele>250.3</ele>
        <time>2010-03-07T02:28:37Z</time>
      </trkpt>
      <trkpt lat="44.01135" lon="3.64867">
        <ele>251.5</ele>
        <time>2010-03-07T02:28:52Z</time>
      </trkpt>
      <trkpt lat="44.01164" lon="3.64869">
        <ele>255.3</ele>
        <time>2010-03-07T02:29:17Z</time>
      </trkpt>
      <trkpt lat="44.01199" lon="3.6488">
        <ele>260.2</ele>
        <time>2010-03-07T02:29:42Z</time>
      </trkpt>
      <trkpt lat="44.01208" lon="3.64891">
        <ele>262.2</ele>
        <time>2010-03-07T02:29:52Z</time>
      </trkpt>
      <trkpt lat="44.01215" lon="3.64893">
        <ele>263.3</ele>
        <time>2010-03-07T02:30:02Z</time>
      </trkpt>
      <trkpt lat="44.0122" lon="3.64891">
        <ele>264.4</ele>
        <time>2010-03-07T02:30:07Z</time>
      </trkpt>
      <trkpt lat="44.01228" lon="3.64892">
        <ele>265.7</ele>
        <time>2010-03-07T02:30:17Z</time>
      </trkpt>
      <trkpt lat="44.01232" lon="3.6489">
        <ele>266.3</ele>
        <time>2010-03-07T02:30:22Z</time>
      </trkpt>
      <trkpt lat="44.01243" lon="3.64894">
        <ele>267.9</ele>
        <time>2010-03-07T02:30:32Z</time>
      </trkpt>
      <trkpt lat="44.01251" lon="3.64905">
        <ele>269.5</ele>
        <time>2010-03-07T02:30:42Z</time>
      </trkpt>
      <trkpt lat="44.01256" lon="3.64908">
        <ele>271.2</ele>
        <time>2010-03-07T02:30:47Z</time>
      </trkpt>
      <trkpt lat="44.01296" lon="3.64946">
        <ele>282</ele>
        <time>2010-03-07T02:31:37Z</time>
      </trkpt>
      <trkpt lat="44.01296" lon="3.64949">
        <ele>281.5</ele>
        <time>2010-03-07T02:31:42Z</time>
      </trkpt>
      <trkpt lat="44.01309" lon="3.64956">
        <ele>287</ele>
        <time>2010-03-07T02:31:52Z</time>
      </trkpt>
      <trkpt lat="44.0131" lon="3.64961">
        <ele>287.3</ele>
        <time>2010-03-07T02:31:57Z</time>
      </trkpt>
      <trkpt lat="44.0132" lon="3.64966">
        <ele>292.9</ele>
        <time>2010-03-07T02:32:07Z</time>
      </trkpt>
      <trkpt lat="44.01332" lon="3.64979">
        <ele>298.1</ele>
        <time>2010-03-07T02:32:22Z</time>
      </trkpt>
      <trkpt lat="44.01348" lon="3.64999">
        <ele>299.4</ele>
        <time>2010-03-07T02:32:42Z</time>
      </trkpt>
      <trkpt lat="44.01349" lon="3.65004">
        <ele>298.5</ele>
        <time>2010-03-07T02:32:47Z</time>
      </trkpt>
      <trkpt lat="44.01379" lon="3.65027">
        <ele>304</ele>
        <time>2010-03-07T02:33:22Z</time>
      </trkpt>
      <trkpt lat="44.01403" lon="3.65036">
        <ele>310</ele>
        <time>2010-03-07T02:33:47Z</time>
      </trkpt>
      <trkpt lat="44.01422" lon="3.65049">
        <ele>310.9</ele>
        <time>2010-03-07T02:34:12Z</time>
      </trkpt>
      <trkpt lat="44.01446" lon="3.65057">
        <ele>313.8</ele>
        <time>2010-03-07T02:34:37Z</time>
      </trkpt>
      <trkpt lat="44.01478" lon="3.65059">
        <ele>320.2</ele>
        <time>2010-03-07T02:35:12Z</time>
      </trkpt>
      <trkpt lat="44.01504" lon="3.6507">
        <ele>323</ele>
        <time>2010-03-07T02:35:37Z</time>
      </trkpt>
      <trkpt lat="44.01516" lon="3.65071">
        <ele>324.9</ele>
        <time>2010-03-07T02:35:47Z</time>
      </trkpt>
      <trkpt lat="44.01519" lon="3.65069">
        <ele>326.2</ele>
        <time>2010-03-07T02:35:52Z</time>
      </trkpt>
      <trkpt lat="44.01548" lon="3.65071">
        <ele>329.9</ele>
        <time>2010-03-07T02:36:17Z</time>
      </trkpt>
      <trkpt lat="44.01558" lon="3.6507">
        <ele>332</ele>
        <time>2010-03-07T02:36:27Z</time>
      </trkpt>
      <trkpt lat="44.01565" lon="3.65072">
        <ele>333.8</ele>
        <time>2010-03-07T02:36:37Z</time>
      </trkpt>
      <trkpt lat="44.01558" lon="3.65072">
        <ele>331.6</ele>
        <time>2010-03-07T02:36:47Z</time>
      </trkpt>
      <trkpt lat="44.01547" lon="3.65061">
        <ele>332.7</ele>
        <time>2010-03-07T02:37:02Z</time>
      </trkpt>
      <trkpt lat="44.01528" lon="3.65048">
        <ele>334.8</ele>
        <time>2010-03-07T02:37:22Z</time>
      </trkpt>
      <trkpt lat="44.01508" lon="3.65031">
        <ele>337.3</ele>
        <time>2010-03-07T02:37:42Z</time>
      </trkpt>
      <trkpt lat="44.01476" lon="3.64997">
        <ele>342.4</ele>
        <time>2010-03-07T02:38:17Z</time>
      </trkpt>
      <trkpt lat="44.01467" lon="3.64985">
        <ele>344.4</ele>
        <time>2010-03-07T02:38:27Z</time>
      </trkpt>
      <trkpt lat="44.01469" lon="3.64978">
        <ele>347.7</ele>
        <time>2010-03-07T02:38:32Z</time>
      </trkpt>
      <trkpt lat="44.01478" lon="3.64983">
        <ele>348</ele>
        <time>2010-03-07T02:38:42Z</time>
      </trkpt>
      <trkpt lat="44.01482" lon="3.64983">
        <ele>349.1</ele>
        <time>2010-03-07T02:38:47Z</time>
      </trkpt>
      <trkpt lat="44.01518" lon="3.64996">
        <ele>352.1</ele>
        <time>2010-03-07T02:39:22Z</time>
      </trkpt>
      <trkpt lat="44.01527" lon="3.64995">
        <ele>353.2</ele>
        <time>2010-03-07T02:39:32Z</time>
      </trkpt>
      <trkpt lat="44.0154" lon="3.64999">
        <ele>353.6</ele>
        <time>2010-03-07T02:39:47Z</time>
      </trkpt>
      <trkpt lat="44.01557" lon="3.65">
        <ele>355.3</ele>
        <time>2010-03-07T02:40:02Z</time>
      </trkpt>
      <trkpt lat="44.01587" lon="3.64996">
        <ele>359.9</ele>
        <time>2010-03-07T02:40:32Z</time>
      </trkpt>
      <trkpt lat="44.01604" lon="3.64998">
        <ele>362</ele>
        <time>2010-03-07T02:40:47Z</time>
      </trkpt>
      <trkpt lat="44.01616" lon="3.64994">
        <ele>363.8</ele>
        <time>2010-03-07T02:41:02Z</time>
      </trkpt>
      <trkpt lat="44.01632" lon="3.64997">
        <ele>366.6</ele>
        <time>2010-03-07T02:41:17Z</time>
      </trkpt>
      <trkpt lat="44.01637" lon="3.64995">
        <ele>367.3</ele>
        <time>2010-03-07T02:41:22Z</time>
      </trkpt>
      <trkpt lat="44.01644" lon="3.64974">
        <ele>367</ele>
        <time>2010-03-07T02:41:32Z</time>
      </trkpt>
      <trkpt lat="44.0168" lon="3.64939">
        <ele>367</ele>
        <time>2010-03-07T02:41:57Z</time>
      </trkpt>
      <trkpt lat="44.01689" lon="3.64925">
        <ele>365.7</ele>
        <time>2010-03-07T02:42:02Z</time>
      </trkpt>
      <trkpt lat="44.01694" lon="3.64912">
        <ele>363.1</ele>
        <time>2010-03-07T02:42:07Z</time>
      </trkpt>
      <trkpt lat="44.01711" lon="3.64888">
        <ele>361.9</ele>
        <time>2010-03-07T02:42:17Z</time>
      </trkpt>
      <trkpt lat="44.01716" lon="3.64876">
        <ele>359.5</ele>
        <time>2010-03-07T02:42:22Z</time>
      </trkpt>
      <trkpt lat="44.0174" lon="3.64847">
        <ele>353.3</ele>
        <time>2010-03-07T02:42:37Z</time>
      </trkpt>
      <trkpt lat="44.01752" lon="3.64814">
        <ele>348.3</ele>
        <time>2010-03-07T02:42:52Z</time>
      </trkpt>
      <trkpt lat="44.01755" lon="3.648">
        <ele>346.7</ele>
        <time>2010-03-07T02:42:57Z</time>
      </trkpt>
      <trkpt lat="44.01766" lon="3.64776">
        <ele>345</ele>
        <time>2010-03-07T02:43:07Z</time>
      </trkpt>
      <trkpt lat="44.01788" lon="3.64751">
        <ele>343</ele>
        <time>2010-03-07T02:43:27Z</time>
      </trkpt>
      <trkpt lat="44.01827" lon="3.64719">
        <ele>341.3</ele>
        <time>2010-03-07T02:43:47Z</time>
      </trkpt>
      <trkpt lat="44.01842" lon="3.64701">
        <ele>337.9</ele>
        <time>2010-03-07T02:43:57Z</time>
      </trkpt>
      <trkpt lat="44.01859" lon="3.64687">
        <ele>337.8</ele>
        <time>2010-03-07T02:44:07Z</time>
      </trkpt>
      <trkpt lat="44.01858" lon="3.64673">
        <ele>332.8</ele>
        <time>2010-03-07T02:44:22Z</time>
      </trkpt>
      <trkpt lat="44.01864" lon="3.64664">
        <ele>333.5</ele>
        <time>2010-03-07T02:44:27Z</time>
      </trkpt>
      <trkpt lat="44.01852" lon="3.64633">
        <ele>327.6</ele>
        <time>2010-03-07T02:44:47Z</time>
      </trkpt>
      <trkpt lat="44.01843" lon="3.64584">
        <ele>327.6</ele>
        <time>2010-03-07T02:45:07Z</time>
      </trkpt>
      <trkpt lat="44.01843" lon="3.64557">
        <ele>327.4</ele>
        <time>2010-03-07T02:45:17Z</time>
      </trkpt>
      <trkpt lat="44.01853" lon="3.64517">
        <ele>321.7</ele>
        <time>2010-03-07T02:45:42Z</time>
      </trkpt>
      <trkpt lat="44.01867" lon="3.64507">
        <ele>321.5</ele>
        <time>2010-03-07T02:45:52Z</time>
      </trkpt>
      <trkpt lat="44.01884" lon="3.64488">
        <ele>317</ele>
        <time>2010-03-07T02:46:02Z</time>
      </trkpt>
      <trkpt lat="44.01895" lon="3.64482">
        <ele>316.1</ele>
        <time>2010-03-07T02:46:07Z</time>
      </trkpt>
      <trkpt lat="44.01908" lon="3.64466">
        <ele>310.6</ele>
        <time>2010-03-07T02:46:17Z</time>
      </trkpt>
      <trkpt lat="44.01919" lon="3.6446">
        <ele>309.3</ele>
        <time>2010-03-07T02:46:22Z</time>
      </trkpt>
      <trkpt lat="44.01926" lon="3.64454">
        <ele>307.1</ele>
        <time>2010-03-07T02:46:27Z</time>
      </trkpt>
      <trkpt lat="44.01928" lon="3.64446">
        <ele>303.9</ele>
        <time>2010-03-07T02:46:32Z</time>
      </trkpt>
      <trkpt lat="44.01938" lon="3.64445">
        <ele>305</ele>
        <time>2010-03-07T02:46:37Z</time>
      </trkpt>
      <trkpt lat="44.01947" lon="3.6444">
        <ele>304.4</ele>
        <time>2010-03-07T02:46:42Z</time>
      </trkpt>
      <trkpt lat="44.01953" lon="3.64424">
        <ele>298.3</ele>
        <time>2010-03-07T02:46:52Z</time>
      </trkpt>
      <trkpt lat="44.01961" lon="3.64421">
        <ele>299.9</ele>
        <time>2010-03-07T02:47:02Z</time>
      </trkpt>
      <trkpt lat="44.01961" lon="3.64416">
        <ele>297.8</ele>
        <time>2010-03-07T02:47:12Z</time>
      </trkpt>
      <trkpt lat="44.01964" lon="3.64415">
        <ele>297.8</ele>
        <time>2010-03-07T02:47:17Z</time>
      </trkpt>
      <trkpt lat="44.01962" lon="3.64412">
        <ele>295.8</ele>
        <time>2010-03-07T02:47:22Z</time>
      </trkpt>
      <trkpt lat="44.01968" lon="3.644">
        <ele>291.5</ele>
        <time>2010-03-07T02:47:32Z</time>
      </trkpt>
      <trkpt lat="44.01964" lon="3.64398">
        <ele>289.1</ele>
        <time>2010-03-07T02:47:37Z</time>
      </trkpt>
      <trkpt lat="44.0196" lon="3.64401">
        <ele>288.8</ele>
        <time>2010-03-07T02:47:42Z</time>
      </trkpt>
      <trkpt lat="44.01953" lon="3.64399">
        <ele>284.8</ele>
        <time>2010-03-07T02:47:52Z</time>
      </trkpt>
      <trkpt lat="44.01953" lon="3.64396">
        <ele>283.1</ele>
        <time>2010-03-07T02:47:57Z</time>
      </trkpt>
      <trkpt lat="44.0196" lon="3.64391">
        <ele>283.6</ele>
        <time>2010-03-07T02:48:07Z</time>
      </trkpt>
      <trkpt lat="44.01962" lon="3.64379">
        <ele>281.7</ele>
        <time>2010-03-07T02:48:27Z</time>
      </trkpt>
      <trkpt lat="44.0196" lon="3.64372">
        <ele>279.9</ele>
        <time>2010-03-07T02:48:32Z</time>
      </trkpt>
      <trkpt lat="44.01965" lon="3.64367">
        <ele>280.2</ele>
        <time>2010-03-07T02:48:47Z</time>
      </trkpt>
      <trkpt lat="44.01967" lon="3.64349">
        <ele>278.8</ele>
        <time>2010-03-07T02:49:02Z</time>
      </trkpt>
      <trkpt lat="44.01971" lon="3.64346">
        <ele>278.8</ele>
        <time>2010-03-07T02:49:07Z</time>
      </trkpt>
      <trkpt lat="44.01974" lon="3.64332">
        <ele>278.3</ele>
        <time>2010-03-07T02:49:17Z</time>
      </trkpt>
      <trkpt lat="44.0197" lon="3.64322">
        <ele>278.1</ele>
        <time>2010-03-07T02:49:22Z</time>
      </trkpt>
      <trkpt lat="44.01959" lon="3.64316">
        <ele>278.5</ele>
        <time>2010-03-07T02:49:32Z</time>
      </trkpt>
      <trkpt lat="44.01951" lon="3.64315">
        <ele>278.8</ele>
        <time>2010-03-07T02:49:42Z</time>
      </trkpt>
      <trkpt lat="44.01948" lon="3.64311">
        <ele>278.9</ele>
        <time>2010-03-07T02:49:47Z</time>
      </trkpt>
      <trkpt lat="44.01955" lon="3.64301">
        <ele>278.9</ele>
        <time>2010-03-07T02:49:57Z</time>
      </trkpt>
      <trkpt lat="44.01959" lon="3.64293">
        <ele>279.7</ele>
        <time>2010-03-07T02:50:02Z</time>
      </trkpt>
      <trkpt lat="44.01955" lon="3.64266">
        <ele>281.7</ele>
        <time>2010-03-07T02:50:22Z</time>
      </trkpt>
      <trkpt lat="44.01971" lon="3.64256">
        <ele>285.8</ele>
        <time>2010-03-07T02:50:42Z</time>
      </trkpt>
      <trkpt lat="44.01973" lon="3.64258">
        <ele>285.8</ele>
        <time>2010-03-07T02:50:47Z</time>
      </trkpt>
      <trkpt lat="44.01976" lon="3.64252">
        <ele>286.8</ele>
        <time>2010-03-07T02:50:52Z</time>
      </trkpt>
      <trkpt lat="44.0196" lon="3.64233">
        <ele>285.4</ele>
        <time>2010-03-07T02:50:57Z</time>
      </trkpt>
      <trkpt lat="44.01956" lon="3.64221">
        <ele>284.7</ele>
        <time>2010-03-07T02:51:02Z</time>
      </trkpt>
      <trkpt lat="44.01962" lon="3.6421">
        <ele>285.4</ele>
        <time>2010-03-07T02:51:12Z</time>
      </trkpt>
      <trkpt lat="44.01968" lon="3.64216">
        <ele>288.1</ele>
        <time>2010-03-07T02:51:17Z</time>
      </trkpt>
      <trkpt lat="44.0198" lon="3.64219">
        <ele>291.1</ele>
        <time>2010-03-07T02:51:27Z</time>
      </trkpt>
      <trkpt lat="44.01989" lon="3.6423">
        <ele>291.4</ele>
        <time>2010-03-07T02:51:32Z</time>
      </trkpt>
      <trkpt lat="44.01993" lon="3.64238">
        <ele>290</ele>
        <time>2010-03-07T02:51:37Z</time>
      </trkpt>
      <trkpt lat="44.01991" lon="3.64236">
        <ele>290.3</ele>
        <time>2010-03-07T02:51:42Z</time>
      </trkpt>
      <trkpt lat="44.02" lon="3.64235">
        <ele>291.4</ele>
        <time>2010-03-07T02:51:52Z</time>
      </trkpt>
      <trkpt lat="44.02008" lon="3.64211">
        <ele>294.8</ele>
        <time>2010-03-07T02:52:12Z</time>
      </trkpt>
      <trkpt lat="44.02019" lon="3.64203">
        <ele>296.2</ele>
        <time>2010-03-07T02:52:27Z</time>
      </trkpt>
      <trkpt lat="44.02042" lon="3.64176">
        <ele>299.4</ele>
        <time>2010-03-07T02:52:52Z</time>
      </trkpt>
      <trkpt lat="44.02052" lon="3.64172">
        <ele>302.4</ele>
        <time>2010-03-07T02:53:02Z</time>
      </trkpt>
      <trkpt lat="44.02056" lon="3.64168">
        <ele>304.7</ele>
        <time>2010-03-07T02:53:07Z</time>
      </trkpt>
      <trkpt lat="44.02084" lon="3.64154">
        <ele>301.5</ele>
        <time>2010-03-07T02:53:27Z</time>
      </trkpt>
      <trkpt lat="44.02114" lon="3.64145">
        <ele>301.6</ele>
        <time>2010-03-07T02:53:42Z</time>
      </trkpt>
      <trkpt lat="44.02147" lon="3.6415">
        <ele>311</ele>
        <time>2010-03-07T02:54:17Z</time>
      </trkpt>
      <trkpt lat="44.02156" lon="3.64157">
        <ele>312.9</ele>
        <time>2010-03-07T02:54:27Z</time>
      </trkpt>
      <trkpt lat="44.02168" lon="3.64163">
        <ele>316.6</ele>
        <time>2010-03-07T02:54:42Z</time>
      </trkpt>
      <trkpt lat="44.02184" lon="3.64165">
        <ele>320.5</ele>
        <time>2010-03-07T02:55:02Z</time>
      </trkpt>
      <trkpt lat="44.02201" lon="3.64174">
        <ele>321.3</ele>
        <time>2010-03-07T02:55:22Z</time>
      </trkpt>
      <trkpt lat="44.02208" lon="3.64173">
        <ele>322.5</ele>
        <time>2010-03-07T02:55:27Z</time>
      </trkpt>
      <trkpt lat="44.02212" lon="3.64175">
        <ele>322.1</ele>
        <time>2010-03-07T02:55:32Z</time>
      </trkpt>
      <trkpt lat="44.02226" lon="3.6417">
        <ele>325.8</ele>
        <time>2010-03-07T02:55:42Z</time>
      </trkpt>
      <trkpt lat="44.02262" lon="3.6417">
        <ele>324.7</ele>
        <time>2010-03-07T02:56:17Z</time>
      </trkpt>
      <trkpt lat="44.02283" lon="3.64159">
        <ele>330.7</ele>
        <time>2010-03-07T02:56:42Z</time>
      </trkpt>
      <trkpt lat="44.02287" lon="3.6416">
        <ele>330.7</ele>
        <time>2010-03-07T02:56:52Z</time>
      </trkpt>
      <trkpt lat="44.02275" lon="3.64166">
        <ele>327.1</ele>
        <time>2010-03-07T02:57:07Z</time>
      </trkpt>
      <trkpt lat="44.02262" lon="3.64177">
        <ele>321.1</ele>
        <time>2010-03-07T02:57:22Z</time>
      </trkpt>
      <trkpt lat="44.02244" lon="3.64177">
        <ele>321.3</ele>
        <time>2010-03-07T02:57:37Z</time>
      </trkpt>
      <trkpt lat="44.02232" lon="3.64179">
        <ele>320.9</ele>
        <time>2010-03-07T02:57:47Z</time>
      </trkpt>
      <trkpt lat="44.02227" lon="3.64175">
        <ele>323.5</ele>
        <time>2010-03-07T02:57:52Z</time>
      </trkpt>
      <trkpt lat="44.02213" lon="3.6418">
        <ele>320.2</ele>
        <time>2010-03-07T02:58:07Z</time>
      </trkpt>
      <trkpt lat="44.022" lon="3.64178">
        <ele>319.5</ele>
        <time>2010-03-07T02:58:22Z</time>
      </trkpt>
      <trkpt lat="44.02195" lon="3.64174">
        <ele>320.6</ele>
        <time>2010-03-07T02:58:32Z</time>
      </trkpt>
      <trkpt lat="44.02196" lon="3.6417">
        <ele>321.9</ele>
        <time>2010-03-07T02:58:42Z</time>
      </trkpt>
      <trkpt lat="44.02191" lon="3.64159">
        <ele>322.9</ele>
        <time>2010-03-07T02:58:57Z</time>
      </trkpt>
      <trkpt lat="44.02194" lon="3.64147">
        <ele>325.1</ele>
        <time>2010-03-07T02:59:07Z</time>
      </trkpt>
      <trkpt lat="44.022" lon="3.64155">
        <ele>325.2</ele>
        <time>2010-03-07T02:59:22Z</time>
      </trkpt>
      <trkpt lat="44.02204" lon="3.64158">
        <ele>325.7</ele>
        <time>2010-03-07T02:59:27Z</time>
      </trkpt>
      <trkpt lat="44.02213" lon="3.64155">
        <ele>327.5</ele>
        <time>2010-03-07T02:59:37Z</time>
      </trkpt>
      <trkpt lat="44.0222" lon="3.64148">
        <ele>329.6</ele>
        <time>2010-03-07T02:59:47Z</time>
      </trkpt>
      <trkpt lat="44.02231" lon="3.64152">
        <ele>329.9</ele>
        <time>2010-03-07T03:00:02Z</time>
      </trkpt>
      <trkpt lat="44.02239" lon="3.64145">
        <ele>331.6</ele>
        <time>2010-03-07T03:00:12Z</time>
      </trkpt>
      <trkpt lat="44.02255" lon="3.64139">
        <ele>334.8</ele>
        <time>2010-03-07T03:00:27Z</time>
      </trkpt>
      <trkpt lat="44.02259" lon="3.64133">
        <ele>333.3</ele>
        <time>2010-03-07T03:00:32Z</time>
      </trkpt>
      <trkpt lat="44.02272" lon="3.64132">
        <ele>336.6</ele>
        <time>2010-03-07T03:00:42Z</time>
      </trkpt>
      <trkpt lat="44.02287" lon="3.64126">
        <ele>340</ele>
        <time>2010-03-07T03:01:02Z</time>
      </trkpt>
      <trkpt lat="44.02298" lon="3.64128">
        <ele>343</ele>
        <time>2010-03-07T03:01:17Z</time>
      </trkpt>
      <trkpt lat="44.02297" lon="3.64127">
        <ele>342.9</ele>
        <time>2010-03-07T03:01:22Z</time>
      </trkpt>
      <trkpt lat="44.02304" lon="3.64109">
        <ele>347.5</ele>
        <time>2010-03-07T03:01:37Z</time>
      </trkpt>
      <trkpt lat="44.0231" lon="3.64101">
        <ele>348.4</ele>
        <time>2010-03-07T03:01:47Z</time>
      </trkpt>
      <trkpt lat="44.02316" lon="3.64081">
        <ele>345.9</ele>
        <time>2010-03-07T03:02:02Z</time>
      </trkpt>
      <trkpt lat="44.02321" lon="3.64078">
        <ele>347</ele>
        <time>2010-03-07T03:02:07Z</time>
      </trkpt>
      <trkpt lat="44.02345" lon="3.64045">
        <ele>354.5</ele>
        <time>2010-03-07T03:02:32Z</time>
      </trkpt>
      <trkpt lat="44.0235" lon="3.64023">
        <ele>357.3</ele>
        <time>2010-03-07T03:02:47Z</time>
      </trkpt>
      <trkpt lat="44.0235" lon="3.64016">
        <ele>358.2</ele>
        <time>2010-03-07T03:02:52Z</time>
      </trkpt>
      <trkpt lat="44.02355" lon="3.63987">
        <ele>366.2</ele>
        <time>2010-03-07T03:03:17Z</time>
      </trkpt>
      <trkpt lat="44.02353" lon="3.63977">
        <ele>366.8</ele>
        <time>2010-03-07T03:03:27Z</time>
      </trkpt>
      <trkpt lat="44.02354" lon="3.63959">
        <ele>369.6</ele>
        <time>2010-03-07T03:03:42Z</time>
      </trkpt>
      <trkpt lat="44.02356" lon="3.63947">
        <ele>372.6</ele>
        <time>2010-03-07T03:03:52Z</time>
      </trkpt>
      <trkpt lat="44.02355" lon="3.63938">
        <ele>372.8</ele>
        <time>2010-03-07T03:04:02Z</time>
      </trkpt>
      <trkpt lat="44.02356" lon="3.63928">
        <ele>374.7</ele>
        <time>2010-03-07T03:04:12Z</time>
      </trkpt>
      <trkpt lat="44.02358" lon="3.63922">
        <ele>377.2</ele>
        <time>2010-03-07T03:04:17Z</time>
      </trkpt>
      <trkpt lat="44.02362" lon="3.639">
        <ele>381.7</ele>
        <time>2010-03-07T03:04:42Z</time>
      </trkpt>
      <trkpt lat="44.02361" lon="3.6389">
        <ele>381.6</ele>
        <time>2010-03-07T03:04:57Z</time>
      </trkpt>
      <trkpt lat="44.02363" lon="3.63887">
        <ele>382.6</ele>
        <time>2010-03-07T03:05:02Z</time>
      </trkpt>
      <trkpt lat="44.02363" lon="3.63875">
        <ele>380.6</ele>
        <time>2010-03-07T03:05:12Z</time>
      </trkpt>
      <trkpt lat="44.02372" lon="3.63861">
        <ele>381.1</ele>
        <time>2010-03-07T03:05:37Z</time>
      </trkpt>
      <trkpt lat="44.02384" lon="3.63861">
        <ele>384.6</ele>
        <time>2010-03-07T03:05:47Z</time>
      </trkpt>
      <trkpt lat="44.0239" lon="3.63859">
        <ele>384.8</ele>
        <time>2010-03-07T03:05:52Z</time>
      </trkpt>
      <trkpt lat="44.02397" lon="3.6386">
        <ele>386.6</ele>
        <time>2010-03-07T03:05:57Z</time>
      </trkpt>
      <trkpt lat="44.02412" lon="3.63854">
        <ele>387.4</ele>
        <time>2010-03-07T03:06:07Z</time>
      </trkpt>
      <trkpt lat="44.02427" lon="3.63828">
        <ele>386.1</ele>
        <time>2010-03-07T03:06:22Z</time>
      </trkpt>
      <trkpt lat="44.02429" lon="3.63823">
        <ele>385.7</ele>
        <time>2010-03-07T03:06:27Z</time>
      </trkpt>
      <trkpt lat="44.02436" lon="3.63817">
        <ele>388.7</ele>
        <time>2010-03-07T03:06:37Z</time>
      </trkpt>
      <trkpt lat="44.02453" lon="3.63785">
        <ele>397.1</ele>
        <time>2010-03-07T03:07:07Z</time>
      </trkpt>
      <trkpt lat="44.02457" lon="3.6377">
        <ele>400.3</ele>
        <time>2010-03-07T03:07:22Z</time>
      </trkpt>
      <trkpt lat="44.02459" lon="3.63755">
        <ele>402.6</ele>
        <time>2010-03-07T03:07:37Z</time>
      </trkpt>
      <trkpt lat="44.02462" lon="3.63746">
        <ele>405.1</ele>
        <time>2010-03-07T03:07:52Z</time>
      </trkpt>
      <trkpt lat="44.02476" lon="3.63727">
        <ele>409.4</ele>
        <time>2010-03-07T03:08:22Z</time>
      </trkpt>
      <trkpt lat="44.0248" lon="3.63711">
        <ele>411.4</ele>
        <time>2010-03-07T03:08:37Z</time>
      </trkpt>
      <trkpt lat="44.02471" lon="3.63688">
        <ele>413.1</ele>
        <time>2010-03-07T03:09:02Z</time>
      </trkpt>
      <trkpt lat="44.0247" lon="3.63681">
        <ele>414.2</ele>
        <time>2010-03-07T03:09:07Z</time>
      </trkpt>
      <trkpt lat="44.02481" lon="3.63666">
        <ele>420.7</ele>
        <time>2010-03-07T03:09:27Z</time>
      </trkpt>
      <trkpt lat="44.02494" lon="3.63618">
        <ele>424.1</ele>
        <time>2010-03-07T03:10:02Z</time>
      </trkpt>
      <trkpt lat="44.02494" lon="3.63607">
        <ele>423.7</ele>
        <time>2010-03-07T03:10:07Z</time>
      </trkpt>
      <trkpt lat="44.02487" lon="3.63581">
        <ele>423.4</ele>
        <time>2010-03-07T03:10:17Z</time>
      </trkpt>
      <trkpt lat="44.0248" lon="3.63571">
        <ele>423.3</ele>
        <time>2010-03-07T03:10:22Z</time>
      </trkpt>
      <trkpt lat="44.02475" lon="3.63553">
        <ele>424.4</ele>
        <time>2010-03-07T03:10:32Z</time>
      </trkpt>
      <trkpt lat="44.02474" lon="3.63541">
        <ele>424.4</ele>
        <time>2010-03-07T03:10:37Z</time>
      </trkpt>
      <trkpt lat="44.02476" lon="3.63529">
        <ele>425.3</ele>
        <time>2010-03-07T03:10:42Z</time>
      </trkpt>
      <trkpt lat="44.0248" lon="3.63468">
        <ele>427.5</ele>
        <time>2010-03-07T03:11:07Z</time>
      </trkpt>
      <trkpt lat="44.02488" lon="3.63445">
        <ele>428</ele>
        <time>2010-03-07T03:11:17Z</time>
      </trkpt>
      <trkpt lat="44.02504" lon="3.6343">
        <ele>428.7</ele>
        <time>2010-03-07T03:11:27Z</time>
      </trkpt>
      <trkpt lat="44.02521" lon="3.634">
        <ele>428.8</ele>
        <time>2010-03-07T03:11:47Z</time>
      </trkpt>
      <trkpt lat="44.0253" lon="3.6339">
        <ele>431</ele>
        <time>2010-03-07T03:11:57Z</time>
      </trkpt>
      <trkpt lat="44.02547" lon="3.63346">
        <ele>430.3</ele>
        <time>2010-03-07T03:12:17Z</time>
      </trkpt>
      <trkpt lat="44.02558" lon="3.63325">
        <ele>429.9</ele>
        <time>2010-03-07T03:12:27Z</time>
      </trkpt>
      <trkpt lat="44.0256" lon="3.63311">
        <ele>427.9</ele>
        <time>2010-03-07T03:12:32Z</time>
      </trkpt>
      <trkpt lat="44.02558" lon="3.63281">
        <ele>426.6</ele>
        <time>2010-03-07T03:12:52Z</time>
      </trkpt>
      <trkpt lat="44.02554" lon="3.63268">
        <ele>425.1</ele>
        <time>2010-03-07T03:12:57Z</time>
      </trkpt>
      <trkpt lat="44.02555" lon="3.6325">
        <ele>425.6</ele>
        <time>2010-03-07T03:13:02Z</time>
      </trkpt>
      <trkpt lat="44.02559" lon="3.63234">
        <ele>424.9</ele>
        <time>2010-03-07T03:13:07Z</time>
      </trkpt>
      <trkpt lat="44.02567" lon="3.63224">
        <ele>425.1</ele>
        <time>2010-03-07T03:13:12Z</time>
      </trkpt>
      <trkpt lat="44.02576" lon="3.63216">
        <ele>424.1</ele>
        <time>2010-03-07T03:13:17Z</time>
      </trkpt>
      <trkpt lat="44.02595" lon="3.6322">
        <ele>427.7</ele>
        <time>2010-03-07T03:13:27Z</time>
      </trkpt>
      <trkpt lat="44.02608" lon="3.63219">
        <ele>428.7</ele>
        <time>2010-03-07T03:13:37Z</time>
      </trkpt>
      <trkpt lat="44.0261" lon="3.63211">
        <ele>428.4</ele>
        <time>2010-03-07T03:13:47Z</time>
      </trkpt>
      <trkpt lat="44.02609" lon="3.63212">
        <ele>428.2</ele>
        <time>2010-03-07T03:13:52Z</time>
      </trkpt>
      <trkpt lat="44.02613" lon="3.63207">
        <ele>428.8</ele>
        <time>2010-03-07T03:13:57Z</time>
      </trkpt>
      <trkpt lat="44.02616" lon="3.63205">
        <ele>429.6</ele>
        <time>2010-03-07T03:14:02Z</time>
      </trkpt>
      <trkpt lat="44.02613" lon="3.63203">
        <ele>428.8</ele>
        <time>2010-03-07T03:14:17Z</time>
      </trkpt>
      <trkpt lat="44.02607" lon="3.63205">
        <ele>427.4</ele>
        <time>2010-03-07T03:14:27Z</time>
      </trkpt>
      <trkpt lat="44.02609" lon="3.63204">
        <ele>427.7</ele>
        <time>2010-03-07T03:14:32Z</time>
      </trkpt>
      <trkpt lat="44.02613" lon="3.63209">
        <ele>428.9</ele>
        <time>2010-03-07T03:14:47Z</time>
      </trkpt>
      <trkpt lat="44.02612" lon="3.63182">
        <ele>428.2</ele>
        <time>2010-03-07T03:15:12Z</time>
      </trkpt>
      <trkpt lat="44.02614" lon="3.63173">
        <ele>428.7</ele>
        <time>2010-03-07T03:15:17Z</time>
      </trkpt>
      <trkpt lat="44.02623" lon="3.63155">
        <ele>427.4</ele>
        <time>2010-03-07T03:15:27Z</time>
      </trkpt>
      <trkpt lat="44.02621" lon="3.63151">
        <ele>426</ele>
        <time>2010-03-07T03:15:37Z</time>
      </trkpt>
      <trkpt lat="44.02612" lon="3.63153">
        <ele>424.6</ele>
        <time>2010-03-07T03:15:52Z</time>
      </trkpt>
      <trkpt lat="44.02606" lon="3.63144">
        <ele>420.4</ele>
        <time>2010-03-07T03:15:57Z</time>
      </trkpt>
      <trkpt lat="44.02599" lon="3.63118">
        <ele>416.1</ele>
        <time>2010-03-07T03:16:07Z</time>
      </trkpt>
      <trkpt lat="44.02587" lon="3.63105">
        <ele>419.1</ele>
        <time>2010-03-07T03:16:17Z</time>
      </trkpt>
      <trkpt lat="44.02589" lon="3.631">
        <ele>421.2</ele>
        <time>2010-03-07T03:16:22Z</time>
      </trkpt>
      <trkpt lat="44.02602" lon="3.63089">
        <ele>424.3</ele>
        <time>2010-03-07T03:16:37Z</time>
      </trkpt>
      <trkpt lat="44.02611" lon="3.63086">
        <ele>424.9</ele>
        <time>2010-03-07T03:16:47Z</time>
      </trkpt>
      <trkpt lat="44.02621" lon="3.63077">
        <ele>427.5</ele>
        <time>2010-03-07T03:16:57Z</time>
      </trkpt>
      <trkpt lat="44.0265" lon="3.63066">
        <ele>428.7</ele>
        <time>2010-03-07T03:17:17Z</time>
      </trkpt>
      <trkpt lat="44.02653" lon="3.63058">
        <ele>430.9</ele>
        <time>2010-03-07T03:17:22Z</time>
      </trkpt>
      <trkpt lat="44.02655" lon="3.63047">
        <ele>433</ele>
        <time>2010-03-07T03:17:32Z</time>
      </trkpt>
      <trkpt lat="44.02638" lon="3.63039">
        <ele>437.7</ele>
        <time>2010-03-07T03:17:57Z</time>
      </trkpt>
      <trkpt lat="44.02626" lon="3.63038">
        <ele>438.6</ele>
        <time>2010-03-07T03:18:12Z</time>
      </trkpt>
      <trkpt lat="44.02624" lon="3.63033">
        <ele>439.9</ele>
        <time>2010-03-07T03:18:17Z</time>
      </trkpt>
      <trkpt lat="44.02624" lon="3.63027">
        <ele>441.2</ele>
        <time>2010-03-07T03:18:22Z</time>
      </trkpt>
      <trkpt lat="44.02622" lon="3.63021">
        <ele>442.2</ele>
        <time>2010-03-07T03:18:27Z</time>
      </trkpt>
      <trkpt lat="44.02625" lon="3.63013">
        <ele>443.2</ele>
        <time>2010-03-07T03:18:32Z</time>
      </trkpt>
      <trkpt lat="44.02615" lon="3.63005">
        <ele>445.7</ele>
        <time>2010-03-07T03:18:42Z</time>
      </trkpt>
      <trkpt lat="44.02606" lon="3.63004">
        <ele>446.4</ele>
        <time>2010-03-07T03:18:52Z</time>
      </trkpt>
      <trkpt lat="44.02603" lon="3.62999">
        <ele>447.6</ele>
        <time>2010-03-07T03:18:57Z</time>
      </trkpt>
      <trkpt lat="44.0261" lon="3.62984">
        <ele>450</ele>
        <time>2010-03-07T03:19:07Z</time>
      </trkpt>
      <trkpt lat="44.0262" lon="3.62973">
        <ele>450.3</ele>
        <time>2010-03-07T03:19:17Z</time>
      </trkpt>
      <trkpt lat="44.02623" lon="3.62972">
        <ele>449.9</ele>
        <time>2010-03-07T03:19:27Z</time>
      </trkpt>
      <trkpt lat="44.02656" lon="3.62933">
        <ele>454.8</ele>
        <time>2010-03-07T03:20:02Z</time>
      </trkpt>
      <trkpt lat="44.0266" lon="3.62926">
        <ele>456.1</ele>
        <time>2010-03-07T03:20:07Z</time>
      </trkpt>
      <trkpt lat="44.02659" lon="3.62922">
        <ele>457.4</ele>
        <time>2010-03-07T03:20:12Z</time>
      </trkpt>
      <trkpt lat="44.0265" lon="3.62924">
        <ele>457.5</ele>
        <time>2010-03-07T03:20:22Z</time>
      </trkpt>
      <trkpt lat="44.02644" lon="3.62923">
        <ele>458.3</ele>
        <time>2010-03-07T03:20:27Z</time>
      </trkpt>
      <trkpt lat="44.02633" lon="3.62924">
        <ele>459.3</ele>
        <time>2010-03-07T03:20:37Z</time>
      </trkpt>
      <trkpt lat="44.02594" lon="3.6291">
        <ele>467.4</ele>
        <time>2010-03-07T03:21:17Z</time>
      </trkpt>
      <trkpt lat="44.02583" lon="3.62901">
        <ele>470.5</ele>
        <time>2010-03-07T03:21:32Z</time>
      </trkpt>
      <trkpt lat="44.02552" lon="3.62883">
        <ele>473.5</ele>
        <time>2010-03-07T03:21:52Z</time>
      </trkpt>
      <trkpt lat="44.02541" lon="3.6288">
        <ele>473.4</ele>
        <time>2010-03-07T03:21:57Z</time>
      </trkpt>
      <trkpt lat="44.02499" lon="3.62859">
        <ele>475.5</ele>
        <time>2010-03-07T03:22:22Z</time>
      </trkpt>
      <trkpt lat="44.02466" lon="3.62849">
        <ele>478.5</ele>
        <time>2010-03-07T03:22:42Z</time>
      </trkpt>
      <trkpt lat="44.02442" lon="3.62838">
        <ele>479.5</ele>
        <time>2010-03-07T03:22:57Z</time>
      </trkpt>
      <trkpt lat="44.02434" lon="3.62837">
        <ele>479.4</ele>
        <time>2010-03-07T03:23:02Z</time>
      </trkpt>
      <trkpt lat="44.02418" lon="3.62828">
        <ele>480.9</ele>
        <time>2010-03-07T03:23:12Z</time>
      </trkpt>
      <trkpt lat="44.02391" lon="3.62824">
        <ele>481.3</ele>
        <time>2010-03-07T03:23:27Z</time>
      </trkpt>
      <trkpt lat="44.02383" lon="3.6282">
        <ele>482</ele>
        <time>2010-03-07T03:23:32Z</time>
      </trkpt>
      <trkpt lat="44.0237" lon="3.62807">
        <ele>483.8</ele>
        <time>2010-03-07T03:23:42Z</time>
      </trkpt>
      <trkpt lat="44.02362" lon="3.62805">
        <ele>484.1</ele>
        <time>2010-03-07T03:23:47Z</time>
      </trkpt>
      <trkpt lat="44.02314" lon="3.62769">
        <ele>486.7</ele>
        <time>2010-03-07T03:24:17Z</time>
      </trkpt>
      <trkpt lat="44.0228" lon="3.62737">
        <ele>489.5</ele>
        <time>2010-03-07T03:24:42Z</time>
      </trkpt>
      <trkpt lat="44.0226" lon="3.62715">
        <ele>490.7</ele>
        <time>2010-03-07T03:24:57Z</time>
      </trkpt>
      <trkpt lat="44.02251" lon="3.62709">
        <ele>490.2</ele>
        <time>2010-03-07T03:25:02Z</time>
      </trkpt>
      <trkpt lat="44.02243" lon="3.62707">
        <ele>491.5</ele>
        <time>2010-03-07T03:25:07Z</time>
      </trkpt>
      <trkpt lat="44.02232" lon="3.62717">
        <ele>494.3</ele>
        <time>2010-03-07T03:25:17Z</time>
      </trkpt>
      <trkpt lat="44.02232" lon="3.62726">
        <ele>494.8</ele>
        <time>2010-03-07T03:25:22Z</time>
      </trkpt>
      <trkpt lat="44.02237" lon="3.62731">
        <ele>493.5</ele>
        <time>2010-03-07T03:25:27Z</time>
      </trkpt>
      <trkpt lat="44.02241" lon="3.62739">
        <ele>492.4</ele>
        <time>2010-03-07T03:25:32Z</time>
      </trkpt>
      <trkpt lat="44.02245" lon="3.62762">
        <ele>491.6</ele>
        <time>2010-03-07T03:25:42Z</time>
      </trkpt>
      <trkpt lat="44.02243" lon="3.62819">
        <ele>494.5</ele>
        <time>2010-03-07T03:26:02Z</time>
      </trkpt>
      <trkpt lat="44.02238" lon="3.62831">
        <ele>495.2</ele>
        <time>2010-03-07T03:26:07Z</time>
      </trkpt>
      <trkpt lat="44.0223" lon="3.62839">
        <ele>496.6</ele>
        <time>2010-03-07T03:26:12Z</time>
      </trkpt>
      <trkpt lat="44.0222" lon="3.62844">
        <ele>497.8</ele>
        <time>2010-03-07T03:26:17Z</time>
      </trkpt>
      <trkpt lat="44.0221" lon="3.62845">
        <ele>498.2</ele>
        <time>2010-03-07T03:26:22Z</time>
      </trkpt>
      <trkpt lat="44.02201" lon="3.6284">
        <ele>498.7</ele>
        <time>2010-03-07T03:26:27Z</time>
      </trkpt>
      <trkpt lat="44.02186" lon="3.62826">
        <ele>499</ele>
        <time>2010-03-07T03:26:37Z</time>
      </trkpt>
      <trkpt lat="44.02181" lon="3.62816">
        <ele>499.2</ele>
        <time>2010-03-07T03:26:42Z</time>
      </trkpt>
      <trkpt lat="44.02169" lon="3.62781">
        <ele>501.1</ele>
        <time>2010-03-07T03:26:57Z</time>
      </trkpt>
      <trkpt lat="44.02164" lon="3.6276">
        <ele>503.1</ele>
        <time>2010-03-07T03:27:07Z</time>
      </trkpt>
      <trkpt lat="44.02154" lon="3.62741">
        <ele>504.2</ele>
        <time>2010-03-07T03:27:17Z</time>
      </trkpt>
      <trkpt lat="44.02157" lon="3.62702">
        <ele>506.7</ele>
        <time>2010-03-07T03:27:32Z</time>
      </trkpt>
      <trkpt lat="44.02168" lon="3.62671">
        <ele>506.8</ele>
        <time>2010-03-07T03:27:47Z</time>
      </trkpt>
      <trkpt lat="44.0217" lon="3.62662">
        <ele>506.5</ele>
        <time>2010-03-07T03:27:52Z</time>
      </trkpt>
      <trkpt lat="44.02169" lon="3.62648">
        <ele>506.8</ele>
        <time>2010-03-07T03:27:57Z</time>
      </trkpt>
      <trkpt lat="44.02171" lon="3.62664">
        <ele>506.3</ele>
        <time>2010-03-07T03:28:12Z</time>
      </trkpt>
      <trkpt lat="44.02167" lon="3.62681">
        <ele>507</ele>
        <time>2010-03-07T03:28:17Z</time>
      </trkpt>
      <trkpt lat="44.0216" lon="3.62684">
        <ele>506.8</ele>
        <time>2010-03-07T03:28:22Z</time>
      </trkpt>
      <trkpt lat="44.02149" lon="3.62679">
        <ele>506.7</ele>
        <time>2010-03-07T03:28:27Z</time>
      </trkpt>
      <trkpt lat="44.0214" lon="3.62669">
        <ele>506.9</ele>
        <time>2010-03-07T03:28:32Z</time>
      </trkpt>
      <trkpt lat="44.0214" lon="3.62656">
        <ele>507</ele>
        <time>2010-03-07T03:28:37Z</time>
      </trkpt>
      <trkpt lat="44.02134" lon="3.62645">
        <ele>506.4</ele>
        <time>2010-03-07T03:28:42Z</time>
      </trkpt>
      <trkpt lat="44.02119" lon="3.62627">
        <ele>505.8</ele>
        <time>2010-03-07T03:28:52Z</time>
      </trkpt>
      <trkpt lat="44.0211" lon="3.62619">
        <ele>505.3</ele>
        <time>2010-03-07T03:28:57Z</time>
      </trkpt>
      <trkpt lat="44.02061" lon="3.62586">
        <ele>505</ele>
        <time>2010-03-07T03:29:22Z</time>
      </trkpt>
      <trkpt lat="44.0203" lon="3.62568">
        <ele>504.7</ele>
        <time>2010-03-07T03:29:37Z</time>
      </trkpt>
      <trkpt lat="44.0201" lon="3.62553">
        <ele>504.4</ele>
        <time>2010-03-07T03:29:47Z</time>
      </trkpt>
      <trkpt lat="44.02002" lon="3.62545">
        <ele>504.1</ele>
        <time>2010-03-07T03:29:52Z</time>
      </trkpt>
      <trkpt lat="44.01995" lon="3.62541">
        <ele>503.2</ele>
        <time>2010-03-07T03:29:57Z</time>
      </trkpt>
      <trkpt lat="44.0199" lon="3.6257">
        <ele>501.7</ele>
        <time>2010-03-07T03:30:12Z</time>
      </trkpt>
      <trkpt lat="44.01987" lon="3.62581">
        <ele>500.8</ele>
        <time>2010-03-07T03:30:17Z</time>
      </trkpt>
      <trkpt lat="44.01974" lon="3.62606">
        <ele>495.7</ele>
        <time>2010-03-07T03:30:32Z</time>
      </trkpt>
      <trkpt lat="44.0197" lon="3.6261">
        <ele>494.7</ele>
        <time>2010-03-07T03:30:37Z</time>
      </trkpt>
      <trkpt lat="44.01962" lon="3.62604">
        <ele>493.5</ele>
        <time>2010-03-07T03:30:42Z</time>
      </trkpt>
      <trkpt lat="44.01951" lon="3.6259">
        <ele>491.5</ele>
        <time>2010-03-07T03:30:52Z</time>
      </trkpt>
      <trkpt lat="44.01942" lon="3.62573">
        <ele>489.6</ele>
        <time>2010-03-07T03:31:02Z</time>
      </trkpt>
      <trkpt lat="44.01935" lon="3.62569">
        <ele>488.3</ele>
        <time>2010-03-07T03:31:07Z</time>
      </trkpt>
      <trkpt lat="44.0193" lon="3.6256">
        <ele>487</ele>
        <time>2010-03-07T03:31:12Z</time>
      </trkpt>
      <trkpt lat="44.01924" lon="3.62541">
        <ele>485.2</ele>
        <time>2010-03-07T03:31:22Z</time>
      </trkpt>
      <trkpt lat="44.01913" lon="3.62542">
        <ele>483</ele>
        <time>2010-03-07T03:31:27Z</time>
      </trkpt>
      <trkpt lat="44.01903" lon="3.62549">
        <ele>482.4</ele>
        <time>2010-03-07T03:31:32Z</time>
      </trkpt>
      <trkpt lat="44.01893" lon="3.62567">
        <ele>481.4</ele>
        <time>2010-03-07T03:31:42Z</time>
      </trkpt>
      <trkpt lat="44.0189" lon="3.62577">
        <ele>480</ele>
        <time>2010-03-07T03:31:47Z</time>
      </trkpt>
      <trkpt lat="44.01882" lon="3.62577">
        <ele>476.5</ele>
        <time>2010-03-07T03:31:52Z</time>
      </trkpt>
      <trkpt lat="44.01874" lon="3.62573">
        <ele>473.3</ele>
        <time>2010-03-07T03:31:57Z</time>
      </trkpt>
      <trkpt lat="44.01871" lon="3.62569">
        <ele>472.5</ele>
        <time>2010-03-07T03:32:02Z</time>
      </trkpt>
      <trkpt lat="44.01855" lon="3.62574">
        <ele>465</ele>
        <time>2010-03-07T03:32:12Z</time>
      </trkpt>
      <trkpt lat="44.01849" lon="3.62565">
        <ele>463</ele>
        <time>2010-03-07T03:32:17Z</time>
      </trkpt>
      <trkpt lat="44.01845" lon="3.62549">
        <ele>461.4</ele>
        <time>2010-03-07T03:32:27Z</time>
      </trkpt>
      <trkpt lat="44.01848" lon="3.62541">
        <ele>462.2</ele>
        <time>2010-03-07T03:32:32Z</time>
      </trkpt>
      <trkpt lat="44.01846" lon="3.62538">
        <ele>461.4</ele>
        <time>2010-03-07T03:32:37Z</time>
      </trkpt>
      <trkpt lat="44.0183" lon="3.62555">
        <ele>454.8</ele>
        <time>2010-03-07T03:32:57Z</time>
      </trkpt>
      <trkpt lat="44.01827" lon="3.62539">
        <ele>454.4</ele>
        <time>2010-03-07T03:33:07Z</time>
      </trkpt>
      <trkpt lat="44.01809" lon="3.62545">
        <ele>449</ele>
        <time>2010-03-07T03:33:17Z</time>
      </trkpt>
      <trkpt lat="44.01788" lon="3.62537">
        <ele>446.7</ele>
        <time>2010-03-07T03:33:27Z</time>
      </trkpt>
      <trkpt lat="44.01751" lon="3.62516">
        <ele>438.5</ele>
        <time>2010-03-07T03:33:47Z</time>
      </trkpt>
      <trkpt lat="44.01744" lon="3.62505">
        <ele>439.9</ele>
        <time>2010-03-07T03:33:52Z</time>
      </trkpt>
      <trkpt lat="44.01743" lon="3.62495">
        <ele>442.2</ele>
        <time>2010-03-07T03:33:57Z</time>
      </trkpt>
      <trkpt lat="44.01732" lon="3.62489">
        <ele>442.7</ele>
        <time>2010-03-07T03:34:07Z</time>
      </trkpt>
      <trkpt lat="44.01716" lon="3.62489">
        <ele>441.9</ele>
        <time>2010-03-07T03:34:17Z</time>
      </trkpt>
      <trkpt lat="44.01673" lon="3.62493">
        <ele>437.5</ele>
        <time>2010-03-07T03:34:42Z</time>
      </trkpt>
      <trkpt lat="44.01666" lon="3.62491">
        <ele>437.3</ele>
        <time>2010-03-07T03:34:47Z</time>
      </trkpt>
      <trkpt lat="44.01659" lon="3.62492">
        <ele>436.3</ele>
        <time>2010-03-07T03:34:52Z</time>
      </trkpt>
      <trkpt lat="44.01651" lon="3.62487">
        <ele>436.1</ele>
        <time>2010-03-07T03:34:57Z</time>
      </trkpt>
      <trkpt lat="44.01641" lon="3.62487">
        <ele>435.1</ele>
        <time>2010-03-07T03:35:02Z</time>
      </trkpt>
      <trkpt lat="44.01622" lon="3.62498">
        <ele>431.8</ele>
        <time>2010-03-07T03:35:12Z</time>
      </trkpt>
      <trkpt lat="44.01606" lon="3.62514">
        <ele>427.1</ele>
        <time>2010-03-07T03:35:22Z</time>
      </trkpt>
      <trkpt lat="44.016" lon="3.62511">
        <ele>425.4</ele>
        <time>2010-03-07T03:35:27Z</time>
      </trkpt>
      <trkpt lat="44.01597" lon="3.625">
        <ele>425.6</ele>
        <time>2010-03-07T03:35:32Z</time>
      </trkpt>
      <trkpt lat="44.01593" lon="3.62492">
        <ele>424.6</ele>
        <time>2010-03-07T03:35:37Z</time>
      </trkpt>
      <trkpt lat="44.01586" lon="3.6249">
        <ele>422.4</ele>
        <time>2010-03-07T03:35:42Z</time>
      </trkpt>
      <trkpt lat="44.01577" lon="3.6249">
        <ele>420.3</ele>
        <time>2010-03-07T03:35:47Z</time>
      </trkpt>
      <trkpt lat="44.01567" lon="3.62474">
        <ele>422.3</ele>
        <time>2010-03-07T03:35:57Z</time>
      </trkpt>
      <trkpt lat="44.01559" lon="3.62473">
        <ele>422</ele>
        <time>2010-03-07T03:36:02Z</time>
      </trkpt>
      <trkpt lat="44.01549" lon="3.62484">
        <ele>416.8</ele>
        <time>2010-03-07T03:36:07Z</time>
      </trkpt>
      <trkpt lat="44.01535" lon="3.62486">
        <ele>414.5</ele>
        <time>2010-03-07T03:36:12Z</time>
      </trkpt>
      <trkpt lat="44.01524" lon="3.62474">
        <ele>414.7</ele>
        <time>2010-03-07T03:36:17Z</time>
      </trkpt>
      <trkpt lat="44.01504" lon="3.62449">
        <ele>411.5</ele>
        <time>2010-03-07T03:36:27Z</time>
      </trkpt>
      <trkpt lat="44.01471" lon="3.62437">
        <ele>408.5</ele>
        <time>2010-03-07T03:36:42Z</time>
      </trkpt>
      <trkpt lat="44.01458" lon="3.62429">
        <ele>409.4</ele>
        <time>2010-03-07T03:36:47Z</time>
      </trkpt>
      <trkpt lat="44.01448" lon="3.62406">
        <ele>410.3</ele>
        <time>2010-03-07T03:36:57Z</time>
      </trkpt>
      <trkpt lat="44.01436" lon="3.62386">
        <ele>411.6</ele>
        <time>2010-03-07T03:37:07Z</time>
      </trkpt>
      <trkpt lat="44.01434" lon="3.6237">
        <ele>413</ele>
        <time>2010-03-07T03:37:12Z</time>
      </trkpt>
      <trkpt lat="44.01435" lon="3.62353">
        <ele>413.6</ele>
        <time>2010-03-07T03:37:17Z</time>
      </trkpt>
      <trkpt lat="44.0144" lon="3.6234">
        <ele>412.9</ele>
        <time>2010-03-07T03:37:22Z</time>
      </trkpt>
      <trkpt lat="44.01452" lon="3.62322">
        <ele>414.6</ele>
        <time>2010-03-07T03:37:32Z</time>
      </trkpt>
      <trkpt lat="44.01454" lon="3.62308">
        <ele>413.6</ele>
        <time>2010-03-07T03:37:37Z</time>
      </trkpt>
      <trkpt lat="44.01449" lon="3.62286">
        <ele>414.2</ele>
        <time>2010-03-07T03:37:52Z</time>
      </trkpt>
      <trkpt lat="44.01439" lon="3.62281">
        <ele>414.7</ele>
        <time>2010-03-07T03:38:02Z</time>
      </trkpt>
      <trkpt lat="44.0143" lon="3.62258">
        <ele>415.7</ele>
        <time>2010-03-07T03:38:12Z</time>
      </trkpt>
      <trkpt lat="44.01417" lon="3.62244">
        <ele>415.1</ele>
        <time>2010-03-07T03:38:27Z</time>
      </trkpt>
      <trkpt lat="44.01398" lon="3.6224">
        <ele>420.1</ele>
        <time>2010-03-07T03:38:42Z</time>
      </trkpt>
      <trkpt lat="44.01393" lon="3.62235">
        <ele>420.9</ele>
        <time>2010-03-07T03:38:47Z</time>
      </trkpt>
      <trkpt lat="44.01385" lon="3.62222">
        <ele>420.2</ele>
        <time>2010-03-07T03:38:57Z</time>
      </trkpt>
      <trkpt lat="44.01364" lon="3.62202">
        <ele>427.2</ele>
        <time>2010-03-07T03:39:22Z</time>
      </trkpt>
      <trkpt lat="44.01354" lon="3.62178">
        <ele>432.7</ele>
        <time>2010-03-07T03:39:37Z</time>
      </trkpt>
      <trkpt lat="44.01352" lon="3.62169">
        <ele>433.6</ele>
        <time>2010-03-07T03:39:42Z</time>
      </trkpt>
      <trkpt lat="44.01341" lon="3.62144">
        <ele>435.3</ele>
        <time>2010-03-07T03:39:57Z</time>
      </trkpt>
      <trkpt lat="44.01332" lon="3.62131">
        <ele>437.9</ele>
        <time>2010-03-07T03:40:07Z</time>
      </trkpt>
      <trkpt lat="44.01325" lon="3.62096">
        <ele>439.2</ele>
        <time>2010-03-07T03:40:17Z</time>
      </trkpt>
      <trkpt lat="44.01324" lon="3.62046">
        <ele>438.2</ele>
        <time>2010-03-07T03:40:37Z</time>
      </trkpt>
      <trkpt lat="44.01326" lon="3.62032">
        <ele>437.1</ele>
        <time>2010-03-07T03:40:42Z</time>
      </trkpt>
      <trkpt lat="44.01325" lon="3.62022">
        <ele>437.5</ele>
        <time>2010-03-07T03:40:47Z</time>
      </trkpt>
      <trkpt lat="44.01332" lon="3.61987">
        <ele>432.1</ele>
        <time>2010-03-07T03:41:02Z</time>
      </trkpt>
      <trkpt lat="44.01329" lon="3.6196">
        <ele>433.4</ele>
        <time>2010-03-07T03:41:12Z</time>
      </trkpt>
      <trkpt lat="44.01335" lon="3.61946">
        <ele>431.1</ele>
        <time>2010-03-07T03:41:17Z</time>
      </trkpt>
      <trkpt lat="44.01335" lon="3.61916">
        <ele>434.2</ele>
        <time>2010-03-07T03:41:27Z</time>
      </trkpt>
      <trkpt lat="44.01337" lon="3.61904">
        <ele>435.8</ele>
        <time>2010-03-07T03:41:32Z</time>
      </trkpt>
      <trkpt lat="44.01341" lon="3.61895">
        <ele>437.2</ele>
        <time>2010-03-07T03:41:37Z</time>
      </trkpt>
      <trkpt lat="44.01346" lon="3.6189">
        <ele>438.3</ele>
        <time>2010-03-07T03:41:42Z</time>
      </trkpt>
      <trkpt lat="44.01349" lon="3.61882">
        <ele>439.6</ele>
        <time>2010-03-07T03:41:47Z</time>
      </trkpt>
      <trkpt lat="44.0135" lon="3.6187">
        <ele>441.3</ele>
        <time>2010-03-07T03:41:52Z</time>
      </trkpt>
      <trkpt lat="44.01364" lon="3.61858">
        <ele>444.5</ele>
        <time>2010-03-07T03:42:07Z</time>
      </trkpt>
      <trkpt lat="44.01382" lon="3.61867">
        <ele>449.1</ele>
        <time>2010-03-07T03:42:22Z</time>
      </trkpt>
      <trkpt lat="44.01388" lon="3.61882">
        <ele>450.1</ele>
        <time>2010-03-07T03:42:32Z</time>
      </trkpt>
      <trkpt lat="44.014" lon="3.61888">
        <ele>449.1</ele>
        <time>2010-03-07T03:42:47Z</time>
      </trkpt>
      <trkpt lat="44.01409" lon="3.61883">
        <ele>449.2</ele>
        <time>2010-03-07T03:42:57Z</time>
      </trkpt>
      <trkpt lat="44.01411" lon="3.61878">
        <ele>450.4</ele>
        <time>2010-03-07T03:43:02Z</time>
      </trkpt>
      <trkpt lat="44.01425" lon="3.61871">
        <ele>452.5</ele>
        <time>2010-03-07T03:43:17Z</time>
      </trkpt>
      <trkpt lat="44.01441" lon="3.6186">
        <ele>456.2</ele>
        <time>2010-03-07T03:43:32Z</time>
      </trkpt>
      <trkpt lat="44.01452" lon="3.61858">
        <ele>456.1</ele>
        <time>2010-03-07T03:43:37Z</time>
      </trkpt>
      <trkpt lat="44.01464" lon="3.61862">
        <ele>454.4</ele>
        <time>2010-03-07T03:43:42Z</time>
      </trkpt>
      <trkpt lat="44.01476" lon="3.61861">
        <ele>454.7</ele>
        <time>2010-03-07T03:43:47Z</time>
      </trkpt>
      <trkpt lat="44.01484" lon="3.6187">
        <ele>455.3</ele>
        <time>2010-03-07T03:43:52Z</time>
      </trkpt>
      <trkpt lat="44.0149" lon="3.61898">
        <ele>455.4</ele>
        <time>2010-03-07T03:44:02Z</time>
      </trkpt>
      <trkpt lat="44.01493" lon="3.61838">
        <ele>462.4</ele>
        <time>2010-03-07T03:44:37Z</time>
      </trkpt>
      <trkpt lat="44.0149" lon="3.61833">
        <ele>463</ele>
        <time>2010-03-07T03:44:42Z</time>
      </trkpt>
      <trkpt lat="44.01474" lon="3.61846">
        <ele>458.1</ele>
        <time>2010-03-07T03:44:52Z</time>
      </trkpt>
      <trkpt lat="44.01466" lon="3.61847">
        <ele>458</ele>
        <time>2010-03-07T03:44:57Z</time>
      </trkpt>
      <trkpt lat="44.01438" lon="3.61844">
        <ele>460</ele>
        <time>2010-03-07T03:45:12Z</time>
      </trkpt>
      <trkpt lat="44.0143" lon="3.6184">
        <ele>460.9</ele>
        <time>2010-03-07T03:45:17Z</time>
      </trkpt>
      <trkpt lat="44.01424" lon="3.61833">
        <ele>462.3</ele>
        <time>2010-03-07T03:45:22Z</time>
      </trkpt>
      <trkpt lat="44.01413" lon="3.61807">
        <ele>462.6</ele>
        <time>2010-03-07T03:45:37Z</time>
      </trkpt>
      <trkpt lat="44.01412" lon="3.61795">
        <ele>462.7</ele>
        <time>2010-03-07T03:45:42Z</time>
      </trkpt>
      <trkpt lat="44.01413" lon="3.61763">
        <ele>464.9</ele>
        <time>2010-03-07T03:45:52Z</time>
      </trkpt>
      <trkpt lat="44.01409" lon="3.61751">
        <ele>465.2</ele>
        <time>2010-03-07T03:45:57Z</time>
      </trkpt>
      <trkpt lat="44.01408" lon="3.61738">
        <ele>467.3</ele>
        <time>2010-03-07T03:46:02Z</time>
      </trkpt>
      <trkpt lat="44.01402" lon="3.61727">
        <ele>468.3</ele>
        <time>2010-03-07T03:46:07Z</time>
      </trkpt>
      <trkpt lat="44.01385" lon="3.61739">
        <ele>464.2</ele>
        <time>2010-03-07T03:46:17Z</time>
      </trkpt>
      <trkpt lat="44.01352" lon="3.61737">
        <ele>467</ele>
        <time>2010-03-07T03:46:42Z</time>
      </trkpt>
      <trkpt lat="44.01323" lon="3.61718">
        <ele>467.5</ele>
        <time>2010-03-07T03:47:02Z</time>
      </trkpt>
      <trkpt lat="44.01312" lon="3.61695">
        <ele>469.3</ele>
        <time>2010-03-07T03:47:12Z</time>
      </trkpt>
      <trkpt lat="44.01293" lon="3.61671">
        <ele>471.5</ele>
        <time>2010-03-07T03:47:27Z</time>
      </trkpt>
      <trkpt lat="44.01283" lon="3.61663">
        <ele>471.2</ele>
        <time>2010-03-07T03:47:37Z</time>
      </trkpt>
      <trkpt lat="44.01278" lon="3.61656">
        <ele>471.7</ele>
        <time>2010-03-07T03:47:42Z</time>
      </trkpt>
      <trkpt lat="44.01275" lon="3.61644">
        <ele>473.6</ele>
        <time>2010-03-07T03:47:47Z</time>
      </trkpt>
      <trkpt lat="44.01269" lon="3.61631">
        <ele>473.8</ele>
        <time>2010-03-07T03:47:52Z</time>
      </trkpt>
      <trkpt lat="44.01249" lon="3.61607">
        <ele>473.2</ele>
        <time>2010-03-07T03:48:07Z</time>
      </trkpt>
      <trkpt lat="44.01245" lon="3.61593">
        <ele>474.1</ele>
        <time>2010-03-07T03:48:12Z</time>
      </trkpt>
      <trkpt lat="44.01245" lon="3.61575">
        <ele>476.4</ele>
        <time>2010-03-07T03:48:17Z</time>
      </trkpt>
      <trkpt lat="44.01243" lon="3.6156">
        <ele>476</ele>
        <time>2010-03-07T03:48:22Z</time>
      </trkpt>
      <trkpt lat="44.01231" lon="3.61539">
        <ele>475.3</ele>
        <time>2010-03-07T03:48:32Z</time>
      </trkpt>
      <trkpt lat="44.0122" lon="3.61513">
        <ele>477.7</ele>
        <time>2010-03-07T03:48:47Z</time>
      </trkpt>
      <trkpt lat="44.01214" lon="3.61507">
        <ele>478.1</ele>
        <time>2010-03-07T03:48:52Z</time>
      </trkpt>
      <trkpt lat="44.01203" lon="3.61503">
        <ele>476.3</ele>
        <time>2010-03-07T03:49:02Z</time>
      </trkpt>
      <trkpt lat="44.01177" lon="3.61485">
        <ele>477.6</ele>
        <time>2010-03-07T03:49:17Z</time>
      </trkpt>
      <trkpt lat="44.01165" lon="3.61465">
        <ele>479.9</ele>
        <time>2010-03-07T03:49:27Z</time>
      </trkpt>
      <trkpt lat="44.01155" lon="3.6146">
        <ele>479.1</ele>
        <time>2010-03-07T03:49:32Z</time>
      </trkpt>
      <trkpt lat="44.01147" lon="3.61452">
        <ele>478.9</ele>
        <time>2010-03-07T03:49:37Z</time>
      </trkpt>
      <trkpt lat="44.01111" lon="3.61401">
        <ele>480.8</ele>
        <time>2010-03-07T03:50:02Z</time>
      </trkpt>
      <trkpt lat="44.01079" lon="3.61375">
        <ele>481.6</ele>
        <time>2010-03-07T03:50:22Z</time>
      </trkpt>
      <trkpt lat="44.01058" lon="3.61365">
        <ele>481.6</ele>
        <time>2010-03-07T03:50:32Z</time>
      </trkpt>
      <trkpt lat="44.01054" lon="3.61369">
        <ele>482.6</ele>
        <time>2010-03-07T03:50:37Z</time>
      </trkpt>
      <trkpt lat="44.01058" lon="3.61383">
        <ele>483</ele>
        <time>2010-03-07T03:50:52Z</time>
      </trkpt>
      <trkpt lat="44.01053" lon="3.61389">
        <ele>484.9</ele>
        <time>2010-03-07T03:50:57Z</time>
      </trkpt>
      <trkpt lat="44.0104" lon="3.61384">
        <ele>489</ele>
        <time>2010-03-07T03:51:07Z</time>
      </trkpt>
      <trkpt lat="44.0104" lon="3.6138">
        <ele>488.7</ele>
        <time>2010-03-07T03:51:12Z</time>
      </trkpt>
      <trkpt lat="44.01033" lon="3.61371">
        <ele>490.4</ele>
        <time>2010-03-07T03:51:22Z</time>
      </trkpt>
      <trkpt lat="44.01031" lon="3.61367">
        <ele>490.4</ele>
        <time>2010-03-07T03:51:27Z</time>
      </trkpt>
      <trkpt lat="44.01018" lon="3.61352">
        <ele>495.7</ele>
        <time>2010-03-07T03:51:42Z</time>
      </trkpt>
      <trkpt lat="44.01009" lon="3.61337">
        <ele>499.4</ele>
        <time>2010-03-07T03:51:57Z</time>
      </trkpt>
      <trkpt lat="44.01007" lon="3.61331">
        <ele>499.2</ele>
        <time>2010-03-07T03:52:02Z</time>
      </trkpt>
      <trkpt lat="44.00994" lon="3.61302">
        <ele>501.6</ele>
        <time>2010-03-07T03:52:27Z</time>
      </trkpt>
      <trkpt lat="44.00989" lon="3.61299">
        <ele>503.3</ele>
        <time>2010-03-07T03:52:32Z</time>
      </trkpt>
      <trkpt lat="44.00983" lon="3.61288">
        <ele>504.7</ele>
        <time>2010-03-07T03:52:42Z</time>
      </trkpt>
      <trkpt lat="44.00974" lon="3.61276">
        <ele>508.2</ele>
        <time>2010-03-07T03:52:52Z</time>
      </trkpt>
      <trkpt lat="44.00963" lon="3.61253">
        <ele>510.6</ele>
        <time>2010-03-07T03:53:02Z</time>
      </trkpt>
      <trkpt lat="44.0096" lon="3.61239">
        <ele>511.3</ele>
        <time>2010-03-07T03:53:07Z</time>
      </trkpt>
      <trkpt lat="44.00962" lon="3.61219">
        <ele>510.4</ele>
        <time>2010-03-07T03:53:17Z</time>
      </trkpt>
      <trkpt lat="44.00965" lon="3.61215">
        <ele>508.6</ele>
        <time>2010-03-07T03:53:22Z</time>
      </trkpt>
      <trkpt lat="44.00965" lon="3.61207">
        <ele>508.8</ele>
        <time>2010-03-07T03:53:27Z</time>
      </trkpt>
      <trkpt lat="44.00962" lon="3.61194">
        <ele>511</ele>
        <time>2010-03-07T03:53:37Z</time>
      </trkpt>
      <trkpt lat="44.00963" lon="3.61187">
        <ele>511.2</ele>
        <time>2010-03-07T03:53:42Z</time>
      </trkpt>
      <trkpt lat="44.00961" lon="3.61182">
        <ele>512.3</ele>
        <time>2010-03-07T03:53:47Z</time>
      </trkpt>
      <trkpt lat="44.00963" lon="3.61171">
        <ele>512.1</ele>
        <time>2010-03-07T03:53:52Z</time>
      </trkpt>
      <trkpt lat="44.00961" lon="3.61164">
        <ele>513.7</ele>
        <time>2010-03-07T03:53:57Z</time>
      </trkpt>
      <trkpt lat="44.00962" lon="3.61142">
        <ele>515.3</ele>
        <time>2010-03-07T03:54:12Z</time>
      </trkpt>
      <trkpt lat="44.00967" lon="3.61125">
        <ele>514.8</ele>
        <time>2010-03-07T03:54:22Z</time>
      </trkpt>
      <trkpt lat="44.00967" lon="3.61116">
        <ele>516.3</ele>
        <time>2010-03-07T03:54:27Z</time>
      </trkpt>
      <trkpt lat="44.00971" lon="3.611">
        <ele>517.8</ele>
        <time>2010-03-07T03:54:37Z</time>
      </trkpt>
      <trkpt lat="44.0097" lon="3.61092">
        <ele>520.1</ele>
        <time>2010-03-07T03:54:42Z</time>
      </trkpt>
      <trkpt lat="44.00977" lon="3.61072">
        <ele>520.5</ele>
        <time>2010-03-07T03:54:57Z</time>
      </trkpt>
      <trkpt lat="44.00982" lon="3.61044">
        <ele>522.5</ele>
        <time>2010-03-07T03:55:17Z</time>
      </trkpt>
      <trkpt lat="44.00981" lon="3.61035">
        <ele>523.9</ele>
        <time>2010-03-07T03:55:22Z</time>
      </trkpt>
      <trkpt lat="44.00985" lon="3.61029">
        <ele>522.7</ele>
        <time>2010-03-07T03:55:27Z</time>
      </trkpt>
      <trkpt lat="44.00985" lon="3.61021">
        <ele>522.9</ele>
        <time>2010-03-07T03:55:32Z</time>
      </trkpt>
      <trkpt lat="44.00981" lon="3.61008">
        <ele>525.4</ele>
        <time>2010-03-07T03:55:42Z</time>
      </trkpt>
      <trkpt lat="44.00981" lon="3.61">
        <ele>525.8</ele>
        <time>2010-03-07T03:55:47Z</time>
      </trkpt>
      <trkpt lat="44.00974" lon="3.60987">
        <ele>528.4</ele>
        <time>2010-03-07T03:56:02Z</time>
      </trkpt>
      <trkpt lat="44.00969" lon="3.60971">
        <ele>529.5</ele>
        <time>2010-03-07T03:56:17Z</time>
      </trkpt>
      <trkpt lat="44.00948" lon="3.60941">
        <ele>536.9</ele>
        <time>2010-03-07T03:56:52Z</time>
      </trkpt>
      <trkpt lat="44.00944" lon="3.60938">
        <ele>538.4</ele>
        <time>2010-03-07T03:56:57Z</time>
      </trkpt>
      <trkpt lat="44.00937" lon="3.60925">
        <ele>539.8</ele>
        <time>2010-03-07T03:57:12Z</time>
      </trkpt>
      <trkpt lat="44.00923" lon="3.60921">
        <ele>544.4</ele>
        <time>2010-03-07T03:57:27Z</time>
      </trkpt>
      <trkpt lat="44.00916" lon="3.60915">
        <ele>546.1</ele>
        <time>2010-03-07T03:57:37Z</time>
      </trkpt>
      <trkpt lat="44.0091" lon="3.60918">
        <ele>547.6</ele>
        <time>2010-03-07T03:57:42Z</time>
      </trkpt>
      <trkpt lat="44.00889" lon="3.60906">
        <ele>551.1</ele>
        <time>2010-03-07T03:58:02Z</time>
      </trkpt>
      <trkpt lat="44.00883" lon="3.60899">
        <ele>552</ele>
        <time>2010-03-07T03:58:07Z</time>
      </trkpt>
      <trkpt lat="44.00877" lon="3.60886">
        <ele>553.4</ele>
        <time>2010-03-07T03:58:22Z</time>
      </trkpt>
      <trkpt lat="44.00869" lon="3.60903">
        <ele>555.3</ele>
        <time>2010-03-07T03:58:42Z</time>
      </trkpt>
      <trkpt lat="44.00859" lon="3.60909">
        <ele>557.2</ele>
        <time>2010-03-07T03:58:52Z</time>
      </trkpt>
      <trkpt lat="44.00854" lon="3.60911">
        <ele>558</ele>
        <time>2010-03-07T03:58:57Z</time>
      </trkpt>
      <trkpt lat="44.00851" lon="3.60915">
        <ele>558.2</ele>
        <time>2010-03-07T03:59:02Z</time>
      </trkpt>
      <trkpt lat="44.00839" lon="3.60918">
        <ele>559.4</ele>
        <time>2010-03-07T03:59:12Z</time>
      </trkpt>
      <trkpt lat="44.00833" lon="3.60911">
        <ele>560.6</ele>
        <time>2010-03-07T03:59:22Z</time>
      </trkpt>
      <trkpt lat="44.00831" lon="3.60892">
        <ele>562.5</ele>
        <time>2010-03-07T03:59:37Z</time>
      </trkpt>
      <trkpt lat="44.00832" lon="3.60878">
        <ele>564.8</ele>
        <time>2010-03-07T03:59:47Z</time>
      </trkpt>
      <trkpt lat="44.00824" lon="3.60832">
        <ele>571.2</ele>
        <time>2010-03-07T04:00:42Z</time>
      </trkpt>
      <trkpt lat="44.00825" lon="3.60826">
        <ele>572.1</ele>
        <time>2010-03-07T04:00:47Z</time>
      </trkpt>
      <trkpt lat="44.00825" lon="3.60808">
        <ele>574.8</ele>
        <time>2010-03-07T04:01:07Z</time>
      </trkpt>
      <trkpt lat="44.00828" lon="3.60802">
        <ele>576</ele>
        <time>2010-03-07T04:01:12Z</time>
      </trkpt>
      <trkpt lat="44.0082" lon="3.60768">
        <ele>581.2</ele>
        <time>2010-03-07T04:01:47Z</time>
      </trkpt>
      <trkpt lat="44.0082" lon="3.60757">
        <ele>583.6</ele>
        <time>2010-03-07T04:01:57Z</time>
      </trkpt>
      <trkpt lat="44.00816" lon="3.60731">
        <ele>588.7</ele>
        <time>2010-03-07T04:02:32Z</time>
      </trkpt>
      <trkpt lat="44.00818" lon="3.6073">
        <ele>588.8</ele>
        <time>2010-03-07T04:02:37Z</time>
      </trkpt>
      <trkpt lat="44.00813" lon="3.60727">
        <ele>590.1</ele>
        <time>2010-03-07T04:02:47Z</time>
      </trkpt>
      <trkpt lat="44.00808" lon="3.60711">
        <ele>593.2</ele>
        <time>2010-03-07T04:03:07Z</time>
      </trkpt>
      <trkpt lat="44.00794" lon="3.60693">
        <ele>597.1</ele>
        <time>2010-03-07T04:03:37Z</time>
      </trkpt>
      <trkpt lat="44.00777" lon="3.60658">
        <ele>606.4</ele>
        <time>2010-03-07T04:04:22Z</time>
      </trkpt>
      <trkpt lat="44.00777" lon="3.6065">
        <ele>608.3</ele>
        <time>2010-03-07T04:04:32Z</time>
      </trkpt>
      <trkpt lat="44.00774" lon="3.60643">
        <ele>610.4</ele>
        <time>2010-03-07T04:04:42Z</time>
      </trkpt>
      <trkpt lat="44.00771" lon="3.60628">
        <ele>614.9</ele>
        <time>2010-03-07T04:05:02Z</time>
      </trkpt>
      <trkpt lat="44.00769" lon="3.60626">
        <ele>615.5</ele>
        <time>2010-03-07T04:05:07Z</time>
      </trkpt>
      <trkpt lat="44.0076" lon="3.60629">
        <ele>615.6</ele>
        <time>2010-03-07T04:05:17Z</time>
      </trkpt>
      <trkpt lat="44.00739" lon="3.6063">
        <ele>615.7</ele>
        <time>2010-03-07T04:05:32Z</time>
      </trkpt>
      <trkpt lat="44.00726" lon="3.60625">
        <ele>615.8</ele>
        <time>2010-03-07T04:05:42Z</time>
      </trkpt>
      <trkpt lat="44.00721" lon="3.60618">
        <ele>616.3</ele>
        <time>2010-03-07T04:05:47Z</time>
      </trkpt>
      <trkpt lat="44.00718" lon="3.606">
        <ele>615.6</ele>
        <time>2010-03-07T04:05:57Z</time>
      </trkpt>
      <trkpt lat="44.00724" lon="3.60573">
        <ele>617.9</ele>
        <time>2010-03-07T04:06:12Z</time>
      </trkpt>
      <trkpt lat="44.00727" lon="3.60549">
        <ele>618.6</ele>
        <time>2010-03-07T04:06:22Z</time>
      </trkpt>
      <trkpt lat="44.00712" lon="3.60505">
        <ele>616.2</ele>
        <time>2010-03-07T04:06:42Z</time>
      </trkpt>
      <trkpt lat="44.00698" lon="3.60457">
        <ele>617.3</ele>
        <time>2010-03-07T04:07:07Z</time>
      </trkpt>
      <trkpt lat="44.00692" lon="3.60426">
        <ele>620</ele>
        <time>2010-03-07T04:07:22Z</time>
      </trkpt>
      <trkpt lat="44.00688" lon="3.60415">
        <ele>619.7</ele>
        <time>2010-03-07T04:07:27Z</time>
      </trkpt>
      <trkpt lat="44.00675" lon="3.60397">
        <ele>620</ele>
        <time>2010-03-07T04:07:37Z</time>
      </trkpt>
      <trkpt lat="44.00654" lon="3.60357">
        <ele>623.2</ele>
        <time>2010-03-07T04:07:57Z</time>
      </trkpt>
      <trkpt lat="44.00645" lon="3.60333">
        <ele>622.7</ele>
        <time>2010-03-07T04:08:07Z</time>
      </trkpt>
      <trkpt lat="44.00632" lon="3.60269">
        <ele>622.6</ele>
        <time>2010-03-07T04:08:32Z</time>
      </trkpt>
      <trkpt lat="44.00631" lon="3.60256">
        <ele>623</ele>
        <time>2010-03-07T04:08:37Z</time>
      </trkpt>
      <trkpt lat="44.00626" lon="3.6024">
        <ele>622.6</ele>
        <time>2010-03-07T04:08:42Z</time>
      </trkpt>
      <trkpt lat="44.00616" lon="3.60222">
        <ele>619.4</ele>
        <time>2010-03-07T04:08:52Z</time>
      </trkpt>
      <trkpt lat="44.00608" lon="3.60218">
        <ele>618.4</ele>
        <time>2010-03-07T04:09:02Z</time>
      </trkpt>
      <trkpt lat="44.00603" lon="3.60213">
        <ele>615.9</ele>
        <time>2010-03-07T04:09:07Z</time>
      </trkpt>
      <trkpt lat="44.00601" lon="3.60202">
        <ele>612.4</ele>
        <time>2010-03-07T04:09:12Z</time>
      </trkpt>
      <trkpt lat="44.00578" lon="3.60182">
        <ele>605.7</ele>
        <time>2010-03-07T04:09:32Z</time>
      </trkpt>
      <trkpt lat="44.00545" lon="3.60203">
        <ele>602.7</ele>
        <time>2010-03-07T04:09:47Z</time>
      </trkpt>
      <trkpt lat="44.00509" lon="3.60202">
        <ele>599.2</ele>
        <time>2010-03-07T04:10:02Z</time>
      </trkpt>
      <trkpt lat="44.00497" lon="3.602">
        <ele>598.5</ele>
        <time>2010-03-07T04:10:07Z</time>
      </trkpt>
      <trkpt lat="44.00473" lon="3.60189">
        <ele>597.7</ele>
        <time>2010-03-07T04:10:17Z</time>
      </trkpt>
      <trkpt lat="44.00452" lon="3.60167">
        <ele>594.9</ele>
        <time>2010-03-07T04:10:32Z</time>
      </trkpt>
      <trkpt lat="44.00436" lon="3.60144">
        <ele>593.6</ele>
        <time>2010-03-07T04:10:42Z</time>
      </trkpt>
      <trkpt lat="44.00387" lon="3.60095">
        <ele>587.8</ele>
        <time>2010-03-07T04:11:12Z</time>
      </trkpt>
      <trkpt lat="44.0037" lon="3.60086">
        <ele>586.9</ele>
        <time>2010-03-07T04:11:22Z</time>
      </trkpt>
      <trkpt lat="44.00349" lon="3.60083">
        <ele>584</ele>
        <time>2010-03-07T04:11:32Z</time>
      </trkpt>
      <trkpt lat="44.00334" lon="3.60073">
        <ele>582.9</ele>
        <time>2010-03-07T04:11:42Z</time>
      </trkpt>
      <trkpt lat="44.0031" lon="3.60049">
        <ele>579.8</ele>
        <time>2010-03-07T04:11:57Z</time>
      </trkpt>
      <trkpt lat="44.003" lon="3.60026">
        <ele>578.3</ele>
        <time>2010-03-07T04:12:07Z</time>
      </trkpt>
      <trkpt lat="44.00292" lon="3.5999">
        <ele>576.1</ele>
        <time>2010-03-07T04:12:22Z</time>
      </trkpt>
      <trkpt lat="44.00279" lon="3.59919">
        <ele>571.5</ele>
        <time>2010-03-07T04:12:52Z</time>
      </trkpt>
      <trkpt lat="44.00277" lon="3.59896">
        <ele>570.1</ele>
        <time>2010-03-07T04:13:02Z</time>
      </trkpt>
      <trkpt lat="44.00274" lon="3.59883">
        <ele>569</ele>
        <time>2010-03-07T04:13:07Z</time>
      </trkpt>
      <trkpt lat="44.00263" lon="3.59858">
        <ele>566.8</ele>
        <time>2010-03-07T04:13:17Z</time>
      </trkpt>
      <trkpt lat="44.00254" lon="3.59845">
        <ele>565.8</ele>
        <time>2010-03-07T04:13:22Z</time>
      </trkpt>
      <trkpt lat="44.00244" lon="3.59835">
        <ele>564.7</ele>
        <time>2010-03-07T04:13:27Z</time>
      </trkpt>
      <trkpt lat="44.0014" lon="3.59787">
        <ele>554.7</ele>
        <time>2010-03-07T04:14:12Z</time>
      </trkpt>
      <trkpt lat="44.00088" lon="3.59743">
        <ele>549.7</ele>
        <time>2010-03-07T04:14:37Z</time>
      </trkpt>
      <trkpt lat="44.00063" lon="3.59708">
        <ele>546.9</ele>
        <time>2010-03-07T04:14:52Z</time>
      </trkpt>
      <trkpt lat="44.00042" lon="3.59668">
        <ele>544.6</ele>
        <time>2010-03-07T04:15:07Z</time>
      </trkpt>
      <trkpt lat="44.00028" lon="3.596">
        <ele>539.3</ele>
        <time>2010-03-07T04:15:27Z</time>
      </trkpt>
      <trkpt lat="44.00019" lon="3.59597">
        <ele>537.8</ele>
        <time>2010-03-07T04:15:32Z</time>
      </trkpt>
      <trkpt lat="44.00014" lon="3.59611">
        <ele>536.5</ele>
        <time>2010-03-07T04:15:37Z</time>
      </trkpt>
      <trkpt lat="43.99995" lon="3.5971">
        <ele>529.6</ele>
        <time>2010-03-07T04:16:07Z</time>
      </trkpt>
      <trkpt lat="43.99993" lon="3.59746">
        <ele>527</ele>
        <time>2010-03-07T04:16:17Z</time>
      </trkpt>
      <trkpt lat="44.00003" lon="3.59798">
        <ele>523.9</ele>
        <time>2010-03-07T04:16:32Z</time>
      </trkpt>
      <trkpt lat="44.00009" lon="3.59814">
        <ele>523.4</ele>
        <time>2010-03-07T04:16:37Z</time>
      </trkpt>
      <trkpt lat="44.0001" lon="3.59827">
        <ele>522</ele>
        <time>2010-03-07T04:16:42Z</time>
      </trkpt>
      <trkpt lat="44.00001" lon="3.59826">
        <ele>520.1</ele>
        <time>2010-03-07T04:16:47Z</time>
      </trkpt>
      <trkpt lat="43.99977" lon="3.59815">
        <ele>516.3</ele>
        <time>2010-03-07T04:16:57Z</time>
      </trkpt>
      <trkpt lat="43.99928" lon="3.59775">
        <ele>512.3</ele>
        <time>2010-03-07T04:17:22Z</time>
      </trkpt>
      <trkpt lat="43.99905" lon="3.59753">
        <ele>509.4</ele>
        <time>2010-03-07T04:17:32Z</time>
      </trkpt>
      <trkpt lat="43.99897" lon="3.59737">
        <ele>508.2</ele>
        <time>2010-03-07T04:17:37Z</time>
      </trkpt>
      <trkpt lat="43.9988" lon="3.59688">
        <ele>504</ele>
        <time>2010-03-07T04:17:52Z</time>
      </trkpt>
      <trkpt lat="43.99872" lon="3.59656">
        <ele>502.1</ele>
        <time>2010-03-07T04:18:02Z</time>
      </trkpt>
      <trkpt lat="43.99866" lon="3.59624">
        <ele>499.7</ele>
        <time>2010-03-07T04:18:12Z</time>
      </trkpt>
      <trkpt lat="43.99866" lon="3.5954">
        <ele>496.3</ele>
        <time>2010-03-07T04:18:37Z</time>
      </trkpt>
      <trkpt lat="43.99869" lon="3.59471">
        <ele>492.4</ele>
        <time>2010-03-07T04:18:57Z</time>
      </trkpt>
      <trkpt lat="43.99877" lon="3.59384">
        <ele>488.5</ele>
        <time>2010-03-07T04:19:22Z</time>
      </trkpt>
      <trkpt lat="43.99884" lon="3.59351">
        <ele>487.3</ele>
        <time>2010-03-07T04:19:32Z</time>
      </trkpt>
      <trkpt lat="43.99885" lon="3.59334">
        <ele>486.7</ele>
        <time>2010-03-07T04:19:37Z</time>
      </trkpt>
      <trkpt lat="43.99888" lon="3.59319">
        <ele>486.4</ele>
        <time>2010-03-07T04:19:42Z</time>
      </trkpt>
      <trkpt lat="43.99895" lon="3.59305">
        <ele>486.4</ele>
        <time>2010-03-07T04:19:47Z</time>
      </trkpt>
      <trkpt lat="43.99905" lon="3.59295">
        <ele>486.1</ele>
        <time>2010-03-07T04:19:52Z</time>
      </trkpt>
      <trkpt lat="43.99916" lon="3.59291">
        <ele>485.9</ele>
        <time>2010-03-07T04:19:57Z</time>
      </trkpt>
      <trkpt lat="43.99948" lon="3.59286">
        <ele>484.6</ele>
        <time>2010-03-07T04:20:12Z</time>
      </trkpt>
      <trkpt lat="43.99969" lon="3.59287">
        <ele>483.2</ele>
        <time>2010-03-07T04:20:22Z</time>
      </trkpt>
      <trkpt lat="43.99975" lon="3.59281">
        <ele>481.5</ele>
        <time>2010-03-07T04:20:27Z</time>
      </trkpt>
      <trkpt lat="43.99973" lon="3.59272">
        <ele>480.1</ele>
        <time>2010-03-07T04:20:32Z</time>
      </trkpt>
      <trkpt lat="43.99907" lon="3.59216">
        <ele>474.3</ele>
        <time>2010-03-07T04:21:07Z</time>
      </trkpt>
      <trkpt lat="43.99897" lon="3.59212">
        <ele>473.4</ele>
        <time>2010-03-07T04:21:12Z</time>
      </trkpt>
      <trkpt lat="43.99895" lon="3.59206">
        <ele>472</ele>
        <time>2010-03-07T04:21:17Z</time>
      </trkpt>
      <trkpt lat="43.99889" lon="3.59201">
        <ele>470.7</ele>
        <time>2010-03-07T04:21:22Z</time>
      </trkpt>
      <trkpt lat="43.99859" lon="3.59197">
        <ele>468.4</ele>
        <time>2010-03-07T04:21:37Z</time>
      </trkpt>
      <trkpt lat="43.99847" lon="3.59198">
        <ele>467.3</ele>
        <time>2010-03-07T04:21:42Z</time>
      </trkpt>
      <trkpt lat="43.99836" lon="3.59203">
        <ele>467.2</ele>
        <time>2010-03-07T04:21:47Z</time>
      </trkpt>
      <trkpt lat="43.99813" lon="3.59196">
        <ele>461.6</ele>
        <time>2010-03-07T04:22:02Z</time>
      </trkpt>
      <trkpt lat="43.99804" lon="3.59196">
        <ele>459.8</ele>
        <time>2010-03-07T04:22:07Z</time>
      </trkpt>
      <trkpt lat="43.99797" lon="3.59192">
        <ele>457.5</ele>
        <time>2010-03-07T04:22:12Z</time>
      </trkpt>
      <trkpt lat="43.99789" lon="3.59193">
        <ele>456</ele>
        <time>2010-03-07T04:22:17Z</time>
      </trkpt>
      <trkpt lat="43.99753" lon="3.59214">
        <ele>452.3</ele>
        <time>2010-03-07T04:22:37Z</time>
      </trkpt>
      <trkpt lat="43.99715" lon="3.59233">
        <ele>447.8</ele>
        <time>2010-03-07T04:22:57Z</time>
      </trkpt>
      <trkpt lat="43.9969" lon="3.59228">
        <ele>444.7</ele>
        <time>2010-03-07T04:23:12Z</time>
      </trkpt>
      <trkpt lat="43.99684" lon="3.59223">
        <ele>443.5</ele>
        <time>2010-03-07T04:23:17Z</time>
      </trkpt>
      <trkpt lat="43.99669" lon="3.59223">
        <ele>441.3</ele>
        <time>2010-03-07T04:23:27Z</time>
      </trkpt>
      <trkpt lat="43.99659" lon="3.59217">
        <ele>439.3</ele>
        <time>2010-03-07T04:23:32Z</time>
      </trkpt>
      <trkpt lat="43.99658" lon="3.59207">
        <ele>438</ele>
        <time>2010-03-07T04:23:37Z</time>
      </trkpt>
      <trkpt lat="43.9967" lon="3.59195">
        <ele>437.3</ele>
        <time>2010-03-07T04:23:47Z</time>
      </trkpt>
      <trkpt lat="43.99671" lon="3.5919">
        <ele>436.3</ele>
        <time>2010-03-07T04:23:52Z</time>
      </trkpt>
      <trkpt lat="43.99651" lon="3.59189">
        <ele>434.8</ele>
        <time>2010-03-07T04:24:02Z</time>
      </trkpt>
      <trkpt lat="43.99631" lon="3.59192">
        <ele>433.1</ele>
        <time>2010-03-07T04:24:12Z</time>
      </trkpt>
      <trkpt lat="43.99582" lon="3.59213">
        <ele>428</ele>
        <time>2010-03-07T04:24:32Z</time>
      </trkpt>
      <trkpt lat="43.99537" lon="3.59236">
        <ele>421.3</ele>
        <time>2010-03-07T04:24:52Z</time>
      </trkpt>
      <trkpt lat="43.99529" lon="3.59242">
        <ele>420</ele>
        <time>2010-03-07T04:24:57Z</time>
      </trkpt>
      <trkpt lat="43.99517" lon="3.59245">
        <ele>418.2</ele>
        <time>2010-03-07T04:25:02Z</time>
      </trkpt>
      <trkpt lat="43.99505" lon="3.5922">
        <ele>414.6</ele>
        <time>2010-03-07T04:25:12Z</time>
      </trkpt>
      <trkpt lat="43.99488" lon="3.59208">
        <ele>411.3</ele>
        <time>2010-03-07T04:25:22Z</time>
      </trkpt>
      <trkpt lat="43.99494" lon="3.59193">
        <ele>409.5</ele>
        <time>2010-03-07T04:25:27Z</time>
      </trkpt>
      <trkpt lat="43.99544" lon="3.59147">
        <ele>404.7</ele>
        <time>2010-03-07T04:25:52Z</time>
      </trkpt>
      <trkpt lat="43.99565" lon="3.59133">
        <ele>404.1</ele>
        <time>2010-03-07T04:26:02Z</time>
      </trkpt>
      <trkpt lat="43.99573" lon="3.59124">
        <ele>402.9</ele>
        <time>2010-03-07T04:26:07Z</time>
      </trkpt>
      <trkpt lat="43.99607" lon="3.59101">
        <ele>400.6</ele>
        <time>2010-03-07T04:26:22Z</time>
      </trkpt>
      <trkpt lat="43.99628" lon="3.59077">
        <ele>397.1</ele>
        <time>2010-03-07T04:26:32Z</time>
      </trkpt>
      <trkpt lat="43.99676" lon="3.59031">
        <ele>384.2</ele>
        <time>2010-03-07T04:26:57Z</time>
      </trkpt>
      <trkpt lat="43.99689" lon="3.59026">
        <ele>382.2</ele>
        <time>2010-03-07T04:27:02Z</time>
      </trkpt>
      <trkpt lat="43.99715" lon="3.5902">
        <ele>379.7</ele>
        <time>2010-03-07T04:27:12Z</time>
      </trkpt>
      <trkpt lat="43.99737" lon="3.5901">
        <ele>378.3</ele>
        <time>2010-03-07T04:27:22Z</time>
      </trkpt>
      <trkpt lat="43.99757" lon="3.58994">
        <ele>377</ele>
        <time>2010-03-07T04:27:32Z</time>
      </trkpt>
      <trkpt lat="43.99765" lon="3.58983">
        <ele>376.3</ele>
        <time>2010-03-07T04:27:37Z</time>
      </trkpt>
      <trkpt lat="43.9978" lon="3.58947">
        <ele>370.1</ele>
        <time>2010-03-07T04:27:47Z</time>
      </trkpt>
      <trkpt lat="43.99781" lon="3.58938">
        <ele>367.1</ele>
        <time>2010-03-07T04:27:52Z</time>
      </trkpt>
      <trkpt lat="43.99797" lon="3.58924">
        <ele>366.8</ele>
        <time>2010-03-07T04:28:02Z</time>
      </trkpt>
      <trkpt lat="43.9983" lon="3.58904">
        <ele>367.1</ele>
        <time>2010-03-07T04:28:17Z</time>
      </trkpt>
      <trkpt lat="43.99874" lon="3.58866">
        <ele>359.8</ele>
        <time>2010-03-07T04:28:37Z</time>
      </trkpt>
      <trkpt lat="43.99897" lon="3.58849">
        <ele>355.8</ele>
        <time>2010-03-07T04:28:47Z</time>
      </trkpt>
      <trkpt lat="43.99908" lon="3.58844">
        <ele>354.5</ele>
        <time>2010-03-07T04:28:52Z</time>
      </trkpt>
      <trkpt lat="43.99947" lon="3.58836">
        <ele>348.7</ele>
        <time>2010-03-07T04:29:07Z</time>
      </trkpt>
      <trkpt lat="43.99996" lon="3.5884">
        <ele>346.3</ele>
        <time>2010-03-07T04:29:27Z</time>
      </trkpt>
      <trkpt lat="44.0002" lon="3.58834">
        <ele>346.4</ele>
        <time>2010-03-07T04:29:37Z</time>
      </trkpt>
      <trkpt lat="44.00031" lon="3.58827">
        <ele>344.2</ele>
        <time>2010-03-07T04:29:42Z</time>
      </trkpt>
      <trkpt lat="44.0004" lon="3.58813">
        <ele>339.1</ele>
        <time>2010-03-07T04:29:47Z</time>
      </trkpt>
      <trkpt lat="44.00051" lon="3.58803">
        <ele>336.5</ele>
        <time>2010-03-07T04:29:52Z</time>
      </trkpt>
      <trkpt lat="44.00086" lon="3.58832">
        <ele>341.5</ele>
        <time>2010-03-07T04:30:07Z</time>
      </trkpt>
      <trkpt lat="44.00096" lon="3.58826">
        <ele>339</ele>
        <time>2010-03-07T04:30:12Z</time>
      </trkpt>
      <trkpt lat="44.00099" lon="3.58812">
        <ele>334.5</ele>
        <time>2010-03-07T04:30:17Z</time>
      </trkpt>
      <trkpt lat="44.00099" lon="3.58791">
        <ele>330.9</ele>
        <time>2010-03-07T04:30:22Z</time>
      </trkpt>
      <trkpt lat="44.00103" lon="3.58775">
        <ele>330.3</ele>
        <time>2010-03-07T04:30:27Z</time>
      </trkpt>
      <trkpt lat="44.00099" lon="3.58764">
        <ele>330.8</ele>
        <time>2010-03-07T04:30:32Z</time>
      </trkpt>
      <trkpt lat="44.00092" lon="3.58758">
        <ele>330.1</ele>
        <time>2010-03-07T04:30:37Z</time>
      </trkpt>
      <trkpt lat="44.001" lon="3.58728">
        <ele>335.1</ele>
        <time>2010-03-07T04:30:47Z</time>
      </trkpt>
      <trkpt lat="44.00114" lon="3.58699">
        <ele>338.2</ele>
        <time>2010-03-07T04:31:02Z</time>
      </trkpt>
      <trkpt lat="44.00122" lon="3.58655">
        <ele>340.2</ele>
        <time>2010-03-07T04:31:27Z</time>
      </trkpt>
      <trkpt lat="44.00119" lon="3.58645">
        <ele>340.3</ele>
        <time>2010-03-07T04:31:32Z</time>
      </trkpt>
      <trkpt lat="44.00055" lon="3.58587">
        <ele>337.1</ele>
        <time>2010-03-07T04:32:07Z</time>
      </trkpt>
      <trkpt lat="44.00046" lon="3.58583">
        <ele>337</ele>
        <time>2010-03-07T04:32:12Z</time>
      </trkpt>
      <trkpt lat="44.00038" lon="3.58586">
        <ele>337</ele>
        <time>2010-03-07T04:32:17Z</time>
      </trkpt>
      <trkpt lat="44.00014" lon="3.58624">
        <ele>334.8</ele>
        <time>2010-03-07T04:32:32Z</time>
      </trkpt>
      <trkpt lat="44.00011" lon="3.58637">
        <ele>334.4</ele>
        <time>2010-03-07T04:32:37Z</time>
      </trkpt>
      <trkpt lat="44.00009" lon="3.58658">
        <ele>333.2</ele>
        <time>2010-03-07T04:32:42Z</time>
      </trkpt>
      <trkpt lat="44.00006" lon="3.58669">
        <ele>332.3</ele>
        <time>2010-03-07T04:32:47Z</time>
      </trkpt>
      <trkpt lat="44.00006" lon="3.58657">
        <ele>333.1</ele>
        <time>2010-03-07T04:32:57Z</time>
      </trkpt>
      <trkpt lat="44.00011" lon="3.58629">
        <ele>334.5</ele>
        <time>2010-03-07T04:33:07Z</time>
      </trkpt>
      <trkpt lat="44.00014" lon="3.5862">
        <ele>334.9</ele>
        <time>2010-03-07T04:33:12Z</time>
      </trkpt>
      <trkpt lat="44.00016" lon="3.58608">
        <ele>335.3</ele>
        <time>2010-03-07T04:33:17Z</time>
      </trkpt>
      <trkpt lat="44.00023" lon="3.58598">
        <ele>336.2</ele>
        <time>2010-03-07T04:33:22Z</time>
      </trkpt>
      <trkpt lat="44.00028" lon="3.58586">
        <ele>336.9</ele>
        <time>2010-03-07T04:33:27Z</time>
      </trkpt>
      <trkpt lat="44.00035" lon="3.58578">
        <ele>337.2</ele>
        <time>2010-03-07T04:33:32Z</time>
      </trkpt>
      <trkpt lat="44.00046" lon="3.58575">
        <ele>337.3</ele>
        <time>2010-03-07T04:33:37Z</time>
      </trkpt>
      <trkpt lat="44.00056" lon="3.58578">
        <ele>337.3</ele>
        <time>2010-03-07T04:33:42Z</time>
      </trkpt>
      <trkpt lat="44.00091" lon="3.58611">
        <ele>339.6</ele>
        <time>2010-03-07T04:34:07Z</time>
      </trkpt>
      <trkpt lat="44.00102" lon="3.58618">
        <ele>340.3</ele>
        <time>2010-03-07T04:34:17Z</time>
      </trkpt>
      <trkpt lat="44.00117" lon="3.58636">
        <ele>340.6</ele>
        <time>2010-03-07T04:34:32Z</time>
      </trkpt>
      <trkpt lat="44.00122" lon="3.58645">
        <ele>340.6</ele>
        <time>2010-03-07T04:34:37Z</time>
      </trkpt>
      <trkpt lat="44.00131" lon="3.5867">
        <ele>340.5</ele>
        <time>2010-03-07T04:34:52Z</time>
      </trkpt>
      <trkpt lat="44.00135" lon="3.58676">
        <ele>341</ele>
        <time>2010-03-07T04:34:57Z</time>
      </trkpt>
      <trkpt lat="44.00144" lon="3.5868">
        <ele>341.9</ele>
        <time>2010-03-07T04:35:07Z</time>
      </trkpt>
      <trkpt lat="44.00145" lon="3.5869">
        <ele>342.2</ele>
        <time>2010-03-07T04:35:12Z</time>
      </trkpt>
      <trkpt lat="44.00152" lon="3.58693">
        <ele>342.5</ele>
        <time>2010-03-07T04:35:17Z</time>
      </trkpt>
      <trkpt lat="44.00162" lon="3.58693">
        <ele>342.9</ele>
        <time>2010-03-07T04:35:22Z</time>
      </trkpt>
      <trkpt lat="44.0019" lon="3.58701">
        <ele>344.5</ele>
        <time>2010-03-07T04:35:42Z</time>
      </trkpt>
      <trkpt lat="44.00202" lon="3.5871">
        <ele>344.9</ele>
        <time>2010-03-07T04:35:52Z</time>
      </trkpt>
      <trkpt lat="44.00234" lon="3.58744">
        <ele>345.9</ele>
        <time>2010-03-07T04:36:22Z</time>
      </trkpt>
      <trkpt lat="44.00252" lon="3.58761">
        <ele>344.6</ele>
        <time>2010-03-07T04:36:37Z</time>
      </trkpt>
      <trkpt lat="44.00277" lon="3.58771">
        <ele>347.5</ele>
        <time>2010-03-07T04:36:57Z</time>
      </trkpt>
      <trkpt lat="44.00296" lon="3.58775">
        <ele>348.6</ele>
        <time>2010-03-07T04:37:12Z</time>
      </trkpt>
      <trkpt lat="44.00302" lon="3.58761">
        <ele>350.1</ele>
        <time>2010-03-07T04:37:22Z</time>
      </trkpt>
      <trkpt lat="44.00304" lon="3.58725">
        <ele>351.8</ele>
        <time>2010-03-07T04:37:37Z</time>
      </trkpt>
      <trkpt lat="44.00312" lon="3.5868">
        <ele>353.8</ele>
        <time>2010-03-07T04:37:57Z</time>
      </trkpt>
      <trkpt lat="44.00316" lon="3.58674">
        <ele>354.1</ele>
        <time>2010-03-07T04:38:02Z</time>
      </trkpt>
      <trkpt lat="44.00322" lon="3.58673">
        <ele>354.3</ele>
        <time>2010-03-07T04:38:07Z</time>
      </trkpt>
      <trkpt lat="44.00326" lon="3.58678">
        <ele>354.3</ele>
        <time>2010-03-07T04:38:12Z</time>
      </trkpt>
      <trkpt lat="44.00332" lon="3.58707">
        <ele>353.5</ele>
        <time>2010-03-07T04:38:27Z</time>
      </trkpt>
      <trkpt lat="44.00336" lon="3.5871">
        <ele>353.5</ele>
        <time>2010-03-07T04:38:32Z</time>
      </trkpt>
      <trkpt lat="44.00338" lon="3.58705">
        <ele>353.8</ele>
        <time>2010-03-07T04:38:42Z</time>
      </trkpt>
      <trkpt lat="44.00341" lon="3.58703">
        <ele>354</ele>
        <time>2010-03-07T04:38:47Z</time>
      </trkpt>
      <trkpt lat="44.00341" lon="3.58697">
        <ele>354.2</ele>
        <time>2010-03-07T04:38:57Z</time>
      </trkpt>
      <trkpt lat="44.00343" lon="3.58697">
        <ele>354.3</ele>
        <time>2010-03-07T04:39:12Z</time>
      </trkpt>
      <trkpt lat="44.00342" lon="3.58699">
        <ele>354.1</ele>
        <time>2010-03-07T04:39:17Z</time>
      </trkpt>
      <trkpt lat="44.00339" lon="3.58695">
        <ele>354.2</ele>
        <time>2010-03-07T04:39:27Z</time>
      </trkpt>
      <trkpt lat="44.00343" lon="3.58698">
        <ele>354.2</ele>
        <time>2010-03-07T04:39:42Z</time>
      </trkpt>
      <trkpt lat="44.00345" lon="3.58697">
        <ele>354.3</ele>
        <time>2010-03-07T04:39:52Z</time>
      </trkpt>
      <trkpt lat="44.00345" lon="3.587">
        <ele>354.2</ele>
        <time>2010-03-07T04:39:57Z</time>
      </trkpt>
      <trkpt lat="44.0034" lon="3.58701">
        <ele>354</ele>
        <time>2010-03-07T04:40:12Z</time>
      </trkpt>
      <trkpt lat="44.00339" lon="3.58704">
        <ele>353.8</ele>
        <time>2010-03-07T04:40:17Z</time>
      </trkpt>
      <trkpt lat="44.0034" lon="3.58703">
        <ele>353.9</ele>
        <time>2010-03-07T04:40:22Z</time>
      </trkpt>
      <trkpt lat="44.00343" lon="3.58704">
        <ele>354</ele>
        <time>2010-03-07T04:40:32Z</time>
      </trkpt>
      <trkpt lat="44.00342" lon="3.58705">
        <ele>353.9</ele>
        <time>2010-03-07T04:40:37Z</time>
      </trkpt>
      <trkpt lat="44.00343" lon="3.58703">
        <ele>354</ele>
        <time>2010-03-07T04:40:42Z</time>
      </trkpt>
      <trkpt lat="44.00341" lon="3.58702">
        <ele>354</ele>
        <time>2010-03-07T04:40:47Z</time>
      </trkpt>
      <trkpt lat="44.00344" lon="3.587">
        <ele>354.2</ele>
        <time>2010-03-07T04:40:57Z</time>
      </trkpt>
      <trkpt lat="44.00342" lon="3.58701">
        <ele>354.1</ele>
        <time>2010-03-07T04:41:07Z</time>
      </trkpt>
      <trkpt lat="44.0034" lon="3.58698">
        <ele>354.1</ele>
        <time>2010-03-07T04:41:12Z</time>
      </trkpt>
      <trkpt lat="44.00347" lon="3.58688">
        <ele>355</ele>
        <time>2010-03-07T04:41:22Z</time>
      </trkpt>
      <trkpt lat="44.00343" lon="3.58692">
        <ele>354.5</ele>
        <time>2010-03-07T04:41:32Z</time>
      </trkpt>
      <trkpt lat="44.00341" lon="3.58687">
        <ele>354.7</ele>
        <time>2010-03-07T04:41:42Z</time>
      </trkpt>
      <trkpt lat="44.0034" lon="3.58695">
        <ele>354.2</ele>
        <time>2010-03-07T04:41:57Z</time>
      </trkpt>
      <trkpt lat="44.00342" lon="3.58696">
        <ele>354.2</ele>
        <time>2010-03-07T04:42:07Z</time>
      </trkpt>
      <trkpt lat="44.00339" lon="3.58697">
        <ele>354.1</ele>
        <time>2010-03-07T04:42:12Z</time>
      </trkpt>
      <trkpt lat="44.00341" lon="3.58699">
        <ele>354.1</ele>
        <time>2010-03-07T04:42:17Z</time>
      </trkpt>
      <trkpt lat="44.00341" lon="3.58695">
        <ele>354.3</ele>
        <time>2010-03-07T04:42:32Z</time>
      </trkpt>
      <trkpt lat="44.00343" lon="3.58699">
        <ele>354.2</ele>
        <time>2010-03-07T04:42:37Z</time>
      </trkpt>
      <trkpt lat="44.00339" lon="3.58698">
        <ele>354.1</ele>
        <time>2010-03-07T04:42:47Z</time>
      </trkpt>
      <trkpt lat="44.00347" lon="3.5869">
        <ele>354.8</ele>
        <time>2010-03-07T04:43:02Z</time>
      </trkpt>
      <trkpt lat="44.00349" lon="3.58691">
        <ele>354.9</ele>
        <time>2010-03-07T04:43:07Z</time>
      </trkpt>
      <trkpt lat="44.00342" lon="3.587">
        <ele>354.1</ele>
        <time>2010-03-07T04:43:27Z</time>
      </trkpt>
      <trkpt lat="44.00339" lon="3.58696">
        <ele>354.2</ele>
        <time>2010-03-07T04:43:47Z</time>
      </trkpt>
      <trkpt lat="44.00338" lon="3.58697">
        <ele>354.1</ele>
        <time>2010-03-07T04:43:52Z</time>
      </trkpt>
      <trkpt lat="44.00339" lon="3.58696">
        <ele>354.2</ele>
        <time>2010-03-07T04:43:57Z</time>
      </trkpt>
      <trkpt lat="44.00338" lon="3.58695">
        <ele>354.1</ele>
        <time>2010-03-07T04:44:02Z</time>
      </trkpt>
      <trkpt lat="44.00341" lon="3.58701">
        <ele>354</ele>
        <time>2010-03-07T04:44:07Z</time>
      </trkpt>
      <trkpt lat="44.00343" lon="3.58701">
        <ele>354.1</ele>
        <time>2010-03-07T04:44:12Z</time>
      </trkpt>
      <trkpt lat="44.0034" lon="3.58701">
        <ele>354</ele>
        <time>2010-03-07T04:44:27Z</time>
      </trkpt>
      <trkpt lat="44.00343" lon="3.58699">
        <ele>354.2</ele>
        <time>2010-03-07T04:44:37Z</time>
      </trkpt>
      <trkpt lat="44.0034" lon="3.58697">
        <ele>354.2</ele>
        <time>2010-03-07T04:44:42Z</time>
      </trkpt>
      <trkpt lat="44.00344" lon="3.58693">
        <ele>354.5</ele>
        <time>2010-03-07T04:44:57Z</time>
      </trkpt>
      <trkpt lat="44.00343" lon="3.58691">
        <ele>354.6</ele>
        <time>2010-03-07T04:45:02Z</time>
      </trkpt>
      <trkpt lat="44.00344" lon="3.58695">
        <ele>354.4</ele>
        <time>2010-03-07T04:45:17Z</time>
      </trkpt>
      <trkpt lat="44.00341" lon="3.58697">
        <ele>354.2</ele>
        <time>2010-03-07T04:45:27Z</time>
      </trkpt>
      <trkpt lat="44.00341" lon="3.58695">
        <ele>354.3</ele>
        <time>2010-03-07T04:45:37Z</time>
      </trkpt>
      <trkpt lat="44.00344" lon="3.58696">
        <ele>354.3</ele>
        <time>2010-03-07T04:45:52Z</time>
      </trkpt>
      <trkpt lat="44.00343" lon="3.58692">
        <ele>354.5</ele>
        <time>2010-03-07T04:46:12Z</time>
      </trkpt>
      <trkpt lat="44.00342" lon="3.58694">
        <ele>354.3</ele>
        <time>2010-03-07T04:46:17Z</time>
      </trkpt>
      <trkpt lat="44.00339" lon="3.58691">
        <ele>354.4</ele>
        <time>2010-03-07T04:46:27Z</time>
      </trkpt>
      <trkpt lat="44.00338" lon="3.58696">
        <ele>354.1</ele>
        <time>2010-03-07T04:46:42Z</time>
      </trkpt>
      <trkpt lat="44.0034" lon="3.58697">
        <ele>354.1</ele>
        <time>2010-03-07T04:46:47Z</time>
      </trkpt>
      <trkpt lat="44.00339" lon="3.587">
        <ele>354</ele>
        <time>2010-03-07T04:46:52Z</time>
      </trkpt>
      <trkpt lat="44.0034" lon="3.587">
        <ele>354.1</ele>
        <time>2010-03-07T04:46:57Z</time>
      </trkpt>
      <trkpt lat="44.00339" lon="3.587">
        <ele>354</ele>
        <time>2010-03-07T04:47:02Z</time>
      </trkpt>
      <trkpt lat="44.0034" lon="3.58702">
        <ele>354</ele>
        <time>2010-03-07T04:47:07Z</time>
      </trkpt>
      <trkpt lat="44.0034" lon="3.58698">
        <ele>354.1</ele>
        <time>2010-03-07T04:47:12Z</time>
      </trkpt>
      <trkpt lat="44.00341" lon="3.58701">
        <ele>354</ele>
        <time>2010-03-07T04:47:17Z</time>
      </trkpt>
      <trkpt lat="44.00342" lon="3.58697">
        <ele>354.2</ele>
        <time>2010-03-07T04:47:27Z</time>
      </trkpt>
      <trkpt lat="44.00336" lon="3.58697">
        <ele>354</ele>
        <time>2010-03-07T04:47:37Z</time>
      </trkpt>
      <trkpt lat="44.00336" lon="3.58691">
        <ele>354.3</ele>
        <time>2010-03-07T04:47:42Z</time>
      </trkpt>
      <trkpt lat="44.00328" lon="3.58683">
        <ele>354.2</ele>
        <time>2010-03-07T04:47:52Z</time>
      </trkpt>
      <trkpt lat="44.00327" lon="3.58675">
        <ele>354.5</ele>
        <time>2010-03-07T04:48:02Z</time>
      </trkpt>
      <trkpt lat="44.00331" lon="3.58673">
        <ele>354.7</ele>
        <time>2010-03-07T04:48:12Z</time>
      </trkpt>
      <trkpt lat="44.0037" lon="3.58669">
        <ele>359.4</ele>
        <time>2010-03-07T04:48:47Z</time>
      </trkpt>
      <trkpt lat="44.00376" lon="3.58666">
        <ele>360.2</ele>
        <time>2010-03-07T04:48:52Z</time>
      </trkpt>
      <trkpt lat="44.00407" lon="3.58661">
        <ele>362.7</ele>
        <time>2010-03-07T04:49:12Z</time>
      </trkpt>
      <trkpt lat="44.0042" lon="3.58652">
        <ele>364.2</ele>
        <time>2010-03-07T04:49:22Z</time>
      </trkpt>
      <trkpt lat="44.00423" lon="3.58646">
        <ele>364.9</ele>
        <time>2010-03-07T04:49:27Z</time>
      </trkpt>
      <trkpt lat="44.00422" lon="3.58629">
        <ele>366.1</ele>
        <time>2010-03-07T04:49:37Z</time>
      </trkpt>
      <trkpt lat="44.00435" lon="3.58596">
        <ele>369</ele>
        <time>2010-03-07T04:49:57Z</time>
      </trkpt>
      <trkpt lat="44.00429" lon="3.58567">
        <ele>370.2</ele>
        <time>2010-03-07T04:50:12Z</time>
      </trkpt>
      <trkpt lat="44.00439" lon="3.58524">
        <ele>379.6</ele>
        <time>2010-03-07T04:50:42Z</time>
      </trkpt>
      <trkpt lat="44.00439" lon="3.58494">
        <ele>386.4</ele>
        <time>2010-03-07T04:51:07Z</time>
      </trkpt>
      <trkpt lat="44.00425" lon="3.58474">
        <ele>385.7</ele>
        <time>2010-03-07T04:51:27Z</time>
      </trkpt>
      <trkpt lat="44.00411" lon="3.58464">
        <ele>384.6</ele>
        <time>2010-03-07T04:51:37Z</time>
      </trkpt>
      <trkpt lat="44.00405" lon="3.58462">
        <ele>384.7</ele>
        <time>2010-03-07T04:51:42Z</time>
      </trkpt>
      <trkpt lat="44.00389" lon="3.5845">
        <ele>386</ele>
        <time>2010-03-07T04:51:57Z</time>
      </trkpt>
      <trkpt lat="44.00373" lon="3.58451">
        <ele>386.2</ele>
        <time>2010-03-07T04:52:07Z</time>
      </trkpt>
      <trkpt lat="44.0036" lon="3.58446">
        <ele>387.7</ele>
        <time>2010-03-07T04:52:17Z</time>
      </trkpt>
      <trkpt lat="44.00342" lon="3.58434">
        <ele>390.7</ele>
        <time>2010-03-07T04:52:32Z</time>
      </trkpt>
      <trkpt lat="44.00322" lon="3.58418">
        <ele>393.5</ele>
        <time>2010-03-07T04:52:47Z</time>
      </trkpt>
      <trkpt lat="44.0029" lon="3.58377">
        <ele>396.9</ele>
        <time>2010-03-07T04:53:17Z</time>
      </trkpt>
      <trkpt lat="44.00285" lon="3.58367">
        <ele>397.1</ele>
        <time>2010-03-07T04:53:22Z</time>
      </trkpt>
      <trkpt lat="44.00302" lon="3.58367">
        <ele>400.5</ele>
        <time>2010-03-07T04:53:42Z</time>
      </trkpt>
      <trkpt lat="44.00319" lon="3.58356">
        <ele>405.5</ele>
        <time>2010-03-07T04:54:02Z</time>
      </trkpt>
      <trkpt lat="44.0033" lon="3.58345">
        <ele>408.2</ele>
        <time>2010-03-07T04:54:17Z</time>
      </trkpt>
      <trkpt lat="44.00336" lon="3.58334">
        <ele>409.4</ele>
        <time>2010-03-07T04:54:27Z</time>
      </trkpt>
      <trkpt lat="44.0034" lon="3.58331">
        <ele>410.3</ele>
        <time>2010-03-07T04:54:32Z</time>
      </trkpt>
      <trkpt lat="44.00345" lon="3.58319">
        <ele>412.2</ele>
        <time>2010-03-07T04:54:42Z</time>
      </trkpt>
      <trkpt lat="44.00347" lon="3.58313">
        <ele>412.9</ele>
        <time>2010-03-07T04:54:47Z</time>
      </trkpt>
      <trkpt lat="44.0036" lon="3.58284">
        <ele>414.9</ele>
        <time>2010-03-07T04:55:07Z</time>
      </trkpt>
      <trkpt lat="44.00381" lon="3.58255">
        <ele>418.3</ele>
        <time>2010-03-07T04:55:32Z</time>
      </trkpt>
      <trkpt lat="44.00388" lon="3.5824">
        <ele>419.9</ele>
        <time>2010-03-07T04:55:42Z</time>
      </trkpt>
      <trkpt lat="44.00398" lon="3.5823">
        <ele>422.7</ele>
        <time>2010-03-07T04:55:52Z</time>
      </trkpt>
      <trkpt lat="44.00404" lon="3.58216">
        <ele>424.7</ele>
        <time>2010-03-07T04:56:02Z</time>
      </trkpt>
      <trkpt lat="44.00419" lon="3.58152">
        <ele>430.3</ele>
        <time>2010-03-07T04:56:47Z</time>
      </trkpt>
      <trkpt lat="44.00416" lon="3.58138">
        <ele>429.7</ele>
        <time>2010-03-07T04:56:57Z</time>
      </trkpt>
      <trkpt lat="44.00418" lon="3.58112">
        <ele>433.4</ele>
        <time>2010-03-07T04:57:17Z</time>
      </trkpt>
      <trkpt lat="44.00404" lon="3.5804">
        <ele>435.7</ele>
        <time>2010-03-07T04:58:02Z</time>
      </trkpt>
      <trkpt lat="44.00403" lon="3.58009">
        <ele>439.5</ele>
        <time>2010-03-07T04:58:22Z</time>
      </trkpt>
      <trkpt lat="44.00407" lon="3.57987">
        <ele>444.7</ele>
        <time>2010-03-07T04:58:42Z</time>
      </trkpt>
      <trkpt lat="44.00405" lon="3.57967">
        <ele>445.9</ele>
        <time>2010-03-07T04:58:57Z</time>
      </trkpt>
      <trkpt lat="44.00407" lon="3.57939">
        <ele>447.5</ele>
        <time>2010-03-07T04:59:17Z</time>
      </trkpt>
      <trkpt lat="44.00412" lon="3.57918">
        <ele>449.6</ele>
        <time>2010-03-07T04:59:32Z</time>
      </trkpt>
      <trkpt lat="44.00418" lon="3.57905">
        <ele>452.9</ele>
        <time>2010-03-07T04:59:42Z</time>
      </trkpt>
      <trkpt lat="44.00418" lon="3.57879">
        <ele>454.9</ele>
        <time>2010-03-07T04:59:57Z</time>
      </trkpt>
      <trkpt lat="44.00414" lon="3.57866">
        <ele>454.7</ele>
        <time>2010-03-07T05:00:07Z</time>
      </trkpt>
      <trkpt lat="44.00402" lon="3.5786">
        <ele>453.3</ele>
        <time>2010-03-07T05:00:17Z</time>
      </trkpt>
      <trkpt lat="44.00389" lon="3.57849">
        <ele>454</ele>
        <time>2010-03-07T05:00:32Z</time>
      </trkpt>
      <trkpt lat="44.00387" lon="3.5784">
        <ele>456.3</ele>
        <time>2010-03-07T05:00:42Z</time>
      </trkpt>
      <trkpt lat="44.00389" lon="3.57827">
        <ele>460.9</ele>
        <time>2010-03-07T05:00:52Z</time>
      </trkpt>
      <trkpt lat="44.00383" lon="3.57815">
        <ele>462.1</ele>
        <time>2010-03-07T05:01:07Z</time>
      </trkpt>
      <trkpt lat="44.00377" lon="3.57792">
        <ele>465.6</ele>
        <time>2010-03-07T05:01:22Z</time>
      </trkpt>
      <trkpt lat="44.00374" lon="3.5776">
        <ele>471.4</ele>
        <time>2010-03-07T05:01:52Z</time>
      </trkpt>
      <trkpt lat="44.0037" lon="3.57756">
        <ele>470.5</ele>
        <time>2010-03-07T05:01:57Z</time>
      </trkpt>
      <trkpt lat="44.00367" lon="3.57737">
        <ele>473.5</ele>
        <time>2010-03-07T05:02:12Z</time>
      </trkpt>
      <trkpt lat="44.00359" lon="3.57714">
        <ele>476</ele>
        <time>2010-03-07T05:02:32Z</time>
      </trkpt>
      <trkpt lat="44.00353" lon="3.57703">
        <ele>478.3</ele>
        <time>2010-03-07T05:02:42Z</time>
      </trkpt>
      <trkpt lat="44.00349" lon="3.57687">
        <ele>481.6</ele>
        <time>2010-03-07T05:02:52Z</time>
      </trkpt>
      <trkpt lat="44.00349" lon="3.57681">
        <ele>483</ele>
        <time>2010-03-07T05:02:57Z</time>
      </trkpt>
      <trkpt lat="44.00342" lon="3.57664">
        <ele>486.3</ele>
        <time>2010-03-07T05:03:12Z</time>
      </trkpt>
      <trkpt lat="44.00339" lon="3.57646">
        <ele>490.5</ele>
        <time>2010-03-07T05:03:32Z</time>
      </trkpt>
      <trkpt lat="44.00332" lon="3.57629">
        <ele>494.2</ele>
        <time>2010-03-07T05:03:52Z</time>
      </trkpt>
      <trkpt lat="44.00334" lon="3.57623">
        <ele>495.6</ele>
        <time>2010-03-07T05:04:02Z</time>
      </trkpt>
      <trkpt lat="44.00332" lon="3.57612">
        <ele>498</ele>
        <time>2010-03-07T05:04:12Z</time>
      </trkpt>
      <trkpt lat="44.00328" lon="3.57606">
        <ele>499.4</ele>
        <time>2010-03-07T05:04:22Z</time>
      </trkpt>
      <trkpt lat="44.00321" lon="3.57591">
        <ele>502.3</ele>
        <time>2010-03-07T05:04:42Z</time>
      </trkpt>
      <trkpt lat="44.0032" lon="3.57579">
        <ele>503.8</ele>
        <time>2010-03-07T05:04:57Z</time>
      </trkpt>
      <trkpt lat="44.00321" lon="3.57574">
        <ele>504.2</ele>
        <time>2010-03-07T05:05:02Z</time>
      </trkpt>
      <trkpt lat="44.0032" lon="3.57569">
        <ele>504.5</ele>
        <time>2010-03-07T05:05:07Z</time>
      </trkpt>
      <trkpt lat="44.00311" lon="3.57565">
        <ele>504.3</ele>
        <time>2010-03-07T05:05:17Z</time>
      </trkpt>
      <trkpt lat="44.00307" lon="3.57558">
        <ele>504.2</ele>
        <time>2010-03-07T05:05:22Z</time>
      </trkpt>
      <trkpt lat="44.00304" lon="3.57527">
        <ele>505.1</ele>
        <time>2010-03-07T05:05:37Z</time>
      </trkpt>
      <trkpt lat="44.00306" lon="3.57488">
        <ele>499.4</ele>
        <time>2010-03-07T05:05:57Z</time>
      </trkpt>
      <trkpt lat="44.00308" lon="3.5748">
        <ele>498.7</ele>
        <time>2010-03-07T05:06:02Z</time>
      </trkpt>
      <trkpt lat="44.00302" lon="3.57445">
        <ele>493.2</ele>
        <time>2010-03-07T05:06:22Z</time>
      </trkpt>
      <trkpt lat="44.00303" lon="3.57416">
        <ele>486</ele>
        <time>2010-03-07T05:06:37Z</time>
      </trkpt>
      <trkpt lat="44.00307" lon="3.57387">
        <ele>480.7</ele>
        <time>2010-03-07T05:06:47Z</time>
      </trkpt>
      <trkpt lat="44.00327" lon="3.57367">
        <ele>479.9</ele>
        <time>2010-03-07T05:06:57Z</time>
      </trkpt>
      <trkpt lat="44.00328" lon="3.57349">
        <ele>481.4</ele>
        <time>2010-03-07T05:07:07Z</time>
      </trkpt>
      <trkpt lat="44.0032" lon="3.5733">
        <ele>482.1</ele>
        <time>2010-03-07T05:07:22Z</time>
      </trkpt>
      <trkpt lat="44.00314" lon="3.57299">
        <ele>486.1</ele>
        <time>2010-03-07T05:07:42Z</time>
      </trkpt>
      <trkpt lat="44.00304" lon="3.57277">
        <ele>486.6</ele>
        <time>2010-03-07T05:07:52Z</time>
      </trkpt>
      <trkpt lat="44.00267" lon="3.57217">
        <ele>480.9</ele>
        <time>2010-03-07T05:08:17Z</time>
      </trkpt>
      <trkpt lat="44.00257" lon="3.57193">
        <ele>479.2</ele>
        <time>2010-03-07T05:08:27Z</time>
      </trkpt>
      <trkpt lat="44.00243" lon="3.57169">
        <ele>477.8</ele>
        <time>2010-03-07T05:08:37Z</time>
      </trkpt>
      <trkpt lat="44.00232" lon="3.57141">
        <ele>478</ele>
        <time>2010-03-07T05:08:47Z</time>
      </trkpt>
      <trkpt lat="44.00213" lon="3.57119">
        <ele>476.5</ele>
        <time>2010-03-07T05:08:57Z</time>
      </trkpt>
      <trkpt lat="44.00211" lon="3.57102">
        <ele>474.2</ele>
        <time>2010-03-07T05:09:02Z</time>
      </trkpt>
      <trkpt lat="44.00198" lon="3.57075">
        <ele>470.4</ele>
        <time>2010-03-07T05:09:12Z</time>
      </trkpt>
      <trkpt lat="44.00183" lon="3.57049">
        <ele>467.1</ele>
        <time>2010-03-07T05:09:22Z</time>
      </trkpt>
      <trkpt lat="44.00174" lon="3.5704">
        <ele>466.3</ele>
        <time>2010-03-07T05:09:27Z</time>
      </trkpt>
      <trkpt lat="44.0017" lon="3.57033">
        <ele>464.9</ele>
        <time>2010-03-07T05:09:32Z</time>
      </trkpt>
      <trkpt lat="44.00177" lon="3.57026">
        <ele>462.4</ele>
        <time>2010-03-07T05:09:37Z</time>
      </trkpt>
      <trkpt lat="44.00193" lon="3.57022">
        <ele>459.9</ele>
        <time>2010-03-07T05:09:47Z</time>
      </trkpt>
      <trkpt lat="44.00203" lon="3.57034">
        <ele>459.8</ele>
        <time>2010-03-07T05:09:57Z</time>
      </trkpt>
      <trkpt lat="44.00208" lon="3.57037">
        <ele>458.7</ele>
        <time>2010-03-07T05:10:02Z</time>
      </trkpt>
      <trkpt lat="44.0023" lon="3.57032">
        <ele>453</ele>
        <time>2010-03-07T05:10:12Z</time>
      </trkpt>
      <trkpt lat="44.00237" lon="3.57022">
        <ele>450.8</ele>
        <time>2010-03-07T05:10:17Z</time>
      </trkpt>
      <trkpt lat="44.00241" lon="3.56973">
        <ele>442.7</ele>
        <time>2010-03-07T05:10:32Z</time>
      </trkpt>
      <trkpt lat="44.0024" lon="3.56954">
        <ele>440.4</ele>
        <time>2010-03-07T05:10:37Z</time>
      </trkpt>
      <trkpt lat="44.00241" lon="3.56937">
        <ele>439.8</ele>
        <time>2010-03-07T05:10:42Z</time>
      </trkpt>
      <trkpt lat="44.00236" lon="3.5687">
        <ele>432</ele>
        <time>2010-03-07T05:11:02Z</time>
      </trkpt>
      <trkpt lat="44.0023" lon="3.56858">
        <ele>429</ele>
        <time>2010-03-07T05:11:07Z</time>
      </trkpt>
      <trkpt lat="44.00216" lon="3.5681">
        <ele>424</ele>
        <time>2010-03-07T05:11:22Z</time>
      </trkpt>
      <trkpt lat="44.00213" lon="3.56794">
        <ele>423</ele>
        <time>2010-03-07T05:11:27Z</time>
      </trkpt>
      <trkpt lat="44.00202" lon="3.56765">
        <ele>418.7</ele>
        <time>2010-03-07T05:11:37Z</time>
      </trkpt>
      <trkpt lat="44.00201" lon="3.56746">
        <ele>417.9</ele>
        <time>2010-03-07T05:11:42Z</time>
      </trkpt>
      <trkpt lat="44.00206" lon="3.56694">
        <ele>413.7</ele>
        <time>2010-03-07T05:11:57Z</time>
      </trkpt>
      <trkpt lat="44.00205" lon="3.56677">
        <ele>411.2</ele>
        <time>2010-03-07T05:12:02Z</time>
      </trkpt>
      <trkpt lat="44.00238" lon="3.56636">
        <ele>408.5</ele>
        <time>2010-03-07T05:12:22Z</time>
      </trkpt>
      <trkpt lat="44.00243" lon="3.56624">
        <ele>407</ele>
        <time>2010-03-07T05:12:27Z</time>
      </trkpt>
      <trkpt lat="44.00248" lon="3.5662">
        <ele>407.3</ele>
        <time>2010-03-07T05:12:32Z</time>
      </trkpt>
      <trkpt lat="44.00261" lon="3.56621">
        <ele>408</ele>
        <time>2010-03-07T05:12:37Z</time>
      </trkpt>
      <trkpt lat="44.00302" lon="3.56605">
        <ele>400.3</ele>
        <time>2010-03-07T05:12:57Z</time>
      </trkpt>
      <trkpt lat="44.00315" lon="3.56587">
        <ele>396.8</ele>
        <time>2010-03-07T05:13:07Z</time>
      </trkpt>
      <trkpt lat="44.00314" lon="3.56574">
        <ele>394.1</ele>
        <time>2010-03-07T05:13:12Z</time>
      </trkpt>
      <trkpt lat="44.00308" lon="3.56563">
        <ele>391.7</ele>
        <time>2010-03-07T05:13:17Z</time>
      </trkpt>
      <trkpt lat="44.00282" lon="3.56549">
        <ele>388</ele>
        <time>2010-03-07T05:13:27Z</time>
      </trkpt>
      <trkpt lat="44.00278" lon="3.56532">
        <ele>382.3</ele>
        <time>2010-03-07T05:13:32Z</time>
      </trkpt>
      <trkpt lat="44.00279" lon="3.56502">
        <ele>384.7</ele>
        <time>2010-03-07T05:13:42Z</time>
      </trkpt>
      <trkpt lat="44.00271" lon="3.56494">
        <ele>387.3</ele>
        <time>2010-03-07T05:13:47Z</time>
      </trkpt>
      <trkpt lat="44.0024" lon="3.56492">
        <ele>386.4</ele>
        <time>2010-03-07T05:14:02Z</time>
      </trkpt>
      <trkpt lat="44.0019" lon="3.56505">
        <ele>385.6</ele>
        <time>2010-03-07T05:14:27Z</time>
      </trkpt>
      <trkpt lat="44.00178" lon="3.56505">
        <ele>386</ele>
        <time>2010-03-07T05:14:32Z</time>
      </trkpt>
      <trkpt lat="44.00156" lon="3.56495">
        <ele>388.4</ele>
        <time>2010-03-07T05:14:42Z</time>
      </trkpt>
      <trkpt lat="44.00136" lon="3.56479">
        <ele>389.7</ele>
        <time>2010-03-07T05:14:52Z</time>
      </trkpt>
      <trkpt lat="44.0013" lon="3.56469">
        <ele>390.3</ele>
        <time>2010-03-07T05:14:57Z</time>
      </trkpt>
      <trkpt lat="44.00121" lon="3.56445">
        <ele>391.1</ele>
        <time>2010-03-07T05:15:07Z</time>
      </trkpt>
      <trkpt lat="44.00115" lon="3.56401">
        <ele>393.9</ele>
        <time>2010-03-07T05:15:27Z</time>
      </trkpt>
      <trkpt lat="44.00109" lon="3.56387">
        <ele>395.4</ele>
        <time>2010-03-07T05:15:37Z</time>
      </trkpt>
      <trkpt lat="44.00104" lon="3.56382">
        <ele>396.2</ele>
        <time>2010-03-07T05:15:42Z</time>
      </trkpt>
      <trkpt lat="44.00069" lon="3.56377">
        <ele>398</ele>
        <time>2010-03-07T05:16:12Z</time>
      </trkpt>
      <trkpt lat="44.00029" lon="3.5638">
        <ele>400.5</ele>
        <time>2010-03-07T05:16:42Z</time>
      </trkpt>
      <trkpt lat="44.00016" lon="3.56389">
        <ele>398.3</ele>
        <time>2010-03-07T05:16:52Z</time>
      </trkpt>
      <trkpt lat="43.9998" lon="3.56406">
        <ele>398.8</ele>
        <time>2010-03-07T05:17:17Z</time>
      </trkpt>
      <trkpt lat="43.9996" lon="3.56412">
        <ele>400.5</ele>
        <time>2010-03-07T05:17:32Z</time>
      </trkpt>
      <trkpt lat="43.99929" lon="3.56426">
        <ele>404.4</ele>
        <time>2010-03-07T05:17:57Z</time>
      </trkpt>
      <trkpt lat="43.99919" lon="3.56424">
        <ele>408</ele>
        <time>2010-03-07T05:18:07Z</time>
      </trkpt>
      <trkpt lat="43.99913" lon="3.56427">
        <ele>408</ele>
        <time>2010-03-07T05:18:12Z</time>
      </trkpt>
      <trkpt lat="43.99896" lon="3.56416">
        <ele>411.9</ele>
        <time>2010-03-07T05:18:32Z</time>
      </trkpt>
      <trkpt lat="43.99884" lon="3.56414">
        <ele>412</ele>
        <time>2010-03-07T05:18:42Z</time>
      </trkpt>
      <trkpt lat="43.99875" lon="3.56421">
        <ele>410.2</ele>
        <time>2010-03-07T05:18:47Z</time>
      </trkpt>
      <trkpt lat="43.99859" lon="3.56445">
        <ele>407.6</ele>
        <time>2010-03-07T05:18:57Z</time>
      </trkpt>
      <trkpt lat="43.99849" lon="3.56452">
        <ele>406</ele>
        <time>2010-03-07T05:19:02Z</time>
      </trkpt>
      <trkpt lat="43.99838" lon="3.56426">
        <ele>404.6</ele>
        <time>2010-03-07T05:19:12Z</time>
      </trkpt>
      <trkpt lat="43.99831" lon="3.56403">
        <ele>402.5</ele>
        <time>2010-03-07T05:19:22Z</time>
      </trkpt>
      <trkpt lat="43.99829" lon="3.5638">
        <ele>400.8</ele>
        <time>2010-03-07T05:19:32Z</time>
      </trkpt>
      <trkpt lat="43.99827" lon="3.56374">
        <ele>399.4</ele>
        <time>2010-03-07T05:19:37Z</time>
      </trkpt>
      <trkpt lat="43.99826" lon="3.56345">
        <ele>396.7</ele>
        <time>2010-03-07T05:19:52Z</time>
      </trkpt>
      <trkpt lat="43.99818" lon="3.56311">
        <ele>391.6</ele>
        <time>2010-03-07T05:20:07Z</time>
      </trkpt>
      <trkpt lat="43.99819" lon="3.56303">
        <ele>391.1</ele>
        <time>2010-03-07T05:20:17Z</time>
      </trkpt>
      <trkpt lat="43.99814" lon="3.56302">
        <ele>389.6</ele>
        <time>2010-03-07T05:20:27Z</time>
      </trkpt>
      <trkpt lat="43.99808" lon="3.56288">
        <ele>387.1</ele>
        <time>2010-03-07T05:20:37Z</time>
      </trkpt>
      <trkpt lat="43.99812" lon="3.56245">
        <ele>385.9</ele>
        <time>2010-03-07T05:20:52Z</time>
      </trkpt>
      <trkpt lat="43.99818" lon="3.56217">
        <ele>385.7</ele>
        <time>2010-03-07T05:21:02Z</time>
      </trkpt>
      <trkpt lat="43.99825" lon="3.56162">
        <ele>386.1</ele>
        <time>2010-03-07T05:21:22Z</time>
      </trkpt>
      <trkpt lat="43.99844" lon="3.56095">
        <ele>390.6</ele>
        <time>2010-03-07T05:21:57Z</time>
      </trkpt>
      <trkpt lat="43.99856" lon="3.56029">
        <ele>393.5</ele>
        <time>2010-03-07T05:22:32Z</time>
      </trkpt>
      <trkpt lat="43.99868" lon="3.55982">
        <ele>395</ele>
        <time>2010-03-07T05:22:57Z</time>
      </trkpt>
      <trkpt lat="43.9987" lon="3.55964">
        <ele>395.2</ele>
        <time>2010-03-07T05:23:07Z</time>
      </trkpt>
      <trkpt lat="43.9987" lon="3.55949">
        <ele>394.6</ele>
        <time>2010-03-07T05:23:12Z</time>
      </trkpt>
      <trkpt lat="43.99872" lon="3.55934">
        <ele>394.3</ele>
        <time>2010-03-07T05:23:17Z</time>
      </trkpt>
      <trkpt lat="43.99877" lon="3.55921">
        <ele>394.7</ele>
        <time>2010-03-07T05:23:22Z</time>
      </trkpt>
      <trkpt lat="43.99885" lon="3.5591">
        <ele>394.8</ele>
        <time>2010-03-07T05:23:27Z</time>
      </trkpt>
      <trkpt lat="43.99907" lon="3.55854">
        <ele>394.4</ele>
        <time>2010-03-07T05:23:52Z</time>
      </trkpt>
      <trkpt lat="43.99905" lon="3.55844">
        <ele>393.7</ele>
        <time>2010-03-07T05:23:57Z</time>
      </trkpt>
      <trkpt lat="43.99901" lon="3.55838">
        <ele>393.5</ele>
        <time>2010-03-07T05:24:02Z</time>
      </trkpt>
      <trkpt lat="43.999" lon="3.55829">
        <ele>394</ele>
        <time>2010-03-07T05:24:07Z</time>
      </trkpt>
      <trkpt lat="43.99909" lon="3.55806">
        <ele>396.4</ele>
        <time>2010-03-07T05:24:22Z</time>
      </trkpt>
      <trkpt lat="43.99921" lon="3.55796">
        <ele>399</ele>
        <time>2010-03-07T05:24:32Z</time>
      </trkpt>
      <trkpt lat="43.99923" lon="3.55789">
        <ele>400.4</ele>
        <time>2010-03-07T05:24:37Z</time>
      </trkpt>
      <trkpt lat="43.99937" lon="3.55771">
        <ele>401.9</ele>
        <time>2010-03-07T05:24:52Z</time>
      </trkpt>
      <trkpt lat="43.99941" lon="3.55758">
        <ele>404.2</ele>
        <time>2010-03-07T05:25:02Z</time>
      </trkpt>
      <trkpt lat="43.99947" lon="3.55756">
        <ele>404.8</ele>
        <time>2010-03-07T05:25:07Z</time>
      </trkpt>
      <trkpt lat="43.99963" lon="3.55731">
        <ele>408.9</ele>
        <time>2010-03-07T05:25:27Z</time>
      </trkpt>
      <trkpt lat="43.99965" lon="3.55724">
        <ele>409.8</ele>
        <time>2010-03-07T05:25:32Z</time>
      </trkpt>
      <trkpt lat="43.9997" lon="3.5572">
        <ele>410.8</ele>
        <time>2010-03-07T05:25:37Z</time>
      </trkpt>
      <trkpt lat="43.99969" lon="3.55709">
        <ele>410.9</ele>
        <time>2010-03-07T05:25:42Z</time>
      </trkpt>
      <trkpt lat="43.99966" lon="3.55702">
        <ele>410.8</ele>
        <time>2010-03-07T05:25:47Z</time>
      </trkpt>
      <trkpt lat="43.99966" lon="3.5567">
        <ele>412.7</ele>
        <time>2010-03-07T05:25:57Z</time>
      </trkpt>
      <trkpt lat="43.99959" lon="3.5566">
        <ele>412</ele>
        <time>2010-03-07T05:26:02Z</time>
      </trkpt>
      <trkpt lat="43.99948" lon="3.5565">
        <ele>410.8</ele>
        <time>2010-03-07T05:26:07Z</time>
      </trkpt>
      <trkpt lat="43.99917" lon="3.55596">
        <ele>407.1</ele>
        <time>2010-03-07T05:26:32Z</time>
      </trkpt>
      <trkpt lat="43.99911" lon="3.55574">
        <ele>409.4</ele>
        <time>2010-03-07T05:26:42Z</time>
      </trkpt>
      <trkpt lat="43.99906" lon="3.55572">
        <ele>410.2</ele>
        <time>2010-03-07T05:26:47Z</time>
      </trkpt>
      <trkpt lat="43.99906" lon="3.55581">
        <ele>409.7</ele>
        <time>2010-03-07T05:26:52Z</time>
      </trkpt>
      <trkpt lat="43.99901" lon="3.55589">
        <ele>409.7</ele>
        <time>2010-03-07T05:26:57Z</time>
      </trkpt>
      <trkpt lat="43.99891" lon="3.55597">
        <ele>409.8</ele>
        <time>2010-03-07T05:27:07Z</time>
      </trkpt>
      <trkpt lat="43.99888" lon="3.55604">
        <ele>409.5</ele>
        <time>2010-03-07T05:27:12Z</time>
      </trkpt>
      <trkpt lat="43.99867" lon="3.55627">
        <ele>414.6</ele>
        <time>2010-03-07T05:27:37Z</time>
      </trkpt>
      <trkpt lat="43.99835" lon="3.55697">
        <ele>413.3</ele>
        <time>2010-03-07T05:28:17Z</time>
      </trkpt>
      <trkpt lat="43.99814" lon="3.55725">
        <ele>415.1</ele>
        <time>2010-03-07T05:28:32Z</time>
      </trkpt>
      <trkpt lat="43.99805" lon="3.55747">
        <ele>413.9</ele>
        <time>2010-03-07T05:28:42Z</time>
      </trkpt>
      <trkpt lat="43.99795" lon="3.55753">
        <ele>416</ele>
        <time>2010-03-07T05:28:47Z</time>
      </trkpt>
      <trkpt lat="43.99797" lon="3.55758">
        <ele>414.1</ele>
        <time>2010-03-07T05:28:52Z</time>
      </trkpt>
      <trkpt lat="43.99797" lon="3.55769">
        <ele>412</ele>
        <time>2010-03-07T05:28:57Z</time>
      </trkpt>
      <trkpt lat="43.99777" lon="3.55817">
        <ele>407.2</ele>
        <time>2010-03-07T05:29:17Z</time>
      </trkpt>
      <trkpt lat="43.99762" lon="3.55832">
        <ele>407.7</ele>
        <time>2010-03-07T05:29:27Z</time>
      </trkpt>
      <trkpt lat="43.99756" lon="3.55833">
        <ele>409.2</ele>
        <time>2010-03-07T05:29:32Z</time>
      </trkpt>
      <trkpt lat="43.99762" lon="3.5584">
        <ele>406.5</ele>
        <time>2010-03-07T05:29:42Z</time>
      </trkpt>
      <trkpt lat="43.99765" lon="3.55871">
        <ele>402.1</ele>
        <time>2010-03-07T05:29:57Z</time>
      </trkpt>
      <trkpt lat="43.99747" lon="3.55911">
        <ele>409</ele>
        <time>2010-03-07T05:30:12Z</time>
      </trkpt>
      <trkpt lat="43.9974" lon="3.5595">
        <ele>406.6</ele>
        <time>2010-03-07T05:30:27Z</time>
      </trkpt>
      <trkpt lat="43.99709" lon="3.5602">
        <ele>411.3</ele>
        <time>2010-03-07T05:30:57Z</time>
      </trkpt>
      <trkpt lat="43.99698" lon="3.56056">
        <ele>411</ele>
        <time>2010-03-07T05:31:12Z</time>
      </trkpt>
      <trkpt lat="43.99693" lon="3.56066">
        <ele>411.7</ele>
        <time>2010-03-07T05:31:17Z</time>
      </trkpt>
      <trkpt lat="43.99685" lon="3.56096">
        <ele>410.5</ele>
        <time>2010-03-07T05:31:32Z</time>
      </trkpt>
      <trkpt lat="43.99675" lon="3.56112">
        <ele>412.5</ele>
        <time>2010-03-07T05:31:42Z</time>
      </trkpt>
      <trkpt lat="43.99673" lon="3.56118">
        <ele>412.1</ele>
        <time>2010-03-07T05:31:47Z</time>
      </trkpt>
      <trkpt lat="43.99664" lon="3.56131">
        <ele>413.2</ele>
        <time>2010-03-07T05:31:57Z</time>
      </trkpt>
      <trkpt lat="43.99649" lon="3.56146">
        <ele>415.5</ele>
        <time>2010-03-07T05:32:17Z</time>
      </trkpt>
      <trkpt lat="43.99637" lon="3.56144">
        <ele>419.1</ele>
        <time>2010-03-07T05:32:37Z</time>
      </trkpt>
      <trkpt lat="43.99626" lon="3.56149">
        <ele>418.8</ele>
        <time>2010-03-07T05:32:47Z</time>
      </trkpt>
      <trkpt lat="43.99616" lon="3.56147">
        <ele>419.8</ele>
        <time>2010-03-07T05:32:57Z</time>
      </trkpt>
      <trkpt lat="43.99611" lon="3.56144">
        <ele>420.9</ele>
        <time>2010-03-07T05:33:02Z</time>
      </trkpt>
      <trkpt lat="43.99593" lon="3.56121">
        <ele>419.3</ele>
        <time>2010-03-07T05:33:22Z</time>
      </trkpt>
      <trkpt lat="43.99587" lon="3.56104">
        <ele>420.4</ele>
        <time>2010-03-07T05:33:32Z</time>
      </trkpt>
      <trkpt lat="43.99587" lon="3.56098">
        <ele>422</ele>
        <time>2010-03-07T05:33:37Z</time>
      </trkpt>
      <trkpt lat="43.99568" lon="3.56075">
        <ele>420.3</ele>
        <time>2010-03-07T05:33:52Z</time>
      </trkpt>
      <trkpt lat="43.99551" lon="3.56059">
        <ele>418</ele>
        <time>2010-03-07T05:34:02Z</time>
      </trkpt>
      <trkpt lat="43.9953" lon="3.56045">
        <ele>417.3</ele>
        <time>2010-03-07T05:34:17Z</time>
      </trkpt>
      <trkpt lat="43.99525" lon="3.56044">
        <ele>417.3</ele>
        <time>2010-03-07T05:34:22Z</time>
      </trkpt>
      <trkpt lat="43.99518" lon="3.56049">
        <ele>417</ele>
        <time>2010-03-07T05:34:32Z</time>
      </trkpt>
      <trkpt lat="43.99504" lon="3.56044">
        <ele>419.7</ele>
        <time>2010-03-07T05:34:47Z</time>
      </trkpt>
      <trkpt lat="43.99495" lon="3.56045">
        <ele>420.9</ele>
        <time>2010-03-07T05:35:02Z</time>
      </trkpt>
      <trkpt lat="43.99477" lon="3.56064">
        <ele>421.8</ele>
        <time>2010-03-07T05:35:17Z</time>
      </trkpt>
      <trkpt lat="43.99472" lon="3.56076">
        <ele>424.4</ele>
        <time>2010-03-07T05:35:27Z</time>
      </trkpt>
      <trkpt lat="43.99466" lon="3.56082">
        <ele>427.7</ele>
        <time>2010-03-07T05:35:37Z</time>
      </trkpt>
      <trkpt lat="43.99462" lon="3.56137">
        <ele>430.9</ele>
        <time>2010-03-07T05:36:07Z</time>
      </trkpt>
      <trkpt lat="43.99453" lon="3.56157">
        <ele>432.8</ele>
        <time>2010-03-07T05:36:22Z</time>
      </trkpt>
      <trkpt lat="43.99448" lon="3.56161">
        <ele>434.2</ele>
        <time>2010-03-07T05:36:27Z</time>
      </trkpt>
      <trkpt lat="43.99434" lon="3.56189">
        <ele>438.5</ele>
        <time>2010-03-07T05:36:52Z</time>
      </trkpt>
      <trkpt lat="43.99426" lon="3.56208">
        <ele>440.6</ele>
        <time>2010-03-07T05:37:07Z</time>
      </trkpt>
      <trkpt lat="43.99421" lon="3.56225">
        <ele>441.4</ele>
        <time>2010-03-07T05:37:22Z</time>
      </trkpt>
      <trkpt lat="43.99405" lon="3.56251">
        <ele>445.3</ele>
        <time>2010-03-07T05:37:47Z</time>
      </trkpt>
      <trkpt lat="43.99396" lon="3.56261">
        <ele>446.8</ele>
        <time>2010-03-07T05:37:57Z</time>
      </trkpt>
      <trkpt lat="43.99385" lon="3.56265">
        <ele>449.3</ele>
        <time>2010-03-07T05:38:07Z</time>
      </trkpt>
      <trkpt lat="43.99372" lon="3.56276">
        <ele>451.5</ele>
        <time>2010-03-07T05:38:17Z</time>
      </trkpt>
      <trkpt lat="43.99356" lon="3.56282">
        <ele>453.5</ele>
        <time>2010-03-07T05:38:27Z</time>
      </trkpt>
      <trkpt lat="43.9934" lon="3.56294">
        <ele>452.1</ele>
        <time>2010-03-07T05:38:37Z</time>
      </trkpt>
      <trkpt lat="43.99312" lon="3.56302">
        <ele>454.8</ele>
        <time>2010-03-07T05:38:57Z</time>
      </trkpt>
      <trkpt lat="43.99295" lon="3.56312">
        <ele>455.1</ele>
        <time>2010-03-07T05:39:07Z</time>
      </trkpt>
      <trkpt lat="43.99285" lon="3.56312">
        <ele>457</ele>
        <time>2010-03-07T05:39:12Z</time>
      </trkpt>
      <trkpt lat="43.99257" lon="3.56326">
        <ele>458</ele>
        <time>2010-03-07T05:39:27Z</time>
      </trkpt>
      <trkpt lat="43.99236" lon="3.56343">
        <ele>456.7</ele>
        <time>2010-03-07T05:39:42Z</time>
      </trkpt>
      <trkpt lat="43.99227" lon="3.56367">
        <ele>453.6</ele>
        <time>2010-03-07T05:39:52Z</time>
      </trkpt>
      <trkpt lat="43.9922" lon="3.56379">
        <ele>452.6</ele>
        <time>2010-03-07T05:39:57Z</time>
      </trkpt>
      <trkpt lat="43.99191" lon="3.56416">
        <ele>450.7</ele>
        <time>2010-03-07T05:40:12Z</time>
      </trkpt>
      <trkpt lat="43.99187" lon="3.56428">
        <ele>448.9</ele>
        <time>2010-03-07T05:40:17Z</time>
      </trkpt>
      <trkpt lat="43.99178" lon="3.56437">
        <ele>448.6</ele>
        <time>2010-03-07T05:40:22Z</time>
      </trkpt>
      <trkpt lat="43.99172" lon="3.56449">
        <ele>447</ele>
        <time>2010-03-07T05:40:27Z</time>
      </trkpt>
      <trkpt lat="43.99157" lon="3.56468">
        <ele>445.7</ele>
        <time>2010-03-07T05:40:37Z</time>
      </trkpt>
      <trkpt lat="43.99145" lon="3.56477">
        <ele>447.4</ele>
        <time>2010-03-07T05:40:47Z</time>
      </trkpt>
      <trkpt lat="43.9914" lon="3.56477">
        <ele>448.8</ele>
        <time>2010-03-07T05:40:52Z</time>
      </trkpt>
      <trkpt lat="43.99131" lon="3.56482">
        <ele>449.8</ele>
        <time>2010-03-07T05:41:02Z</time>
      </trkpt>
      <trkpt lat="43.99118" lon="3.56485">
        <ele>452.2</ele>
        <time>2010-03-07T05:41:17Z</time>
      </trkpt>
      <trkpt lat="43.9911" lon="3.56482">
        <ele>454.4</ele>
        <time>2010-03-07T05:41:27Z</time>
      </trkpt>
      <trkpt lat="43.99114" lon="3.56447">
        <ele>459.9</ele>
        <time>2010-03-07T05:42:02Z</time>
      </trkpt>
      <trkpt lat="43.99118" lon="3.56437">
        <ele>461.1</ele>
        <time>2010-03-07T05:42:12Z</time>
      </trkpt>
      <trkpt lat="43.99118" lon="3.5643">
        <ele>462.5</ele>
        <time>2010-03-07T05:42:17Z</time>
      </trkpt>
      <trkpt lat="43.99121" lon="3.5642">
        <ele>463.8</ele>
        <time>2010-03-07T05:42:27Z</time>
      </trkpt>
      <trkpt lat="43.99121" lon="3.5641">
        <ele>465.6</ele>
        <time>2010-03-07T05:42:37Z</time>
      </trkpt>
      <trkpt lat="43.99112" lon="3.56385">
        <ele>471.3</ele>
        <time>2010-03-07T05:43:02Z</time>
      </trkpt>
      <trkpt lat="43.991" lon="3.56363">
        <ele>476.2</ele>
        <time>2010-03-07T05:43:27Z</time>
      </trkpt>
      <trkpt lat="43.99101" lon="3.56335">
        <ele>478.6</ele>
        <time>2010-03-07T05:43:47Z</time>
      </trkpt>
      <trkpt lat="43.99096" lon="3.56302">
        <ele>481.7</ele>
        <time>2010-03-07T05:44:12Z</time>
      </trkpt>
      <trkpt lat="43.99091" lon="3.5629">
        <ele>482</ele>
        <time>2010-03-07T05:44:22Z</time>
      </trkpt>
      <trkpt lat="43.99092" lon="3.5627">
        <ele>482.9</ele>
        <time>2010-03-07T05:44:32Z</time>
      </trkpt>
      <trkpt lat="43.9911" lon="3.56255">
        <ele>486.2</ele>
        <time>2010-03-07T05:44:47Z</time>
      </trkpt>
      <trkpt lat="43.99115" lon="3.56234">
        <ele>487.2</ele>
        <time>2010-03-07T05:45:02Z</time>
      </trkpt>
      <trkpt lat="43.9912" lon="3.56221">
        <ele>487.7</ele>
        <time>2010-03-07T05:45:12Z</time>
      </trkpt>
      <trkpt lat="43.99126" lon="3.56211">
        <ele>488.5</ele>
        <time>2010-03-07T05:45:22Z</time>
      </trkpt>
      <trkpt lat="43.99146" lon="3.56161">
        <ele>494.6</ele>
        <time>2010-03-07T05:46:02Z</time>
      </trkpt>
      <trkpt lat="43.9916" lon="3.56137">
        <ele>498.2</ele>
        <time>2010-03-07T05:46:27Z</time>
      </trkpt>
      <trkpt lat="43.99165" lon="3.56112">
        <ele>503.6</ele>
        <time>2010-03-07T05:46:52Z</time>
      </trkpt>
      <trkpt lat="43.99165" lon="3.56099">
        <ele>506</ele>
        <time>2010-03-07T05:47:02Z</time>
      </trkpt>
      <trkpt lat="43.99176" lon="3.5607">
        <ele>511.4</ele>
        <time>2010-03-07T05:47:37Z</time>
      </trkpt>
      <trkpt lat="43.99179" lon="3.56042">
        <ele>516</ele>
        <time>2010-03-07T05:48:07Z</time>
      </trkpt>
      <trkpt lat="43.99189" lon="3.5602">
        <ele>520.8</ele>
        <time>2010-03-07T05:48:32Z</time>
      </trkpt>
      <trkpt lat="43.99191" lon="3.5601">
        <ele>522.9</ele>
        <time>2010-03-07T05:48:42Z</time>
      </trkpt>
      <trkpt lat="43.992" lon="3.56">
        <ele>525.5</ele>
        <time>2010-03-07T05:48:57Z</time>
      </trkpt>
      <trkpt lat="43.99202" lon="3.55988">
        <ele>526.9</ele>
        <time>2010-03-07T05:49:07Z</time>
      </trkpt>
      <trkpt lat="43.99216" lon="3.55955">
        <ele>532.6</ele>
        <time>2010-03-07T05:49:42Z</time>
      </trkpt>
      <trkpt lat="43.99216" lon="3.55944">
        <ele>534.2</ele>
        <time>2010-03-07T05:49:52Z</time>
      </trkpt>
      <trkpt lat="43.99223" lon="3.55931">
        <ele>536.5</ele>
        <time>2010-03-07T05:50:07Z</time>
      </trkpt>
      <trkpt lat="43.99223" lon="3.55926">
        <ele>537</ele>
        <time>2010-03-07T05:50:12Z</time>
      </trkpt>
      <trkpt lat="43.9923" lon="3.55904">
        <ele>540.1</ele>
        <time>2010-03-07T05:50:32Z</time>
      </trkpt>
      <trkpt lat="43.99243" lon="3.55891">
        <ele>543</ele>
        <time>2010-03-07T05:50:47Z</time>
      </trkpt>
      <trkpt lat="43.99252" lon="3.55878">
        <ele>545.5</ele>
        <time>2010-03-07T05:51:02Z</time>
      </trkpt>
      <trkpt lat="43.9926" lon="3.55871">
        <ele>546.4</ele>
        <time>2010-03-07T05:51:12Z</time>
      </trkpt>
      <trkpt lat="43.99285" lon="3.55814">
        <ele>554.4</ele>
        <time>2010-03-07T05:52:07Z</time>
      </trkpt>
      <trkpt lat="43.99302" lon="3.55752">
        <ele>560.8</ele>
        <time>2010-03-07T05:53:02Z</time>
      </trkpt>
      <trkpt lat="43.99302" lon="3.55733">
        <ele>565.4</ele>
        <time>2010-03-07T05:53:17Z</time>
      </trkpt>
      <trkpt lat="43.99314" lon="3.55713">
        <ele>567.4</ele>
        <time>2010-03-07T05:53:32Z</time>
      </trkpt>
      <trkpt lat="43.99317" lon="3.55701">
        <ele>570.3</ele>
        <time>2010-03-07T05:53:37Z</time>
      </trkpt>
      <trkpt lat="43.99325" lon="3.55693">
        <ele>571.2</ele>
        <time>2010-03-07T05:53:47Z</time>
      </trkpt>
      <trkpt lat="43.99333" lon="3.55668">
        <ele>575.7</ele>
        <time>2010-03-07T05:54:12Z</time>
      </trkpt>
      <trkpt lat="43.99342" lon="3.55654">
        <ele>576.4</ele>
        <time>2010-03-07T05:54:27Z</time>
      </trkpt>
      <trkpt lat="43.99344" lon="3.55647">
        <ele>577.4</ele>
        <time>2010-03-07T05:54:32Z</time>
      </trkpt>
      <trkpt lat="43.99371" lon="3.55606">
        <ele>581.1</ele>
        <time>2010-03-07T05:55:17Z</time>
      </trkpt>
      <trkpt lat="43.9937" lon="3.55599">
        <ele>583.6</ele>
        <time>2010-03-07T05:55:27Z</time>
      </trkpt>
      <trkpt lat="43.99377" lon="3.55591">
        <ele>585.1</ele>
        <time>2010-03-07T05:55:47Z</time>
      </trkpt>
      <trkpt lat="43.99379" lon="3.55591">
        <ele>584.6</ele>
        <time>2010-03-07T05:55:52Z</time>
      </trkpt>
      <trkpt lat="43.99385" lon="3.55585">
        <ele>586.1</ele>
        <time>2010-03-07T05:56:02Z</time>
      </trkpt>
      <trkpt lat="43.99387" lon="3.55575">
        <ele>589</ele>
        <time>2010-03-07T05:56:12Z</time>
      </trkpt>
      <trkpt lat="43.99404" lon="3.55563">
        <ele>589.5</ele>
        <time>2010-03-07T05:56:32Z</time>
      </trkpt>
      <trkpt lat="43.99409" lon="3.55562">
        <ele>589.2</ele>
        <time>2010-03-07T05:56:37Z</time>
      </trkpt>
      <trkpt lat="43.9942" lon="3.55549">
        <ele>593.9</ele>
        <time>2010-03-07T05:56:52Z</time>
      </trkpt>
      <trkpt lat="43.99434" lon="3.55546">
        <ele>595.6</ele>
        <time>2010-03-07T05:57:07Z</time>
      </trkpt>
      <trkpt lat="43.99465" lon="3.55535">
        <ele>603.1</ele>
        <time>2010-03-07T05:57:52Z</time>
      </trkpt>
      <trkpt lat="43.99482" lon="3.55535">
        <ele>605.1</ele>
        <time>2010-03-07T05:58:12Z</time>
      </trkpt>
      <trkpt lat="43.99506" lon="3.5552">
        <ele>608</ele>
        <time>2010-03-07T05:58:42Z</time>
      </trkpt>
      <trkpt lat="43.99514" lon="3.55476">
        <ele>609.5</ele>
        <time>2010-03-07T05:59:12Z</time>
      </trkpt>
      <trkpt lat="43.99512" lon="3.55452">
        <ele>612.3</ele>
        <time>2010-03-07T05:59:27Z</time>
      </trkpt>
      <trkpt lat="43.99507" lon="3.55424">
        <ele>615.7</ele>
        <time>2010-03-07T05:59:47Z</time>
      </trkpt>
      <trkpt lat="43.99501" lon="3.55407">
        <ele>618.5</ele>
        <time>2010-03-07T06:00:02Z</time>
      </trkpt>
      <trkpt lat="43.995" lon="3.55392">
        <ele>618.4</ele>
        <time>2010-03-07T06:00:17Z</time>
      </trkpt>
      <trkpt lat="43.99488" lon="3.55382">
        <ele>624</ele>
        <time>2010-03-07T06:00:32Z</time>
      </trkpt>
      <trkpt lat="43.99484" lon="3.55373">
        <ele>625.6</ele>
        <time>2010-03-07T06:00:37Z</time>
      </trkpt>
      <trkpt lat="43.99484" lon="3.55358">
        <ele>624.2</ele>
        <time>2010-03-07T06:00:47Z</time>
      </trkpt>
      <trkpt lat="43.99475" lon="3.55331">
        <ele>627.6</ele>
        <time>2010-03-07T06:01:07Z</time>
      </trkpt>
      <trkpt lat="43.99474" lon="3.55323">
        <ele>627.3</ele>
        <time>2010-03-07T06:01:12Z</time>
      </trkpt>
      <trkpt lat="43.99466" lon="3.55309">
        <ele>630.5</ele>
        <time>2010-03-07T06:01:22Z</time>
      </trkpt>
      <trkpt lat="43.99466" lon="3.55298">
        <ele>628.6</ele>
        <time>2010-03-07T06:01:27Z</time>
      </trkpt>
      <trkpt lat="43.99458" lon="3.55276">
        <ele>628.7</ele>
        <time>2010-03-07T06:01:37Z</time>
      </trkpt>
      <trkpt lat="43.99459" lon="3.55266">
        <ele>626.4</ele>
        <time>2010-03-07T06:01:42Z</time>
      </trkpt>
      <trkpt lat="43.99456" lon="3.5526">
        <ele>627.7</ele>
        <time>2010-03-07T06:01:47Z</time>
      </trkpt>
      <trkpt lat="43.99445" lon="3.55252">
        <ele>633.7</ele>
        <time>2010-03-07T06:01:57Z</time>
      </trkpt>
      <trkpt lat="43.99446" lon="3.55247">
        <ele>633</ele>
        <time>2010-03-07T06:02:02Z</time>
      </trkpt>
      <trkpt lat="43.99443" lon="3.55241">
        <ele>635.2</ele>
        <time>2010-03-07T06:02:07Z</time>
      </trkpt>
      <trkpt lat="43.99443" lon="3.55235">
        <ele>635.6</ele>
        <time>2010-03-07T06:02:12Z</time>
      </trkpt>
      <trkpt lat="43.99435" lon="3.55222">
        <ele>641.7</ele>
        <time>2010-03-07T06:02:27Z</time>
      </trkpt>
      <trkpt lat="43.99434" lon="3.55212">
        <ele>641.8</ele>
        <time>2010-03-07T06:02:32Z</time>
      </trkpt>
      <trkpt lat="43.9944" lon="3.55196">
        <ele>637</ele>
        <time>2010-03-07T06:02:42Z</time>
      </trkpt>
      <trkpt lat="43.9944" lon="3.55189">
        <ele>637.2</ele>
        <time>2010-03-07T06:02:47Z</time>
      </trkpt>
      <trkpt lat="43.99434" lon="3.55171">
        <ele>642.2</ele>
        <time>2010-03-07T06:02:57Z</time>
      </trkpt>
      <trkpt lat="43.99438" lon="3.55155">
        <ele>641.9</ele>
        <time>2010-03-07T06:03:07Z</time>
      </trkpt>
      <trkpt lat="43.99443" lon="3.55148">
        <ele>639.3</ele>
        <time>2010-03-07T06:03:12Z</time>
      </trkpt>
      <trkpt lat="43.99449" lon="3.55126">
        <ele>639.9</ele>
        <time>2010-03-07T06:03:22Z</time>
      </trkpt>
      <trkpt lat="43.99471" lon="3.55088">
        <ele>637.1</ele>
        <time>2010-03-07T06:03:42Z</time>
      </trkpt>
      <trkpt lat="43.99474" lon="3.55074">
        <ele>639.9</ele>
        <time>2010-03-07T06:03:52Z</time>
      </trkpt>
      <trkpt lat="43.9948" lon="3.55054">
        <ele>642.5</ele>
        <time>2010-03-07T06:04:07Z</time>
      </trkpt>
      <trkpt lat="43.99491" lon="3.55039">
        <ele>641.3</ele>
        <time>2010-03-07T06:04:17Z</time>
      </trkpt>
      <trkpt lat="43.99496" lon="3.55028">
        <ele>641.8</ele>
        <time>2010-03-07T06:04:22Z</time>
      </trkpt>
      <trkpt lat="43.99499" lon="3.55011">
        <ele>643</ele>
        <time>2010-03-07T06:04:32Z</time>
      </trkpt>
      <trkpt lat="43.99502" lon="3.55002">
        <ele>641.8</ele>
        <time>2010-03-07T06:04:37Z</time>
      </trkpt>
      <trkpt lat="43.99502" lon="3.54991">
        <ele>641.3</ele>
        <time>2010-03-07T06:04:42Z</time>
      </trkpt>
      <trkpt lat="43.99486" lon="3.5495">
        <ele>645.8</ele>
        <time>2010-03-07T06:05:07Z</time>
      </trkpt>
      <trkpt lat="43.99478" lon="3.5494">
        <ele>649.9</ele>
        <time>2010-03-07T06:05:17Z</time>
      </trkpt>
      <trkpt lat="43.99473" lon="3.54921">
        <ele>651.6</ele>
        <time>2010-03-07T06:05:32Z</time>
      </trkpt>
      <trkpt lat="43.99474" lon="3.54904">
        <ele>652.2</ele>
        <time>2010-03-07T06:05:42Z</time>
      </trkpt>
      <trkpt lat="43.99477" lon="3.54899">
        <ele>651</ele>
        <time>2010-03-07T06:05:47Z</time>
      </trkpt>
      <trkpt lat="43.99479" lon="3.54886">
        <ele>650.4</ele>
        <time>2010-03-07T06:05:57Z</time>
      </trkpt>
      <trkpt lat="43.9948" lon="3.5487">
        <ele>650</ele>
        <time>2010-03-07T06:06:07Z</time>
      </trkpt>
      <trkpt lat="43.99456" lon="3.54833">
        <ele>655.1</ele>
        <time>2010-03-07T06:06:32Z</time>
      </trkpt>
      <trkpt lat="43.99453" lon="3.54826">
        <ele>656.1</ele>
        <time>2010-03-07T06:06:37Z</time>
      </trkpt>
      <trkpt lat="43.99456" lon="3.54811">
        <ele>652.7</ele>
        <time>2010-03-07T06:06:47Z</time>
      </trkpt>
      <trkpt lat="43.99458" lon="3.54784">
        <ele>654.8</ele>
        <time>2010-03-07T06:07:07Z</time>
      </trkpt>
      <trkpt lat="43.99442" lon="3.54756">
        <ele>661.2</ele>
        <time>2010-03-07T06:07:32Z</time>
      </trkpt>
      <trkpt lat="43.99438" lon="3.54751">
        <ele>662.6</ele>
        <time>2010-03-07T06:07:37Z</time>
      </trkpt>
      <trkpt lat="43.99434" lon="3.54751">
        <ele>664</ele>
        <time>2010-03-07T06:07:42Z</time>
      </trkpt>
      <trkpt lat="43.99424" lon="3.54738">
        <ele>662.6</ele>
        <time>2010-03-07T06:07:57Z</time>
      </trkpt>
      <trkpt lat="43.99423" lon="3.5473">
        <ele>660.4</ele>
        <time>2010-03-07T06:08:02Z</time>
      </trkpt>
      <trkpt lat="43.99418" lon="3.54722">
        <ele>659.6</ele>
        <time>2010-03-07T06:08:07Z</time>
      </trkpt>
      <trkpt lat="43.99415" lon="3.54707">
        <ele>663.7</ele>
        <time>2010-03-07T06:08:27Z</time>
      </trkpt>
      <trkpt lat="43.99437" lon="3.5469">
        <ele>659.4</ele>
        <time>2010-03-07T06:08:57Z</time>
      </trkpt>
      <trkpt lat="43.99446" lon="3.54673">
        <ele>663.7</ele>
        <time>2010-03-07T06:09:12Z</time>
      </trkpt>
      <trkpt lat="43.99449" lon="3.54659">
        <ele>666.2</ele>
        <time>2010-03-07T06:09:22Z</time>
      </trkpt>
      <trkpt lat="43.99448" lon="3.54653">
        <ele>668.7</ele>
        <time>2010-03-07T06:09:32Z</time>
      </trkpt>
      <trkpt lat="43.99451" lon="3.54615">
        <ele>678.9</ele>
        <time>2010-03-07T06:10:02Z</time>
      </trkpt>
      <trkpt lat="43.99466" lon="3.54594">
        <ele>676.7</ele>
        <time>2010-03-07T06:10:22Z</time>
      </trkpt>
      <trkpt lat="43.99465" lon="3.54591">
        <ele>677.9</ele>
        <time>2010-03-07T06:10:27Z</time>
      </trkpt>
      <trkpt lat="43.99465" lon="3.54593">
        <ele>677.2</ele>
        <time>2010-03-07T06:10:32Z</time>
      </trkpt>
      <trkpt lat="43.99469" lon="3.54594">
        <ele>675.5</ele>
        <time>2010-03-07T06:10:37Z</time>
      </trkpt>
      <trkpt lat="43.99491" lon="3.5461">
        <ele>667.9</ele>
        <time>2010-03-07T06:11:02Z</time>
      </trkpt>
      <trkpt lat="43.99498" lon="3.54612">
        <ele>667</ele>
        <time>2010-03-07T06:11:07Z</time>
      </trkpt>
      <trkpt lat="43.99507" lon="3.54623">
        <ele>665.8</ele>
        <time>2010-03-07T06:11:22Z</time>
      </trkpt>
      <trkpt lat="43.99515" lon="3.54626">
        <ele>667.3</ele>
        <time>2010-03-07T06:11:27Z</time>
      </trkpt>
      <trkpt lat="43.9952" lon="3.54632">
        <ele>666.5</ele>
        <time>2010-03-07T06:11:32Z</time>
      </trkpt>
      <trkpt lat="43.99529" lon="3.54636">
        <ele>667.7</ele>
        <time>2010-03-07T06:11:42Z</time>
      </trkpt>
      <trkpt lat="43.99541" lon="3.54646">
        <ele>669.6</ele>
        <time>2010-03-07T06:11:57Z</time>
      </trkpt>
      <trkpt lat="43.99552" lon="3.54649">
        <ele>673.5</ele>
        <time>2010-03-07T06:12:12Z</time>
      </trkpt>
      <trkpt lat="43.99559" lon="3.54655">
        <ele>673.7</ele>
        <time>2010-03-07T06:12:27Z</time>
      </trkpt>
      <trkpt lat="43.99564" lon="3.54662">
        <ele>672.3</ele>
        <time>2010-03-07T06:12:37Z</time>
      </trkpt>
      <trkpt lat="43.99571" lon="3.54663">
        <ele>674.2</ele>
        <time>2010-03-07T06:12:47Z</time>
      </trkpt>
      <trkpt lat="43.99587" lon="3.54621">
        <ele>683.9</ele>
        <time>2010-03-07T06:13:52Z</time>
      </trkpt>
      <trkpt lat="43.99591" lon="3.54601">
        <ele>682.6</ele>
        <time>2010-03-07T06:14:07Z</time>
      </trkpt>
      <trkpt lat="43.99593" lon="3.54577">
        <ele>682.6</ele>
        <time>2010-03-07T06:14:22Z</time>
      </trkpt>
      <trkpt lat="43.996" lon="3.54543">
        <ele>680.6</ele>
        <time>2010-03-07T06:14:47Z</time>
      </trkpt>
      <trkpt lat="43.996" lon="3.54537">
        <ele>681.5</ele>
        <time>2010-03-07T06:14:52Z</time>
      </trkpt>
      <trkpt lat="43.99602" lon="3.54534">
        <ele>680</ele>
        <time>2010-03-07T06:14:57Z</time>
      </trkpt>
      <trkpt lat="43.99607" lon="3.54512">
        <ele>679</ele>
        <time>2010-03-07T06:15:12Z</time>
      </trkpt>
      <trkpt lat="43.99614" lon="3.54486">
        <ele>678.3</ele>
        <time>2010-03-07T06:15:32Z</time>
      </trkpt>
      <trkpt lat="43.99622" lon="3.54476">
        <ele>675.5</ele>
        <time>2010-03-07T06:15:42Z</time>
      </trkpt>
      <trkpt lat="43.9963" lon="3.54444">
        <ele>680.3</ele>
        <time>2010-03-07T06:16:07Z</time>
      </trkpt>
      <trkpt lat="43.99641" lon="3.54409">
        <ele>686.4</ele>
        <time>2010-03-07T06:16:42Z</time>
      </trkpt>
      <trkpt lat="43.99644" lon="3.54391">
        <ele>691.4</ele>
        <time>2010-03-07T06:16:57Z</time>
      </trkpt>
      <trkpt lat="43.99656" lon="3.54364">
        <ele>691.8</ele>
        <time>2010-03-07T06:17:22Z</time>
      </trkpt>
      <trkpt lat="43.9966" lon="3.54362">
        <ele>690.4</ele>
        <time>2010-03-07T06:17:27Z</time>
      </trkpt>
      <trkpt lat="43.99668" lon="3.54347">
        <ele>690.1</ele>
        <time>2010-03-07T06:17:42Z</time>
      </trkpt>
      <trkpt lat="43.99666" lon="3.54343">
        <ele>692.6</ele>
        <time>2010-03-07T06:17:47Z</time>
      </trkpt>
      <trkpt lat="43.9967" lon="3.54321">
        <ele>698.8</ele>
        <time>2010-03-07T06:18:12Z</time>
      </trkpt>
      <trkpt lat="43.99673" lon="3.54315">
        <ele>699.6</ele>
        <time>2010-03-07T06:18:17Z</time>
      </trkpt>
      <trkpt lat="43.99672" lon="3.5431">
        <ele>702.2</ele>
        <time>2010-03-07T06:18:22Z</time>
      </trkpt>
      <trkpt lat="43.99675" lon="3.54297">
        <ele>705.2</ele>
        <time>2010-03-07T06:18:37Z</time>
      </trkpt>
      <trkpt lat="43.9968" lon="3.54287">
        <ele>705.9</ele>
        <time>2010-03-07T06:18:52Z</time>
      </trkpt>
      <trkpt lat="43.99689" lon="3.54258">
        <ele>710.9</ele>
        <time>2010-03-07T06:19:12Z</time>
      </trkpt>
      <trkpt lat="43.99698" lon="3.54246">
        <ele>709.3</ele>
        <time>2010-03-07T06:19:22Z</time>
      </trkpt>
      <trkpt lat="43.99704" lon="3.54228">
        <ele>712.2</ele>
        <time>2010-03-07T06:19:37Z</time>
      </trkpt>
      <trkpt lat="43.99713" lon="3.54216">
        <ele>711.2</ele>
        <time>2010-03-07T06:19:47Z</time>
      </trkpt>
      <trkpt lat="43.99728" lon="3.54186">
        <ele>713.4</ele>
        <time>2010-03-07T06:20:12Z</time>
      </trkpt>
      <trkpt lat="43.99737" lon="3.54176">
        <ele>712</ele>
        <time>2010-03-07T06:20:22Z</time>
      </trkpt>
      <trkpt lat="43.99738" lon="3.54164">
        <ele>715.5</ele>
        <time>2010-03-07T06:20:32Z</time>
      </trkpt>
      <trkpt lat="43.99765" lon="3.54121">
        <ele>715.9</ele>
        <time>2010-03-07T06:21:17Z</time>
      </trkpt>
      <trkpt lat="43.99772" lon="3.54114">
        <ele>715.8</ele>
        <time>2010-03-07T06:21:32Z</time>
      </trkpt>
      <trkpt lat="43.99772" lon="3.54109">
        <ele>717</ele>
        <time>2010-03-07T06:21:37Z</time>
      </trkpt>
      <trkpt lat="43.99764" lon="3.54073">
        <ele>724.6</ele>
        <time>2010-03-07T06:22:07Z</time>
      </trkpt>
      <trkpt lat="43.99764" lon="3.54063">
        <ele>723.8</ele>
        <time>2010-03-07T06:22:17Z</time>
      </trkpt>
      <trkpt lat="43.99752" lon="3.54031">
        <ele>723.3</ele>
        <time>2010-03-07T06:22:47Z</time>
      </trkpt>
      <trkpt lat="43.99752" lon="3.54024">
        <ele>722</ele>
        <time>2010-03-07T06:22:52Z</time>
      </trkpt>
      <trkpt lat="43.99745" lon="3.54011">
        <ele>722.4</ele>
        <time>2010-03-07T06:23:02Z</time>
      </trkpt>
      <trkpt lat="43.99735" lon="3.53974">
        <ele>716.7</ele>
        <time>2010-03-07T06:23:27Z</time>
      </trkpt>
      <trkpt lat="43.9973" lon="3.53968">
        <ele>717</ele>
        <time>2010-03-07T06:23:32Z</time>
      </trkpt>
      <trkpt lat="43.99727" lon="3.53958">
        <ele>715.3</ele>
        <time>2010-03-07T06:23:37Z</time>
      </trkpt>
      <trkpt lat="43.99715" lon="3.53943">
        <ele>717.2</ele>
        <time>2010-03-07T06:23:47Z</time>
      </trkpt>
      <trkpt lat="43.99715" lon="3.53939">
        <ele>717.6</ele>
        <time>2010-03-07T06:23:52Z</time>
      </trkpt>
      <trkpt lat="43.99743" lon="3.5391">
        <ele>708.6</ele>
        <time>2010-03-07T06:24:22Z</time>
      </trkpt>
      <trkpt lat="43.99752" lon="3.53896">
        <ele>709.6</ele>
        <time>2010-03-07T06:24:32Z</time>
      </trkpt>
      <trkpt lat="43.99786" lon="3.53862">
        <ele>711.9</ele>
        <time>2010-03-07T06:25:07Z</time>
      </trkpt>
      <trkpt lat="43.99796" lon="3.53845">
        <ele>713.7</ele>
        <time>2010-03-07T06:25:17Z</time>
      </trkpt>
      <trkpt lat="43.99803" lon="3.53825">
        <ele>717</ele>
        <time>2010-03-07T06:25:27Z</time>
      </trkpt>
      <trkpt lat="43.99812" lon="3.53809">
        <ele>717.4</ele>
        <time>2010-03-07T06:25:37Z</time>
      </trkpt>
      <trkpt lat="43.99814" lon="3.53799">
        <ele>719.5</ele>
        <time>2010-03-07T06:25:42Z</time>
      </trkpt>
      <trkpt lat="43.99817" lon="3.53794">
        <ele>719.6</ele>
        <time>2010-03-07T06:25:47Z</time>
      </trkpt>
      <trkpt lat="43.99819" lon="3.53781">
        <ele>722.8</ele>
        <time>2010-03-07T06:25:57Z</time>
      </trkpt>
      <trkpt lat="43.99825" lon="3.53775">
        <ele>722.7</ele>
        <time>2010-03-07T06:26:07Z</time>
      </trkpt>
      <trkpt lat="43.99829" lon="3.53775">
        <ele>721.3</ele>
        <time>2010-03-07T06:26:12Z</time>
      </trkpt>
      <trkpt lat="43.99854" lon="3.53768">
        <ele>722.3</ele>
        <time>2010-03-07T06:26:37Z</time>
      </trkpt>
      <trkpt lat="43.9988" lon="3.53766">
        <ele>722.8</ele>
        <time>2010-03-07T06:26:57Z</time>
      </trkpt>
      <trkpt lat="43.99903" lon="3.53759">
        <ele>723.4</ele>
        <time>2010-03-07T06:27:17Z</time>
      </trkpt>
      <trkpt lat="43.99909" lon="3.53755">
        <ele>724.1</ele>
        <time>2010-03-07T06:27:22Z</time>
      </trkpt>
      <trkpt lat="43.99921" lon="3.53737">
        <ele>728</ele>
        <time>2010-03-07T06:27:37Z</time>
      </trkpt>
      <trkpt lat="43.9993" lon="3.53715">
        <ele>732.1</ele>
        <time>2010-03-07T06:27:57Z</time>
      </trkpt>
      <trkpt lat="43.99939" lon="3.53676">
        <ele>735.3</ele>
        <time>2010-03-07T06:28:27Z</time>
      </trkpt>
      <trkpt lat="43.99936" lon="3.53669">
        <ele>736.1</ele>
        <time>2010-03-07T06:28:32Z</time>
      </trkpt>
      <trkpt lat="43.99931" lon="3.53665">
        <ele>736.7</ele>
        <time>2010-03-07T06:28:37Z</time>
      </trkpt>
      <trkpt lat="43.99914" lon="3.53669">
        <ele>739</ele>
        <time>2010-03-07T06:28:57Z</time>
      </trkpt>
      <trkpt lat="43.99898" lon="3.53678">
        <ele>740.4</ele>
        <time>2010-03-07T06:29:17Z</time>
      </trkpt>
      <trkpt lat="43.99886" lon="3.53689">
        <ele>741.2</ele>
        <time>2010-03-07T06:29:27Z</time>
      </trkpt>
      <trkpt lat="43.99869" lon="3.5369">
        <ele>740.8</ele>
        <time>2010-03-07T06:29:37Z</time>
      </trkpt>
      <trkpt lat="43.99842" lon="3.53698">
        <ele>741.3</ele>
        <time>2010-03-07T06:29:52Z</time>
      </trkpt>
      <trkpt lat="43.99827" lon="3.53699">
        <ele>742.5</ele>
        <time>2010-03-07T06:30:07Z</time>
      </trkpt>
      <trkpt lat="43.99808" lon="3.53694">
        <ele>745.5</ele>
        <time>2010-03-07T06:30:27Z</time>
      </trkpt>
      <trkpt lat="43.9979" lon="3.53693">
        <ele>750.9</ele>
        <time>2010-03-07T06:30:52Z</time>
      </trkpt>
      <trkpt lat="43.99788" lon="3.53682">
        <ele>750.9</ele>
        <time>2010-03-07T06:31:02Z</time>
      </trkpt>
      <trkpt lat="43.99786" lon="3.5368">
        <ele>751.6</ele>
        <time>2010-03-07T06:31:07Z</time>
      </trkpt>
      <trkpt lat="43.9978" lon="3.53686">
        <ele>754</ele>
        <time>2010-03-07T06:31:17Z</time>
      </trkpt>
      <trkpt lat="43.99765" lon="3.53733">
        <ele>755.9</ele>
        <time>2010-03-07T06:31:47Z</time>
      </trkpt>
      <trkpt lat="43.99756" lon="3.53752">
        <ele>756.9</ele>
        <time>2010-03-07T06:32:02Z</time>
      </trkpt>
      <trkpt lat="43.99735" lon="3.53783">
        <ele>759.8</ele>
        <time>2010-03-07T06:32:32Z</time>
      </trkpt>
      <trkpt lat="43.99722" lon="3.53797">
        <ele>761.9</ele>
        <time>2010-03-07T06:32:47Z</time>
      </trkpt>
      <trkpt lat="43.99702" lon="3.53813">
        <ele>763.2</ele>
        <time>2010-03-07T06:33:07Z</time>
      </trkpt>
      <trkpt lat="43.99698" lon="3.53819">
        <ele>763.1</ele>
        <time>2010-03-07T06:33:12Z</time>
      </trkpt>
      <trkpt lat="43.99654" lon="3.53847">
        <ele>769.8</ele>
        <time>2010-03-07T06:33:57Z</time>
      </trkpt>
      <trkpt lat="43.99638" lon="3.53863">
        <ele>770.6</ele>
        <time>2010-03-07T06:34:17Z</time>
      </trkpt>
      <trkpt lat="43.99592" lon="3.53894">
        <ele>778.4</ele>
        <time>2010-03-07T06:35:02Z</time>
      </trkpt>
      <trkpt lat="43.99586" lon="3.53906">
        <ele>779.7</ele>
        <time>2010-03-07T06:35:12Z</time>
      </trkpt>
      <trkpt lat="43.99586" lon="3.53913">
        <ele>779.4</ele>
        <time>2010-03-07T06:35:17Z</time>
      </trkpt>
      <trkpt lat="43.99591" lon="3.53931">
        <ele>780.1</ele>
        <time>2010-03-07T06:35:32Z</time>
      </trkpt>
      <trkpt lat="43.99595" lon="3.53935">
        <ele>779.6</ele>
        <time>2010-03-07T06:35:37Z</time>
      </trkpt>
      <trkpt lat="43.99609" lon="3.53989">
        <ele>783.1</ele>
        <time>2010-03-07T06:36:07Z</time>
      </trkpt>
      <trkpt lat="43.99616" lon="3.54008">
        <ele>783.3</ele>
        <time>2010-03-07T06:36:17Z</time>
      </trkpt>
      <trkpt lat="43.99622" lon="3.54017">
        <ele>782.4</ele>
        <time>2010-03-07T06:36:22Z</time>
      </trkpt>
      <trkpt lat="43.99632" lon="3.54057">
        <ele>784.9</ele>
        <time>2010-03-07T06:36:42Z</time>
      </trkpt>
      <trkpt lat="43.99629" lon="3.54075">
        <ele>785.9</ele>
        <time>2010-03-07T06:37:12Z</time>
      </trkpt>
      <trkpt lat="43.99632" lon="3.54074">
        <ele>785.1</ele>
        <time>2010-03-07T06:37:47Z</time>
      </trkpt>
      <trkpt lat="43.96851" lon="3.54555">
        <ele>314.5</ele>
        <time>2010-03-07T06:38:02Z</time>
      </trkpt>
      <trkpt lat="43.96806" lon="3.54561">
        <ele>347.5</ele>
        <time>2010-03-07T06:38:07Z</time>
      </trkpt>
      <trkpt lat="43.98872" lon="3.54211">
        <ele>672.3</ele>
        <time>2010-03-07T06:38:12Z</time>
      </trkpt>
      <trkpt lat="43.98811" lon="3.54225">
        <ele>682.9</ele>
        <time>2010-03-07T06:38:27Z</time>
      </trkpt>
      <trkpt lat="43.98823" lon="3.54222">
        <ele>680.8</ele>
        <time>2010-03-07T06:38:32Z</time>
      </trkpt>
      <trkpt lat="43.98817" lon="3.54223">
        <ele>681.5</ele>
        <time>2010-03-07T06:38:37Z</time>
      </trkpt>
      <trkpt lat="43.99616" lon="3.54081">
        <ele>789.7</ele>
        <time>2010-03-07T06:38:42Z</time>
      </trkpt>
      <trkpt lat="43.99638" lon="3.54084">
        <ele>783.2</ele>
        <time>2010-03-07T06:39:17Z</time>
      </trkpt>
      <trkpt lat="43.99635" lon="3.5408">
        <ele>784.1</ele>
        <time>2010-03-07T06:39:27Z</time>
      </trkpt>
      <trkpt lat="43.99628" lon="3.54092">
        <ele>785.3</ele>
        <time>2010-03-07T06:39:37Z</time>
      </trkpt>
      <trkpt lat="43.9962" lon="3.541">
        <ele>786.8</ele>
        <time>2010-03-07T06:39:42Z</time>
      </trkpt>
      <trkpt lat="43.99609" lon="3.54118">
        <ele>788.4</ele>
        <time>2010-03-07T06:39:52Z</time>
      </trkpt>
      <trkpt lat="43.99602" lon="3.54136">
        <ele>787.8</ele>
        <time>2010-03-07T06:40:02Z</time>
      </trkpt>
      <trkpt lat="43.99598" lon="3.54149">
        <ele>786.1</ele>
        <time>2010-03-07T06:40:07Z</time>
      </trkpt>
      <trkpt lat="43.99582" lon="3.54155">
        <ele>790.3</ele>
        <time>2010-03-07T06:40:17Z</time>
      </trkpt>
      <trkpt lat="43.99571" lon="3.54163">
        <ele>792.1</ele>
        <time>2010-03-07T06:40:27Z</time>
      </trkpt>
      <trkpt lat="43.99565" lon="3.54176">
        <ele>791.5</ele>
        <time>2010-03-07T06:40:37Z</time>
      </trkpt>
      <trkpt lat="43.99551" lon="3.54191">
        <ele>794.4</ele>
        <time>2010-03-07T06:40:57Z</time>
      </trkpt>
      <trkpt lat="43.99553" lon="3.54193">
        <ele>793.3</ele>
        <time>2010-03-07T06:41:02Z</time>
      </trkpt>
      <trkpt lat="43.99527" lon="3.54232">
        <ele>796.3</ele>
        <time>2010-03-07T06:41:27Z</time>
      </trkpt>
      <trkpt lat="43.99519" lon="3.5424">
        <ele>797.6</ele>
        <time>2010-03-07T06:41:32Z</time>
      </trkpt>
      <trkpt lat="43.99486" lon="3.54256">
        <ele>798.6</ele>
        <time>2010-03-07T06:41:52Z</time>
      </trkpt>
      <trkpt lat="43.99463" lon="3.54261">
        <ele>797.5</ele>
        <time>2010-03-07T06:42:02Z</time>
      </trkpt>
      <trkpt lat="43.99454" lon="3.54259">
        <ele>797.4</ele>
        <time>2010-03-07T06:42:07Z</time>
      </trkpt>
      <trkpt lat="43.99434" lon="3.54263">
        <ele>794.2</ele>
        <time>2010-03-07T06:42:17Z</time>
      </trkpt>
      <trkpt lat="43.99412" lon="3.54251">
        <ele>796</ele>
        <time>2010-03-07T06:42:32Z</time>
      </trkpt>
      <trkpt lat="43.994" lon="3.54249">
        <ele>794.9</ele>
        <time>2010-03-07T06:42:42Z</time>
      </trkpt>
      <trkpt lat="43.99385" lon="3.54243">
        <ele>795.9</ele>
        <time>2010-03-07T06:42:52Z</time>
      </trkpt>
      <trkpt lat="43.99374" lon="3.54242">
        <ele>798</ele>
        <time>2010-03-07T06:43:02Z</time>
      </trkpt>
      <trkpt lat="43.99356" lon="3.54249">
        <ele>799.2</ele>
        <time>2010-03-07T06:43:17Z</time>
      </trkpt>
      <trkpt lat="43.99342" lon="3.54257">
        <ele>799</ele>
        <time>2010-03-07T06:43:27Z</time>
      </trkpt>
      <trkpt lat="43.99316" lon="3.54267">
        <ele>801.3</ele>
        <time>2010-03-07T06:43:42Z</time>
      </trkpt>
      <trkpt lat="43.99272" lon="3.54274">
        <ele>802.7</ele>
        <time>2010-03-07T06:44:07Z</time>
      </trkpt>
      <trkpt lat="43.99267" lon="3.54265">
        <ele>802.3</ele>
        <time>2010-03-07T06:44:12Z</time>
      </trkpt>
      <trkpt lat="43.99269" lon="3.5425">
        <ele>803.5</ele>
        <time>2010-03-07T06:44:22Z</time>
      </trkpt>
      <trkpt lat="43.99275" lon="3.54234">
        <ele>806.2</ele>
        <time>2010-03-07T06:44:32Z</time>
      </trkpt>
      <trkpt lat="43.99285" lon="3.54219">
        <ele>809.8</ele>
        <time>2010-03-07T06:44:42Z</time>
      </trkpt>
      <trkpt lat="43.99282" lon="3.54186">
        <ele>809.5</ele>
        <time>2010-03-07T06:45:02Z</time>
      </trkpt>
      <trkpt lat="43.99283" lon="3.54172">
        <ele>810.1</ele>
        <time>2010-03-07T06:45:07Z</time>
      </trkpt>
      <trkpt lat="43.9929" lon="3.54152">
        <ele>813.9</ele>
        <time>2010-03-07T06:45:17Z</time>
      </trkpt>
      <trkpt lat="43.9929" lon="3.54107">
        <ele>814.6</ele>
        <time>2010-03-07T06:45:37Z</time>
      </trkpt>
      <trkpt lat="43.99296" lon="3.54084">
        <ele>815.7</ele>
        <time>2010-03-07T06:45:52Z</time>
      </trkpt>
      <trkpt lat="43.99303" lon="3.54067">
        <ele>817.2</ele>
        <time>2010-03-07T06:46:02Z</time>
      </trkpt>
      <trkpt lat="43.99304" lon="3.5406">
        <ele>816.7</ele>
        <time>2010-03-07T06:46:07Z</time>
      </trkpt>
      <trkpt lat="43.99308" lon="3.54052">
        <ele>817.9</ele>
        <time>2010-03-07T06:46:12Z</time>
      </trkpt>
      <trkpt lat="43.99313" lon="3.54037">
        <ele>818.1</ele>
        <time>2010-03-07T06:46:22Z</time>
      </trkpt>
      <trkpt lat="43.99325" lon="3.54017">
        <ele>820.7</ele>
        <time>2010-03-07T06:46:37Z</time>
      </trkpt>
      <trkpt lat="43.99324" lon="3.5401">
        <ele>819.3</ele>
        <time>2010-03-07T06:46:42Z</time>
      </trkpt>
      <trkpt lat="43.99339" lon="3.53983">
        <ele>822.6</ele>
        <time>2010-03-07T06:47:02Z</time>
      </trkpt>
      <trkpt lat="43.99352" lon="3.53951">
        <ele>823.3</ele>
        <time>2010-03-07T06:47:22Z</time>
      </trkpt>
      <trkpt lat="43.99356" lon="3.53937">
        <ele>822.7</ele>
        <time>2010-03-07T06:47:32Z</time>
      </trkpt>
      <trkpt lat="43.9936" lon="3.53931">
        <ele>823.9</ele>
        <time>2010-03-07T06:47:37Z</time>
      </trkpt>
      <trkpt lat="43.99367" lon="3.53907">
        <ele>824.4</ele>
        <time>2010-03-07T06:47:47Z</time>
      </trkpt>
      <trkpt lat="43.99369" lon="3.53895">
        <ele>823.7</ele>
        <time>2010-03-07T06:47:52Z</time>
      </trkpt>
      <trkpt lat="43.99385" lon="3.5386">
        <ele>827.5</ele>
        <time>2010-03-07T06:48:17Z</time>
      </trkpt>
      <trkpt lat="43.99389" lon="3.53846">
        <ele>828.4</ele>
        <time>2010-03-07T06:48:27Z</time>
      </trkpt>
      <trkpt lat="43.99388" lon="3.53838">
        <ele>827.8</ele>
        <time>2010-03-07T06:48:32Z</time>
      </trkpt>
      <trkpt lat="43.994" lon="3.538">
        <ele>830.1</ele>
        <time>2010-03-07T06:48:57Z</time>
      </trkpt>
      <trkpt lat="43.99404" lon="3.53794">
        <ele>831.2</ele>
        <time>2010-03-07T06:49:02Z</time>
      </trkpt>
      <trkpt lat="43.99404" lon="3.53782">
        <ele>830.4</ele>
        <time>2010-03-07T06:49:07Z</time>
      </trkpt>
      <trkpt lat="43.99415" lon="3.53735">
        <ele>833.2</ele>
        <time>2010-03-07T06:49:32Z</time>
      </trkpt>
      <trkpt lat="43.99419" lon="3.53706">
        <ele>833.7</ele>
        <time>2010-03-07T06:49:47Z</time>
      </trkpt>
      <trkpt lat="43.9943" lon="3.53661">
        <ele>836.8</ele>
        <time>2010-03-07T06:50:12Z</time>
      </trkpt>
      <trkpt lat="43.9944" lon="3.53603">
        <ele>836</ele>
        <time>2010-03-07T06:50:32Z</time>
      </trkpt>
      <trkpt lat="43.99439" lon="3.53575">
        <ele>832.3</ele>
        <time>2010-03-07T06:50:42Z</time>
      </trkpt>
      <trkpt lat="43.9943" lon="3.53525">
        <ele>823.7</ele>
        <time>2010-03-07T06:50:57Z</time>
      </trkpt>
      <trkpt lat="43.99429" lon="3.53496">
        <ele>821.5</ele>
        <time>2010-03-07T06:51:07Z</time>
      </trkpt>
      <trkpt lat="43.99432" lon="3.53461">
        <ele>818.5</ele>
        <time>2010-03-07T06:51:17Z</time>
      </trkpt>
      <trkpt lat="43.99431" lon="3.53394">
        <ele>815.7</ele>
        <time>2010-03-07T06:51:42Z</time>
      </trkpt>
      <trkpt lat="43.99435" lon="3.53378">
        <ele>815.6</ele>
        <time>2010-03-07T06:51:47Z</time>
      </trkpt>
      <trkpt lat="43.99429" lon="3.53347">
        <ele>816.3</ele>
        <time>2010-03-07T06:52:02Z</time>
      </trkpt>
      <trkpt lat="43.99428" lon="3.53313">
        <ele>817.2</ele>
        <time>2010-03-07T06:52:17Z</time>
      </trkpt>
      <trkpt lat="43.99411" lon="3.53289">
        <ele>814.6</ele>
        <time>2010-03-07T06:52:37Z</time>
      </trkpt>
      <trkpt lat="43.99412" lon="3.5328">
        <ele>814.3</ele>
        <time>2010-03-07T06:52:42Z</time>
      </trkpt>
      <trkpt lat="43.99392" lon="3.53231">
        <ele>806.1</ele>
        <time>2010-03-07T06:53:07Z</time>
      </trkpt>
      <trkpt lat="43.99389" lon="3.5321">
        <ele>804.7</ele>
        <time>2010-03-07T06:53:17Z</time>
      </trkpt>
      <trkpt lat="43.9938" lon="3.53184">
        <ele>801.2</ele>
        <time>2010-03-07T06:53:27Z</time>
      </trkpt>
      <trkpt lat="43.99377" lon="3.53145">
        <ele>800.2</ele>
        <time>2010-03-07T06:53:42Z</time>
      </trkpt>
      <trkpt lat="43.99374" lon="3.53133">
        <ele>800.1</ele>
        <time>2010-03-07T06:53:47Z</time>
      </trkpt>
      <trkpt lat="43.99362" lon="3.5311">
        <ele>802.6</ele>
        <time>2010-03-07T06:53:57Z</time>
      </trkpt>
      <trkpt lat="43.99358" lon="3.53095">
        <ele>801.1</ele>
        <time>2010-03-07T06:54:07Z</time>
      </trkpt>
      <trkpt lat="43.99356" lon="3.5308">
        <ele>800.4</ele>
        <time>2010-03-07T06:54:17Z</time>
      </trkpt>
      <trkpt lat="43.99357" lon="3.53058">
        <ele>801.5</ele>
        <time>2010-03-07T06:54:32Z</time>
      </trkpt>
      <trkpt lat="43.99352" lon="3.53024">
        <ele>801.9</ele>
        <time>2010-03-07T06:55:02Z</time>
      </trkpt>
      <trkpt lat="43.99348" lon="3.53016">
        <ele>802.2</ele>
        <time>2010-03-07T06:55:07Z</time>
      </trkpt>
      <trkpt lat="43.99352" lon="3.52989">
        <ele>803</ele>
        <time>2010-03-07T06:55:27Z</time>
      </trkpt>
      <trkpt lat="43.99351" lon="3.52981">
        <ele>803.1</ele>
        <time>2010-03-07T06:55:32Z</time>
      </trkpt>
      <trkpt lat="43.99344" lon="3.52972">
        <ele>803.8</ele>
        <time>2010-03-07T06:55:42Z</time>
      </trkpt>
      <trkpt lat="43.99344" lon="3.52964">
        <ele>804.1</ele>
        <time>2010-03-07T06:55:47Z</time>
      </trkpt>
      <trkpt lat="43.9934" lon="3.52954">
        <ele>805.1</ele>
        <time>2010-03-07T06:55:52Z</time>
      </trkpt>
      <trkpt lat="43.99335" lon="3.52927">
        <ele>808.4</ele>
        <time>2010-03-07T06:56:07Z</time>
      </trkpt>
      <trkpt lat="43.9933" lon="3.52916">
        <ele>809</ele>
        <time>2010-03-07T06:56:12Z</time>
      </trkpt>
      <trkpt lat="43.99324" lon="3.5291">
        <ele>807.3</ele>
        <time>2010-03-07T06:56:22Z</time>
      </trkpt>
      <trkpt lat="43.99316" lon="3.52894">
        <ele>805.2</ele>
        <time>2010-03-07T06:56:32Z</time>
      </trkpt>
      <trkpt lat="43.99315" lon="3.52881">
        <ele>804.6</ele>
        <time>2010-03-07T06:56:37Z</time>
      </trkpt>
      <trkpt lat="43.99307" lon="3.5285">
        <ele>803.8</ele>
        <time>2010-03-07T06:56:52Z</time>
      </trkpt>
      <trkpt lat="43.99302" lon="3.5284">
        <ele>802.8</ele>
        <time>2010-03-07T06:56:57Z</time>
      </trkpt>
      <trkpt lat="43.99304" lon="3.52827">
        <ele>801.9</ele>
        <time>2010-03-07T06:57:07Z</time>
      </trkpt>
      <trkpt lat="43.99297" lon="3.52823">
        <ele>799.9</ele>
        <time>2010-03-07T06:57:12Z</time>
      </trkpt>
      <trkpt lat="43.99285" lon="3.52811">
        <ele>797.2</ele>
        <time>2010-03-07T06:57:22Z</time>
      </trkpt>
      <trkpt lat="43.9928" lon="3.52801">
        <ele>796</ele>
        <time>2010-03-07T06:57:27Z</time>
      </trkpt>
      <trkpt lat="43.99271" lon="3.52793">
        <ele>793.4</ele>
        <time>2010-03-07T06:57:32Z</time>
      </trkpt>
      <trkpt lat="43.99261" lon="3.52776">
        <ele>790.3</ele>
        <time>2010-03-07T06:57:42Z</time>
      </trkpt>
      <trkpt lat="43.99256" lon="3.52765">
        <ele>788.7</ele>
        <time>2010-03-07T06:57:47Z</time>
      </trkpt>
      <trkpt lat="43.99242" lon="3.52752">
        <ele>785.7</ele>
        <time>2010-03-07T06:57:57Z</time>
      </trkpt>
      <trkpt lat="43.99238" lon="3.52743">
        <ele>783.5</ele>
        <time>2010-03-07T06:58:02Z</time>
      </trkpt>
      <trkpt lat="43.99227" lon="3.5273">
        <ele>781.6</ele>
        <time>2010-03-07T06:58:12Z</time>
      </trkpt>
      <trkpt lat="43.99215" lon="3.52726">
        <ele>778.9</ele>
        <time>2010-03-07T06:58:22Z</time>
      </trkpt>
      <trkpt lat="43.99208" lon="3.5273">
        <ele>775.7</ele>
        <time>2010-03-07T06:58:32Z</time>
      </trkpt>
      <trkpt lat="43.99204" lon="3.52726">
        <ele>774.5</ele>
        <time>2010-03-07T06:58:37Z</time>
      </trkpt>
      <trkpt lat="43.99196" lon="3.52708">
        <ele>771.4</ele>
        <time>2010-03-07T06:58:47Z</time>
      </trkpt>
      <trkpt lat="43.9918" lon="3.52702">
        <ele>765.3</ele>
        <time>2010-03-07T06:59:02Z</time>
      </trkpt>
      <trkpt lat="43.9917" lon="3.52694">
        <ele>761.5</ele>
        <time>2010-03-07T06:59:12Z</time>
      </trkpt>
      <trkpt lat="43.99147" lon="3.5267">
        <ele>754.4</ele>
        <time>2010-03-07T06:59:32Z</time>
      </trkpt>
      <trkpt lat="43.99145" lon="3.52663">
        <ele>753.6</ele>
        <time>2010-03-07T06:59:37Z</time>
      </trkpt>
      <trkpt lat="43.99133" lon="3.52654">
        <ele>749.9</ele>
        <time>2010-03-07T06:59:47Z</time>
      </trkpt>
      <trkpt lat="43.99109" lon="3.5262">
        <ele>744.7</ele>
        <time>2010-03-07T07:00:07Z</time>
      </trkpt>
      <trkpt lat="43.99098" lon="3.52612">
        <ele>741.1</ele>
        <time>2010-03-07T07:00:17Z</time>
      </trkpt>
      <trkpt lat="43.99075" lon="3.52587">
        <ele>734.5</ele>
        <time>2010-03-07T07:00:37Z</time>
      </trkpt>
      <trkpt lat="43.99071" lon="3.52584">
        <ele>732.9</ele>
        <time>2010-03-07T07:00:42Z</time>
      </trkpt>
      <trkpt lat="43.99065" lon="3.52576">
        <ele>730.3</ele>
        <time>2010-03-07T07:00:52Z</time>
      </trkpt>
      <trkpt lat="43.99064" lon="3.52571">
        <ele>729.8</ele>
        <time>2010-03-07T07:00:57Z</time>
      </trkpt>
      <trkpt lat="43.99073" lon="3.52539">
        <ele>727.6</ele>
        <time>2010-03-07T07:01:17Z</time>
      </trkpt>
      <trkpt lat="43.99069" lon="3.5253">
        <ele>725</ele>
        <time>2010-03-07T07:01:22Z</time>
      </trkpt>
      <trkpt lat="43.99053" lon="3.52506">
        <ele>719</ele>
        <time>2010-03-07T07:01:37Z</time>
      </trkpt>
      <trkpt lat="43.99046" lon="3.52488">
        <ele>714.2</ele>
        <time>2010-03-07T07:01:47Z</time>
      </trkpt>
      <trkpt lat="43.99044" lon="3.52476">
        <ele>712.1</ele>
        <time>2010-03-07T07:01:52Z</time>
      </trkpt>
      <trkpt lat="43.9903" lon="3.52452">
        <ele>709.1</ele>
        <time>2010-03-07T07:02:07Z</time>
      </trkpt>
      <trkpt lat="43.99031" lon="3.52445">
        <ele>708.3</ele>
        <time>2010-03-07T07:02:12Z</time>
      </trkpt>
      <trkpt lat="43.99022" lon="3.52432">
        <ele>703.7</ele>
        <time>2010-03-07T07:02:22Z</time>
      </trkpt>
      <trkpt lat="43.99021" lon="3.52419">
        <ele>700.7</ele>
        <time>2010-03-07T07:02:27Z</time>
      </trkpt>
      <trkpt lat="43.99018" lon="3.5241">
        <ele>698</ele>
        <time>2010-03-07T07:02:32Z</time>
      </trkpt>
      <trkpt lat="43.99011" lon="3.52405">
        <ele>696.3</ele>
        <time>2010-03-07T07:02:37Z</time>
      </trkpt>
      <trkpt lat="43.9901" lon="3.52394">
        <ele>694.8</ele>
        <time>2010-03-07T07:02:42Z</time>
      </trkpt>
      <trkpt lat="43.9899" lon="3.52378">
        <ele>687.8</ele>
        <time>2010-03-07T07:03:07Z</time>
      </trkpt>
      <trkpt lat="43.98979" lon="3.5236">
        <ele>680.6</ele>
        <time>2010-03-07T07:03:22Z</time>
      </trkpt>
      <trkpt lat="43.98979" lon="3.52344">
        <ele>677.6</ele>
        <time>2010-03-07T07:03:32Z</time>
      </trkpt>
      <trkpt lat="43.98969" lon="3.52333">
        <ele>673.4</ele>
        <time>2010-03-07T07:03:42Z</time>
      </trkpt>
      <trkpt lat="43.98967" lon="3.52324">
        <ele>670.9</ele>
        <time>2010-03-07T07:03:47Z</time>
      </trkpt>
      <trkpt lat="43.98952" lon="3.52305">
        <ele>661</ele>
        <time>2010-03-07T07:04:02Z</time>
      </trkpt>
      <trkpt lat="43.98944" lon="3.52304">
        <ele>657.4</ele>
        <time>2010-03-07T07:04:12Z</time>
      </trkpt>
      <trkpt lat="43.98939" lon="3.52301">
        <ele>654.6</ele>
        <time>2010-03-07T07:04:17Z</time>
      </trkpt>
      <trkpt lat="43.98925" lon="3.52271">
        <ele>647.8</ele>
        <time>2010-03-07T07:04:32Z</time>
      </trkpt>
      <trkpt lat="43.98925" lon="3.52255">
        <ele>648</ele>
        <time>2010-03-07T07:04:37Z</time>
      </trkpt>
      <trkpt lat="43.9892" lon="3.52231">
        <ele>647.2</ele>
        <time>2010-03-07T07:04:47Z</time>
      </trkpt>
      <trkpt lat="43.98921" lon="3.52223">
        <ele>647.5</ele>
        <time>2010-03-07T07:04:52Z</time>
      </trkpt>
      <trkpt lat="43.9893" lon="3.52201">
        <ele>648.6</ele>
        <time>2010-03-07T07:05:12Z</time>
      </trkpt>
      <trkpt lat="43.98929" lon="3.52175">
        <ele>647.6</ele>
        <time>2010-03-07T07:05:27Z</time>
      </trkpt>
      <trkpt lat="43.98931" lon="3.52165">
        <ele>646.8</ele>
        <time>2010-03-07T07:05:32Z</time>
      </trkpt>
      <trkpt lat="43.98929" lon="3.5215">
        <ele>645.7</ele>
        <time>2010-03-07T07:05:37Z</time>
      </trkpt>
      <trkpt lat="43.98921" lon="3.52131">
        <ele>645.3</ele>
        <time>2010-03-07T07:05:47Z</time>
      </trkpt>
      <trkpt lat="43.98908" lon="3.52089">
        <ele>642.2</ele>
        <time>2010-03-07T07:06:12Z</time>
      </trkpt>
      <trkpt lat="43.98908" lon="3.52065">
        <ele>639.1</ele>
        <time>2010-03-07T07:06:22Z</time>
      </trkpt>
      <trkpt lat="43.98906" lon="3.52049">
        <ele>637.1</ele>
        <time>2010-03-07T07:06:27Z</time>
      </trkpt>
      <trkpt lat="43.98895" lon="3.52023">
        <ele>637.1</ele>
        <time>2010-03-07T07:06:47Z</time>
      </trkpt>
      <trkpt lat="43.98895" lon="3.51986">
        <ele>636.6</ele>
        <time>2010-03-07T07:07:07Z</time>
      </trkpt>
      <trkpt lat="43.98886" lon="3.51945">
        <ele>638.4</ele>
        <time>2010-03-07T07:07:27Z</time>
      </trkpt>
      <trkpt lat="43.98878" lon="3.51922">
        <ele>636.3</ele>
        <time>2010-03-07T07:07:37Z</time>
      </trkpt>
      <trkpt lat="43.98871" lon="3.51911">
        <ele>635</ele>
        <time>2010-03-07T07:07:42Z</time>
      </trkpt>
      <trkpt lat="43.98851" lon="3.51892">
        <ele>633.2</ele>
        <time>2010-03-07T07:07:52Z</time>
      </trkpt>
      <trkpt lat="43.9882" lon="3.51854">
        <ele>630.5</ele>
        <time>2010-03-07T07:08:17Z</time>
      </trkpt>
      <trkpt lat="43.98816" lon="3.51845">
        <ele>629.8</ele>
        <time>2010-03-07T07:08:22Z</time>
      </trkpt>
      <trkpt lat="43.98801" lon="3.51849">
        <ele>628.5</ele>
        <time>2010-03-07T07:08:32Z</time>
      </trkpt>
      <trkpt lat="43.9879" lon="3.5183">
        <ele>628.5</ele>
        <time>2010-03-07T07:08:42Z</time>
      </trkpt>
      <trkpt lat="43.98779" lon="3.51818">
        <ele>629.3</ele>
        <time>2010-03-07T07:08:52Z</time>
      </trkpt>
      <trkpt lat="43.98761" lon="3.51808">
        <ele>628.3</ele>
        <time>2010-03-07T07:09:02Z</time>
      </trkpt>
      <trkpt lat="43.98759" lon="3.51802">
        <ele>628.9</ele>
        <time>2010-03-07T07:09:12Z</time>
      </trkpt>
      <trkpt lat="43.9876" lon="3.51788">
        <ele>632</ele>
        <time>2010-03-07T07:09:32Z</time>
      </trkpt>
      <trkpt lat="43.98757" lon="3.51782">
        <ele>633.4</ele>
        <time>2010-03-07T07:09:42Z</time>
      </trkpt>
      <trkpt lat="43.98756" lon="3.51766">
        <ele>636.5</ele>
        <time>2010-03-07T07:10:02Z</time>
      </trkpt>
      <trkpt lat="43.98741" lon="3.51742">
        <ele>641.3</ele>
        <time>2010-03-07T07:10:32Z</time>
      </trkpt>
      <trkpt lat="43.98739" lon="3.51731">
        <ele>643.3</ele>
        <time>2010-03-07T07:10:42Z</time>
      </trkpt>
      <trkpt lat="43.98732" lon="3.51723">
        <ele>645.8</ele>
        <time>2010-03-07T07:10:52Z</time>
      </trkpt>
      <trkpt lat="43.98723" lon="3.51705">
        <ele>650.6</ele>
        <time>2010-03-07T07:11:12Z</time>
      </trkpt>
      <trkpt lat="43.98719" lon="3.5168">
        <ele>654.8</ele>
        <time>2010-03-07T07:11:37Z</time>
      </trkpt>
      <trkpt lat="43.98723" lon="3.51665">
        <ele>657</ele>
        <time>2010-03-07T07:11:57Z</time>
      </trkpt>
      <trkpt lat="43.98719" lon="3.51655">
        <ele>658.2</ele>
        <time>2010-03-07T07:12:07Z</time>
      </trkpt>
      <trkpt lat="43.98707" lon="3.51642">
        <ele>662.2</ele>
        <time>2010-03-07T07:12:22Z</time>
      </trkpt>
      <trkpt lat="43.98699" lon="3.5163">
        <ele>665.9</ele>
        <time>2010-03-07T07:12:37Z</time>
      </trkpt>
      <trkpt lat="43.98698" lon="3.51622">
        <ele>667.2</ele>
        <time>2010-03-07T07:12:47Z</time>
      </trkpt>
      <trkpt lat="43.98685" lon="3.51618">
        <ele>670</ele>
        <time>2010-03-07T07:13:07Z</time>
      </trkpt>
      <trkpt lat="43.9868" lon="3.51606">
        <ele>672.4</ele>
        <time>2010-03-07T07:13:22Z</time>
      </trkpt>
      <trkpt lat="43.98668" lon="3.51587">
        <ele>676.3</ele>
        <time>2010-03-07T07:13:42Z</time>
      </trkpt>
      <trkpt lat="43.98666" lon="3.51572">
        <ele>675.8</ele>
        <time>2010-03-07T07:13:52Z</time>
      </trkpt>
      <trkpt lat="43.98675" lon="3.51544">
        <ele>670.8</ele>
        <time>2010-03-07T07:14:12Z</time>
      </trkpt>
      <trkpt lat="43.98675" lon="3.51516">
        <ele>667.4</ele>
        <time>2010-03-07T07:14:22Z</time>
      </trkpt>
      <trkpt lat="43.98673" lon="3.51504">
        <ele>666.8</ele>
        <time>2010-03-07T07:14:27Z</time>
      </trkpt>
      <trkpt lat="43.98674" lon="3.51474">
        <ele>665.8</ele>
        <time>2010-03-07T07:14:42Z</time>
      </trkpt>
      <trkpt lat="43.98672" lon="3.51468">
        <ele>665.8</ele>
        <time>2010-03-07T07:14:47Z</time>
      </trkpt>
      <trkpt lat="43.98662" lon="3.51464">
        <ele>664.3</ele>
        <time>2010-03-07T07:14:57Z</time>
      </trkpt>
      <trkpt lat="43.98658" lon="3.51458">
        <ele>663</ele>
        <time>2010-03-07T07:15:02Z</time>
      </trkpt>
      <trkpt lat="43.98656" lon="3.5144">
        <ele>662.6</ele>
        <time>2010-03-07T07:15:12Z</time>
      </trkpt>
      <trkpt lat="43.9865" lon="3.51431">
        <ele>661.1</ele>
        <time>2010-03-07T07:15:17Z</time>
      </trkpt>
      <trkpt lat="43.98643" lon="3.5144">
        <ele>658.5</ele>
        <time>2010-03-07T07:15:27Z</time>
      </trkpt>
      <trkpt lat="43.98637" lon="3.5144">
        <ele>656.1</ele>
        <time>2010-03-07T07:15:32Z</time>
      </trkpt>
      <trkpt lat="43.98631" lon="3.51436">
        <ele>653.2</ele>
        <time>2010-03-07T07:15:37Z</time>
      </trkpt>
      <trkpt lat="43.98624" lon="3.51435">
        <ele>649.8</ele>
        <time>2010-03-07T07:15:42Z</time>
      </trkpt>
      <trkpt lat="43.98616" lon="3.51442">
        <ele>646.2</ele>
        <time>2010-03-07T07:15:47Z</time>
      </trkpt>
      <trkpt lat="43.98608" lon="3.51444">
        <ele>642.9</ele>
        <time>2010-03-07T07:15:52Z</time>
      </trkpt>
      <trkpt lat="43.98604" lon="3.5144">
        <ele>641.3</ele>
        <time>2010-03-07T07:15:57Z</time>
      </trkpt>
      <trkpt lat="43.9859" lon="3.51439">
        <ele>635.5</ele>
        <time>2010-03-07T07:16:07Z</time>
      </trkpt>
      <trkpt lat="43.9858" lon="3.5144">
        <ele>631.6</ele>
        <time>2010-03-07T07:16:12Z</time>
      </trkpt>
      <trkpt lat="43.98574" lon="3.51443">
        <ele>629.1</ele>
        <time>2010-03-07T07:16:17Z</time>
      </trkpt>
      <trkpt lat="43.98568" lon="3.51441">
        <ele>626.4</ele>
        <time>2010-03-07T07:16:22Z</time>
      </trkpt>
      <trkpt lat="43.98563" lon="3.51434">
        <ele>624.1</ele>
        <time>2010-03-07T07:16:27Z</time>
      </trkpt>
      <trkpt lat="43.98551" lon="3.51425">
        <ele>619.4</ele>
        <time>2010-03-07T07:16:37Z</time>
      </trkpt>
      <trkpt lat="43.98546" lon="3.51404">
        <ele>618.1</ele>
        <time>2010-03-07T07:16:47Z</time>
      </trkpt>
      <trkpt lat="43.98537" lon="3.514">
        <ele>615.1</ele>
        <time>2010-03-07T07:16:52Z</time>
      </trkpt>
      <trkpt lat="43.98533" lon="3.5139">
        <ele>613.8</ele>
        <time>2010-03-07T07:16:57Z</time>
      </trkpt>
      <trkpt lat="43.98527" lon="3.51386">
        <ele>612.1</ele>
        <time>2010-03-07T07:17:02Z</time>
      </trkpt>
      <trkpt lat="43.9852" lon="3.51387">
        <ele>608.6</ele>
        <time>2010-03-07T07:17:07Z</time>
      </trkpt>
      <trkpt lat="43.98515" lon="3.5139">
        <ele>606.1</ele>
        <time>2010-03-07T07:17:12Z</time>
      </trkpt>
      <trkpt lat="43.985" lon="3.51387">
        <ele>599.3</ele>
        <time>2010-03-07T07:17:27Z</time>
      </trkpt>
      <trkpt lat="43.98474" lon="3.51398">
        <ele>587.7</ele>
        <time>2010-03-07T07:17:52Z</time>
      </trkpt>
      <trkpt lat="43.98465" lon="3.51432">
        <ele>580.3</ele>
        <time>2010-03-07T07:18:17Z</time>
      </trkpt>
      <trkpt lat="43.98466" lon="3.51444">
        <ele>580.2</ele>
        <time>2010-03-07T07:18:22Z</time>
      </trkpt>
      <trkpt lat="43.98461" lon="3.51457">
        <ele>578.9</ele>
        <time>2010-03-07T07:18:27Z</time>
      </trkpt>
      <trkpt lat="43.98452" lon="3.51469">
        <ele>576.5</ele>
        <time>2010-03-07T07:18:37Z</time>
      </trkpt>
      <trkpt lat="43.98446" lon="3.51481">
        <ele>576.7</ele>
        <time>2010-03-07T07:18:42Z</time>
      </trkpt>
      <trkpt lat="43.98434" lon="3.51501">
        <ele>575.3</ele>
        <time>2010-03-07T07:18:52Z</time>
      </trkpt>
      <trkpt lat="43.9843" lon="3.51513">
        <ele>575.8</ele>
        <time>2010-03-07T07:18:57Z</time>
      </trkpt>
      <trkpt lat="43.98419" lon="3.51533">
        <ele>574.5</ele>
        <time>2010-03-07T07:19:07Z</time>
      </trkpt>
      <trkpt lat="43.98406" lon="3.5157">
        <ele>574.8</ele>
        <time>2010-03-07T07:19:22Z</time>
      </trkpt>
      <trkpt lat="43.98402" lon="3.51592">
        <ele>577.8</ele>
        <time>2010-03-07T07:19:32Z</time>
      </trkpt>
      <trkpt lat="43.98397" lon="3.51605">
        <ele>579.1</ele>
        <time>2010-03-07T07:19:42Z</time>
      </trkpt>
      <trkpt lat="43.98389" lon="3.51619">
        <ele>579.7</ele>
        <time>2010-03-07T07:19:52Z</time>
      </trkpt>
      <trkpt lat="43.9838" lon="3.51656">
        <ele>583.2</ele>
        <time>2010-03-07T07:20:17Z</time>
      </trkpt>
      <trkpt lat="43.98374" lon="3.51671">
        <ele>583</ele>
        <time>2010-03-07T07:20:27Z</time>
      </trkpt>
      <trkpt lat="43.9837" lon="3.51686">
        <ele>583.6</ele>
        <time>2010-03-07T07:20:37Z</time>
      </trkpt>
      <trkpt lat="43.98369" lon="3.51702">
        <ele>584.9</ele>
        <time>2010-03-07T07:20:47Z</time>
      </trkpt>
      <trkpt lat="43.98366" lon="3.51709">
        <ele>584.7</ele>
        <time>2010-03-07T07:20:52Z</time>
      </trkpt>
      <trkpt lat="43.98353" lon="3.51725">
        <ele>584.1</ele>
        <time>2010-03-07T07:21:02Z</time>
      </trkpt>
      <trkpt lat="43.98335" lon="3.51742">
        <ele>583.5</ele>
        <time>2010-03-07T07:21:12Z</time>
      </trkpt>
      <trkpt lat="43.98329" lon="3.51751">
        <ele>583.4</ele>
        <time>2010-03-07T07:21:17Z</time>
      </trkpt>
      <trkpt lat="43.98316" lon="3.51761">
        <ele>581.9</ele>
        <time>2010-03-07T07:21:32Z</time>
      </trkpt>
      <trkpt lat="43.983" lon="3.51765">
        <ele>580</ele>
        <time>2010-03-07T07:21:47Z</time>
      </trkpt>
      <trkpt lat="43.98274" lon="3.51765">
        <ele>573.9</ele>
        <time>2010-03-07T07:22:02Z</time>
      </trkpt>
      <trkpt lat="43.98248" lon="3.51771">
        <ele>570.2</ele>
        <time>2010-03-07T07:22:17Z</time>
      </trkpt>
      <trkpt lat="43.98214" lon="3.51789">
        <ele>568.8</ele>
        <time>2010-03-07T07:22:32Z</time>
      </trkpt>
      <trkpt lat="43.98162" lon="3.51804">
        <ele>562.6</ele>
        <time>2010-03-07T07:22:57Z</time>
      </trkpt>
      <trkpt lat="43.98154" lon="3.51804">
        <ele>560.3</ele>
        <time>2010-03-07T07:23:02Z</time>
      </trkpt>
      <trkpt lat="43.98131" lon="3.5181">
        <ele>555.9</ele>
        <time>2010-03-07T07:23:12Z</time>
      </trkpt>
      <trkpt lat="43.98121" lon="3.51816">
        <ele>554.4</ele>
        <time>2010-03-07T07:23:17Z</time>
      </trkpt>
      <trkpt lat="43.98097" lon="3.51838">
        <ele>548.5</ele>
        <time>2010-03-07T07:23:37Z</time>
      </trkpt>
      <trkpt lat="43.98076" lon="3.51844">
        <ele>542.1</ele>
        <time>2010-03-07T07:23:47Z</time>
      </trkpt>
      <trkpt lat="43.98067" lon="3.51852">
        <ele>541.6</ele>
        <time>2010-03-07T07:23:52Z</time>
      </trkpt>
      <trkpt lat="43.98052" lon="3.51851">
        <ele>537.3</ele>
        <time>2010-03-07T07:24:02Z</time>
      </trkpt>
      <trkpt lat="43.98042" lon="3.51848">
        <ele>534.9</ele>
        <time>2010-03-07T07:24:07Z</time>
      </trkpt>
      <trkpt lat="43.98031" lon="3.5185">
        <ele>534.5</ele>
        <time>2010-03-07T07:24:12Z</time>
      </trkpt>
      <trkpt lat="43.98016" lon="3.51848">
        <ele>530.9</ele>
        <time>2010-03-07T07:24:22Z</time>
      </trkpt>
      <trkpt lat="43.98012" lon="3.51849">
        <ele>530.7</ele>
        <time>2010-03-07T07:24:27Z</time>
      </trkpt>
      <trkpt lat="43.97997" lon="3.51842">
        <ele>526.3</ele>
        <time>2010-03-07T07:24:37Z</time>
      </trkpt>
      <trkpt lat="43.9798" lon="3.51846">
        <ele>526.5</ele>
        <time>2010-03-07T07:24:47Z</time>
      </trkpt>
      <trkpt lat="43.97951" lon="3.51833">
        <ele>521.2</ele>
        <time>2010-03-07T07:25:02Z</time>
      </trkpt>
      <trkpt lat="43.97924" lon="3.51836">
        <ele>521.9</ele>
        <time>2010-03-07T07:25:12Z</time>
      </trkpt>
      <trkpt lat="43.97915" lon="3.51827">
        <ele>519.4</ele>
        <time>2010-03-07T07:25:17Z</time>
      </trkpt>
      <trkpt lat="43.9791" lon="3.51815">
        <ele>517.6</ele>
        <time>2010-03-07T07:25:22Z</time>
      </trkpt>
      <trkpt lat="43.97859" lon="3.51774">
        <ele>518.1</ele>
        <time>2010-03-07T07:25:47Z</time>
      </trkpt>
      <trkpt lat="43.9785" lon="3.51769">
        <ele>518.7</ele>
        <time>2010-03-07T07:25:52Z</time>
      </trkpt>
      <trkpt lat="43.97817" lon="3.51729">
        <ele>516.3</ele>
        <time>2010-03-07T07:26:12Z</time>
      </trkpt>
      <trkpt lat="43.97796" lon="3.51719">
        <ele>515.2</ele>
        <time>2010-03-07T07:26:22Z</time>
      </trkpt>
      <trkpt lat="43.97782" lon="3.51725">
        <ele>515.3</ele>
        <time>2010-03-07T07:26:27Z</time>
      </trkpt>
      <trkpt lat="43.97756" lon="3.51725">
        <ele>510.9</ele>
        <time>2010-03-07T07:26:42Z</time>
      </trkpt>
      <trkpt lat="43.9773" lon="3.51728">
        <ele>507</ele>
        <time>2010-03-07T07:26:57Z</time>
      </trkpt>
      <trkpt lat="43.97708" lon="3.51725">
        <ele>501.7</ele>
        <time>2010-03-07T07:27:07Z</time>
      </trkpt>
      <trkpt lat="43.97687" lon="3.51736">
        <ele>498.1</ele>
        <time>2010-03-07T07:27:17Z</time>
      </trkpt>
      <trkpt lat="43.97653" lon="3.51775">
        <ele>490.7</ele>
        <time>2010-03-07T07:27:37Z</time>
      </trkpt>
      <trkpt lat="43.97645" lon="3.51805">
        <ele>490.9</ele>
        <time>2010-03-07T07:27:47Z</time>
      </trkpt>
      <trkpt lat="43.97633" lon="3.51823">
        <ele>487.3</ele>
        <time>2010-03-07T07:27:57Z</time>
      </trkpt>
      <trkpt lat="43.97618" lon="3.5184">
        <ele>484.5</ele>
        <time>2010-03-07T07:28:07Z</time>
      </trkpt>
      <trkpt lat="43.97578" lon="3.5185">
        <ele>474.4</ele>
        <time>2010-03-07T07:28:22Z</time>
      </trkpt>
      <trkpt lat="43.97567" lon="3.51857">
        <ele>470.4</ele>
        <time>2010-03-07T07:28:27Z</time>
      </trkpt>
      <trkpt lat="43.97558" lon="3.51859">
        <ele>466.7</ele>
        <time>2010-03-07T07:28:32Z</time>
      </trkpt>
      <trkpt lat="43.97544" lon="3.51869">
        <ele>463.3</ele>
        <time>2010-03-07T07:28:37Z</time>
      </trkpt>
      <trkpt lat="43.97536" lon="3.51878">
        <ele>462.8</ele>
        <time>2010-03-07T07:28:42Z</time>
      </trkpt>
      <trkpt lat="43.97522" lon="3.51902">
        <ele>464.1</ele>
        <time>2010-03-07T07:28:52Z</time>
      </trkpt>
      <trkpt lat="43.97506" lon="3.51922">
        <ele>463.3</ele>
        <time>2010-03-07T07:29:02Z</time>
      </trkpt>
      <trkpt lat="43.97483" lon="3.51935">
        <ele>458.1</ele>
        <time>2010-03-07T07:29:12Z</time>
      </trkpt>
      <trkpt lat="43.97473" lon="3.51937">
        <ele>455.5</ele>
        <time>2010-03-07T07:29:17Z</time>
      </trkpt>
      <trkpt lat="43.9744" lon="3.51927">
        <ele>453.5</ele>
        <time>2010-03-07T07:29:32Z</time>
      </trkpt>
      <trkpt lat="43.97435" lon="3.51936">
        <ele>454.2</ele>
        <time>2010-03-07T07:29:37Z</time>
      </trkpt>
      <trkpt lat="43.9743" lon="3.51959">
        <ele>453.1</ele>
        <time>2010-03-07T07:29:47Z</time>
      </trkpt>
      <trkpt lat="43.97426" lon="3.5199">
        <ele>449.2</ele>
        <time>2010-03-07T07:29:57Z</time>
      </trkpt>
      <trkpt lat="43.97412" lon="3.52041">
        <ele>441</ele>
        <time>2010-03-07T07:30:17Z</time>
      </trkpt>
      <trkpt lat="43.97412" lon="3.52056">
        <ele>438.9</ele>
        <time>2010-03-07T07:30:22Z</time>
      </trkpt>
      <trkpt lat="43.97407" lon="3.52074">
        <ele>436.4</ele>
        <time>2010-03-07T07:30:27Z</time>
      </trkpt>
      <trkpt lat="43.97412" lon="3.52085">
        <ele>434.4</ele>
        <time>2010-03-07T07:30:32Z</time>
      </trkpt>
      <trkpt lat="43.97432" lon="3.52083">
        <ele>436.7</ele>
        <time>2010-03-07T07:30:47Z</time>
      </trkpt>
      <trkpt lat="43.97439" lon="3.52089">
        <ele>437.9</ele>
        <time>2010-03-07T07:30:52Z</time>
      </trkpt>
      <trkpt lat="43.97458" lon="3.52121">
        <ele>440.3</ele>
        <time>2010-03-07T07:31:17Z</time>
      </trkpt>
      <trkpt lat="43.97462" lon="3.52124">
        <ele>440.8</ele>
        <time>2010-03-07T07:31:22Z</time>
      </trkpt>
      <trkpt lat="43.97474" lon="3.52124">
        <ele>442.7</ele>
        <time>2010-03-07T07:31:32Z</time>
      </trkpt>
      <trkpt lat="43.97485" lon="3.52118">
        <ele>444.2</ele>
        <time>2010-03-07T07:31:42Z</time>
      </trkpt>
      <trkpt lat="43.9751" lon="3.52114">
        <ele>447.9</ele>
        <time>2010-03-07T07:32:02Z</time>
      </trkpt>
      <trkpt lat="43.97523" lon="3.52116">
        <ele>449.1</ele>
        <time>2010-03-07T07:32:12Z</time>
      </trkpt>
      <trkpt lat="43.97531" lon="3.52121">
        <ele>449.4</ele>
        <time>2010-03-07T07:32:22Z</time>
      </trkpt>
      <trkpt lat="43.9755" lon="3.52126">
        <ele>452.5</ele>
        <time>2010-03-07T07:32:37Z</time>
      </trkpt>
      <trkpt lat="43.9757" lon="3.52137">
        <ele>454.5</ele>
        <time>2010-03-07T07:32:52Z</time>
      </trkpt>
      <trkpt lat="43.97591" lon="3.52158">
        <ele>455.1</ele>
        <time>2010-03-07T07:33:12Z</time>
      </trkpt>
      <trkpt lat="43.97595" lon="3.52168">
        <ele>453.9</ele>
        <time>2010-03-07T07:33:17Z</time>
      </trkpt>
      <trkpt lat="43.97604" lon="3.52182">
        <ele>452.1</ele>
        <time>2010-03-07T07:33:22Z</time>
      </trkpt>
      <trkpt lat="43.97616" lon="3.52187">
        <ele>452.6</ele>
        <time>2010-03-07T07:33:27Z</time>
      </trkpt>
      <trkpt lat="43.97629" lon="3.52199">
        <ele>451.6</ele>
        <time>2010-03-07T07:33:32Z</time>
      </trkpt>
      <trkpt lat="43.97626" lon="3.52217">
        <ele>447.2</ele>
        <time>2010-03-07T07:33:37Z</time>
      </trkpt>
      <trkpt lat="43.97619" lon="3.52226">
        <ele>444.7</ele>
        <time>2010-03-07T07:33:42Z</time>
      </trkpt>
      <trkpt lat="43.97604" lon="3.52232">
        <ele>441.5</ele>
        <time>2010-03-07T07:33:47Z</time>
      </trkpt>
      <trkpt lat="43.97597" lon="3.52229">
        <ele>440.9</ele>
        <time>2010-03-07T07:33:52Z</time>
      </trkpt>
      <trkpt lat="43.97588" lon="3.52245">
        <ele>435.8</ele>
        <time>2010-03-07T07:34:02Z</time>
      </trkpt>
      <trkpt lat="43.97577" lon="3.52258">
        <ele>430.8</ele>
        <time>2010-03-07T07:34:12Z</time>
      </trkpt>
      <trkpt lat="43.97575" lon="3.52274">
        <ele>427.5</ele>
        <time>2010-03-07T07:34:17Z</time>
      </trkpt>
      <trkpt lat="43.97566" lon="3.5228">
        <ele>425</ele>
        <time>2010-03-07T07:34:22Z</time>
      </trkpt>
      <trkpt lat="43.97558" lon="3.52274">
        <ele>424.9</ele>
        <time>2010-03-07T07:34:27Z</time>
      </trkpt>
      <trkpt lat="43.97555" lon="3.52291">
        <ele>421.6</ele>
        <time>2010-03-07T07:34:37Z</time>
      </trkpt>
      <trkpt lat="43.97559" lon="3.52313">
        <ele>418.1</ele>
        <time>2010-03-07T07:34:47Z</time>
      </trkpt>
      <trkpt lat="43.97553" lon="3.52343">
        <ele>411.2</ele>
        <time>2010-03-07T07:34:57Z</time>
      </trkpt>
      <trkpt lat="43.97547" lon="3.52351">
        <ele>408.9</ele>
        <time>2010-03-07T07:35:02Z</time>
      </trkpt>
      <trkpt lat="43.97537" lon="3.52354">
        <ele>407.8</ele>
        <time>2010-03-07T07:35:07Z</time>
      </trkpt>
      <trkpt lat="43.97528" lon="3.52362">
        <ele>406.5</ele>
        <time>2010-03-07T07:35:12Z</time>
      </trkpt>
      <trkpt lat="43.97522" lon="3.52384">
        <ele>396.1</ele>
        <time>2010-03-07T07:35:17Z</time>
      </trkpt>
      <trkpt lat="43.97515" lon="3.52397">
        <ele>392.8</ele>
        <time>2010-03-07T07:35:22Z</time>
      </trkpt>
      <trkpt lat="43.97507" lon="3.52403">
        <ele>392.1</ele>
        <time>2010-03-07T07:35:27Z</time>
      </trkpt>
      <trkpt lat="43.97494" lon="3.52427">
        <ele>390.4</ele>
        <time>2010-03-07T07:35:37Z</time>
      </trkpt>
      <trkpt lat="43.9749" lon="3.52468">
        <ele>388.2</ele>
        <time>2010-03-07T07:35:47Z</time>
      </trkpt>
      <trkpt lat="43.97473" lon="3.52501">
        <ele>388.8</ele>
        <time>2010-03-07T07:36:02Z</time>
      </trkpt>
      <trkpt lat="43.97465" lon="3.52512">
        <ele>386.1</ele>
        <time>2010-03-07T07:36:07Z</time>
      </trkpt>
      <trkpt lat="43.97431" lon="3.52547">
        <ele>379.1</ele>
        <time>2010-03-07T07:36:27Z</time>
      </trkpt>
      <trkpt lat="43.97431" lon="3.52559">
        <ele>378.9</ele>
        <time>2010-03-07T07:36:32Z</time>
      </trkpt>
      <trkpt lat="43.97438" lon="3.52604">
        <ele>372</ele>
        <time>2010-03-07T07:36:47Z</time>
      </trkpt>
      <trkpt lat="43.97437" lon="3.52619">
        <ele>368.6</ele>
        <time>2010-03-07T07:36:52Z</time>
      </trkpt>
      <trkpt lat="43.9743" lon="3.52631">
        <ele>365.7</ele>
        <time>2010-03-07T07:36:57Z</time>
      </trkpt>
      <trkpt lat="43.9742" lon="3.52635">
        <ele>364.8</ele>
        <time>2010-03-07T07:37:02Z</time>
      </trkpt>
      <trkpt lat="43.97407" lon="3.52656">
        <ele>358.8</ele>
        <time>2010-03-07T07:37:12Z</time>
      </trkpt>
      <trkpt lat="43.97405" lon="3.52665">
        <ele>356.9</ele>
        <time>2010-03-07T07:37:17Z</time>
      </trkpt>
      <trkpt lat="43.97399" lon="3.52675">
        <ele>354.7</ele>
        <time>2010-03-07T07:37:22Z</time>
      </trkpt>
      <trkpt lat="43.97389" lon="3.52671">
        <ele>354.4</ele>
        <time>2010-03-07T07:37:27Z</time>
      </trkpt>
      <trkpt lat="43.97382" lon="3.52658">
        <ele>353.5</ele>
        <time>2010-03-07T07:37:32Z</time>
      </trkpt>
      <trkpt lat="43.97377" lon="3.52679">
        <ele>349.6</ele>
        <time>2010-03-07T07:37:42Z</time>
      </trkpt>
      <trkpt lat="43.97375" lon="3.52711">
        <ele>345.7</ele>
        <time>2010-03-07T07:37:52Z</time>
      </trkpt>
      <trkpt lat="43.97367" lon="3.52749">
        <ele>340.7</ele>
        <time>2010-03-07T07:38:02Z</time>
      </trkpt>
      <trkpt lat="43.97362" lon="3.52761">
        <ele>339.3</ele>
        <time>2010-03-07T07:38:07Z</time>
      </trkpt>
      <trkpt lat="43.9736" lon="3.52774">
        <ele>337.8</ele>
        <time>2010-03-07T07:38:12Z</time>
      </trkpt>
      <trkpt lat="43.9736" lon="3.52787">
        <ele>337</ele>
        <time>2010-03-07T07:38:17Z</time>
      </trkpt>
      <trkpt lat="43.97357" lon="3.528">
        <ele>334.6</ele>
        <time>2010-03-07T07:38:22Z</time>
      </trkpt>
      <trkpt lat="43.97347" lon="3.52795">
        <ele>330.9</ele>
        <time>2010-03-07T07:38:27Z</time>
      </trkpt>
      <trkpt lat="43.97336" lon="3.52774">
        <ele>329.5</ele>
        <time>2010-03-07T07:38:37Z</time>
      </trkpt>
      <trkpt lat="43.97331" lon="3.52766">
        <ele>328</ele>
        <time>2010-03-07T07:38:42Z</time>
      </trkpt>
      <trkpt lat="43.97328" lon="3.52771">
        <ele>326.4</ele>
        <time>2010-03-07T07:38:47Z</time>
      </trkpt>
      <trkpt lat="43.97326" lon="3.52781">
        <ele>324.9</ele>
        <time>2010-03-07T07:38:52Z</time>
      </trkpt>
      <trkpt lat="43.97314" lon="3.52794">
        <ele>319.1</ele>
        <time>2010-03-07T07:39:02Z</time>
      </trkpt>
      <trkpt lat="43.97299" lon="3.52805">
        <ele>313.9</ele>
        <time>2010-03-07T07:39:12Z</time>
      </trkpt>
      <trkpt lat="43.97277" lon="3.52832">
        <ele>309.8</ele>
        <time>2010-03-07T07:39:32Z</time>
      </trkpt>
      <trkpt lat="43.97273" lon="3.52841">
        <ele>307.9</ele>
        <time>2010-03-07T07:39:37Z</time>
      </trkpt>
      <trkpt lat="43.97268" lon="3.52876">
        <ele>302.6</ele>
        <time>2010-03-07T07:39:52Z</time>
      </trkpt>
      <trkpt lat="43.97263" lon="3.52884">
        <ele>301</ele>
        <time>2010-03-07T07:39:57Z</time>
      </trkpt>
      <trkpt lat="43.97229" lon="3.5289">
        <ele>299.2</ele>
        <time>2010-03-07T07:40:12Z</time>
      </trkpt>
      <trkpt lat="43.97224" lon="3.52908">
        <ele>298.4</ele>
        <time>2010-03-07T07:40:22Z</time>
      </trkpt>
      <trkpt lat="43.97226" lon="3.52916">
        <ele>298.2</ele>
        <time>2010-03-07T07:40:27Z</time>
      </trkpt>
      <trkpt lat="43.97225" lon="3.52925">
        <ele>298.7</ele>
        <time>2010-03-07T07:40:32Z</time>
      </trkpt>
      <trkpt lat="43.97211" lon="3.52926">
        <ele>298</ele>
        <time>2010-03-07T07:40:37Z</time>
      </trkpt>
      <trkpt lat="43.97202" lon="3.52929">
        <ele>297.7</ele>
        <time>2010-03-07T07:40:42Z</time>
      </trkpt>
      <trkpt lat="43.97185" lon="3.52915">
        <ele>296.1</ele>
        <time>2010-03-07T07:40:52Z</time>
      </trkpt>
      <trkpt lat="43.97165" lon="3.52905">
        <ele>296.8</ele>
        <time>2010-03-07T07:41:02Z</time>
      </trkpt>
      <trkpt lat="43.97134" lon="3.52895">
        <ele>296.1</ele>
        <time>2010-03-07T07:41:17Z</time>
      </trkpt>
      <trkpt lat="43.97122" lon="3.52885">
        <ele>296.3</ele>
        <time>2010-03-07T07:41:27Z</time>
      </trkpt>
      <trkpt lat="43.97104" lon="3.52891">
        <ele>295.6</ele>
        <time>2010-03-07T07:41:37Z</time>
      </trkpt>
      <trkpt lat="43.97091" lon="3.52882">
        <ele>295.9</ele>
        <time>2010-03-07T07:41:47Z</time>
      </trkpt>
      <trkpt lat="43.97078" lon="3.52867">
        <ele>297.3</ele>
        <time>2010-03-07T07:41:57Z</time>
      </trkpt>
      <trkpt lat="43.97059" lon="3.52857">
        <ele>298.2</ele>
        <time>2010-03-07T07:42:07Z</time>
      </trkpt>
      <trkpt lat="43.97048" lon="3.52841">
        <ele>298.2</ele>
        <time>2010-03-07T07:42:17Z</time>
      </trkpt>
      <trkpt lat="43.97045" lon="3.52833">
        <ele>298.6</ele>
        <time>2010-03-07T07:42:22Z</time>
      </trkpt>
      <trkpt lat="43.97035" lon="3.52822">
        <ele>299.3</ele>
        <time>2010-03-07T07:42:32Z</time>
      </trkpt>
      <trkpt lat="43.9703" lon="3.52822">
        <ele>299</ele>
        <time>2010-03-07T07:42:37Z</time>
      </trkpt>
      <trkpt lat="43.97024" lon="3.52811">
        <ele>298.7</ele>
        <time>2010-03-07T07:42:47Z</time>
      </trkpt>
      <trkpt lat="43.97024" lon="3.52799">
        <ele>300.3</ele>
        <time>2010-03-07T07:42:52Z</time>
      </trkpt>
      <trkpt lat="43.97028" lon="3.52792">
        <ele>302.4</ele>
        <time>2010-03-07T07:42:57Z</time>
      </trkpt>
      <trkpt lat="43.97035" lon="3.5279">
        <ele>303.8</ele>
        <time>2010-03-07T07:43:07Z</time>
      </trkpt>
      <trkpt lat="43.97038" lon="3.52785">
        <ele>305.2</ele>
        <time>2010-03-07T07:43:17Z</time>
      </trkpt>
      <trkpt lat="43.9703" lon="3.5278">
        <ele>304.8</ele>
        <time>2010-03-07T07:43:27Z</time>
      </trkpt>
      <trkpt lat="43.97029" lon="3.52775">
        <ele>305.9</ele>
        <time>2010-03-07T07:43:32Z</time>
      </trkpt>
      <trkpt lat="43.9702" lon="3.52758">
        <ele>308.2</ele>
        <time>2010-03-07T07:43:57Z</time>
      </trkpt>
      <trkpt lat="43.97019" lon="3.52762">
        <ele>307.4</ele>
        <time>2010-03-07T07:44:07Z</time>
      </trkpt>
      <trkpt lat="43.97018" lon="3.52758">
        <ele>308.1</ele>
        <time>2010-03-07T07:44:17Z</time>
      </trkpt>
      <trkpt lat="43.97016" lon="3.52762">
        <ele>306.6</ele>
        <time>2010-03-07T07:44:27Z</time>
      </trkpt>
      <trkpt lat="43.97015" lon="3.52758">
        <ele>307.4</ele>
        <time>2010-03-07T07:44:32Z</time>
      </trkpt>
      <trkpt lat="43.97018" lon="3.5276">
        <ele>307.4</ele>
        <time>2010-03-07T07:44:37Z</time>
      </trkpt>
      <trkpt lat="43.97019" lon="3.52754">
        <ele>309.3</ele>
        <time>2010-03-07T07:44:47Z</time>
      </trkpt>
      <trkpt lat="43.97017" lon="3.52755">
        <ele>308.5</ele>
        <time>2010-03-07T07:44:52Z</time>
      </trkpt>
      <trkpt lat="43.97021" lon="3.5276">
        <ele>307.9</ele>
        <time>2010-03-07T07:45:07Z</time>
      </trkpt>
      <trkpt lat="43.97019" lon="3.52759">
        <ele>307.9</ele>
        <time>2010-03-07T07:45:12Z</time>
      </trkpt>
      <trkpt lat="43.97023" lon="3.52754">
        <ele>310</ele>
        <time>2010-03-07T07:45:22Z</time>
      </trkpt>
      <trkpt lat="43.97029" lon="3.52753">
        <ele>311.3</ele>
        <time>2010-03-07T07:45:47Z</time>
      </trkpt>
      <trkpt lat="43.97026" lon="3.52754">
        <ele>310.5</ele>
        <time>2010-03-07T07:45:57Z</time>
      </trkpt>
      <trkpt lat="43.97027" lon="3.52756">
        <ele>310.3</ele>
        <time>2010-03-07T07:46:07Z</time>
      </trkpt>
      <trkpt lat="43.97018" lon="3.52756">
        <ele>308.5</ele>
        <time>2010-03-07T07:46:27Z</time>
      </trkpt>
      <trkpt lat="43.97021" lon="3.52754">
        <ele>309.5</ele>
        <time>2010-03-07T07:46:42Z</time>
      </trkpt>
      <trkpt lat="43.97018" lon="3.52754">
        <ele>308.9</ele>
        <time>2010-03-07T07:46:47Z</time>
      </trkpt>
      <trkpt lat="43.97018" lon="3.52751">
        <ele>309.7</ele>
        <time>2010-03-07T07:46:57Z</time>
      </trkpt>
      <trkpt lat="43.9702" lon="3.52756">
        <ele>308.8</ele>
        <time>2010-03-07T07:47:17Z</time>
      </trkpt>
      <trkpt lat="43.97018" lon="3.52754">
        <ele>308.9</ele>
        <time>2010-03-07T07:47:27Z</time>
      </trkpt>
      <trkpt lat="43.9702" lon="3.52755">
        <ele>309.2</ele>
        <time>2010-03-07T07:47:37Z</time>
      </trkpt>
      <trkpt lat="43.97017" lon="3.52761">
        <ele>307.1</ele>
        <time>2010-03-07T07:47:52Z</time>
      </trkpt>
      <trkpt lat="43.9702" lon="3.52759">
        <ele>308</ele>
        <time>2010-03-07T07:47:57Z</time>
      </trkpt>
      <trkpt lat="43.97021" lon="3.52762">
        <ele>307.5</ele>
        <time>2010-03-07T07:48:02Z</time>
      </trkpt>
      <trkpt lat="43.97018" lon="3.52763">
        <ele>306.8</ele>
        <time>2010-03-07T07:48:12Z</time>
      </trkpt>
      <trkpt lat="43.9702" lon="3.52764">
        <ele>306.9</ele>
        <time>2010-03-07T07:48:17Z</time>
      </trkpt>
      <trkpt lat="43.97021" lon="3.52763">
        <ele>307.4</ele>
        <time>2010-03-07T07:48:22Z</time>
      </trkpt>
      <trkpt lat="43.9702" lon="3.52763">
        <ele>307.2</ele>
        <time>2010-03-07T07:48:27Z</time>
      </trkpt>
      <trkpt lat="43.97021" lon="3.52762">
        <ele>307.7</ele>
        <time>2010-03-07T07:48:32Z</time>
      </trkpt>
      <trkpt lat="43.9702" lon="3.52762">
        <ele>307.4</ele>
        <time>2010-03-07T07:48:37Z</time>
      </trkpt>
      <trkpt lat="43.97023" lon="3.52761">
        <ele>308.4</ele>
        <time>2010-03-07T07:48:47Z</time>
      </trkpt>
      <trkpt lat="43.97023" lon="3.52752">
        <ele>310.6</ele>
        <time>2010-03-07T07:49:02Z</time>
      </trkpt>
      <trkpt lat="43.97016" lon="3.52759">
        <ele>307.5</ele>
        <time>2010-03-07T07:49:17Z</time>
      </trkpt>
      <trkpt lat="43.9702" lon="3.52755">
        <ele>309.1</ele>
        <time>2010-03-07T07:49:27Z</time>
      </trkpt>
      <trkpt lat="43.97027" lon="3.52761">
        <ele>309.2</ele>
        <time>2010-03-07T07:49:42Z</time>
      </trkpt>
      <trkpt lat="43.97023" lon="3.52762">
        <ele>308.1</ele>
        <time>2010-03-07T07:49:52Z</time>
      </trkpt>
      <trkpt lat="43.97022" lon="3.52757">
        <ele>309.1</ele>
        <time>2010-03-07T07:50:02Z</time>
      </trkpt>
      <trkpt lat="43.97021" lon="3.5276">
        <ele>308.1</ele>
        <time>2010-03-07T07:50:07Z</time>
      </trkpt>
      <trkpt lat="43.97016" lon="3.52763">
        <ele>306.5</ele>
        <time>2010-03-07T07:50:12Z</time>
      </trkpt>
      <trkpt lat="43.97014" lon="3.5276">
        <ele>306.8</ele>
        <time>2010-03-07T07:50:17Z</time>
      </trkpt>
      <trkpt lat="43.97017" lon="3.52757">
        <ele>308</ele>
        <time>2010-03-07T07:50:32Z</time>
      </trkpt>
      <trkpt lat="43.97017" lon="3.52752">
        <ele>309.2</ele>
        <time>2010-03-07T07:50:42Z</time>
      </trkpt>
      <trkpt lat="43.9701" lon="3.52757">
        <ele>306.4</ele>
        <time>2010-03-07T07:50:57Z</time>
      </trkpt>
      <trkpt lat="43.97009" lon="3.52762">
        <ele>305.1</ele>
        <time>2010-03-07T07:51:02Z</time>
      </trkpt>
      <trkpt lat="43.97016" lon="3.52758">
        <ele>307.5</ele>
        <time>2010-03-07T07:51:17Z</time>
      </trkpt>
      <trkpt lat="43.97016" lon="3.5276">
        <ele>306.9</ele>
        <time>2010-03-07T07:51:22Z</time>
      </trkpt>
      <trkpt lat="43.9702" lon="3.52757">
        <ele>308.7</ele>
        <time>2010-03-07T07:51:37Z</time>
      </trkpt>
      <trkpt lat="43.97015" lon="3.52759">
        <ele>307.1</ele>
        <time>2010-03-07T07:51:47Z</time>
      </trkpt>
      <trkpt lat="43.97019" lon="3.52755">
        <ele>308.9</ele>
        <time>2010-03-07T07:52:07Z</time>
      </trkpt>
      <trkpt lat="43.97015" lon="3.52758">
        <ele>307.2</ele>
        <time>2010-03-07T07:52:32Z</time>
      </trkpt>
      <trkpt lat="43.97016" lon="3.52756">
        <ele>308</ele>
        <time>2010-03-07T07:52:37Z</time>
      </trkpt>
      <trkpt lat="43.97018" lon="3.52759">
        <ele>307.9</ele>
        <time>2010-03-07T07:52:42Z</time>
      </trkpt>
      <trkpt lat="43.97015" lon="3.52758">
        <ele>307.5</ele>
        <time>2010-03-07T07:52:52Z</time>
      </trkpt>
      <trkpt lat="43.97016" lon="3.52761">
        <ele>306.9</ele>
        <time>2010-03-07T07:53:02Z</time>
      </trkpt>
      <trkpt lat="43.97017" lon="3.52761">
        <ele>307.2</ele>
        <time>2010-03-07T07:53:07Z</time>
      </trkpt>
      <trkpt lat="43.97014" lon="3.52759">
        <ele>307.1</ele>
        <time>2010-03-07T07:53:12Z</time>
      </trkpt>
      <trkpt lat="43.97016" lon="3.52756">
        <ele>308</ele>
        <time>2010-03-07T07:53:22Z</time>
      </trkpt>
      <trkpt lat="43.97016" lon="3.5275">
        <ele>309.4</ele>
        <time>2010-03-07T07:53:27Z</time>
      </trkpt>
      <trkpt lat="43.97013" lon="3.52745">
        <ele>309.5</ele>
        <time>2010-03-07T07:53:32Z</time>
      </trkpt>
      <trkpt lat="43.9701" lon="3.52751">
        <ele>307.9</ele>
        <time>2010-03-07T07:53:42Z</time>
      </trkpt>
      <trkpt lat="43.97014" lon="3.52752">
        <ele>308.7</ele>
        <time>2010-03-07T07:53:57Z</time>
      </trkpt>
      <trkpt lat="43.9701" lon="3.52752">
        <ele>307.8</ele>
        <time>2010-03-07T07:54:07Z</time>
      </trkpt>
      <trkpt lat="43.97009" lon="3.52746">
        <ele>308.6</ele>
        <time>2010-03-07T07:54:12Z</time>
      </trkpt>
      <trkpt lat="43.97009" lon="3.52751">
        <ele>307.8</ele>
        <time>2010-03-07T07:54:17Z</time>
      </trkpt>
      <trkpt lat="43.97011" lon="3.52753">
        <ele>307.7</ele>
        <time>2010-03-07T07:54:47Z</time>
      </trkpt>
      <trkpt lat="43.97013" lon="3.52751">
        <ele>308.6</ele>
        <time>2010-03-07T07:54:52Z</time>
      </trkpt>
      <trkpt lat="43.97012" lon="3.52749">
        <ele>308.7</ele>
        <time>2010-03-07T07:54:57Z</time>
      </trkpt>
      <trkpt lat="43.97012" lon="3.52756">
        <ele>307.3</ele>
        <time>2010-03-07T07:55:12Z</time>
      </trkpt>
      <trkpt lat="43.97014" lon="3.52758">
        <ele>307.2</ele>
        <time>2010-03-07T07:55:17Z</time>
      </trkpt>
      <trkpt lat="43.97013" lon="3.52759">
        <ele>306.7</ele>
        <time>2010-03-07T07:55:27Z</time>
      </trkpt>
      <trkpt lat="43.97013" lon="3.52757">
        <ele>307.1</ele>
        <time>2010-03-07T07:55:32Z</time>
      </trkpt>
      <trkpt lat="43.97017" lon="3.52758">
        <ele>307.9</ele>
        <time>2010-03-07T07:55:42Z</time>
      </trkpt>
      <trkpt lat="43.97021" lon="3.52756">
        <ele>309.2</ele>
        <time>2010-03-07T07:55:52Z</time>
      </trkpt>
      <trkpt lat="43.97016" lon="3.52756">
        <ele>308</ele>
        <time>2010-03-07T07:56:02Z</time>
      </trkpt>
      <trkpt lat="43.97013" lon="3.52753">
        <ele>308.2</ele>
        <time>2010-03-07T07:56:07Z</time>
      </trkpt>
      <trkpt lat="43.97013" lon="3.52757">
        <ele>307.2</ele>
        <time>2010-03-07T07:56:12Z</time>
      </trkpt>
      <trkpt lat="43.97015" lon="3.52755">
        <ele>308</ele>
        <time>2010-03-07T07:56:17Z</time>
      </trkpt>
      <trkpt lat="43.97016" lon="3.52756">
        <ele>308.1</ele>
        <time>2010-03-07T07:56:22Z</time>
      </trkpt>
      <trkpt lat="43.97007" lon="3.52756">
        <ele>306.1</ele>
        <time>2010-03-07T07:56:37Z</time>
      </trkpt>
      <trkpt lat="43.97004" lon="3.52759">
        <ele>305</ele>
        <time>2010-03-07T07:56:42Z</time>
      </trkpt>
      <trkpt lat="43.97005" lon="3.52753">
        <ele>306.5</ele>
        <time>2010-03-07T07:56:52Z</time>
      </trkpt>
      <trkpt lat="43.97012" lon="3.52767">
        <ele>304.6</ele>
        <time>2010-03-07T07:57:02Z</time>
      </trkpt>
      <trkpt lat="43.97019" lon="3.52774">
        <ele>304.5</ele>
        <time>2010-03-07T07:57:07Z</time>
      </trkpt>
      <trkpt lat="43.97029" lon="3.52792">
        <ele>302.5</ele>
        <time>2010-03-07T07:57:22Z</time>
      </trkpt>
      <trkpt lat="43.97027" lon="3.52799">
        <ele>301</ele>
        <time>2010-03-07T07:57:27Z</time>
      </trkpt>
      <trkpt lat="43.97021" lon="3.52799">
        <ele>299.9</ele>
        <time>2010-03-07T07:57:32Z</time>
      </trkpt>
      <trkpt lat="43.97018" lon="3.52795">
        <ele>300</ele>
        <time>2010-03-07T07:57:37Z</time>
      </trkpt>
      <trkpt lat="43.97018" lon="3.52792">
        <ele>300.5</ele>
        <time>2010-03-07T07:57:42Z</time>
      </trkpt>
      <trkpt lat="43.97006" lon="3.52769">
        <ele>303.1</ele>
        <time>2010-03-07T07:58:02Z</time>
      </trkpt>
      <trkpt lat="43.96992" lon="3.52751">
        <ele>303.3</ele>
        <time>2010-03-07T07:58:17Z</time>
      </trkpt>
      <trkpt lat="43.96977" lon="3.52725">
        <ele>305.2</ele>
        <time>2010-03-07T07:58:32Z</time>
      </trkpt>
      <trkpt lat="43.96973" lon="3.52691">
        <ele>307.5</ele>
        <time>2010-03-07T07:58:52Z</time>
      </trkpt>
      <trkpt lat="43.96949" lon="3.52648">
        <ele>309.2</ele>
        <time>2010-03-07T07:59:22Z</time>
      </trkpt>
      <trkpt lat="43.96941" lon="3.52643">
        <ele>309.1</ele>
        <time>2010-03-07T07:59:32Z</time>
      </trkpt>
      <trkpt lat="43.96933" lon="3.52631">
        <ele>310.8</ele>
        <time>2010-03-07T07:59:42Z</time>
      </trkpt>
      <trkpt lat="43.96921" lon="3.52623">
        <ele>311.1</ele>
        <time>2010-03-07T07:59:52Z</time>
      </trkpt>
      <trkpt lat="43.96917" lon="3.52623">
        <ele>310.5</ele>
        <time>2010-03-07T07:59:57Z</time>
      </trkpt>
      <trkpt lat="43.96887" lon="3.52599">
        <ele>313.4</ele>
        <time>2010-03-07T08:00:22Z</time>
      </trkpt>
      <trkpt lat="43.96882" lon="3.52588">
        <ele>315.5</ele>
        <time>2010-03-07T08:00:32Z</time>
      </trkpt>
      <trkpt lat="43.96883" lon="3.5258">
        <ele>317</ele>
        <time>2010-03-07T08:00:37Z</time>
      </trkpt>
      <trkpt lat="43.96887" lon="3.52584">
        <ele>316.8</ele>
        <time>2010-03-07T08:00:42Z</time>
      </trkpt>
      <trkpt lat="43.96895" lon="3.52578">
        <ele>318.6</ele>
        <time>2010-03-07T08:00:52Z</time>
      </trkpt>
      <trkpt lat="43.96892" lon="3.52576">
        <ele>318.5</ele>
        <time>2010-03-07T08:00:57Z</time>
      </trkpt>
      <trkpt lat="43.96885" lon="3.5258">
        <ele>317.1</ele>
        <time>2010-03-07T08:01:02Z</time>
      </trkpt>
      <trkpt lat="43.96866" lon="3.5258">
        <ele>315.8</ele>
        <time>2010-03-07T08:01:07Z</time>
      </trkpt>
      <trkpt lat="43.96809" lon="3.52569">
        <ele>321.4</ele>
        <time>2010-03-07T08:01:27Z</time>
      </trkpt>
      <trkpt lat="43.96758" lon="3.52552">
        <ele>316.5</ele>
        <time>2010-03-07T08:01:47Z</time>
      </trkpt>
      <trkpt lat="43.96755" lon="3.52536">
        <ele>315.6</ele>
        <time>2010-03-07T08:01:52Z</time>
      </trkpt>
      <trkpt lat="43.96739" lon="3.52499">
        <ele>311.3</ele>
        <time>2010-03-07T08:02:02Z</time>
      </trkpt>
      <trkpt lat="43.96734" lon="3.52462">
        <ele>309.7</ele>
        <time>2010-03-07T08:02:17Z</time>
      </trkpt>
      <trkpt lat="43.96736" lon="3.5245">
        <ele>310.2</ele>
        <time>2010-03-07T08:02:22Z</time>
      </trkpt>
      <trkpt lat="43.9674" lon="3.52438">
        <ele>312.4</ele>
        <time>2010-03-07T08:02:27Z</time>
      </trkpt>
      <trkpt lat="43.96732" lon="3.52423">
        <ele>310.4</ele>
        <time>2010-03-07T08:02:37Z</time>
      </trkpt>
      <trkpt lat="43.96736" lon="3.52403">
        <ele>312.6</ele>
        <time>2010-03-07T08:02:47Z</time>
      </trkpt>
      <trkpt lat="43.96726" lon="3.52375">
        <ele>306.7</ele>
        <time>2010-03-07T08:02:57Z</time>
      </trkpt>
      <trkpt lat="43.96728" lon="3.52363">
        <ele>307.6</ele>
        <time>2010-03-07T08:03:02Z</time>
      </trkpt>
      <trkpt lat="43.96726" lon="3.52351">
        <ele>307.4</ele>
        <time>2010-03-07T08:03:07Z</time>
      </trkpt>
      <trkpt lat="43.96713" lon="3.52318">
        <ele>306</ele>
        <time>2010-03-07T08:03:17Z</time>
      </trkpt>
      <trkpt lat="43.96708" lon="3.52292">
        <ele>306.1</ele>
        <time>2010-03-07T08:03:27Z</time>
      </trkpt>
      <trkpt lat="43.96709" lon="3.52269">
        <ele>307.6</ele>
        <time>2010-03-07T08:03:37Z</time>
      </trkpt>
      <trkpt lat="43.96707" lon="3.52255">
        <ele>307.8</ele>
        <time>2010-03-07T08:03:42Z</time>
      </trkpt>
      <trkpt lat="43.9671" lon="3.5224">
        <ele>309.6</ele>
        <time>2010-03-07T08:03:47Z</time>
      </trkpt>
      <trkpt lat="43.96704" lon="3.52219">
        <ele>307.6</ele>
        <time>2010-03-07T08:03:57Z</time>
      </trkpt>
      <trkpt lat="43.967" lon="3.52192">
        <ele>306</ele>
        <time>2010-03-07T08:04:07Z</time>
      </trkpt>
      <trkpt lat="43.96684" lon="3.52163">
        <ele>303.9</ele>
        <time>2010-03-07T08:04:22Z</time>
      </trkpt>
      <trkpt lat="43.96674" lon="3.52157">
        <ele>303.8</ele>
        <time>2010-03-07T08:04:27Z</time>
      </trkpt>
      <trkpt lat="43.96666" lon="3.52148">
        <ele>303.7</ele>
        <time>2010-03-07T08:04:32Z</time>
      </trkpt>
      <trkpt lat="43.96647" lon="3.52119">
        <ele>304.4</ele>
        <time>2010-03-07T08:04:47Z</time>
      </trkpt>
      <trkpt lat="43.9662" lon="3.52089">
        <ele>304.4</ele>
        <time>2010-03-07T08:05:02Z</time>
      </trkpt>
      <trkpt lat="43.96588" lon="3.52059">
        <ele>306.2</ele>
        <time>2010-03-07T08:05:22Z</time>
      </trkpt>
      <trkpt lat="43.96574" lon="3.52038">
        <ele>308.5</ele>
        <time>2010-03-07T08:05:32Z</time>
      </trkpt>
      <trkpt lat="43.96566" lon="3.52022">
        <ele>308.9</ele>
        <time>2010-03-07T08:05:42Z</time>
      </trkpt>
      <trkpt lat="43.9656" lon="3.51989">
        <ele>308.5</ele>
        <time>2010-03-07T08:05:57Z</time>
      </trkpt>
      <trkpt lat="43.96549" lon="3.51964">
        <ele>309.5</ele>
        <time>2010-03-07T08:06:07Z</time>
      </trkpt>
      <trkpt lat="43.96549" lon="3.51952">
        <ele>309.5</ele>
        <time>2010-03-07T08:06:12Z</time>
      </trkpt>
      <trkpt lat="43.96542" lon="3.51923">
        <ele>309.4</ele>
        <time>2010-03-07T08:06:22Z</time>
      </trkpt>
      <trkpt lat="43.96541" lon="3.51905">
        <ele>309.5</ele>
        <time>2010-03-07T08:06:27Z</time>
      </trkpt>
      <trkpt lat="43.96543" lon="3.51891">
        <ele>309.6</ele>
        <time>2010-03-07T08:06:32Z</time>
      </trkpt>
      <trkpt lat="43.96554" lon="3.51872">
        <ele>310</ele>
        <time>2010-03-07T08:06:42Z</time>
      </trkpt>
      <trkpt lat="43.96572" lon="3.51854">
        <ele>311.6</ele>
        <time>2010-03-07T08:06:52Z</time>
      </trkpt>
      <trkpt lat="43.96581" lon="3.51824">
        <ele>312.4</ele>
        <time>2010-03-07T08:07:07Z</time>
      </trkpt>
      <trkpt lat="43.96587" lon="3.51821">
        <ele>313.5</ele>
        <time>2010-03-07T08:07:12Z</time>
      </trkpt>
      <trkpt lat="43.96591" lon="3.51814">
        <ele>314.2</ele>
        <time>2010-03-07T08:07:17Z</time>
      </trkpt>
      <trkpt lat="43.9657" lon="3.51788">
        <ele>312.6</ele>
        <time>2010-03-07T08:07:32Z</time>
      </trkpt>
      <trkpt lat="43.96567" lon="3.51781">
        <ele>313.1</ele>
        <time>2010-03-07T08:07:37Z</time>
      </trkpt>
      <trkpt lat="43.9656" lon="3.51776">
        <ele>314.6</ele>
        <time>2010-03-07T08:07:42Z</time>
      </trkpt>
      <trkpt lat="43.96555" lon="3.51767">
        <ele>316.6</ele>
        <time>2010-03-07T08:07:47Z</time>
      </trkpt>
      <trkpt lat="43.96542" lon="3.51773">
        <ele>318.8</ele>
        <time>2010-03-07T08:08:07Z</time>
      </trkpt>
      <trkpt lat="43.96536" lon="3.51768">
        <ele>320.9</ele>
        <time>2010-03-07T08:08:17Z</time>
      </trkpt>
      <trkpt lat="43.96534" lon="3.51763">
        <ele>322.2</ele>
        <time>2010-03-07T08:08:22Z</time>
      </trkpt>
      <trkpt lat="43.96539" lon="3.51757">
        <ele>322.1</ele>
        <time>2010-03-07T08:08:32Z</time>
      </trkpt>
      <trkpt lat="43.96536" lon="3.51748">
        <ele>324.6</ele>
        <time>2010-03-07T08:08:37Z</time>
      </trkpt>
      <trkpt lat="43.96537" lon="3.5174">
        <ele>326.8</ele>
        <time>2010-03-07T08:08:42Z</time>
      </trkpt>
      <trkpt lat="43.96543" lon="3.51725">
        <ele>329.2</ele>
        <time>2010-03-07T08:08:57Z</time>
      </trkpt>
      <trkpt lat="43.96549" lon="3.51721">
        <ele>328.4</ele>
        <time>2010-03-07T08:09:02Z</time>
      </trkpt>
      <trkpt lat="43.96551" lon="3.51716">
        <ele>328.6</ele>
        <time>2010-03-07T08:09:07Z</time>
      </trkpt>
      <trkpt lat="43.9655" lon="3.51708">
        <ele>330</ele>
        <time>2010-03-07T08:09:12Z</time>
      </trkpt>
      <trkpt lat="43.96557" lon="3.51694">
        <ele>330.4</ele>
        <time>2010-03-07T08:09:27Z</time>
      </trkpt>
      <trkpt lat="43.96552" lon="3.5167">
        <ele>335.2</ele>
        <time>2010-03-07T08:09:42Z</time>
      </trkpt>
      <trkpt lat="43.96552" lon="3.51663">
        <ele>336.6</ele>
        <time>2010-03-07T08:09:47Z</time>
      </trkpt>
      <trkpt lat="43.96549" lon="3.51655">
        <ele>339.1</ele>
        <time>2010-03-07T08:09:52Z</time>
      </trkpt>
      <trkpt lat="43.96551" lon="3.51651">
        <ele>339.7</ele>
        <time>2010-03-07T08:09:57Z</time>
      </trkpt>
      <trkpt lat="43.96551" lon="3.51639">
        <ele>342.6</ele>
        <time>2010-03-07T08:10:07Z</time>
      </trkpt>
      <trkpt lat="43.96554" lon="3.51635">
        <ele>343.1</ele>
        <time>2010-03-07T08:10:12Z</time>
      </trkpt>
      <trkpt lat="43.96562" lon="3.51636">
        <ele>340.8</ele>
        <time>2010-03-07T08:10:17Z</time>
      </trkpt>
      <trkpt lat="43.96563" lon="3.51633">
        <ele>341.1</ele>
        <time>2010-03-07T08:10:22Z</time>
      </trkpt>
      <trkpt lat="43.9657" lon="3.51633">
        <ele>339.4</ele>
        <time>2010-03-07T08:10:27Z</time>
      </trkpt>
      <trkpt lat="43.96574" lon="3.5163">
        <ele>339</ele>
        <time>2010-03-07T08:10:37Z</time>
      </trkpt>
      <trkpt lat="43.96579" lon="3.51614">
        <ele>343</ele>
        <time>2010-03-07T08:10:52Z</time>
      </trkpt>
      <trkpt lat="43.96576" lon="3.51608">
        <ele>345.4</ele>
        <time>2010-03-07T08:10:57Z</time>
      </trkpt>
      <trkpt lat="43.96576" lon="3.51605">
        <ele>345.8</ele>
        <time>2010-03-07T08:11:02Z</time>
      </trkpt>
      <trkpt lat="43.96572" lon="3.51586">
        <ele>351.1</ele>
        <time>2010-03-07T08:11:17Z</time>
      </trkpt>
      <trkpt lat="43.96574" lon="3.51582">
        <ele>351.3</ele>
        <time>2010-03-07T08:11:22Z</time>
      </trkpt>
      <trkpt lat="43.96569" lon="3.51564">
        <ele>356</ele>
        <time>2010-03-07T08:11:42Z</time>
      </trkpt>
      <trkpt lat="43.96569" lon="3.51557">
        <ele>357.2</ele>
        <time>2010-03-07T08:11:47Z</time>
      </trkpt>
      <trkpt lat="43.96572" lon="3.51556">
        <ele>357.1</ele>
        <time>2010-03-07T08:11:52Z</time>
      </trkpt>
      <trkpt lat="43.96569" lon="3.5155">
        <ele>358.2</ele>
        <time>2010-03-07T08:11:57Z</time>
      </trkpt>
      <trkpt lat="43.96571" lon="3.51549">
        <ele>357.8</ele>
        <time>2010-03-07T08:12:02Z</time>
      </trkpt>
      <trkpt lat="43.96571" lon="3.51545">
        <ele>358.1</ele>
        <time>2010-03-07T08:12:07Z</time>
      </trkpt>
      <trkpt lat="43.96567" lon="3.51536">
        <ele>359.9</ele>
        <time>2010-03-07T08:12:12Z</time>
      </trkpt>
      <trkpt lat="43.96565" lon="3.51527">
        <ele>361.2</ele>
        <time>2010-03-07T08:12:17Z</time>
      </trkpt>
      <trkpt lat="43.96555" lon="3.51509">
        <ele>365.9</ele>
        <time>2010-03-07T08:12:32Z</time>
      </trkpt>
      <trkpt lat="43.96554" lon="3.5151">
        <ele>365.8</ele>
        <time>2010-03-07T08:12:37Z</time>
      </trkpt>
      <trkpt lat="43.96558" lon="3.51508">
        <ele>365.2</ele>
        <time>2010-03-07T08:12:42Z</time>
      </trkpt>
      <trkpt lat="43.96551" lon="3.51515">
        <ele>365.7</ele>
        <time>2010-03-07T08:13:02Z</time>
      </trkpt>
      <trkpt lat="43.96526" lon="3.51502">
        <ele>371.9</ele>
        <time>2010-03-07T08:13:32Z</time>
      </trkpt>
      <trkpt lat="43.96516" lon="3.51502">
        <ele>372.4</ele>
        <time>2010-03-07T08:13:42Z</time>
      </trkpt>
      <trkpt lat="43.96513" lon="3.515">
        <ele>373</ele>
        <time>2010-03-07T08:13:47Z</time>
      </trkpt>
      <trkpt lat="43.9649" lon="3.515">
        <ele>375</ele>
        <time>2010-03-07T08:14:02Z</time>
      </trkpt>
      <trkpt lat="43.96481" lon="3.51493">
        <ele>377.1</ele>
        <time>2010-03-07T08:14:12Z</time>
      </trkpt>
      <trkpt lat="43.96471" lon="3.51491">
        <ele>379.4</ele>
        <time>2010-03-07T08:14:22Z</time>
      </trkpt>
      <trkpt lat="43.96467" lon="3.51499">
        <ele>381.7</ele>
        <time>2010-03-07T08:14:32Z</time>
      </trkpt>
      <trkpt lat="43.96459" lon="3.51548">
        <ele>379.4</ele>
        <time>2010-03-07T08:15:07Z</time>
      </trkpt>
      <trkpt lat="43.96454" lon="3.51558">
        <ele>380.7</ele>
        <time>2010-03-07T08:15:17Z</time>
      </trkpt>
      <trkpt lat="43.96439" lon="3.51573">
        <ele>382.8</ele>
        <time>2010-03-07T08:15:37Z</time>
      </trkpt>
      <trkpt lat="43.96423" lon="3.51572">
        <ele>386.9</ele>
        <time>2010-03-07T08:15:57Z</time>
      </trkpt>
      <trkpt lat="43.96412" lon="3.51567">
        <ele>391.2</ele>
        <time>2010-03-07T08:16:07Z</time>
      </trkpt>
      <trkpt lat="43.96403" lon="3.51568">
        <ele>392.1</ele>
        <time>2010-03-07T08:16:17Z</time>
      </trkpt>
      <trkpt lat="43.964" lon="3.51565">
        <ele>393.7</ele>
        <time>2010-03-07T08:16:22Z</time>
      </trkpt>
      <trkpt lat="43.96361" lon="3.51554">
        <ele>402.6</ele>
        <time>2010-03-07T08:17:12Z</time>
      </trkpt>
      <trkpt lat="43.96348" lon="3.51553">
        <ele>403.7</ele>
        <time>2010-03-07T08:17:27Z</time>
      </trkpt>
      <trkpt lat="43.96344" lon="3.51551">
        <ele>404.9</ele>
        <time>2010-03-07T08:17:32Z</time>
      </trkpt>
      <trkpt lat="43.96334" lon="3.51554">
        <ele>404.7</ele>
        <time>2010-03-07T08:17:47Z</time>
      </trkpt>
      <trkpt lat="43.96327" lon="3.51549">
        <ele>407.7</ele>
        <time>2010-03-07T08:17:57Z</time>
      </trkpt>
      <trkpt lat="43.96322" lon="3.51551">
        <ele>407.5</ele>
        <time>2010-03-07T08:18:02Z</time>
      </trkpt>
      <trkpt lat="43.96311" lon="3.51547">
        <ele>410.3</ele>
        <time>2010-03-07T08:18:17Z</time>
      </trkpt>
      <trkpt lat="43.96308" lon="3.51541">
        <ele>412.9</ele>
        <time>2010-03-07T08:18:22Z</time>
      </trkpt>
      <trkpt lat="43.96303" lon="3.5154">
        <ele>413.7</ele>
        <time>2010-03-07T08:18:27Z</time>
      </trkpt>
      <trkpt lat="43.96296" lon="3.51544">
        <ele>412.9</ele>
        <time>2010-03-07T08:18:37Z</time>
      </trkpt>
      <trkpt lat="43.96291" lon="3.51543">
        <ele>413.4</ele>
        <time>2010-03-07T08:18:42Z</time>
      </trkpt>
      <trkpt lat="43.96288" lon="3.51539">
        <ele>414.9</ele>
        <time>2010-03-07T08:18:47Z</time>
      </trkpt>
      <trkpt lat="43.96284" lon="3.51538">
        <ele>415.7</ele>
        <time>2010-03-07T08:18:52Z</time>
      </trkpt>
      <trkpt lat="43.96277" lon="3.5154">
        <ele>415.1</ele>
        <time>2010-03-07T08:18:57Z</time>
      </trkpt>
      <trkpt lat="43.96263" lon="3.5153">
        <ele>418.6</ele>
        <time>2010-03-07T08:19:17Z</time>
      </trkpt>
      <trkpt lat="43.96261" lon="3.51524">
        <ele>421</ele>
        <time>2010-03-07T08:19:22Z</time>
      </trkpt>
      <trkpt lat="43.96259" lon="3.51527">
        <ele>419.8</ele>
        <time>2010-03-07T08:19:27Z</time>
      </trkpt>
      <trkpt lat="43.96254" lon="3.51527">
        <ele>419.6</ele>
        <time>2010-03-07T08:19:32Z</time>
      </trkpt>
      <trkpt lat="43.96249" lon="3.51523">
        <ele>420.9</ele>
        <time>2010-03-07T08:19:42Z</time>
      </trkpt>
      <trkpt lat="43.96246" lon="3.51513">
        <ele>424.5</ele>
        <time>2010-03-07T08:19:47Z</time>
      </trkpt>
      <trkpt lat="43.96239" lon="3.51515">
        <ele>423</ele>
        <time>2010-03-07T08:19:57Z</time>
      </trkpt>
      <trkpt lat="43.96235" lon="3.51505">
        <ele>426.5</ele>
        <time>2010-03-07T08:20:07Z</time>
      </trkpt>
      <trkpt lat="43.96207" lon="3.51479">
        <ele>431.1</ele>
        <time>2010-03-07T08:20:47Z</time>
      </trkpt>
      <trkpt lat="43.96206" lon="3.51471">
        <ele>433.8</ele>
        <time>2010-03-07T08:20:52Z</time>
      </trkpt>
      <trkpt lat="43.96197" lon="3.51472">
        <ele>432.5</ele>
        <time>2010-03-07T08:21:02Z</time>
      </trkpt>
      <trkpt lat="43.96191" lon="3.51464">
        <ele>435.9</ele>
        <time>2010-03-07T08:21:12Z</time>
      </trkpt>
      <trkpt lat="43.96187" lon="3.51463">
        <ele>435.9</ele>
        <time>2010-03-07T08:21:17Z</time>
      </trkpt>
      <trkpt lat="43.96166" lon="3.51437">
        <ele>445.3</ele>
        <time>2010-03-07T08:22:02Z</time>
      </trkpt>
      <trkpt lat="43.96158" lon="3.51433">
        <ele>446.8</ele>
        <time>2010-03-07T08:22:12Z</time>
      </trkpt>
      <trkpt lat="43.96146" lon="3.51435">
        <ele>445.8</ele>
        <time>2010-03-07T08:22:22Z</time>
      </trkpt>
      <trkpt lat="43.96143" lon="3.51428">
        <ele>448.1</ele>
        <time>2010-03-07T08:22:27Z</time>
      </trkpt>
      <trkpt lat="43.96137" lon="3.5143">
        <ele>447.5</ele>
        <time>2010-03-07T08:22:32Z</time>
      </trkpt>
      <trkpt lat="43.96109" lon="3.51428">
        <ele>452.8</ele>
        <time>2010-03-07T08:23:02Z</time>
      </trkpt>
      <trkpt lat="43.96103" lon="3.5143">
        <ele>454.6</ele>
        <time>2010-03-07T08:23:07Z</time>
      </trkpt>
      <trkpt lat="43.96101" lon="3.51435">
        <ele>455</ele>
        <time>2010-03-07T08:23:12Z</time>
      </trkpt>
      <trkpt lat="43.96103" lon="3.51451">
        <ele>452.6</ele>
        <time>2010-03-07T08:23:27Z</time>
      </trkpt>
      <trkpt lat="43.96102" lon="3.51462">
        <ele>453.3</ele>
        <time>2010-03-07T08:23:37Z</time>
      </trkpt>
      <trkpt lat="43.96096" lon="3.51482">
        <ele>455.7</ele>
        <time>2010-03-07T08:23:52Z</time>
      </trkpt>
      <trkpt lat="43.96096" lon="3.51484">
        <ele>455.4</ele>
        <time>2010-03-07T08:23:57Z</time>
      </trkpt>
      <trkpt lat="43.96089" lon="3.51499">
        <ele>458.3</ele>
        <time>2010-03-07T08:24:12Z</time>
      </trkpt>
      <trkpt lat="43.96083" lon="3.51503">
        <ele>460.4</ele>
        <time>2010-03-07T08:24:22Z</time>
      </trkpt>
      <trkpt lat="43.96078" lon="3.51504">
        <ele>462.2</ele>
        <time>2010-03-07T08:24:27Z</time>
      </trkpt>
      <trkpt lat="43.96061" lon="3.51527">
        <ele>463.1</ele>
        <time>2010-03-07T08:24:57Z</time>
      </trkpt>
      <trkpt lat="43.96049" lon="3.51536">
        <ele>465.3</ele>
        <time>2010-03-07T08:25:17Z</time>
      </trkpt>
      <trkpt lat="43.96045" lon="3.51534">
        <ele>467</ele>
        <time>2010-03-07T08:25:27Z</time>
      </trkpt>
      <trkpt lat="43.96035" lon="3.51541">
        <ele>468.6</ele>
        <time>2010-03-07T08:25:37Z</time>
      </trkpt>
      <trkpt lat="43.96032" lon="3.51539">
        <ele>470.2</ele>
        <time>2010-03-07T08:25:42Z</time>
      </trkpt>
      <trkpt lat="43.96033" lon="3.51529">
        <ele>472.7</ele>
        <time>2010-03-07T08:25:52Z</time>
      </trkpt>
      <trkpt lat="43.96038" lon="3.51521">
        <ele>472.8</ele>
        <time>2010-03-07T08:26:02Z</time>
      </trkpt>
      <trkpt lat="43.9604" lon="3.5151">
        <ele>474.5</ele>
        <time>2010-03-07T08:26:12Z</time>
      </trkpt>
      <trkpt lat="43.96039" lon="3.51485">
        <ele>478.6</ele>
        <time>2010-03-07T08:26:32Z</time>
      </trkpt>
      <trkpt lat="43.96036" lon="3.51477">
        <ele>480.8</ele>
        <time>2010-03-07T08:26:42Z</time>
      </trkpt>
      <trkpt lat="43.96034" lon="3.51477">
        <ele>481.6</ele>
        <time>2010-03-07T08:26:47Z</time>
      </trkpt>
      <trkpt lat="43.96012" lon="3.51503">
        <ele>486.7</ele>
        <time>2010-03-07T08:27:27Z</time>
      </trkpt>
      <trkpt lat="43.96005" lon="3.51504">
        <ele>488.9</ele>
        <time>2010-03-07T08:27:37Z</time>
      </trkpt>
      <trkpt lat="43.96" lon="3.51501">
        <ele>491.8</ele>
        <time>2010-03-07T08:27:42Z</time>
      </trkpt>
      <trkpt lat="43.95991" lon="3.51507">
        <ele>494</ele>
        <time>2010-03-07T08:27:52Z</time>
      </trkpt>
      <trkpt lat="43.95987" lon="3.51516">
        <ele>493.8</ele>
        <time>2010-03-07T08:28:02Z</time>
      </trkpt>
      <trkpt lat="43.95986" lon="3.51522">
        <ele>492.7</ele>
        <time>2010-03-07T08:28:07Z</time>
      </trkpt>
      <trkpt lat="43.95983" lon="3.51526">
        <ele>493</ele>
        <time>2010-03-07T08:28:12Z</time>
      </trkpt>
      <trkpt lat="43.95981" lon="3.51519">
        <ele>495.6</ele>
        <time>2010-03-07T08:28:17Z</time>
      </trkpt>
      <trkpt lat="43.95987" lon="3.51497">
        <ele>498.3</ele>
        <time>2010-03-07T08:28:37Z</time>
      </trkpt>
      <trkpt lat="43.9599" lon="3.51471">
        <ele>502.7</ele>
        <time>2010-03-07T08:28:57Z</time>
      </trkpt>
      <trkpt lat="43.95989" lon="3.51465">
        <ele>504</ele>
        <time>2010-03-07T08:29:02Z</time>
      </trkpt>
      <trkpt lat="43.9598" lon="3.51474">
        <ele>506.1</ele>
        <time>2010-03-07T08:29:17Z</time>
      </trkpt>
      <trkpt lat="43.95966" lon="3.51484">
        <ele>510.3</ele>
        <time>2010-03-07T08:29:37Z</time>
      </trkpt>
      <trkpt lat="43.95965" lon="3.5149">
        <ele>510</ele>
        <time>2010-03-07T08:29:47Z</time>
      </trkpt>
      <trkpt lat="43.9596" lon="3.51491">
        <ele>512</ele>
        <time>2010-03-07T08:29:57Z</time>
      </trkpt>
      <trkpt lat="43.95946" lon="3.51504">
        <ele>516.5</ele>
        <time>2010-03-07T08:30:22Z</time>
      </trkpt>
      <trkpt lat="43.95942" lon="3.51511">
        <ele>517.4</ele>
        <time>2010-03-07T08:30:32Z</time>
      </trkpt>
      <trkpt lat="43.9594" lon="3.5152">
        <ele>517.3</ele>
        <time>2010-03-07T08:30:47Z</time>
      </trkpt>
      <trkpt lat="43.95937" lon="3.51525">
        <ele>518.9</ele>
        <time>2010-03-07T08:30:57Z</time>
      </trkpt>
      <trkpt lat="43.95926" lon="3.51513">
        <ele>527.2</ele>
        <time>2010-03-07T08:31:22Z</time>
      </trkpt>
      <trkpt lat="43.95926" lon="3.51508">
        <ele>527.3</ele>
        <time>2010-03-07T08:31:27Z</time>
      </trkpt>
      <trkpt lat="43.95924" lon="3.51501">
        <ele>529</ele>
        <time>2010-03-07T08:31:32Z</time>
      </trkpt>
      <trkpt lat="43.95927" lon="3.51496">
        <ele>527.8</ele>
        <time>2010-03-07T08:31:37Z</time>
      </trkpt>
      <trkpt lat="43.95933" lon="3.51493">
        <ele>525.3</ele>
        <time>2010-03-07T08:31:42Z</time>
      </trkpt>
      <trkpt lat="43.95927" lon="3.51488">
        <ele>529</ele>
        <time>2010-03-07T08:31:47Z</time>
      </trkpt>
      <trkpt lat="43.95925" lon="3.5148">
        <ele>531.4</ele>
        <time>2010-03-07T08:31:57Z</time>
      </trkpt>
      <trkpt lat="43.95926" lon="3.51473">
        <ele>531.5</ele>
        <time>2010-03-07T08:32:07Z</time>
      </trkpt>
      <trkpt lat="43.95932" lon="3.51466">
        <ele>529.8</ele>
        <time>2010-03-07T08:32:17Z</time>
      </trkpt>
      <trkpt lat="43.95931" lon="3.51451">
        <ele>533.2</ele>
        <time>2010-03-07T08:32:32Z</time>
      </trkpt>
      <trkpt lat="43.95932" lon="3.51438">
        <ele>534.7</ele>
        <time>2010-03-07T08:32:42Z</time>
      </trkpt>
      <trkpt lat="43.95922" lon="3.51405">
        <ele>543.8</ele>
        <time>2010-03-07T08:33:12Z</time>
      </trkpt>
      <trkpt lat="43.95923" lon="3.51406">
        <ele>542.9</ele>
        <time>2010-03-07T08:33:17Z</time>
      </trkpt>
      <trkpt lat="43.95922" lon="3.5142">
        <ele>542.2</ele>
        <time>2010-03-07T08:33:27Z</time>
      </trkpt>
      <trkpt lat="43.95914" lon="3.51431">
        <ele>545.1</ele>
        <time>2010-03-07T08:33:42Z</time>
      </trkpt>
      <trkpt lat="43.95913" lon="3.51438">
        <ele>544.6</ele>
        <time>2010-03-07T08:33:47Z</time>
      </trkpt>
      <trkpt lat="43.95907" lon="3.51443">
        <ele>547.1</ele>
        <time>2010-03-07T08:33:52Z</time>
      </trkpt>
      <trkpt lat="43.95904" lon="3.51451">
        <ele>547.5</ele>
        <time>2010-03-07T08:34:07Z</time>
      </trkpt>
      <trkpt lat="43.95903" lon="3.51451">
        <ele>548.4</ele>
        <time>2010-03-07T08:34:12Z</time>
      </trkpt>
      <trkpt lat="43.95902" lon="3.51456">
        <ele>548</ele>
        <time>2010-03-07T08:34:17Z</time>
      </trkpt>
      <trkpt lat="43.95895" lon="3.51457">
        <ele>551.6</ele>
        <time>2010-03-07T08:34:27Z</time>
      </trkpt>
      <trkpt lat="43.95889" lon="3.51462">
        <ele>554.3</ele>
        <time>2010-03-07T08:34:42Z</time>
      </trkpt>
      <trkpt lat="43.95887" lon="3.51471">
        <ele>553.6</ele>
        <time>2010-03-07T08:34:52Z</time>
      </trkpt>
      <trkpt lat="43.95887" lon="3.51479">
        <ele>552.2</ele>
        <time>2010-03-07T08:35:02Z</time>
      </trkpt>
      <trkpt lat="43.95876" lon="3.51497">
        <ele>557.1</ele>
        <time>2010-03-07T08:35:22Z</time>
      </trkpt>
      <trkpt lat="43.95872" lon="3.51511">
        <ele>559.9</ele>
        <time>2010-03-07T08:35:37Z</time>
      </trkpt>
      <trkpt lat="43.9587" lon="3.51544">
        <ele>561.9</ele>
        <time>2010-03-07T08:36:07Z</time>
      </trkpt>
      <trkpt lat="43.9586" lon="3.51545">
        <ele>568.6</ele>
        <time>2010-03-07T08:36:32Z</time>
      </trkpt>
      <trkpt lat="43.95867" lon="3.51541">
        <ele>563.8</ele>
        <time>2010-03-07T08:36:47Z</time>
      </trkpt>
      <trkpt lat="43.95852" lon="3.51515">
        <ele>572.3</ele>
        <time>2010-03-07T08:37:27Z</time>
      </trkpt>
      <trkpt lat="43.95847" lon="3.51511">
        <ele>575</ele>
        <time>2010-03-07T08:37:32Z</time>
      </trkpt>
      <trkpt lat="43.95846" lon="3.51505">
        <ele>575.5</ele>
        <time>2010-03-07T08:37:42Z</time>
      </trkpt>
      <trkpt lat="43.95839" lon="3.51498">
        <ele>578.8</ele>
        <time>2010-03-07T08:37:52Z</time>
      </trkpt>
      <trkpt lat="43.95844" lon="3.51527">
        <ele>577.2</ele>
        <time>2010-03-07T08:38:22Z</time>
      </trkpt>
      <trkpt lat="43.95839" lon="3.51582">
        <ele>585.6</ele>
        <time>2010-03-07T08:39:12Z</time>
      </trkpt>
      <trkpt lat="43.9584" lon="3.51631">
        <ele>592.1</ele>
        <time>2010-03-07T08:40:02Z</time>
      </trkpt>
      <trkpt lat="43.95843" lon="3.51641">
        <ele>591.9</ele>
        <time>2010-03-07T08:40:12Z</time>
      </trkpt>
      <trkpt lat="43.95843" lon="3.51638">
        <ele>590.9</ele>
        <time>2010-03-07T08:40:22Z</time>
      </trkpt>
      <trkpt lat="43.95842" lon="3.51643">
        <ele>593.1</ele>
        <time>2010-03-07T08:40:37Z</time>
      </trkpt>
      <trkpt lat="43.95848" lon="3.51694">
        <ele>601.6</ele>
        <time>2010-03-07T08:41:47Z</time>
      </trkpt>
      <trkpt lat="43.95851" lon="3.51709">
        <ele>604.4</ele>
        <time>2010-03-07T08:42:02Z</time>
      </trkpt>
      <trkpt lat="43.95851" lon="3.51715">
        <ele>606.3</ele>
        <time>2010-03-07T08:42:12Z</time>
      </trkpt>
      <trkpt lat="43.95856" lon="3.51746">
        <ele>613.2</ele>
        <time>2010-03-07T08:42:42Z</time>
      </trkpt>
      <trkpt lat="43.95864" lon="3.51762">
        <ele>613.8</ele>
        <time>2010-03-07T08:42:57Z</time>
      </trkpt>
      <trkpt lat="43.95869" lon="3.51795">
        <ele>619.5</ele>
        <time>2010-03-07T08:43:32Z</time>
      </trkpt>
      <trkpt lat="43.95879" lon="3.51832">
        <ele>624.9</ele>
        <time>2010-03-07T08:44:12Z</time>
      </trkpt>
      <trkpt lat="43.95885" lon="3.51873">
        <ele>630.7</ele>
        <time>2010-03-07T08:44:52Z</time>
      </trkpt>
      <trkpt lat="43.95882" lon="3.51867">
        <ele>631.7</ele>
        <time>2010-03-07T08:45:12Z</time>
      </trkpt>
      <trkpt lat="43.9588" lon="3.51867">
        <ele>632.7</ele>
        <time>2010-03-07T08:45:27Z</time>
      </trkpt>
      <trkpt lat="43.95882" lon="3.51871">
        <ele>631.7</ele>
        <time>2010-03-07T08:46:02Z</time>
      </trkpt>
      <trkpt lat="43.95881" lon="3.51867">
        <ele>632.2</ele>
        <time>2010-03-07T08:46:37Z</time>
      </trkpt>
      <trkpt lat="43.95879" lon="3.51867">
        <ele>633.2</ele>
        <time>2010-03-07T08:46:47Z</time>
      </trkpt>
      <trkpt lat="43.95879" lon="3.5187">
        <ele>633.2</ele>
        <time>2010-03-07T08:47:32Z</time>
      </trkpt>
      <trkpt lat="43.95881" lon="3.51868">
        <ele>632.1</ele>
        <time>2010-03-07T08:47:47Z</time>
      </trkpt>
      <trkpt lat="43.95885" lon="3.51878">
        <ele>631.2</ele>
        <time>2010-03-07T08:48:32Z</time>
      </trkpt>
      <trkpt lat="43.95888" lon="3.51875">
        <ele>629.7</ele>
        <time>2010-03-07T08:49:17Z</time>
      </trkpt>
      <trkpt lat="43.95886" lon="3.51876">
        <ele>630.6</ele>
        <time>2010-03-07T08:49:52Z</time>
      </trkpt>
      <trkpt lat="43.95861" lon="3.51828">
        <ele>633.8</ele>
        <time>2010-03-07T08:50:42Z</time>
      </trkpt>
      <trkpt lat="43.95831" lon="3.5179">
        <ele>639.2</ele>
        <time>2010-03-07T08:51:22Z</time>
      </trkpt>
      <trkpt lat="43.9582" lon="3.51782">
        <ele>641.9</ele>
        <time>2010-03-07T08:51:37Z</time>
      </trkpt>
      <trkpt lat="43.95802" lon="3.51758">
        <ele>645.1</ele>
        <time>2010-03-07T08:52:02Z</time>
      </trkpt>
      <trkpt lat="43.95798" lon="3.51756">
        <ele>645.6</ele>
        <time>2010-03-07T08:52:07Z</time>
      </trkpt>
      <trkpt lat="43.95799" lon="3.51762">
        <ele>646.1</ele>
        <time>2010-03-07T08:52:12Z</time>
      </trkpt>
      <trkpt lat="43.9581" lon="3.5179">
        <ele>647.1</ele>
        <time>2010-03-07T08:52:32Z</time>
      </trkpt>
      <trkpt lat="43.95805" lon="3.51794">
        <ele>649</ele>
        <time>2010-03-07T08:52:37Z</time>
      </trkpt>
      <trkpt lat="43.95796" lon="3.51793">
        <ele>646.8</ele>
        <time>2010-03-07T08:52:47Z</time>
      </trkpt>
      <trkpt lat="43.95762" lon="3.51755">
        <ele>645.2</ele>
        <time>2010-03-07T08:53:22Z</time>
      </trkpt>
      <trkpt lat="43.9575" lon="3.51746">
        <ele>644.4</ele>
        <time>2010-03-07T08:53:32Z</time>
      </trkpt>
      <trkpt lat="43.95713" lon="3.51728">
        <ele>643.3</ele>
        <time>2010-03-07T08:54:07Z</time>
      </trkpt>
      <trkpt lat="43.95678" lon="3.51725">
        <ele>642.8</ele>
        <time>2010-03-07T08:54:32Z</time>
      </trkpt>
      <trkpt lat="43.95634" lon="3.51716">
        <ele>650.6</ele>
        <time>2010-03-07T08:55:12Z</time>
      </trkpt>
      <trkpt lat="43.95627" lon="3.51718">
        <ele>650.2</ele>
        <time>2010-03-07T08:55:17Z</time>
      </trkpt>
      <trkpt lat="43.9558" lon="3.51718">
        <ele>657.5</ele>
        <time>2010-03-07T08:56:02Z</time>
      </trkpt>
      <trkpt lat="43.9556" lon="3.51726">
        <ele>658.7</ele>
        <time>2010-03-07T08:56:22Z</time>
      </trkpt>
      <trkpt lat="43.95533" lon="3.51732">
        <ele>659.4</ele>
        <time>2010-03-07T08:56:47Z</time>
      </trkpt>
      <trkpt lat="43.95528" lon="3.51729">
        <ele>660.5</ele>
        <time>2010-03-07T08:56:52Z</time>
      </trkpt>
      <trkpt lat="43.95518" lon="3.51729">
        <ele>660.6</ele>
        <time>2010-03-07T08:57:02Z</time>
      </trkpt>
      <trkpt lat="43.95501" lon="3.51719">
        <ele>662.6</ele>
        <time>2010-03-07T08:57:17Z</time>
      </trkpt>
      <trkpt lat="43.95469" lon="3.5169">
        <ele>667.3</ele>
        <time>2010-03-07T08:57:47Z</time>
      </trkpt>
      <trkpt lat="43.95435" lon="3.51678">
        <ele>668.5</ele>
        <time>2010-03-07T08:58:17Z</time>
      </trkpt>
      <trkpt lat="43.95423" lon="3.51671">
        <ele>670</ele>
        <time>2010-03-07T08:58:27Z</time>
      </trkpt>
      <trkpt lat="43.95409" lon="3.51668">
        <ele>671.7</ele>
        <time>2010-03-07T08:58:42Z</time>
      </trkpt>
      <trkpt lat="43.95354" lon="3.51676">
        <ele>676.8</ele>
        <time>2010-03-07T08:59:32Z</time>
      </trkpt>
      <trkpt lat="43.95332" lon="3.51683">
        <ele>675.6</ele>
        <time>2010-03-07T08:59:47Z</time>
      </trkpt>
      <trkpt lat="43.95295" lon="3.51683">
        <ele>678.8</ele>
        <time>2010-03-07T09:00:17Z</time>
      </trkpt>
      <trkpt lat="43.95285" lon="3.51686">
        <ele>680</ele>
        <time>2010-03-07T09:00:27Z</time>
      </trkpt>
      <trkpt lat="43.95273" lon="3.51693">
        <ele>680.6</ele>
        <time>2010-03-07T09:00:37Z</time>
      </trkpt>
      <trkpt lat="43.95263" lon="3.51691">
        <ele>681.6</ele>
        <time>2010-03-07T09:00:47Z</time>
      </trkpt>
      <trkpt lat="43.95232" lon="3.51665">
        <ele>685.4</ele>
        <time>2010-03-07T09:01:22Z</time>
      </trkpt>
      <trkpt lat="43.95204" lon="3.51664">
        <ele>685.3</ele>
        <time>2010-03-07T09:01:47Z</time>
      </trkpt>
      <trkpt lat="43.95191" lon="3.51671">
        <ele>684.4</ele>
        <time>2010-03-07T09:01:57Z</time>
      </trkpt>
      <trkpt lat="43.95177" lon="3.5167">
        <ele>686.1</ele>
        <time>2010-03-07T09:02:12Z</time>
      </trkpt>
      <trkpt lat="43.95166" lon="3.51666">
        <ele>688.2</ele>
        <time>2010-03-07T09:02:22Z</time>
      </trkpt>
      <trkpt lat="43.95146" lon="3.51669">
        <ele>691.5</ele>
        <time>2010-03-07T09:02:42Z</time>
      </trkpt>
      <trkpt lat="43.95138" lon="3.51677">
        <ele>692.5</ele>
        <time>2010-03-07T09:02:52Z</time>
      </trkpt>
      <trkpt lat="43.95135" lon="3.51688">
        <ele>692.6</ele>
        <time>2010-03-07T09:03:02Z</time>
      </trkpt>
      <trkpt lat="43.95125" lon="3.51707">
        <ele>694.9</ele>
        <time>2010-03-07T09:03:22Z</time>
      </trkpt>
      <trkpt lat="43.95123" lon="3.51716">
        <ele>695.3</ele>
        <time>2010-03-07T09:03:27Z</time>
      </trkpt>
      <trkpt lat="43.95115" lon="3.51732">
        <ele>697.3</ele>
        <time>2010-03-07T09:03:42Z</time>
      </trkpt>
      <trkpt lat="43.95103" lon="3.51737">
        <ele>699.4</ele>
        <time>2010-03-07T09:03:57Z</time>
      </trkpt>
      <trkpt lat="43.9509" lon="3.51739">
        <ele>701.7</ele>
        <time>2010-03-07T09:04:12Z</time>
      </trkpt>
      <trkpt lat="43.95082" lon="3.51737">
        <ele>703.2</ele>
        <time>2010-03-07T09:04:22Z</time>
      </trkpt>
      <trkpt lat="43.95058" lon="3.51742">
        <ele>706.6</ele>
        <time>2010-03-07T09:04:47Z</time>
      </trkpt>
      <trkpt lat="43.95021" lon="3.51761">
        <ele>707.9</ele>
        <time>2010-03-07T09:05:17Z</time>
      </trkpt>
      <trkpt lat="43.94989" lon="3.51792">
        <ele>705.5</ele>
        <time>2010-03-07T09:05:37Z</time>
      </trkpt>
      <trkpt lat="43.94966" lon="3.5181">
        <ele>704.9</ele>
        <time>2010-03-07T09:05:52Z</time>
      </trkpt>
      <trkpt lat="43.94957" lon="3.51824">
        <ele>703.7</ele>
        <time>2010-03-07T09:05:57Z</time>
      </trkpt>
      <trkpt lat="43.94901" lon="3.51925">
        <ele>698.9</ele>
        <time>2010-03-07T09:06:47Z</time>
      </trkpt>
      <trkpt lat="43.94875" lon="3.51958">
        <ele>698.6</ele>
        <time>2010-03-07T09:07:12Z</time>
      </trkpt>
      <trkpt lat="43.9487" lon="3.51962">
        <ele>698.6</ele>
        <time>2010-03-07T09:07:17Z</time>
      </trkpt>
      <trkpt lat="43.9486" lon="3.51984">
        <ele>696.1</ele>
        <time>2010-03-07T09:07:37Z</time>
      </trkpt>
      <trkpt lat="43.94848" lon="3.52001">
        <ele>694.9</ele>
        <time>2010-03-07T09:07:52Z</time>
      </trkpt>
      <trkpt lat="43.94846" lon="3.52006">
        <ele>694.9</ele>
        <time>2010-03-07T09:07:57Z</time>
      </trkpt>
      <trkpt lat="43.94847" lon="3.52008">
        <ele>694.6</ele>
        <time>2010-03-07T09:08:17Z</time>
      </trkpt>
      <trkpt lat="43.94848" lon="3.52028">
        <ele>693.4</ele>
        <time>2010-03-07T09:08:37Z</time>
      </trkpt>
      <trkpt lat="43.9485" lon="3.52042">
        <ele>694.2</ele>
        <time>2010-03-07T09:08:52Z</time>
      </trkpt>
      <trkpt lat="43.94861" lon="3.52059">
        <ele>695.3</ele>
        <time>2010-03-07T09:09:12Z</time>
      </trkpt>
      <trkpt lat="43.94863" lon="3.52072">
        <ele>696</ele>
        <time>2010-03-07T09:09:22Z</time>
      </trkpt>
      <trkpt lat="43.94864" lon="3.5211">
        <ele>699.4</ele>
        <time>2010-03-07T09:09:52Z</time>
      </trkpt>
      <trkpt lat="43.94861" lon="3.52123">
        <ele>700.9</ele>
        <time>2010-03-07T09:10:02Z</time>
      </trkpt>
      <trkpt lat="43.94845" lon="3.52137">
        <ele>702.5</ele>
        <time>2010-03-07T09:10:37Z</time>
      </trkpt>
      <trkpt lat="43.94832" lon="3.52158">
        <ele>705.1</ele>
        <time>2010-03-07T09:10:57Z</time>
      </trkpt>
      <trkpt lat="43.94803" lon="3.52194">
        <ele>707.9</ele>
        <time>2010-03-07T09:11:32Z</time>
      </trkpt>
      <trkpt lat="43.94802" lon="3.52207">
        <ele>709.8</ele>
        <time>2010-03-07T09:11:42Z</time>
      </trkpt>
      <trkpt lat="43.94798" lon="3.52213">
        <ele>710.7</ele>
        <time>2010-03-07T09:11:47Z</time>
      </trkpt>
      <trkpt lat="43.9479" lon="3.52218">
        <ele>711.4</ele>
        <time>2010-03-07T09:11:57Z</time>
      </trkpt>
      <trkpt lat="43.94786" lon="3.52225">
        <ele>712.5</ele>
        <time>2010-03-07T09:12:02Z</time>
      </trkpt>
      <trkpt lat="43.94773" lon="3.52234">
        <ele>714.5</ele>
        <time>2010-03-07T09:12:17Z</time>
      </trkpt>
      <trkpt lat="43.94735" lon="3.52232">
        <ele>716.1</ele>
        <time>2010-03-07T09:12:42Z</time>
      </trkpt>
      <trkpt lat="43.94724" lon="3.52228">
        <ele>716.6</ele>
        <time>2010-03-07T09:12:52Z</time>
      </trkpt>
      <trkpt lat="43.94718" lon="3.52212">
        <ele>716</ele>
        <time>2010-03-07T09:13:02Z</time>
      </trkpt>
      <trkpt lat="43.94718" lon="3.52205">
        <ele>715.2</ele>
        <time>2010-03-07T09:13:07Z</time>
      </trkpt>
      <trkpt lat="43.94713" lon="3.52182">
        <ele>714.6</ele>
        <time>2010-03-07T09:13:17Z</time>
      </trkpt>
      <trkpt lat="43.94713" lon="3.52154">
        <ele>713.6</ele>
        <time>2010-03-07T09:13:27Z</time>
      </trkpt>
      <trkpt lat="43.94711" lon="3.52137">
        <ele>713.8</ele>
        <time>2010-03-07T09:13:32Z</time>
      </trkpt>
      <trkpt lat="43.94708" lon="3.52126">
        <ele>714</ele>
        <time>2010-03-07T09:13:37Z</time>
      </trkpt>
      <trkpt lat="43.947" lon="3.52114">
        <ele>714.9</ele>
        <time>2010-03-07T09:13:47Z</time>
      </trkpt>
      <trkpt lat="43.94685" lon="3.5208">
        <ele>715.1</ele>
        <time>2010-03-07T09:14:12Z</time>
      </trkpt>
      <trkpt lat="43.9468" lon="3.52075">
        <ele>716</ele>
        <time>2010-03-07T09:14:17Z</time>
      </trkpt>
      <trkpt lat="43.94663" lon="3.52051">
        <ele>717.6</ele>
        <time>2010-03-07T09:14:32Z</time>
      </trkpt>
      <trkpt lat="43.94658" lon="3.52025">
        <ele>717</ele>
        <time>2010-03-07T09:14:42Z</time>
      </trkpt>
      <trkpt lat="43.94652" lon="3.52011">
        <ele>718.2</ele>
        <time>2010-03-07T09:14:52Z</time>
      </trkpt>
      <trkpt lat="43.94648" lon="3.51991">
        <ele>718.5</ele>
        <time>2010-03-07T09:15:07Z</time>
      </trkpt>
      <trkpt lat="43.94643" lon="3.51984">
        <ele>719.5</ele>
        <time>2010-03-07T09:15:12Z</time>
      </trkpt>
      <trkpt lat="43.94637" lon="3.5198">
        <ele>720.5</ele>
        <time>2010-03-07T09:15:17Z</time>
      </trkpt>
      <trkpt lat="43.94625" lon="3.51981">
        <ele>722</ele>
        <time>2010-03-07T09:15:32Z</time>
      </trkpt>
      <trkpt lat="43.94616" lon="3.51987">
        <ele>723.4</ele>
        <time>2010-03-07T09:15:42Z</time>
      </trkpt>
      <trkpt lat="43.94611" lon="3.51985">
        <ele>723.9</ele>
        <time>2010-03-07T09:15:47Z</time>
      </trkpt>
      <trkpt lat="43.94604" lon="3.51968">
        <ele>723.3</ele>
        <time>2010-03-07T09:15:57Z</time>
      </trkpt>
      <trkpt lat="43.94595" lon="3.51958">
        <ele>723.1</ele>
        <time>2010-03-07T09:16:07Z</time>
      </trkpt>
      <trkpt lat="43.94569" lon="3.5194">
        <ele>721.1</ele>
        <time>2010-03-07T09:16:22Z</time>
      </trkpt>
      <trkpt lat="43.94559" lon="3.51936">
        <ele>720.3</ele>
        <time>2010-03-07T09:16:27Z</time>
      </trkpt>
      <trkpt lat="43.9455" lon="3.51936">
        <ele>719.5</ele>
        <time>2010-03-07T09:16:32Z</time>
      </trkpt>
      <trkpt lat="43.94515" lon="3.51944">
        <ele>718.4</ele>
        <time>2010-03-07T09:16:57Z</time>
      </trkpt>
      <trkpt lat="43.94496" lon="3.5194">
        <ele>718.7</ele>
        <time>2010-03-07T09:17:07Z</time>
      </trkpt>
      <trkpt lat="43.94482" lon="3.51944">
        <ele>719.6</ele>
        <time>2010-03-07T09:17:17Z</time>
      </trkpt>
      <trkpt lat="43.94437" lon="3.51928">
        <ele>719.4</ele>
        <time>2010-03-07T09:17:42Z</time>
      </trkpt>
      <trkpt lat="43.94371" lon="3.51922">
        <ele>721.6</ele>
        <time>2010-03-07T09:18:27Z</time>
      </trkpt>
      <trkpt lat="43.9434" lon="3.51914">
        <ele>722</ele>
        <time>2010-03-07T09:18:52Z</time>
      </trkpt>
      <trkpt lat="43.94336" lon="3.51907">
        <ele>722</ele>
        <time>2010-03-07T09:18:57Z</time>
      </trkpt>
      <trkpt lat="43.94305" lon="3.51877">
        <ele>720.5</ele>
        <time>2010-03-07T09:19:17Z</time>
      </trkpt>
      <trkpt lat="43.94287" lon="3.51874">
        <ele>718.8</ele>
        <time>2010-03-07T09:19:27Z</time>
      </trkpt>
      <trkpt lat="43.94223" lon="3.51842">
        <ele>720.3</ele>
        <time>2010-03-07T09:20:12Z</time>
      </trkpt>
      <trkpt lat="43.94208" lon="3.5183">
        <ele>721.6</ele>
        <time>2010-03-07T09:20:27Z</time>
      </trkpt>
      <trkpt lat="43.94197" lon="3.51825">
        <ele>722.8</ele>
        <time>2010-03-07T09:20:37Z</time>
      </trkpt>
      <trkpt lat="43.94181" lon="3.51823">
        <ele>724.5</ele>
        <time>2010-03-07T09:20:57Z</time>
      </trkpt>
      <trkpt lat="43.94183" lon="3.51823">
        <ele>724.3</ele>
        <time>2010-03-07T09:21:12Z</time>
      </trkpt>
      <trkpt lat="43.94136" lon="3.51818">
        <ele>728.6</ele>
        <time>2010-03-07T09:22:02Z</time>
      </trkpt>
      <trkpt lat="43.94107" lon="3.51808">
        <ele>730</ele>
        <time>2010-03-07T09:22:27Z</time>
      </trkpt>
      <trkpt lat="43.94095" lon="3.51812">
        <ele>730</ele>
        <time>2010-03-07T09:22:47Z</time>
      </trkpt>
      <trkpt lat="43.94066" lon="3.51874">
        <ele>726.6</ele>
        <time>2010-03-07T09:23:32Z</time>
      </trkpt>
      <trkpt lat="43.9406" lon="3.51904">
        <ele>725.3</ele>
        <time>2010-03-07T09:23:42Z</time>
      </trkpt>
      <trkpt lat="43.94055" lon="3.51978">
        <ele>726.2</ele>
        <time>2010-03-07T09:24:22Z</time>
      </trkpt>
      <trkpt lat="43.94057" lon="3.51988">
        <ele>726.5</ele>
        <time>2010-03-07T09:24:27Z</time>
      </trkpt>
      <trkpt lat="43.94076" lon="3.5201">
        <ele>725.6</ele>
        <time>2010-03-07T09:24:37Z</time>
      </trkpt>
      <trkpt lat="43.94101" lon="3.52031">
        <ele>725.3</ele>
        <time>2010-03-07T09:24:52Z</time>
      </trkpt>
      <trkpt lat="43.94123" lon="3.52034">
        <ele>723.9</ele>
        <time>2010-03-07T09:25:02Z</time>
      </trkpt>
      <trkpt lat="43.9413" lon="3.52041">
        <ele>724.2</ele>
        <time>2010-03-07T09:25:07Z</time>
      </trkpt>
      <trkpt lat="43.94145" lon="3.52074">
        <ele>725.7</ele>
        <time>2010-03-07T09:25:32Z</time>
      </trkpt>
      <trkpt lat="43.94145" lon="3.52089">
        <ele>726.3</ele>
        <time>2010-03-07T09:25:42Z</time>
      </trkpt>
      <trkpt lat="43.94138" lon="3.5212">
        <ele>728.2</ele>
        <time>2010-03-07T09:26:02Z</time>
      </trkpt>
      <trkpt lat="43.9414" lon="3.52156">
        <ele>728.4</ele>
        <time>2010-03-07T09:26:17Z</time>
      </trkpt>
      <trkpt lat="43.94136" lon="3.52173">
        <ele>730.2</ele>
        <time>2010-03-07T09:26:27Z</time>
      </trkpt>
      <trkpt lat="43.94135" lon="3.52207">
        <ele>730.4</ele>
        <time>2010-03-07T09:26:47Z</time>
      </trkpt>
      <trkpt lat="43.94129" lon="3.52252">
        <ele>730.9</ele>
        <time>2010-03-07T09:27:12Z</time>
      </trkpt>
      <trkpt lat="43.94143" lon="3.52351">
        <ele>734.9</ele>
        <time>2010-03-07T09:28:07Z</time>
      </trkpt>
      <trkpt lat="43.94153" lon="3.52391">
        <ele>738.2</ele>
        <time>2010-03-07T09:28:32Z</time>
      </trkpt>
      <trkpt lat="43.94151" lon="3.52437">
        <ele>744.2</ele>
        <time>2010-03-07T09:29:07Z</time>
      </trkpt>
      <trkpt lat="43.94146" lon="3.52455">
        <ele>746.8</ele>
        <time>2010-03-07T09:29:27Z</time>
      </trkpt>
      <trkpt lat="43.94146" lon="3.52469">
        <ele>748.6</ele>
        <time>2010-03-07T09:29:42Z</time>
      </trkpt>
      <trkpt lat="43.94147" lon="3.52474">
        <ele>749.3</ele>
        <time>2010-03-07T09:29:52Z</time>
      </trkpt>
      <trkpt lat="43.94149" lon="3.52473">
        <ele>749.1</ele>
        <time>2010-03-07T09:30:02Z</time>
      </trkpt>
      <trkpt lat="43.94147" lon="3.5252">
        <ele>756.6</ele>
        <time>2010-03-07T09:30:42Z</time>
      </trkpt>
      <trkpt lat="43.94141" lon="3.52535">
        <ele>757.3</ele>
        <time>2010-03-07T09:30:52Z</time>
      </trkpt>
      <trkpt lat="43.94136" lon="3.52564">
        <ele>757.9</ele>
        <time>2010-03-07T09:31:12Z</time>
      </trkpt>
      <trkpt lat="43.94138" lon="3.52576">
        <ele>757.9</ele>
        <time>2010-03-07T09:31:22Z</time>
      </trkpt>
      <trkpt lat="43.94136" lon="3.5258">
        <ele>757.7</ele>
        <time>2010-03-07T09:31:27Z</time>
      </trkpt>
      <trkpt lat="43.94135" lon="3.52585">
        <ele>757.4</ele>
        <time>2010-03-07T09:31:32Z</time>
      </trkpt>
      <trkpt lat="43.94144" lon="3.52596">
        <ele>757.9</ele>
        <time>2010-03-07T09:31:42Z</time>
      </trkpt>
      <trkpt lat="43.94146" lon="3.52607">
        <ele>757.5</ele>
        <time>2010-03-07T09:31:47Z</time>
      </trkpt>
      <trkpt lat="43.94145" lon="3.52619">
        <ele>755.9</ele>
        <time>2010-03-07T09:31:52Z</time>
      </trkpt>
      <trkpt lat="43.94149" lon="3.52649">
        <ele>753.2</ele>
        <time>2010-03-07T09:32:07Z</time>
      </trkpt>
      <trkpt lat="43.94152" lon="3.52724">
        <ele>743.1</ele>
        <time>2010-03-07T09:32:32Z</time>
      </trkpt>
      <trkpt lat="43.9415" lon="3.52732">
        <ele>740.8</ele>
        <time>2010-03-07T09:32:37Z</time>
      </trkpt>
      <trkpt lat="43.94152" lon="3.52741">
        <ele>739.5</ele>
        <time>2010-03-07T09:32:42Z</time>
      </trkpt>
      <trkpt lat="43.94148" lon="3.52751">
        <ele>736.8</ele>
        <time>2010-03-07T09:32:47Z</time>
      </trkpt>
      <trkpt lat="43.94151" lon="3.52762">
        <ele>734.3</ele>
        <time>2010-03-07T09:32:52Z</time>
      </trkpt>
      <trkpt lat="43.94161" lon="3.52786">
        <ele>729.1</ele>
        <time>2010-03-07T09:33:02Z</time>
      </trkpt>
      <trkpt lat="43.94168" lon="3.52793">
        <ele>728.4</ele>
        <time>2010-03-07T09:33:07Z</time>
      </trkpt>
      <trkpt lat="43.94186" lon="3.52831">
        <ele>723.6</ele>
        <time>2010-03-07T09:33:27Z</time>
      </trkpt>
      <trkpt lat="43.94189" lon="3.52869">
        <ele>723.9</ele>
        <time>2010-03-07T09:33:42Z</time>
      </trkpt>
      <trkpt lat="43.94168" lon="3.5292">
        <ele>726.6</ele>
        <time>2010-03-07T09:34:17Z</time>
      </trkpt>
      <trkpt lat="43.94155" lon="3.52944">
        <ele>726.9</ele>
        <time>2010-03-07T09:34:32Z</time>
      </trkpt>
      <trkpt lat="43.94148" lon="3.52969">
        <ele>727.4</ele>
        <time>2010-03-07T09:34:42Z</time>
      </trkpt>
      <trkpt lat="43.94142" lon="3.52981">
        <ele>726.6</ele>
        <time>2010-03-07T09:34:47Z</time>
      </trkpt>
      <trkpt lat="43.94111" lon="3.53011">
        <ele>720.7</ele>
        <time>2010-03-07T09:35:07Z</time>
      </trkpt>
      <trkpt lat="43.94101" lon="3.53018">
        <ele>718.6</ele>
        <time>2010-03-07T09:35:12Z</time>
      </trkpt>
      <trkpt lat="43.94053" lon="3.53037">
        <ele>712.1</ele>
        <time>2010-03-07T09:35:32Z</time>
      </trkpt>
      <trkpt lat="43.9404" lon="3.53039">
        <ele>710.8</ele>
        <time>2010-03-07T09:35:37Z</time>
      </trkpt>
      <trkpt lat="43.94017" lon="3.53054">
        <ele>707.9</ele>
        <time>2010-03-07T09:35:47Z</time>
      </trkpt>
      <trkpt lat="43.93999" lon="3.53061">
        <ele>705.3</ele>
        <time>2010-03-07T09:35:57Z</time>
      </trkpt>
      <trkpt lat="43.93988" lon="3.53062">
        <ele>704.2</ele>
        <time>2010-03-07T09:36:02Z</time>
      </trkpt>
      <trkpt lat="43.93965" lon="3.53077">
        <ele>701.6</ele>
        <time>2010-03-07T09:36:12Z</time>
      </trkpt>
      <trkpt lat="43.93926" lon="3.53113">
        <ele>694.8</ele>
        <time>2010-03-07T09:36:32Z</time>
      </trkpt>
      <trkpt lat="43.93905" lon="3.53128">
        <ele>691.1</ele>
        <time>2010-03-07T09:36:42Z</time>
      </trkpt>
      <trkpt lat="43.93876" lon="3.53139">
        <ele>686.7</ele>
        <time>2010-03-07T09:36:57Z</time>
      </trkpt>
      <trkpt lat="43.93835" lon="3.53143">
        <ele>679.1</ele>
        <time>2010-03-07T09:37:17Z</time>
      </trkpt>
      <trkpt lat="43.93816" lon="3.5314">
        <ele>677.7</ele>
        <time>2010-03-07T09:37:27Z</time>
      </trkpt>
      <trkpt lat="43.93806" lon="3.5315">
        <ele>676.3</ele>
        <time>2010-03-07T09:37:32Z</time>
      </trkpt>
      <trkpt lat="43.938" lon="3.53163">
        <ele>675</ele>
        <time>2010-03-07T09:37:37Z</time>
      </trkpt>
      <trkpt lat="43.93779" lon="3.53194">
        <ele>672</ele>
        <time>2010-03-07T09:37:52Z</time>
      </trkpt>
      <trkpt lat="43.93772" lon="3.53237">
        <ele>668.7</ele>
        <time>2010-03-07T09:38:07Z</time>
      </trkpt>
      <trkpt lat="43.9376" lon="3.53266">
        <ele>666.8</ele>
        <time>2010-03-07T09:38:17Z</time>
      </trkpt>
      <trkpt lat="43.93745" lon="3.53332">
        <ele>663.9</ele>
        <time>2010-03-07T09:38:37Z</time>
      </trkpt>
      <trkpt lat="43.93737" lon="3.53344">
        <ele>663.1</ele>
        <time>2010-03-07T09:38:42Z</time>
      </trkpt>
      <trkpt lat="43.93731" lon="3.53362">
        <ele>662.3</ele>
        <time>2010-03-07T09:38:47Z</time>
      </trkpt>
      <trkpt lat="43.93724" lon="3.53375">
        <ele>662.1</ele>
        <time>2010-03-07T09:38:52Z</time>
      </trkpt>
      <trkpt lat="43.93715" lon="3.53375">
        <ele>661.7</ele>
        <time>2010-03-07T09:38:57Z</time>
      </trkpt>
      <trkpt lat="43.93675" lon="3.53387">
        <ele>659.7</ele>
        <time>2010-03-07T09:39:27Z</time>
      </trkpt>
      <trkpt lat="43.93669" lon="3.53386">
        <ele>659.2</ele>
        <time>2010-03-07T09:39:32Z</time>
      </trkpt>
      <trkpt lat="43.93662" lon="3.5339">
        <ele>658.8</ele>
        <time>2010-03-07T09:39:37Z</time>
      </trkpt>
      <trkpt lat="43.93655" lon="3.53397">
        <ele>658.5</ele>
        <time>2010-03-07T09:39:42Z</time>
      </trkpt>
      <trkpt lat="43.93648" lon="3.53411">
        <ele>657.8</ele>
        <time>2010-03-07T09:39:52Z</time>
      </trkpt>
      <trkpt lat="43.93643" lon="3.53416">
        <ele>657.3</ele>
        <time>2010-03-07T09:39:57Z</time>
      </trkpt>
      <trkpt lat="43.93637" lon="3.53418">
        <ele>657</ele>
        <time>2010-03-07T09:40:02Z</time>
      </trkpt>
      <trkpt lat="43.93626" lon="3.53428">
        <ele>656.4</ele>
        <time>2010-03-07T09:40:12Z</time>
      </trkpt>
      <trkpt lat="43.93595" lon="3.53447">
        <ele>655</ele>
        <time>2010-03-07T09:40:37Z</time>
      </trkpt>
      <trkpt lat="43.93573" lon="3.53467">
        <ele>654.3</ele>
        <time>2010-03-07T09:40:57Z</time>
      </trkpt>
      <trkpt lat="43.93564" lon="3.53479">
        <ele>654</ele>
        <time>2010-03-07T09:41:02Z</time>
      </trkpt>
      <trkpt lat="43.93558" lon="3.53482">
        <ele>654</ele>
        <time>2010-03-07T09:41:12Z</time>
      </trkpt>
      <trkpt lat="43.93542" lon="3.53508">
        <ele>654.4</ele>
        <time>2010-03-07T09:41:27Z</time>
      </trkpt>
      <trkpt lat="43.93543" lon="3.5352">
        <ele>655.1</ele>
        <time>2010-03-07T09:41:32Z</time>
      </trkpt>
      <trkpt lat="43.93554" lon="3.53536">
        <ele>656.8</ele>
        <time>2010-03-07T09:41:47Z</time>
      </trkpt>
      <trkpt lat="43.93615" lon="3.53574">
        <ele>659.6</ele>
        <time>2010-03-07T09:42:22Z</time>
      </trkpt>
      <trkpt lat="43.93631" lon="3.53587">
        <ele>659.5</ele>
        <time>2010-03-07T09:42:32Z</time>
      </trkpt>
      <trkpt lat="43.93665" lon="3.53603">
        <ele>659.2</ele>
        <time>2010-03-07T09:42:47Z</time>
      </trkpt>
      <trkpt lat="43.93674" lon="3.53609">
        <ele>659.5</ele>
        <time>2010-03-07T09:42:52Z</time>
      </trkpt>
      <trkpt lat="43.93699" lon="3.53619">
        <ele>660.3</ele>
        <time>2010-03-07T09:43:07Z</time>
      </trkpt>
      <trkpt lat="43.93734" lon="3.53626">
        <ele>661.2</ele>
        <time>2010-03-07T09:43:27Z</time>
      </trkpt>
      <trkpt lat="43.93776" lon="3.53668">
        <ele>669.2</ele>
        <time>2010-03-07T09:44:17Z</time>
      </trkpt>
      <trkpt lat="43.93798" lon="3.5368">
        <ele>671.1</ele>
        <time>2010-03-07T09:44:37Z</time>
      </trkpt>
      <trkpt lat="43.93808" lon="3.53688">
        <ele>672</ele>
        <time>2010-03-07T09:44:47Z</time>
      </trkpt>
      <trkpt lat="43.93823" lon="3.53706">
        <ele>672.9</ele>
        <time>2010-03-07T09:45:02Z</time>
      </trkpt>
      <trkpt lat="43.93835" lon="3.53715">
        <ele>673.1</ele>
        <time>2010-03-07T09:45:12Z</time>
      </trkpt>
      <trkpt lat="43.93868" lon="3.53752">
        <ele>674.7</ele>
        <time>2010-03-07T09:45:32Z</time>
      </trkpt>
      <trkpt lat="43.93879" lon="3.53768">
        <ele>676.1</ele>
        <time>2010-03-07T09:45:42Z</time>
      </trkpt>
      <trkpt lat="43.93934" lon="3.53816">
        <ele>682.9</ele>
        <time>2010-03-07T09:46:37Z</time>
      </trkpt>
      <trkpt lat="43.9395" lon="3.53842">
        <ele>684.7</ele>
        <time>2010-03-07T09:46:57Z</time>
      </trkpt>
      <trkpt lat="43.93961" lon="3.53878">
        <ele>687.6</ele>
        <time>2010-03-07T09:47:22Z</time>
      </trkpt>
      <trkpt lat="43.93965" lon="3.53898">
        <ele>689.2</ele>
        <time>2010-03-07T09:47:37Z</time>
      </trkpt>
      <trkpt lat="43.93984" lon="3.53939">
        <ele>692.5</ele>
        <time>2010-03-07T09:48:07Z</time>
      </trkpt>
      <trkpt lat="43.93986" lon="3.53946">
        <ele>693.2</ele>
        <time>2010-03-07T09:48:12Z</time>
      </trkpt>
      <trkpt lat="43.9399" lon="3.53952">
        <ele>693.6</ele>
        <time>2010-03-07T09:48:22Z</time>
      </trkpt>
      <trkpt lat="43.94012" lon="3.54061">
        <ele>700.2</ele>
        <time>2010-03-07T09:49:47Z</time>
      </trkpt>
      <trkpt lat="43.94016" lon="3.54069">
        <ele>699.9</ele>
        <time>2010-03-07T09:49:52Z</time>
      </trkpt>
      <trkpt lat="43.94019" lon="3.54088">
        <ele>700.3</ele>
        <time>2010-03-07T09:50:07Z</time>
      </trkpt>
      <trkpt lat="43.94018" lon="3.54097">
        <ele>701.2</ele>
        <time>2010-03-07T09:50:12Z</time>
      </trkpt>
      <trkpt lat="43.94011" lon="3.54131">
        <ele>704</ele>
        <time>2010-03-07T09:50:32Z</time>
      </trkpt>
      <trkpt lat="43.94015" lon="3.5417">
        <ele>705.5</ele>
        <time>2010-03-07T09:50:52Z</time>
      </trkpt>
      <trkpt lat="43.94023" lon="3.54203">
        <ele>706</ele>
        <time>2010-03-07T09:51:12Z</time>
      </trkpt>
      <trkpt lat="43.94024" lon="3.54215">
        <ele>706</ele>
        <time>2010-03-07T09:51:17Z</time>
      </trkpt>
      <trkpt lat="43.94032" lon="3.54225">
        <ele>705.7</ele>
        <time>2010-03-07T09:51:22Z</time>
      </trkpt>
      <trkpt lat="43.94051" lon="3.54229">
        <ele>705.1</ele>
        <time>2010-03-07T09:51:32Z</time>
      </trkpt>
      <trkpt lat="43.94059" lon="3.54237">
        <ele>705.5</ele>
        <time>2010-03-07T09:51:37Z</time>
      </trkpt>
      <trkpt lat="43.94067" lon="3.54251">
        <ele>706.6</ele>
        <time>2010-03-07T09:51:42Z</time>
      </trkpt>
      <trkpt lat="43.94071" lon="3.54265">
        <ele>706.5</ele>
        <time>2010-03-07T09:51:47Z</time>
      </trkpt>
      <trkpt lat="43.94066" lon="3.543">
        <ele>704</ele>
        <time>2010-03-07T09:52:02Z</time>
      </trkpt>
      <trkpt lat="43.94067" lon="3.54305">
        <ele>704.2</ele>
        <time>2010-03-07T09:52:07Z</time>
      </trkpt>
      <trkpt lat="43.94064" lon="3.54323">
        <ele>702.3</ele>
        <time>2010-03-07T09:52:22Z</time>
      </trkpt>
      <trkpt lat="43.94068" lon="3.54378">
        <ele>697.6</ele>
        <time>2010-03-07T09:52:37Z</time>
      </trkpt>
      <trkpt lat="43.94078" lon="3.54405">
        <ele>695.9</ele>
        <time>2010-03-07T09:52:47Z</time>
      </trkpt>
      <trkpt lat="43.94114" lon="3.54451">
        <ele>695.2</ele>
        <time>2010-03-07T09:53:07Z</time>
      </trkpt>
      <trkpt lat="43.94132" lon="3.54463">
        <ele>695.5</ele>
        <time>2010-03-07T09:53:17Z</time>
      </trkpt>
      <trkpt lat="43.94142" lon="3.54467">
        <ele>696</ele>
        <time>2010-03-07T09:53:22Z</time>
      </trkpt>
      <trkpt lat="43.94177" lon="3.54472">
        <ele>698.3</ele>
        <time>2010-03-07T09:53:47Z</time>
      </trkpt>
      <trkpt lat="43.9422" lon="3.5449">
        <ele>696.5</ele>
        <time>2010-03-07T09:54:17Z</time>
      </trkpt>
      <trkpt lat="43.94233" lon="3.54498">
        <ele>694.9</ele>
        <time>2010-03-07T09:54:32Z</time>
      </trkpt>
      <trkpt lat="43.94251" lon="3.54516">
        <ele>690.6</ele>
        <time>2010-03-07T09:54:52Z</time>
      </trkpt>
      <trkpt lat="43.94254" lon="3.54514">
        <ele>691.1</ele>
        <time>2010-03-07T09:55:32Z</time>
      </trkpt>
      <trkpt lat="43.94282" lon="3.54529">
        <ele>688.6</ele>
        <time>2010-03-07T09:56:02Z</time>
      </trkpt>
      <trkpt lat="43.94304" lon="3.54544">
        <ele>683.5</ele>
        <time>2010-03-07T09:56:27Z</time>
      </trkpt>
      <trkpt lat="43.94331" lon="3.54557">
        <ele>679.6</ele>
        <time>2010-03-07T09:57:02Z</time>
      </trkpt>
      <trkpt lat="43.94356" lon="3.54565">
        <ele>678.9</ele>
        <time>2010-03-07T09:57:17Z</time>
      </trkpt>
      <trkpt lat="43.94378" lon="3.54564">
        <ele>679.4</ele>
        <time>2010-03-07T09:57:27Z</time>
      </trkpt>
      <trkpt lat="43.94402" lon="3.54567">
        <ele>678.4</ele>
        <time>2010-03-07T09:57:37Z</time>
      </trkpt>
      <trkpt lat="43.94411" lon="3.54565">
        <ele>678.5</ele>
        <time>2010-03-07T09:57:42Z</time>
      </trkpt>
      <trkpt lat="43.94431" lon="3.54555">
        <ele>679.1</ele>
        <time>2010-03-07T09:57:52Z</time>
      </trkpt>
      <trkpt lat="43.94449" lon="3.54549">
        <ele>678.5</ele>
        <time>2010-03-07T09:58:02Z</time>
      </trkpt>
      <trkpt lat="43.94453" lon="3.54545">
        <ele>678.5</ele>
        <time>2010-03-07T09:58:07Z</time>
      </trkpt>
      <trkpt lat="43.94471" lon="3.5454">
        <ele>677.3</ele>
        <time>2010-03-07T09:58:17Z</time>
      </trkpt>
      <trkpt lat="43.94499" lon="3.54536">
        <ele>676.8</ele>
        <time>2010-03-07T09:58:32Z</time>
      </trkpt>
      <trkpt lat="43.94522" lon="3.54538">
        <ele>676.3</ele>
        <time>2010-03-07T09:58:42Z</time>
      </trkpt>
      <trkpt lat="43.94557" lon="3.54533">
        <ele>677</ele>
        <time>2010-03-07T09:58:57Z</time>
      </trkpt>
      <trkpt lat="43.94577" lon="3.54533">
        <ele>676.7</ele>
        <time>2010-03-07T09:59:07Z</time>
      </trkpt>
      <trkpt lat="43.94597" lon="3.5453">
        <ele>677.1</ele>
        <time>2010-03-07T09:59:17Z</time>
      </trkpt>
      <trkpt lat="43.94601" lon="3.54532">
        <ele>676.5</ele>
        <time>2010-03-07T09:59:27Z</time>
      </trkpt>
      <trkpt lat="43.94651" lon="3.545">
        <ele>680.1</ele>
        <time>2010-03-07T10:00:02Z</time>
      </trkpt>
      <trkpt lat="43.94673" lon="3.54494">
        <ele>680.2</ele>
        <time>2010-03-07T10:00:12Z</time>
      </trkpt>
      <trkpt lat="43.94709" lon="3.54499">
        <ele>680.2</ele>
        <time>2010-03-07T10:00:32Z</time>
      </trkpt>
      <trkpt lat="43.9473" lon="3.5451">
        <ele>679.5</ele>
        <time>2010-03-07T10:00:52Z</time>
      </trkpt>
      <trkpt lat="43.94739" lon="3.54518">
        <ele>678.7</ele>
        <time>2010-03-07T10:00:57Z</time>
      </trkpt>
      <trkpt lat="43.94749" lon="3.54521">
        <ele>679.1</ele>
        <time>2010-03-07T10:01:02Z</time>
      </trkpt>
      <trkpt lat="43.94758" lon="3.54537">
        <ele>677.8</ele>
        <time>2010-03-07T10:01:17Z</time>
      </trkpt>
      <trkpt lat="43.94776" lon="3.5456">
        <ele>677.1</ele>
        <time>2010-03-07T10:01:27Z</time>
      </trkpt>
      <trkpt lat="43.94795" lon="3.54571">
        <ele>677.5</ele>
        <time>2010-03-07T10:01:37Z</time>
      </trkpt>
      <trkpt lat="43.94822" lon="3.54574">
        <ele>679</ele>
        <time>2010-03-07T10:01:52Z</time>
      </trkpt>
      <trkpt lat="43.94834" lon="3.54579">
        <ele>678.9</ele>
        <time>2010-03-07T10:01:57Z</time>
      </trkpt>
      <trkpt lat="43.94843" lon="3.54588">
        <ele>678.1</ele>
        <time>2010-03-07T10:02:02Z</time>
      </trkpt>
      <trkpt lat="43.94873" lon="3.54631">
        <ele>674.2</ele>
        <time>2010-03-07T10:02:22Z</time>
      </trkpt>
      <trkpt lat="43.94881" lon="3.54647">
        <ele>673.4</ele>
        <time>2010-03-07T10:02:27Z</time>
      </trkpt>
      <trkpt lat="43.94888" lon="3.54678">
        <ele>671.2</ele>
        <time>2010-03-07T10:02:37Z</time>
      </trkpt>
      <trkpt lat="43.94893" lon="3.54717">
        <ele>669.5</ele>
        <time>2010-03-07T10:02:47Z</time>
      </trkpt>
      <trkpt lat="43.94895" lon="3.54751">
        <ele>669.4</ele>
        <time>2010-03-07T10:02:57Z</time>
      </trkpt>
      <trkpt lat="43.94891" lon="3.54797">
        <ele>671</ele>
        <time>2010-03-07T10:03:17Z</time>
      </trkpt>
      <trkpt lat="43.94894" lon="3.54821">
        <ele>673</ele>
        <time>2010-03-07T10:03:32Z</time>
      </trkpt>
      <trkpt lat="43.94902" lon="3.54837">
        <ele>674.4</ele>
        <time>2010-03-07T10:03:42Z</time>
      </trkpt>
      <trkpt lat="43.94936" lon="3.54883">
        <ele>678.7</ele>
        <time>2010-03-07T10:04:22Z</time>
      </trkpt>
      <trkpt lat="43.94958" lon="3.54903">
        <ele>680.3</ele>
        <time>2010-03-07T10:04:42Z</time>
      </trkpt>
      <trkpt lat="43.94968" lon="3.5491">
        <ele>680.9</ele>
        <time>2010-03-07T10:04:52Z</time>
      </trkpt>
      <trkpt lat="43.95024" lon="3.5493">
        <ele>681.2</ele>
        <time>2010-03-07T10:05:32Z</time>
      </trkpt>
      <trkpt lat="43.95034" lon="3.54937">
        <ele>681.7</ele>
        <time>2010-03-07T10:05:42Z</time>
      </trkpt>
      <trkpt lat="43.95068" lon="3.54969">
        <ele>685.1</ele>
        <time>2010-03-07T10:06:17Z</time>
      </trkpt>
      <trkpt lat="43.95093" lon="3.54985">
        <ele>685.3</ele>
        <time>2010-03-07T10:06:37Z</time>
      </trkpt>
      <trkpt lat="43.95121" lon="3.55016">
        <ele>687</ele>
        <time>2010-03-07T10:07:07Z</time>
      </trkpt>
      <trkpt lat="43.95157" lon="3.55046">
        <ele>688.6</ele>
        <time>2010-03-07T10:07:47Z</time>
      </trkpt>
      <trkpt lat="43.95174" lon="3.55065">
        <ele>689.3</ele>
        <time>2010-03-07T10:08:07Z</time>
      </trkpt>
      <trkpt lat="43.95195" lon="3.55097">
        <ele>690.8</ele>
        <time>2010-03-07T10:08:32Z</time>
      </trkpt>
      <trkpt lat="43.95202" lon="3.5511">
        <ele>691.1</ele>
        <time>2010-03-07T10:08:42Z</time>
      </trkpt>
      <trkpt lat="43.95209" lon="3.5514">
        <ele>692.5</ele>
        <time>2010-03-07T10:09:02Z</time>
      </trkpt>
      <trkpt lat="43.95209" lon="3.55162">
        <ele>693.7</ele>
        <time>2010-03-07T10:09:17Z</time>
      </trkpt>
      <trkpt lat="43.95213" lon="3.55204">
        <ele>694.7</ele>
        <time>2010-03-07T10:09:42Z</time>
      </trkpt>
      <trkpt lat="43.9522" lon="3.55242">
        <ele>696.4</ele>
        <time>2010-03-07T10:10:07Z</time>
      </trkpt>
      <trkpt lat="43.95237" lon="3.55288">
        <ele>699.5</ele>
        <time>2010-03-07T10:10:37Z</time>
      </trkpt>
      <trkpt lat="43.95241" lon="3.55318">
        <ele>701.5</ele>
        <time>2010-03-07T10:10:57Z</time>
      </trkpt>
      <trkpt lat="43.95241" lon="3.55355">
        <ele>704.5</ele>
        <time>2010-03-07T10:11:22Z</time>
      </trkpt>
      <trkpt lat="43.95245" lon="3.55369">
        <ele>704.9</ele>
        <time>2010-03-07T10:11:32Z</time>
      </trkpt>
      <trkpt lat="43.95257" lon="3.55396">
        <ele>706.4</ele>
        <time>2010-03-07T10:11:47Z</time>
      </trkpt>
      <trkpt lat="43.95276" lon="3.55422">
        <ele>708.2</ele>
        <time>2010-03-07T10:12:07Z</time>
      </trkpt>
      <trkpt lat="43.9536" lon="3.55505">
        <ele>715.2</ele>
        <time>2010-03-07T10:13:32Z</time>
      </trkpt>
      <trkpt lat="43.95366" lon="3.55513">
        <ele>715.3</ele>
        <time>2010-03-07T10:13:52Z</time>
      </trkpt>
      <trkpt lat="43.95372" lon="3.5551">
        <ele>715</ele>
        <time>2010-03-07T10:14:27Z</time>
      </trkpt>
      <trkpt lat="43.9539" lon="3.55526">
        <ele>714.9</ele>
        <time>2010-03-07T10:14:47Z</time>
      </trkpt>
      <trkpt lat="43.95397" lon="3.55536">
        <ele>714.8</ele>
        <time>2010-03-07T10:14:57Z</time>
      </trkpt>
      <trkpt lat="43.95406" lon="3.55544">
        <ele>714.7</ele>
        <time>2010-03-07T10:15:07Z</time>
      </trkpt>
      <trkpt lat="43.9542" lon="3.55572">
        <ele>715.2</ele>
        <time>2010-03-07T10:15:22Z</time>
      </trkpt>
      <trkpt lat="43.95423" lon="3.55583">
        <ele>715.4</ele>
        <time>2010-03-07T10:15:27Z</time>
      </trkpt>
      <trkpt lat="43.95427" lon="3.55612">
        <ele>715.7</ele>
        <time>2010-03-07T10:15:37Z</time>
      </trkpt>
      <trkpt lat="43.95431" lon="3.55629">
        <ele>715.7</ele>
        <time>2010-03-07T10:15:42Z</time>
      </trkpt>
      <trkpt lat="43.95447" lon="3.55647">
        <ele>716.2</ele>
        <time>2010-03-07T10:15:52Z</time>
      </trkpt>
      <trkpt lat="43.95467" lon="3.55689">
        <ele>717</ele>
        <time>2010-03-07T10:16:17Z</time>
      </trkpt>
      <trkpt lat="43.95483" lon="3.55744">
        <ele>718.2</ele>
        <time>2010-03-07T10:16:52Z</time>
      </trkpt>
      <trkpt lat="43.95485" lon="3.55762">
        <ele>718.8</ele>
        <time>2010-03-07T10:17:02Z</time>
      </trkpt>
      <trkpt lat="43.95492" lon="3.55774">
        <ele>720</ele>
        <time>2010-03-07T10:17:12Z</time>
      </trkpt>
      <trkpt lat="43.95497" lon="3.55773">
        <ele>720.5</ele>
        <time>2010-03-07T10:17:17Z</time>
      </trkpt>
      <trkpt lat="43.9551" lon="3.55777">
        <ele>721</ele>
        <time>2010-03-07T10:17:27Z</time>
      </trkpt>
      <trkpt lat="43.95519" lon="3.55786">
        <ele>721.4</ele>
        <time>2010-03-07T10:17:37Z</time>
      </trkpt>
      <trkpt lat="43.95527" lon="3.55799">
        <ele>722.5</ele>
        <time>2010-03-07T10:17:47Z</time>
      </trkpt>
      <trkpt lat="43.9553" lon="3.55816">
        <ele>723.7</ele>
        <time>2010-03-07T10:17:57Z</time>
      </trkpt>
      <trkpt lat="43.9553" lon="3.55824">
        <ele>723.9</ele>
        <time>2010-03-07T10:18:02Z</time>
      </trkpt>
      <trkpt lat="43.95522" lon="3.5585">
        <ele>724.2</ele>
        <time>2010-03-07T10:18:17Z</time>
      </trkpt>
      <trkpt lat="43.95515" lon="3.55864">
        <ele>723.2</ele>
        <time>2010-03-07T10:18:22Z</time>
      </trkpt>
      <trkpt lat="43.95512" lon="3.55879">
        <ele>723</ele>
        <time>2010-03-07T10:18:27Z</time>
      </trkpt>
      <trkpt lat="43.95514" lon="3.55889">
        <ele>723.5</ele>
        <time>2010-03-07T10:18:32Z</time>
      </trkpt>
      <trkpt lat="43.95524" lon="3.55905">
        <ele>724.5</ele>
        <time>2010-03-07T10:18:42Z</time>
      </trkpt>
      <trkpt lat="43.95532" lon="3.55931">
        <ele>726.2</ele>
        <time>2010-03-07T10:18:57Z</time>
      </trkpt>
      <trkpt lat="43.95539" lon="3.55942">
        <ele>727.5</ele>
        <time>2010-03-07T10:19:07Z</time>
      </trkpt>
      <trkpt lat="43.95542" lon="3.5596">
        <ele>728.9</ele>
        <time>2010-03-07T10:19:17Z</time>
      </trkpt>
      <trkpt lat="43.95551" lon="3.55978">
        <ele>730.5</ele>
        <time>2010-03-07T10:19:32Z</time>
      </trkpt>
      <trkpt lat="43.95557" lon="3.55983">
        <ele>731.3</ele>
        <time>2010-03-07T10:19:37Z</time>
      </trkpt>
      <trkpt lat="43.95564" lon="3.55984">
        <ele>732.1</ele>
        <time>2010-03-07T10:19:42Z</time>
      </trkpt>
      <trkpt lat="43.95573" lon="3.55989">
        <ele>733.2</ele>
        <time>2010-03-07T10:19:52Z</time>
      </trkpt>
      <trkpt lat="43.95578" lon="3.5599">
        <ele>733.6</ele>
        <time>2010-03-07T10:19:57Z</time>
      </trkpt>
      <trkpt lat="43.95594" lon="3.55999">
        <ele>735.2</ele>
        <time>2010-03-07T10:20:12Z</time>
      </trkpt>
      <trkpt lat="43.95612" lon="3.56003">
        <ele>737.5</ele>
        <time>2010-03-07T10:20:27Z</time>
      </trkpt>
      <trkpt lat="43.95621" lon="3.56008">
        <ele>739</ele>
        <time>2010-03-07T10:20:37Z</time>
      </trkpt>
      <trkpt lat="43.95641" lon="3.56014">
        <ele>740.9</ele>
        <time>2010-03-07T10:20:52Z</time>
      </trkpt>
      <trkpt lat="43.95655" lon="3.56032">
        <ele>744.4</ele>
        <time>2010-03-07T10:21:12Z</time>
      </trkpt>
      <trkpt lat="43.9566" lon="3.56034">
        <ele>745.5</ele>
        <time>2010-03-07T10:21:17Z</time>
      </trkpt>
      <trkpt lat="43.95702" lon="3.56074">
        <ele>752.4</ele>
        <time>2010-03-07T10:22:12Z</time>
      </trkpt>
      <trkpt lat="43.95721" lon="3.56076">
        <ele>753.7</ele>
        <time>2010-03-07T10:22:27Z</time>
      </trkpt>
      <trkpt lat="43.95765" lon="3.56088">
        <ele>756.3</ele>
        <time>2010-03-07T10:23:07Z</time>
      </trkpt>
      <trkpt lat="43.95779" lon="3.56097">
        <ele>757</ele>
        <time>2010-03-07T10:23:22Z</time>
      </trkpt>
      <trkpt lat="43.95826" lon="3.56104">
        <ele>757.3</ele>
        <time>2010-03-07T10:23:57Z</time>
      </trkpt>
      <trkpt lat="43.95879" lon="3.56125">
        <ele>754.2</ele>
        <time>2010-03-07T10:24:22Z</time>
      </trkpt>
      <trkpt lat="43.9589" lon="3.56132">
        <ele>752.6</ele>
        <time>2010-03-07T10:24:27Z</time>
      </trkpt>
      <trkpt lat="43.95902" lon="3.56135">
        <ele>751.5</ele>
        <time>2010-03-07T10:24:32Z</time>
      </trkpt>
      <trkpt lat="43.95925" lon="3.56154">
        <ele>749.8</ele>
        <time>2010-03-07T10:24:42Z</time>
      </trkpt>
      <trkpt lat="43.95932" lon="3.56164">
        <ele>749.3</ele>
        <time>2010-03-07T10:24:47Z</time>
      </trkpt>
      <trkpt lat="43.95944" lon="3.56213">
        <ele>750.7</ele>
        <time>2010-03-07T10:25:12Z</time>
      </trkpt>
      <trkpt lat="43.95953" lon="3.56238">
        <ele>751</ele>
        <time>2010-03-07T10:25:27Z</time>
      </trkpt>
      <trkpt lat="43.9596" lon="3.56281">
        <ele>752</ele>
        <time>2010-03-07T10:25:52Z</time>
      </trkpt>
      <trkpt lat="43.95965" lon="3.56298">
        <ele>752.2</ele>
        <time>2010-03-07T10:26:02Z</time>
      </trkpt>
      <trkpt lat="43.95967" lon="3.56323">
        <ele>753.1</ele>
        <time>2010-03-07T10:26:17Z</time>
      </trkpt>
      <trkpt lat="43.95975" lon="3.56349">
        <ele>754</ele>
        <time>2010-03-07T10:26:32Z</time>
      </trkpt>
      <trkpt lat="43.95978" lon="3.56394">
        <ele>756.2</ele>
        <time>2010-03-07T10:26:57Z</time>
      </trkpt>
      <trkpt lat="43.95974" lon="3.5641">
        <ele>756.7</ele>
        <time>2010-03-07T10:27:07Z</time>
      </trkpt>
      <trkpt lat="43.95968" lon="3.56461">
        <ele>756.9</ele>
        <time>2010-03-07T10:27:37Z</time>
      </trkpt>
      <trkpt lat="43.95972" lon="3.56476">
        <ele>755.6</ele>
        <time>2010-03-07T10:27:52Z</time>
      </trkpt>
      <trkpt lat="43.9597" lon="3.56482">
        <ele>755.2</ele>
        <time>2010-03-07T10:28:02Z</time>
      </trkpt>
      <trkpt lat="43.95977" lon="3.56481">
        <ele>754.5</ele>
        <time>2010-03-07T10:28:17Z</time>
      </trkpt>
      <trkpt lat="43.95983" lon="3.56499">
        <ele>751.3</ele>
        <time>2010-03-07T10:28:32Z</time>
      </trkpt>
      <trkpt lat="43.95988" lon="3.56537">
        <ele>742.8</ele>
        <time>2010-03-07T10:28:52Z</time>
      </trkpt>
      <trkpt lat="43.96" lon="3.56564">
        <ele>735.6</ele>
        <time>2010-03-07T10:29:07Z</time>
      </trkpt>
      <trkpt lat="43.96001" lon="3.56587">
        <ele>730.9</ele>
        <time>2010-03-07T10:29:22Z</time>
      </trkpt>
      <trkpt lat="43.96008" lon="3.56613">
        <ele>723.7</ele>
        <time>2010-03-07T10:29:37Z</time>
      </trkpt>
      <trkpt lat="43.96013" lon="3.5662">
        <ele>720.8</ele>
        <time>2010-03-07T10:29:57Z</time>
      </trkpt>
      <trkpt lat="43.9601" lon="3.56621">
        <ele>721.2</ele>
        <time>2010-03-07T10:30:22Z</time>
      </trkpt>
      <trkpt lat="43.96009" lon="3.56625">
        <ele>720.5</ele>
        <time>2010-03-07T10:30:37Z</time>
      </trkpt>
      <trkpt lat="43.96012" lon="3.56622">
        <ele>720.6</ele>
        <time>2010-03-07T10:31:02Z</time>
      </trkpt>
      <trkpt lat="43.96007" lon="3.56623">
        <ele>721.4</ele>
        <time>2010-03-07T10:31:17Z</time>
      </trkpt>
      <trkpt lat="43.96007" lon="3.56625">
        <ele>721</ele>
        <time>2010-03-07T10:31:22Z</time>
      </trkpt>
      <trkpt lat="43.9601" lon="3.56623">
        <ele>720.7</ele>
        <time>2010-03-07T10:31:37Z</time>
      </trkpt>
      <trkpt lat="43.96012" lon="3.56626">
        <ele>719.8</ele>
        <time>2010-03-07T10:31:42Z</time>
      </trkpt>
      <trkpt lat="43.96009" lon="3.56626">
        <ele>720.5</ele>
        <time>2010-03-07T10:31:57Z</time>
      </trkpt>
      <trkpt lat="43.96011" lon="3.56659">
        <ele>712.9</ele>
        <time>2010-03-07T10:32:12Z</time>
      </trkpt>
      <trkpt lat="43.96019" lon="3.56699">
        <ele>705.4</ele>
        <time>2010-03-07T10:32:32Z</time>
      </trkpt>
      <trkpt lat="43.96021" lon="3.56719">
        <ele>702.9</ele>
        <time>2010-03-07T10:32:47Z</time>
      </trkpt>
      <trkpt lat="43.9602" lon="3.56737">
        <ele>700.8</ele>
        <time>2010-03-07T10:32:57Z</time>
      </trkpt>
      <trkpt lat="43.96013" lon="3.56747">
        <ele>699.2</ele>
        <time>2010-03-07T10:33:02Z</time>
      </trkpt>
      <trkpt lat="43.95996" lon="3.56763">
        <ele>696.6</ele>
        <time>2010-03-07T10:33:17Z</time>
      </trkpt>
      <trkpt lat="43.96003" lon="3.56812">
        <ele>692.6</ele>
        <time>2010-03-07T10:33:32Z</time>
      </trkpt>
      <trkpt lat="43.96001" lon="3.56878">
        <ele>684.4</ele>
        <time>2010-03-07T10:33:52Z</time>
      </trkpt>
      <trkpt lat="43.95997" lon="3.56928">
        <ele>678.5</ele>
        <time>2010-03-07T10:34:07Z</time>
      </trkpt>
      <trkpt lat="43.95998" lon="3.56944">
        <ele>677</ele>
        <time>2010-03-07T10:34:12Z</time>
      </trkpt>
      <trkpt lat="43.95998" lon="3.56976">
        <ele>672.5</ele>
        <time>2010-03-07T10:34:22Z</time>
      </trkpt>
      <trkpt lat="43.95996" lon="3.56995">
        <ele>670.3</ele>
        <time>2010-03-07T10:34:27Z</time>
      </trkpt>
      <trkpt lat="43.95997" lon="3.57006">
        <ele>668.9</ele>
        <time>2010-03-07T10:34:32Z</time>
      </trkpt>
      <trkpt lat="43.95994" lon="3.57024">
        <ele>666.1</ele>
        <time>2010-03-07T10:34:37Z</time>
      </trkpt>
      <trkpt lat="43.95994" lon="3.57093">
        <ele>657.1</ele>
        <time>2010-03-07T10:34:57Z</time>
      </trkpt>
      <trkpt lat="43.96001" lon="3.57139">
        <ele>652</ele>
        <time>2010-03-07T10:35:12Z</time>
      </trkpt>
      <trkpt lat="43.96047" lon="3.57188">
        <ele>648.5</ele>
        <time>2010-03-07T10:35:37Z</time>
      </trkpt>
      <trkpt lat="43.96057" lon="3.57195">
        <ele>648</ele>
        <time>2010-03-07T10:35:42Z</time>
      </trkpt>
      <trkpt lat="43.96072" lon="3.57212">
        <ele>647.7</ele>
        <time>2010-03-07T10:35:52Z</time>
      </trkpt>
      <trkpt lat="43.96081" lon="3.57217">
        <ele>648.1</ele>
        <time>2010-03-07T10:35:57Z</time>
      </trkpt>
      <trkpt lat="43.96088" lon="3.57213">
        <ele>648.6</ele>
        <time>2010-03-07T10:36:02Z</time>
      </trkpt>
      <trkpt lat="43.96095" lon="3.57213">
        <ele>648.9</ele>
        <time>2010-03-07T10:36:07Z</time>
      </trkpt>
      <trkpt lat="43.96107" lon="3.57217">
        <ele>649.2</ele>
        <time>2010-03-07T10:36:17Z</time>
      </trkpt>
      <trkpt lat="43.96115" lon="3.57225">
        <ele>649</ele>
        <time>2010-03-07T10:36:22Z</time>
      </trkpt>
      <trkpt lat="43.96133" lon="3.57231">
        <ele>649.3</ele>
        <time>2010-03-07T10:36:32Z</time>
      </trkpt>
      <trkpt lat="43.96144" lon="3.57229">
        <ele>649.5</ele>
        <time>2010-03-07T10:36:37Z</time>
      </trkpt>
      <trkpt lat="43.96195" lon="3.57214">
        <ele>650.9</ele>
        <time>2010-03-07T10:37:07Z</time>
      </trkpt>
      <trkpt lat="43.96228" lon="3.57187">
        <ele>648.2</ele>
        <time>2010-03-07T10:37:27Z</time>
      </trkpt>
      <trkpt lat="43.96231" lon="3.57192">
        <ele>646.4</ele>
        <time>2010-03-07T10:37:32Z</time>
      </trkpt>
      <trkpt lat="43.96227" lon="3.57224">
        <ele>646.5</ele>
        <time>2010-03-07T10:37:57Z</time>
      </trkpt>
      <trkpt lat="43.96219" lon="3.57249">
        <ele>646.4</ele>
        <time>2010-03-07T10:38:07Z</time>
      </trkpt>
      <trkpt lat="43.96218" lon="3.57259">
        <ele>644.5</ele>
        <time>2010-03-07T10:38:12Z</time>
      </trkpt>
      <trkpt lat="43.96222" lon="3.57265">
        <ele>642.8</ele>
        <time>2010-03-07T10:38:17Z</time>
      </trkpt>
      <trkpt lat="43.96221" lon="3.57274">
        <ele>641</ele>
        <time>2010-03-07T10:38:22Z</time>
      </trkpt>
      <trkpt lat="43.96219" lon="3.57279">
        <ele>640.5</ele>
        <time>2010-03-07T10:38:42Z</time>
      </trkpt>
      <trkpt lat="43.9622" lon="3.57278">
        <ele>640.3</ele>
        <time>2010-03-07T10:39:02Z</time>
      </trkpt>
      <trkpt lat="43.96216" lon="3.57282">
        <ele>640.3</ele>
        <time>2010-03-07T10:39:32Z</time>
      </trkpt>
      <trkpt lat="43.96215" lon="3.57286">
        <ele>639.6</ele>
        <time>2010-03-07T10:39:47Z</time>
      </trkpt>
      <trkpt lat="43.962" lon="3.573">
        <ele>641.5</ele>
        <time>2010-03-07T10:40:27Z</time>
      </trkpt>
      <trkpt lat="43.962" lon="3.57305">
        <ele>640.9</ele>
        <time>2010-03-07T10:40:47Z</time>
      </trkpt>
      <trkpt lat="43.96194" lon="3.5731">
        <ele>642.2</ele>
        <time>2010-03-07T10:40:57Z</time>
      </trkpt>
      <trkpt lat="43.96191" lon="3.57316">
        <ele>641.3</ele>
        <time>2010-03-07T10:41:02Z</time>
      </trkpt>
      <trkpt lat="43.96175" lon="3.57332">
        <ele>641.3</ele>
        <time>2010-03-07T10:41:17Z</time>
      </trkpt>
      <trkpt lat="43.96157" lon="3.57341">
        <ele>642.4</ele>
        <time>2010-03-07T10:41:27Z</time>
      </trkpt>
      <trkpt lat="43.96148" lon="3.5735">
        <ele>641.7</ele>
        <time>2010-03-07T10:41:32Z</time>
      </trkpt>
      <trkpt lat="43.96155" lon="3.57371">
        <ele>638.7</ele>
        <time>2010-03-07T10:41:42Z</time>
      </trkpt>
      <trkpt lat="43.96156" lon="3.57383">
        <ele>637.3</ele>
        <time>2010-03-07T10:41:47Z</time>
      </trkpt>
      <trkpt lat="43.9616" lon="3.57392">
        <ele>636</ele>
        <time>2010-03-07T10:41:52Z</time>
      </trkpt>
      <trkpt lat="43.96157" lon="3.57408">
        <ele>635.9</ele>
        <time>2010-03-07T10:41:57Z</time>
      </trkpt>
      <trkpt lat="43.96158" lon="3.5742">
        <ele>635.4</ele>
        <time>2010-03-07T10:42:02Z</time>
      </trkpt>
      <trkpt lat="43.96157" lon="3.5743">
        <ele>634.9</ele>
        <time>2010-03-07T10:42:07Z</time>
      </trkpt>
      <trkpt lat="43.96152" lon="3.57443">
        <ele>634.7</ele>
        <time>2010-03-07T10:42:12Z</time>
      </trkpt>
      <trkpt lat="43.96147" lon="3.57476">
        <ele>635</ele>
        <time>2010-03-07T10:42:22Z</time>
      </trkpt>
      <trkpt lat="43.96136" lon="3.57511">
        <ele>635.6</ele>
        <time>2010-03-07T10:42:42Z</time>
      </trkpt>
      <trkpt lat="43.96131" lon="3.57519">
        <ele>635.5</ele>
        <time>2010-03-07T10:42:47Z</time>
      </trkpt>
      <trkpt lat="43.96121" lon="3.57557">
        <ele>633.9</ele>
        <time>2010-03-07T10:43:07Z</time>
      </trkpt>
      <trkpt lat="43.96126" lon="3.57565">
        <ele>633.1</ele>
        <time>2010-03-07T10:43:12Z</time>
      </trkpt>
      <trkpt lat="43.96131" lon="3.57579">
        <ele>632.1</ele>
        <time>2010-03-07T10:43:17Z</time>
      </trkpt>
      <trkpt lat="43.96125" lon="3.5759">
        <ele>631.8</ele>
        <time>2010-03-07T10:43:22Z</time>
      </trkpt>
      <trkpt lat="43.96124" lon="3.57601">
        <ele>630.7</ele>
        <time>2010-03-07T10:43:27Z</time>
      </trkpt>
      <trkpt lat="43.96128" lon="3.57612">
        <ele>629.1</ele>
        <time>2010-03-07T10:43:32Z</time>
      </trkpt>
      <trkpt lat="43.96135" lon="3.57621">
        <ele>627.7</ele>
        <time>2010-03-07T10:43:37Z</time>
      </trkpt>
      <trkpt lat="43.96157" lon="3.57673">
        <ele>624.5</ele>
        <time>2010-03-07T10:43:57Z</time>
      </trkpt>
      <trkpt lat="43.96169" lon="3.57712">
        <ele>625.3</ele>
        <time>2010-03-07T10:44:12Z</time>
      </trkpt>
      <trkpt lat="43.96169" lon="3.57721">
        <ele>625.4</ele>
        <time>2010-03-07T10:44:17Z</time>
      </trkpt>
      <trkpt lat="43.96167" lon="3.57727">
        <ele>626</ele>
        <time>2010-03-07T10:44:22Z</time>
      </trkpt>
      <trkpt lat="43.96169" lon="3.5773">
        <ele>625.5</ele>
        <time>2010-03-07T10:44:27Z</time>
      </trkpt>
      <trkpt lat="43.96157" lon="3.5775">
        <ele>626</ele>
        <time>2010-03-07T10:44:37Z</time>
      </trkpt>
      <trkpt lat="43.96149" lon="3.57756">
        <ele>626.3</ele>
        <time>2010-03-07T10:44:42Z</time>
      </trkpt>
      <trkpt lat="43.96148" lon="3.57761">
        <ele>626.5</ele>
        <time>2010-03-07T10:44:47Z</time>
      </trkpt>
      <trkpt lat="43.96152" lon="3.57791">
        <ele>628.2</ele>
        <time>2010-03-07T10:45:02Z</time>
      </trkpt>
      <trkpt lat="43.96155" lon="3.57797">
        <ele>628.6</ele>
        <time>2010-03-07T10:45:07Z</time>
      </trkpt>
      <trkpt lat="43.96155" lon="3.5781">
        <ele>629.7</ele>
        <time>2010-03-07T10:45:17Z</time>
      </trkpt>
      <trkpt lat="43.96161" lon="3.57827">
        <ele>630.3</ele>
        <time>2010-03-07T10:45:27Z</time>
      </trkpt>
      <trkpt lat="43.96165" lon="3.57851">
        <ele>630.9</ele>
        <time>2010-03-07T10:45:42Z</time>
      </trkpt>
      <trkpt lat="43.96165" lon="3.57869">
        <ele>631.6</ele>
        <time>2010-03-07T10:45:52Z</time>
      </trkpt>
      <trkpt lat="43.96159" lon="3.57886">
        <ele>633.5</ele>
        <time>2010-03-07T10:46:07Z</time>
      </trkpt>
      <trkpt lat="43.9616" lon="3.57894">
        <ele>633.6</ele>
        <time>2010-03-07T10:46:12Z</time>
      </trkpt>
      <trkpt lat="43.96158" lon="3.57903">
        <ele>634.3</ele>
        <time>2010-03-07T10:46:17Z</time>
      </trkpt>
      <trkpt lat="43.96147" lon="3.57929">
        <ele>637.5</ele>
        <time>2010-03-07T10:46:42Z</time>
      </trkpt>
      <trkpt lat="43.96136" lon="3.57929">
        <ele>640.6</ele>
        <time>2010-03-07T10:46:52Z</time>
      </trkpt>
      <trkpt lat="43.96128" lon="3.57933">
        <ele>641.6</ele>
        <time>2010-03-07T10:47:02Z</time>
      </trkpt>
      <trkpt lat="43.96124" lon="3.57938">
        <ele>642.5</ele>
        <time>2010-03-07T10:47:07Z</time>
      </trkpt>
      <trkpt lat="43.96117" lon="3.57957">
        <ele>645.9</ele>
        <time>2010-03-07T10:47:17Z</time>
      </trkpt>
      <trkpt lat="43.96117" lon="3.57973">
        <ele>648.3</ele>
        <time>2010-03-07T10:47:32Z</time>
      </trkpt>
      <trkpt lat="43.96116" lon="3.57979">
        <ele>649.2</ele>
        <time>2010-03-07T10:47:37Z</time>
      </trkpt>
      <trkpt lat="43.96109" lon="3.57989">
        <ele>651.4</ele>
        <time>2010-03-07T10:47:47Z</time>
      </trkpt>
      <trkpt lat="43.96108" lon="3.57995">
        <ele>652.3</ele>
        <time>2010-03-07T10:47:52Z</time>
      </trkpt>
      <trkpt lat="43.96084" lon="3.58041">
        <ele>659.8</ele>
        <time>2010-03-07T10:48:37Z</time>
      </trkpt>
      <trkpt lat="43.96067" lon="3.58063">
        <ele>664</ele>
        <time>2010-03-07T10:49:02Z</time>
      </trkpt>
      <trkpt lat="43.96065" lon="3.58085">
        <ele>666.5</ele>
        <time>2010-03-07T10:49:22Z</time>
      </trkpt>
      <trkpt lat="43.96059" lon="3.58103">
        <ele>668.4</ele>
        <time>2010-03-07T10:49:37Z</time>
      </trkpt>
      <trkpt lat="43.9606" lon="3.58108">
        <ele>668.9</ele>
        <time>2010-03-07T10:49:42Z</time>
      </trkpt>
      <trkpt lat="43.96055" lon="3.58125">
        <ele>671</ele>
        <time>2010-03-07T10:49:57Z</time>
      </trkpt>
      <trkpt lat="43.96057" lon="3.58132">
        <ele>672</ele>
        <time>2010-03-07T10:50:07Z</time>
      </trkpt>
      <trkpt lat="43.96059" lon="3.58152">
        <ele>675.3</ele>
        <time>2010-03-07T10:50:22Z</time>
      </trkpt>
      <trkpt lat="43.96056" lon="3.58157">
        <ele>676.2</ele>
        <time>2010-03-07T10:50:32Z</time>
      </trkpt>
      <trkpt lat="43.96053" lon="3.58177">
        <ele>680</ele>
        <time>2010-03-07T10:50:57Z</time>
      </trkpt>
      <trkpt lat="43.96055" lon="3.58189">
        <ele>682.1</ele>
        <time>2010-03-07T10:51:07Z</time>
      </trkpt>
      <trkpt lat="43.96053" lon="3.58208">
        <ele>684.7</ele>
        <time>2010-03-07T10:51:22Z</time>
      </trkpt>
      <trkpt lat="43.96055" lon="3.58212">
        <ele>684.9</ele>
        <time>2010-03-07T10:51:27Z</time>
      </trkpt>
      <trkpt lat="43.96057" lon="3.58229">
        <ele>685.6</ele>
        <time>2010-03-07T10:51:42Z</time>
      </trkpt>
      <trkpt lat="43.96057" lon="3.58234">
        <ele>686.3</ele>
        <time>2010-03-07T10:51:47Z</time>
      </trkpt>
      <trkpt lat="43.9605" lon="3.58248">
        <ele>688.9</ele>
        <time>2010-03-07T10:52:02Z</time>
      </trkpt>
      <trkpt lat="43.96044" lon="3.58252">
        <ele>690.2</ele>
        <time>2010-03-07T10:52:12Z</time>
      </trkpt>
      <trkpt lat="43.96044" lon="3.5825">
        <ele>690.2</ele>
        <time>2010-03-07T10:52:17Z</time>
      </trkpt>
      <trkpt lat="43.96035" lon="3.58256">
        <ele>692.4</ele>
        <time>2010-03-07T10:52:37Z</time>
      </trkpt>
      <trkpt lat="43.96034" lon="3.58261">
        <ele>693.4</ele>
        <time>2010-03-07T10:52:47Z</time>
      </trkpt>
      <trkpt lat="43.96027" lon="3.58273">
        <ele>697.1</ele>
        <time>2010-03-07T10:53:02Z</time>
      </trkpt>
      <trkpt lat="43.96016" lon="3.58284">
        <ele>697.4</ele>
        <time>2010-03-07T10:53:17Z</time>
      </trkpt>
      <trkpt lat="43.96011" lon="3.58305">
        <ele>698.4</ele>
        <time>2010-03-07T10:53:47Z</time>
      </trkpt>
      <trkpt lat="43.96013" lon="3.58309">
        <ele>698.5</ele>
        <time>2010-03-07T10:53:57Z</time>
      </trkpt>
      <trkpt lat="43.96012" lon="3.5831">
        <ele>698.5</ele>
        <time>2010-03-07T10:54:02Z</time>
      </trkpt>
      <trkpt lat="43.9601" lon="3.58309">
        <ele>698.4</ele>
        <time>2010-03-07T10:54:07Z</time>
      </trkpt>
      <trkpt lat="43.9601" lon="3.58304">
        <ele>698.3</ele>
        <time>2010-03-07T10:54:17Z</time>
      </trkpt>
      <trkpt lat="43.96013" lon="3.58311">
        <ele>698.6</ele>
        <time>2010-03-07T10:54:37Z</time>
      </trkpt>
      <trkpt lat="43.96012" lon="3.58308">
        <ele>698.5</ele>
        <time>2010-03-07T10:54:47Z</time>
      </trkpt>
      <trkpt lat="43.96014" lon="3.58314">
        <ele>698.6</ele>
        <time>2010-03-07T10:55:02Z</time>
      </trkpt>
      <trkpt lat="43.96011" lon="3.58313">
        <ele>698.6</ele>
        <time>2010-03-07T10:55:12Z</time>
      </trkpt>
      <trkpt lat="43.96008" lon="3.58309">
        <ele>698.4</ele>
        <time>2010-03-07T10:55:17Z</time>
      </trkpt>
      <trkpt lat="43.96009" lon="3.58316">
        <ele>698.6</ele>
        <time>2010-03-07T10:55:27Z</time>
      </trkpt>
      <trkpt lat="43.96013" lon="3.58313">
        <ele>698.6</ele>
        <time>2010-03-07T10:56:02Z</time>
      </trkpt>
      <trkpt lat="43.96011" lon="3.58312">
        <ele>698.5</ele>
        <time>2010-03-07T10:56:07Z</time>
      </trkpt>
      <trkpt lat="43.96005" lon="3.58317">
        <ele>698.5</ele>
        <time>2010-03-07T10:56:17Z</time>
      </trkpt>
      <trkpt lat="43.96" lon="3.58327">
        <ele>698.8</ele>
        <time>2010-03-07T10:56:22Z</time>
      </trkpt>
      <trkpt lat="43.96" lon="3.58339">
        <ele>698.7</ele>
        <time>2010-03-07T10:56:27Z</time>
      </trkpt>
      <trkpt lat="43.96001" lon="3.5835">
        <ele>698.4</ele>
        <time>2010-03-07T10:56:32Z</time>
      </trkpt>
      <trkpt lat="43.96013" lon="3.58371">
        <ele>696.6</ele>
        <time>2010-03-07T10:56:42Z</time>
      </trkpt>
      <trkpt lat="43.96016" lon="3.58395">
        <ele>693.7</ele>
        <time>2010-03-07T10:56:52Z</time>
      </trkpt>
      <trkpt lat="43.96016" lon="3.58445">
        <ele>689.8</ele>
        <time>2010-03-07T10:57:07Z</time>
      </trkpt>
      <trkpt lat="43.96017" lon="3.58457">
        <ele>688.9</ele>
        <time>2010-03-07T10:57:12Z</time>
      </trkpt>
      <trkpt lat="43.96018" lon="3.5849">
        <ele>687.6</ele>
        <time>2010-03-07T10:57:22Z</time>
      </trkpt>
      <trkpt lat="43.96024" lon="3.58524">
        <ele>688.4</ele>
        <time>2010-03-07T10:57:42Z</time>
      </trkpt>
      <trkpt lat="43.96024" lon="3.58543">
        <ele>688.6</ele>
        <time>2010-03-07T10:57:52Z</time>
      </trkpt>
      <trkpt lat="43.96028" lon="3.58605">
        <ele>691.8</ele>
        <time>2010-03-07T10:58:27Z</time>
      </trkpt>
      <trkpt lat="43.96026" lon="3.58633">
        <ele>691.9</ele>
        <time>2010-03-07T10:58:42Z</time>
      </trkpt>
      <trkpt lat="43.96023" lon="3.58652">
        <ele>691.4</ele>
        <time>2010-03-07T10:58:52Z</time>
      </trkpt>
      <trkpt lat="43.96017" lon="3.5867">
        <ele>690.9</ele>
        <time>2010-03-07T10:59:02Z</time>
      </trkpt>
      <trkpt lat="43.96004" lon="3.58688">
        <ele>690.2</ele>
        <time>2010-03-07T10:59:12Z</time>
      </trkpt>
      <trkpt lat="43.95997" lon="3.58704">
        <ele>689.2</ele>
        <time>2010-03-07T10:59:17Z</time>
      </trkpt>
      <trkpt lat="43.95984" lon="3.58727">
        <ele>687.2</ele>
        <time>2010-03-07T10:59:27Z</time>
      </trkpt>
      <trkpt lat="43.95973" lon="3.58738">
        <ele>686.5</ele>
        <time>2010-03-07T10:59:32Z</time>
      </trkpt>
      <trkpt lat="43.9596" lon="3.58745">
        <ele>685.4</ele>
        <time>2010-03-07T10:59:37Z</time>
      </trkpt>
      <trkpt lat="43.95903" lon="3.58759">
        <ele>680.3</ele>
        <time>2010-03-07T11:00:02Z</time>
      </trkpt>
      <trkpt lat="43.9587" lon="3.58755">
        <ele>677.4</ele>
        <time>2010-03-07T11:00:17Z</time>
      </trkpt>
      <trkpt lat="43.95847" lon="3.58746">
        <ele>674.5</ele>
        <time>2010-03-07T11:00:27Z</time>
      </trkpt>
      <trkpt lat="43.95836" lon="3.58737">
        <ele>672.9</ele>
        <time>2010-03-07T11:00:32Z</time>
      </trkpt>
      <trkpt lat="43.95827" lon="3.58725">
        <ele>671.8</ele>
        <time>2010-03-07T11:00:37Z</time>
      </trkpt>
      <trkpt lat="43.95821" lon="3.58712">
        <ele>671</ele>
        <time>2010-03-07T11:00:42Z</time>
      </trkpt>
      <trkpt lat="43.95816" lon="3.58685">
        <ele>670.5</ele>
        <time>2010-03-07T11:00:52Z</time>
      </trkpt>
      <trkpt lat="43.95809" lon="3.5869">
        <ele>669.5</ele>
        <time>2010-03-07T11:00:57Z</time>
      </trkpt>
      <trkpt lat="43.95805" lon="3.587">
        <ele>668.7</ele>
        <time>2010-03-07T11:01:02Z</time>
      </trkpt>
      <trkpt lat="43.95805" lon="3.5871">
        <ele>668.4</ele>
        <time>2010-03-07T11:01:07Z</time>
      </trkpt>
      <trkpt lat="43.95797" lon="3.58731">
        <ele>666.4</ele>
        <time>2010-03-07T11:01:17Z</time>
      </trkpt>
      <trkpt lat="43.95792" lon="3.5876">
        <ele>662</ele>
        <time>2010-03-07T11:01:27Z</time>
      </trkpt>
      <trkpt lat="43.95793" lon="3.58769">
        <ele>660.5</ele>
        <time>2010-03-07T11:01:32Z</time>
      </trkpt>
      <trkpt lat="43.95807" lon="3.58798">
        <ele>658.3</ele>
        <time>2010-03-07T11:01:47Z</time>
      </trkpt>
      <trkpt lat="43.95824" lon="3.58822">
        <ele>656.3</ele>
        <time>2010-03-07T11:01:57Z</time>
      </trkpt>
      <trkpt lat="43.95839" lon="3.58837">
        <ele>655.1</ele>
        <time>2010-03-07T11:02:07Z</time>
      </trkpt>
      <trkpt lat="43.95851" lon="3.58859">
        <ele>651.2</ele>
        <time>2010-03-07T11:02:17Z</time>
      </trkpt>
      <trkpt lat="43.95862" lon="3.58868">
        <ele>650.5</ele>
        <time>2010-03-07T11:02:22Z</time>
      </trkpt>
      <trkpt lat="43.95883" lon="3.58892">
        <ele>647.7</ele>
        <time>2010-03-07T11:02:37Z</time>
      </trkpt>
      <trkpt lat="43.9589" lon="3.58907">
        <ele>646.5</ele>
        <time>2010-03-07T11:02:42Z</time>
      </trkpt>
      <trkpt lat="43.95908" lon="3.58927">
        <ele>647.2</ele>
        <time>2010-03-07T11:02:52Z</time>
      </trkpt>
      <trkpt lat="43.95912" lon="3.58937">
        <ele>647.4</ele>
        <time>2010-03-07T11:02:57Z</time>
      </trkpt>
      <trkpt lat="43.95909" lon="3.58951">
        <ele>647</ele>
        <time>2010-03-07T11:03:02Z</time>
      </trkpt>
      <trkpt lat="43.95891" lon="3.58968">
        <ele>645.8</ele>
        <time>2010-03-07T11:03:12Z</time>
      </trkpt>
      <trkpt lat="43.95882" lon="3.58966">
        <ele>644.6</ele>
        <time>2010-03-07T11:03:17Z</time>
      </trkpt>
      <trkpt lat="43.95872" lon="3.58958">
        <ele>642.3</ele>
        <time>2010-03-07T11:03:22Z</time>
      </trkpt>
      <trkpt lat="43.95863" lon="3.58946">
        <ele>639.4</ele>
        <time>2010-03-07T11:03:27Z</time>
      </trkpt>
      <trkpt lat="43.95821" lon="3.58919">
        <ele>633.8</ele>
        <time>2010-03-07T11:03:47Z</time>
      </trkpt>
      <trkpt lat="43.95818" lon="3.58921">
        <ele>633.4</ele>
        <time>2010-03-07T11:03:52Z</time>
      </trkpt>
      <trkpt lat="43.95809" lon="3.5892">
        <ele>631.9</ele>
        <time>2010-03-07T11:03:57Z</time>
      </trkpt>
      <trkpt lat="43.95792" lon="3.58923">
        <ele>629.7</ele>
        <time>2010-03-07T11:04:07Z</time>
      </trkpt>
      <trkpt lat="43.95779" lon="3.58945">
        <ele>630.1</ele>
        <time>2010-03-07T11:04:22Z</time>
      </trkpt>
      <trkpt lat="43.95773" lon="3.58949">
        <ele>629.2</ele>
        <time>2010-03-07T11:04:27Z</time>
      </trkpt>
      <trkpt lat="43.95763" lon="3.58977">
        <ele>629</ele>
        <time>2010-03-07T11:04:47Z</time>
      </trkpt>
      <trkpt lat="43.95757" lon="3.59003">
        <ele>628.6</ele>
        <time>2010-03-07T11:05:02Z</time>
      </trkpt>
      <trkpt lat="43.95757" lon="3.59028">
        <ele>629.3</ele>
        <time>2010-03-07T11:05:22Z</time>
      </trkpt>
      <trkpt lat="43.95753" lon="3.59043">
        <ele>628.2</ele>
        <time>2010-03-07T11:05:27Z</time>
      </trkpt>
      <trkpt lat="43.95743" lon="3.59154">
        <ele>621.7</ele>
        <time>2010-03-07T11:06:07Z</time>
      </trkpt>
      <trkpt lat="43.95744" lon="3.59167">
        <ele>620.9</ele>
        <time>2010-03-07T11:06:12Z</time>
      </trkpt>
      <trkpt lat="43.95754" lon="3.59195">
        <ele>618.9</ele>
        <time>2010-03-07T11:06:22Z</time>
      </trkpt>
      <trkpt lat="43.9576" lon="3.59216">
        <ele>614.5</ele>
        <time>2010-03-07T11:06:32Z</time>
      </trkpt>
      <trkpt lat="43.95767" lon="3.5923">
        <ele>610.4</ele>
        <time>2010-03-07T11:06:37Z</time>
      </trkpt>
      <trkpt lat="43.95772" lon="3.59228">
        <ele>612.3</ele>
        <time>2010-03-07T11:06:42Z</time>
      </trkpt>
      <trkpt lat="43.95781" lon="3.5924">
        <ele>607.6</ele>
        <time>2010-03-07T11:06:52Z</time>
      </trkpt>
      <trkpt lat="43.95786" lon="3.59255">
        <ele>599.1</ele>
        <time>2010-03-07T11:07:02Z</time>
      </trkpt>
      <trkpt lat="43.95792" lon="3.59248">
        <ele>604.4</ele>
        <time>2010-03-07T11:07:07Z</time>
      </trkpt>
      <trkpt lat="43.95803" lon="3.59249">
        <ele>604.4</ele>
        <time>2010-03-07T11:07:17Z</time>
      </trkpt>
      <trkpt lat="43.95811" lon="3.59253">
        <ele>601</ele>
        <time>2010-03-07T11:07:27Z</time>
      </trkpt>
      <trkpt lat="43.95829" lon="3.59252">
        <ele>600.5</ele>
        <time>2010-03-07T11:07:42Z</time>
      </trkpt>
      <trkpt lat="43.95837" lon="3.59246">
        <ele>603.6</ele>
        <time>2010-03-07T11:07:52Z</time>
      </trkpt>
      <trkpt lat="43.95847" lon="3.59268">
        <ele>587.9</ele>
        <time>2010-03-07T11:08:12Z</time>
      </trkpt>
      <trkpt lat="43.95847" lon="3.59267">
        <ele>588.9</ele>
        <time>2010-03-07T11:08:17Z</time>
      </trkpt>
      <trkpt lat="43.95856" lon="3.59265">
        <ele>589.9</ele>
        <time>2010-03-07T11:08:32Z</time>
      </trkpt>
      <trkpt lat="43.9587" lon="3.59274">
        <ele>585.6</ele>
        <time>2010-03-07T11:08:47Z</time>
      </trkpt>
      <trkpt lat="43.95874" lon="3.59279">
        <ele>583.4</ele>
        <time>2010-03-07T11:08:52Z</time>
      </trkpt>
      <trkpt lat="43.95879" lon="3.59282">
        <ele>583</ele>
        <time>2010-03-07T11:08:57Z</time>
      </trkpt>
      <trkpt lat="43.95882" lon="3.59293">
        <ele>577.3</ele>
        <time>2010-03-07T11:09:02Z</time>
      </trkpt>
      <trkpt lat="43.95889" lon="3.59302">
        <ele>573.1</ele>
        <time>2010-03-07T11:09:12Z</time>
      </trkpt>
      <trkpt lat="43.95896" lon="3.59308">
        <ele>569.6</ele>
        <time>2010-03-07T11:09:17Z</time>
      </trkpt>
      <trkpt lat="43.95896" lon="3.59314">
        <ele>565.8</ele>
        <time>2010-03-07T11:09:22Z</time>
      </trkpt>
      <trkpt lat="43.95901" lon="3.59315">
        <ele>565.4</ele>
        <time>2010-03-07T11:09:27Z</time>
      </trkpt>
      <trkpt lat="43.95905" lon="3.59319">
        <ele>562.6</ele>
        <time>2010-03-07T11:09:32Z</time>
      </trkpt>
      <trkpt lat="43.9591" lon="3.59318">
        <ele>563</ele>
        <time>2010-03-07T11:09:37Z</time>
      </trkpt>
      <trkpt lat="43.95922" lon="3.59321">
        <ele>561.5</ele>
        <time>2010-03-07T11:09:47Z</time>
      </trkpt>
      <trkpt lat="43.95931" lon="3.59334">
        <ele>554.8</ele>
        <time>2010-03-07T11:09:57Z</time>
      </trkpt>
      <trkpt lat="43.95938" lon="3.59341">
        <ele>551.7</ele>
        <time>2010-03-07T11:10:02Z</time>
      </trkpt>
      <trkpt lat="43.95954" lon="3.59363">
        <ele>543.4</ele>
        <time>2010-03-07T11:10:17Z</time>
      </trkpt>
      <trkpt lat="43.95974" lon="3.59374">
        <ele>541.8</ele>
        <time>2010-03-07T11:10:27Z</time>
      </trkpt>
      <trkpt lat="43.95976" lon="3.59378">
        <ele>540.4</ele>
        <time>2010-03-07T11:10:32Z</time>
      </trkpt>
      <trkpt lat="43.95989" lon="3.59385">
        <ele>538.9</ele>
        <time>2010-03-07T11:10:42Z</time>
      </trkpt>
      <trkpt lat="43.96021" lon="3.59397">
        <ele>537.9</ele>
        <time>2010-03-07T11:11:02Z</time>
      </trkpt>
      <trkpt lat="43.96029" lon="3.5941">
        <ele>533.5</ele>
        <time>2010-03-07T11:11:12Z</time>
      </trkpt>
      <trkpt lat="43.9604" lon="3.59421">
        <ele>531.6</ele>
        <time>2010-03-07T11:11:22Z</time>
      </trkpt>
      <trkpt lat="43.96045" lon="3.59421">
        <ele>533.2</ele>
        <time>2010-03-07T11:11:27Z</time>
      </trkpt>
      <trkpt lat="43.96055" lon="3.5943">
        <ele>531.6</ele>
        <time>2010-03-07T11:11:37Z</time>
      </trkpt>
      <trkpt lat="43.96076" lon="3.59458">
        <ele>525.6</ele>
        <time>2010-03-07T11:11:57Z</time>
      </trkpt>
      <trkpt lat="43.96105" lon="3.59473">
        <ele>524.4</ele>
        <time>2010-03-07T11:12:17Z</time>
      </trkpt>
      <trkpt lat="43.96116" lon="3.59489">
        <ele>518.2</ele>
        <time>2010-03-07T11:12:27Z</time>
      </trkpt>
      <trkpt lat="43.96133" lon="3.59489">
        <ele>518</ele>
        <time>2010-03-07T11:12:37Z</time>
      </trkpt>
      <trkpt lat="43.96136" lon="3.59492">
        <ele>516.5</ele>
        <time>2010-03-07T11:12:42Z</time>
      </trkpt>
      <trkpt lat="43.96142" lon="3.59491">
        <ele>516.3</ele>
        <time>2010-03-07T11:12:47Z</time>
      </trkpt>
      <trkpt lat="43.9615" lon="3.59501">
        <ele>510.4</ele>
        <time>2010-03-07T11:12:57Z</time>
      </trkpt>
      <trkpt lat="43.96157" lon="3.59501">
        <ele>509.6</ele>
        <time>2010-03-07T11:13:02Z</time>
      </trkpt>
      <trkpt lat="43.96163" lon="3.59505">
        <ele>507.5</ele>
        <time>2010-03-07T11:13:07Z</time>
      </trkpt>
      <trkpt lat="43.96171" lon="3.5952">
        <ele>501.6</ele>
        <time>2010-03-07T11:13:17Z</time>
      </trkpt>
      <trkpt lat="43.9618" lon="3.59521">
        <ele>500.1</ele>
        <time>2010-03-07T11:13:22Z</time>
      </trkpt>
      <trkpt lat="43.96186" lon="3.59528">
        <ele>496.8</ele>
        <time>2010-03-07T11:13:27Z</time>
      </trkpt>
      <trkpt lat="43.96201" lon="3.59538">
        <ele>492.3</ele>
        <time>2010-03-07T11:13:37Z</time>
      </trkpt>
      <trkpt lat="43.96207" lon="3.59548">
        <ele>489</ele>
        <time>2010-03-07T11:13:42Z</time>
      </trkpt>
      <trkpt lat="43.96216" lon="3.59553">
        <ele>487</ele>
        <time>2010-03-07T11:13:47Z</time>
      </trkpt>
      <trkpt lat="43.96237" lon="3.59578">
        <ele>481.1</ele>
        <time>2010-03-07T11:13:57Z</time>
      </trkpt>
      <trkpt lat="43.96254" lon="3.59586">
        <ele>480.8</ele>
        <time>2010-03-07T11:14:12Z</time>
      </trkpt>
      <trkpt lat="43.96266" lon="3.59608">
        <ele>472.2</ele>
        <time>2010-03-07T11:14:32Z</time>
      </trkpt>
      <trkpt lat="43.96273" lon="3.59612">
        <ele>470.8</ele>
        <time>2010-03-07T11:14:37Z</time>
      </trkpt>
      <trkpt lat="43.9629" lon="3.59611">
        <ele>469.4</ele>
        <time>2010-03-07T11:14:52Z</time>
      </trkpt>
      <trkpt lat="43.96298" lon="3.59616">
        <ele>466.9</ele>
        <time>2010-03-07T11:15:07Z</time>
      </trkpt>
      <trkpt lat="43.96303" lon="3.59614">
        <ele>466.7</ele>
        <time>2010-03-07T11:15:17Z</time>
      </trkpt>
      <trkpt lat="43.96311" lon="3.59616">
        <ele>464.9</ele>
        <time>2010-03-07T11:15:32Z</time>
      </trkpt>
      <trkpt lat="43.96318" lon="3.59613">
        <ele>464.1</ele>
        <time>2010-03-07T11:15:37Z</time>
      </trkpt>
      <trkpt lat="43.96331" lon="3.59602">
        <ele>463.3</ele>
        <time>2010-03-07T11:15:52Z</time>
      </trkpt>
      <trkpt lat="43.9634" lon="3.59598">
        <ele>461.5</ele>
        <time>2010-03-07T11:16:02Z</time>
      </trkpt>
      <trkpt lat="43.96346" lon="3.59587">
        <ele>460.7</ele>
        <time>2010-03-07T11:16:12Z</time>
      </trkpt>
      <trkpt lat="43.96351" lon="3.59584">
        <ele>459</ele>
        <time>2010-03-07T11:16:17Z</time>
      </trkpt>
      <trkpt lat="43.96359" lon="3.59569">
        <ele>457.5</ele>
        <time>2010-03-07T11:16:27Z</time>
      </trkpt>
      <trkpt lat="43.96359" lon="3.59558">
        <ele>458.7</ele>
        <time>2010-03-07T11:16:32Z</time>
      </trkpt>
      <trkpt lat="43.96362" lon="3.59551">
        <ele>458</ele>
        <time>2010-03-07T11:16:37Z</time>
      </trkpt>
      <trkpt lat="43.96363" lon="3.59536">
        <ele>458.7</ele>
        <time>2010-03-07T11:16:47Z</time>
      </trkpt>
      <trkpt lat="43.96366" lon="3.59529">
        <ele>458.3</ele>
        <time>2010-03-07T11:16:52Z</time>
      </trkpt>
      <trkpt lat="43.96363" lon="3.59498">
        <ele>463.4</ele>
        <time>2010-03-07T11:17:12Z</time>
      </trkpt>
      <trkpt lat="43.96368" lon="3.59474">
        <ele>465.1</ele>
        <time>2010-03-07T11:17:27Z</time>
      </trkpt>
      <trkpt lat="43.96403" lon="3.59421">
        <ele>457.4</ele>
        <time>2010-03-07T11:18:07Z</time>
      </trkpt>
      <trkpt lat="43.96404" lon="3.59412">
        <ele>458.2</ele>
        <time>2010-03-07T11:18:12Z</time>
      </trkpt>
      <trkpt lat="43.96407" lon="3.59405">
        <ele>457.8</ele>
        <time>2010-03-07T11:18:17Z</time>
      </trkpt>
      <trkpt lat="43.96422" lon="3.59389">
        <ele>453.7</ele>
        <time>2010-03-07T11:18:32Z</time>
      </trkpt>
      <trkpt lat="43.96429" lon="3.59386">
        <ele>452.2</ele>
        <time>2010-03-07T11:18:37Z</time>
      </trkpt>
      <trkpt lat="43.96436" lon="3.59376">
        <ele>451.1</ele>
        <time>2010-03-07T11:18:47Z</time>
      </trkpt>
      <trkpt lat="43.96443" lon="3.59373">
        <ele>449.1</ele>
        <time>2010-03-07T11:18:52Z</time>
      </trkpt>
      <trkpt lat="43.96449" lon="3.59361">
        <ele>448.3</ele>
        <time>2010-03-07T11:19:02Z</time>
      </trkpt>
      <trkpt lat="43.96448" lon="3.59354">
        <ele>449.3</ele>
        <time>2010-03-07T11:19:07Z</time>
      </trkpt>
      <trkpt lat="43.96449" lon="3.59346">
        <ele>450.1</ele>
        <time>2010-03-07T11:19:12Z</time>
      </trkpt>
      <trkpt lat="43.96458" lon="3.59333">
        <ele>449.2</ele>
        <time>2010-03-07T11:19:22Z</time>
      </trkpt>
      <trkpt lat="43.96463" lon="3.5933">
        <ele>448</ele>
        <time>2010-03-07T11:19:27Z</time>
      </trkpt>
      <trkpt lat="43.96477" lon="3.59328">
        <ele>443.9</ele>
        <time>2010-03-07T11:19:37Z</time>
      </trkpt>
      <trkpt lat="43.96482" lon="3.59332">
        <ele>442.3</ele>
        <time>2010-03-07T11:19:42Z</time>
      </trkpt>
      <trkpt lat="43.9649" lon="3.59347">
        <ele>439.7</ele>
        <time>2010-03-07T11:19:57Z</time>
      </trkpt>
      <trkpt lat="43.96504" lon="3.59336">
        <ele>436.1</ele>
        <time>2010-03-07T11:20:12Z</time>
      </trkpt>
      <trkpt lat="43.96517" lon="3.59334">
        <ele>433.5</ele>
        <time>2010-03-07T11:20:22Z</time>
      </trkpt>
      <trkpt lat="43.96529" lon="3.59316">
        <ele>430.9</ele>
        <time>2010-03-07T11:20:37Z</time>
      </trkpt>
      <trkpt lat="43.96531" lon="3.59294">
        <ele>430.7</ele>
        <time>2010-03-07T11:20:52Z</time>
      </trkpt>
      <trkpt lat="43.96536" lon="3.59285">
        <ele>429.8</ele>
        <time>2010-03-07T11:20:57Z</time>
      </trkpt>
      <trkpt lat="43.96541" lon="3.59284">
        <ele>428.9</ele>
        <time>2010-03-07T11:21:02Z</time>
      </trkpt>
      <trkpt lat="43.96546" lon="3.59272">
        <ele>427.6</ele>
        <time>2010-03-07T11:21:12Z</time>
      </trkpt>
      <trkpt lat="43.96548" lon="3.59256">
        <ele>426.5</ele>
        <time>2010-03-07T11:21:22Z</time>
      </trkpt>
      <trkpt lat="43.96553" lon="3.59246">
        <ele>424.5</ele>
        <time>2010-03-07T11:21:27Z</time>
      </trkpt>
      <trkpt lat="43.96571" lon="3.59239">
        <ele>419.1</ele>
        <time>2010-03-07T11:21:42Z</time>
      </trkpt>
      <trkpt lat="43.96588" lon="3.59236">
        <ele>413.9</ele>
        <time>2010-03-07T11:21:52Z</time>
      </trkpt>
      <trkpt lat="43.96591" lon="3.59229">
        <ele>411.9</ele>
        <time>2010-03-07T11:21:57Z</time>
      </trkpt>
      <trkpt lat="43.96588" lon="3.59221">
        <ele>411.6</ele>
        <time>2010-03-07T11:22:02Z</time>
      </trkpt>
      <trkpt lat="43.96584" lon="3.59198">
        <ele>409.3</ele>
        <time>2010-03-07T11:22:17Z</time>
      </trkpt>
      <trkpt lat="43.96581" lon="3.5919">
        <ele>409</ele>
        <time>2010-03-07T11:22:22Z</time>
      </trkpt>
      <trkpt lat="43.96586" lon="3.59155">
        <ele>402.5</ele>
        <time>2010-03-07T11:22:42Z</time>
      </trkpt>
      <trkpt lat="43.96605" lon="3.59119">
        <ele>395.8</ele>
        <time>2010-03-07T11:23:07Z</time>
      </trkpt>
      <trkpt lat="43.96617" lon="3.59099">
        <ele>392.4</ele>
        <time>2010-03-07T11:23:22Z</time>
      </trkpt>
      <trkpt lat="43.96625" lon="3.59094">
        <ele>391.1</ele>
        <time>2010-03-07T11:23:32Z</time>
      </trkpt>
      <trkpt lat="43.9662" lon="3.59088">
        <ele>391.3</ele>
        <time>2010-03-07T11:23:37Z</time>
      </trkpt>
      <trkpt lat="43.96612" lon="3.59086">
        <ele>392.1</ele>
        <time>2010-03-07T11:23:42Z</time>
      </trkpt>
      <trkpt lat="43.96607" lon="3.5908">
        <ele>392.5</ele>
        <time>2010-03-07T11:23:47Z</time>
      </trkpt>
      <trkpt lat="43.96602" lon="3.59068">
        <ele>392.7</ele>
        <time>2010-03-07T11:23:57Z</time>
      </trkpt>
      <trkpt lat="43.96619" lon="3.59033">
        <ele>389.2</ele>
        <time>2010-03-07T11:24:12Z</time>
      </trkpt>
      <trkpt lat="43.96621" lon="3.59005">
        <ele>388.4</ele>
        <time>2010-03-07T11:24:22Z</time>
      </trkpt>
      <trkpt lat="43.96617" lon="3.58992">
        <ele>388.6</ele>
        <time>2010-03-07T11:24:27Z</time>
      </trkpt>
      <trkpt lat="43.96604" lon="3.58983">
        <ele>390.9</ele>
        <time>2010-03-07T11:24:37Z</time>
      </trkpt>
      <trkpt lat="43.96595" lon="3.58942">
        <ele>390.7</ele>
        <time>2010-03-07T11:25:02Z</time>
      </trkpt>
      <trkpt lat="43.96589" lon="3.58929">
        <ele>390</ele>
        <time>2010-03-07T11:25:12Z</time>
      </trkpt>
      <trkpt lat="43.96588" lon="3.58922">
        <ele>389.3</ele>
        <time>2010-03-07T11:25:17Z</time>
      </trkpt>
      <trkpt lat="43.96584" lon="3.58915">
        <ele>388.9</ele>
        <time>2010-03-07T11:25:22Z</time>
      </trkpt>
      <trkpt lat="43.96583" lon="3.58903">
        <ele>388.7</ele>
        <time>2010-03-07T11:25:27Z</time>
      </trkpt>
      <trkpt lat="43.96587" lon="3.58876">
        <ele>388</ele>
        <time>2010-03-07T11:25:42Z</time>
      </trkpt>
      <trkpt lat="43.9659" lon="3.58869">
        <ele>388</ele>
        <time>2010-03-07T11:25:47Z</time>
      </trkpt>
      <trkpt lat="43.96591" lon="3.58859">
        <ele>387.9</ele>
        <time>2010-03-07T11:25:52Z</time>
      </trkpt>
      <trkpt lat="43.96589" lon="3.58852">
        <ele>387.7</ele>
        <time>2010-03-07T11:25:57Z</time>
      </trkpt>
      <trkpt lat="43.96581" lon="3.5884">
        <ele>387.5</ele>
        <time>2010-03-07T11:26:07Z</time>
      </trkpt>
      <trkpt lat="43.96582" lon="3.58831">
        <ele>387</ele>
        <time>2010-03-07T11:26:12Z</time>
      </trkpt>
      <trkpt lat="43.96598" lon="3.58805">
        <ele>385.4</ele>
        <time>2010-03-07T11:26:27Z</time>
      </trkpt>
      <trkpt lat="43.96599" lon="3.58798">
        <ele>385</ele>
        <time>2010-03-07T11:26:32Z</time>
      </trkpt>
      <trkpt lat="43.96598" lon="3.58789">
        <ele>384.6</ele>
        <time>2010-03-07T11:26:37Z</time>
      </trkpt>
      <trkpt lat="43.96601" lon="3.58771">
        <ele>383.2</ele>
        <time>2010-03-07T11:26:47Z</time>
      </trkpt>
      <trkpt lat="43.96609" lon="3.5875">
        <ele>381</ele>
        <time>2010-03-07T11:27:02Z</time>
      </trkpt>
      <trkpt lat="43.96612" lon="3.58745">
        <ele>379.8</ele>
        <time>2010-03-07T11:27:07Z</time>
      </trkpt>
      <trkpt lat="43.96619" lon="3.58742">
        <ele>377.3</ele>
        <time>2010-03-07T11:27:12Z</time>
      </trkpt>
      <trkpt lat="43.96624" lon="3.58747">
        <ele>376.4</ele>
        <time>2010-03-07T11:27:17Z</time>
      </trkpt>
      <trkpt lat="43.96626" lon="3.58746">
        <ele>375.8</ele>
        <time>2010-03-07T11:27:22Z</time>
      </trkpt>
      <trkpt lat="43.96623" lon="3.5875">
        <ele>377.1</ele>
        <time>2010-03-07T11:27:32Z</time>
      </trkpt>
      <trkpt lat="43.96623" lon="3.58758">
        <ele>378.1</ele>
        <time>2010-03-07T11:27:37Z</time>
      </trkpt>
      <trkpt lat="43.96641" lon="3.58769">
        <ele>373.5</ele>
        <time>2010-03-07T11:27:47Z</time>
      </trkpt>
      <trkpt lat="43.96658" lon="3.588">
        <ele>372.7</ele>
        <time>2010-03-07T11:28:07Z</time>
      </trkpt>
      <trkpt lat="43.9667" lon="3.5883">
        <ele>371.7</ele>
        <time>2010-03-07T11:28:22Z</time>
      </trkpt>
      <trkpt lat="43.96675" lon="3.58856">
        <ele>370.2</ele>
        <time>2010-03-07T11:28:32Z</time>
      </trkpt>
      <trkpt lat="43.9667" lon="3.58881">
        <ele>371.6</ele>
        <time>2010-03-07T11:28:47Z</time>
      </trkpt>
      <trkpt lat="43.96676" lon="3.58908">
        <ele>367.4</ele>
        <time>2010-03-07T11:29:02Z</time>
      </trkpt>
      <trkpt lat="43.96683" lon="3.58926">
        <ele>362.3</ele>
        <time>2010-03-07T11:29:12Z</time>
      </trkpt>
      <trkpt lat="43.96685" lon="3.58937">
        <ele>361.4</ele>
        <time>2010-03-07T11:29:17Z</time>
      </trkpt>
      <trkpt lat="43.96691" lon="3.58943">
        <ele>357.4</ele>
        <time>2010-03-07T11:29:22Z</time>
      </trkpt>
      <trkpt lat="43.96696" lon="3.58957">
        <ele>354.8</ele>
        <time>2010-03-07T11:29:32Z</time>
      </trkpt>
      <trkpt lat="43.967" lon="3.58961">
        <ele>353</ele>
        <time>2010-03-07T11:29:37Z</time>
      </trkpt>
      <trkpt lat="43.967" lon="3.58968">
        <ele>353.3</ele>
        <time>2010-03-07T11:29:42Z</time>
      </trkpt>
      <trkpt lat="43.96703" lon="3.58974">
        <ele>351.6</ele>
        <time>2010-03-07T11:29:52Z</time>
      </trkpt>
      <trkpt lat="43.96698" lon="3.58977">
        <ele>354.8</ele>
        <time>2010-03-07T11:29:57Z</time>
      </trkpt>
      <trkpt lat="43.96693" lon="3.58974">
        <ele>357.8</ele>
        <time>2010-03-07T11:30:07Z</time>
      </trkpt>
      <trkpt lat="43.96709" lon="3.58997">
        <ele>348.7</ele>
        <time>2010-03-07T11:30:27Z</time>
      </trkpt>
      <trkpt lat="43.96714" lon="3.59009">
        <ele>345.9</ele>
        <time>2010-03-07T11:30:37Z</time>
      </trkpt>
      <trkpt lat="43.96718" lon="3.59026">
        <ele>344.7</ele>
        <time>2010-03-07T11:30:57Z</time>
      </trkpt>
      <trkpt lat="43.96718" lon="3.59044">
        <ele>344.6</ele>
        <time>2010-03-07T11:31:12Z</time>
      </trkpt>
      <trkpt lat="43.96721" lon="3.59056">
        <ele>343</ele>
        <time>2010-03-07T11:31:22Z</time>
      </trkpt>
      <trkpt lat="43.96733" lon="3.59075">
        <ele>338.4</ele>
        <time>2010-03-07T11:31:42Z</time>
      </trkpt>
      <trkpt lat="43.96735" lon="3.59083">
        <ele>338</ele>
        <time>2010-03-07T11:31:52Z</time>
      </trkpt>
      <trkpt lat="43.96742" lon="3.59094">
        <ele>335.3</ele>
        <time>2010-03-07T11:32:02Z</time>
      </trkpt>
      <trkpt lat="43.96748" lon="3.59125">
        <ele>332.2</ele>
        <time>2010-03-07T11:32:22Z</time>
      </trkpt>
      <trkpt lat="43.96753" lon="3.59125">
        <ele>330.9</ele>
        <time>2010-03-07T11:32:27Z</time>
      </trkpt>
      <trkpt lat="43.96759" lon="3.59111">
        <ele>329.3</ele>
        <time>2010-03-07T11:32:37Z</time>
      </trkpt>
      <trkpt lat="43.96757" lon="3.5909">
        <ele>329.3</ele>
        <time>2010-03-07T11:32:52Z</time>
      </trkpt>
      <trkpt lat="43.9676" lon="3.5908">
        <ele>327.6</ele>
        <time>2010-03-07T11:32:57Z</time>
      </trkpt>
      <trkpt lat="43.96753" lon="3.59031">
        <ele>325.6</ele>
        <time>2010-03-07T11:33:27Z</time>
      </trkpt>
      <trkpt lat="43.96753" lon="3.58998">
        <ele>324.2</ele>
        <time>2010-03-07T11:33:42Z</time>
      </trkpt>
      <trkpt lat="43.96745" lon="3.58953">
        <ele>326.7</ele>
        <time>2010-03-07T11:34:02Z</time>
      </trkpt>
      <trkpt lat="43.96745" lon="3.58942">
        <ele>326.4</ele>
        <time>2010-03-07T11:34:07Z</time>
      </trkpt>
      <trkpt lat="43.96759" lon="3.589">
        <ele>322</ele>
        <time>2010-03-07T11:34:37Z</time>
      </trkpt>
      <trkpt lat="43.96754" lon="3.58861">
        <ele>322</ele>
        <time>2010-03-07T11:34:57Z</time>
      </trkpt>
      <trkpt lat="43.96759" lon="3.58834">
        <ele>320.6</ele>
        <time>2010-03-07T11:35:12Z</time>
      </trkpt>
      <trkpt lat="43.96758" lon="3.58827">
        <ele>321.2</ele>
        <time>2010-03-07T11:35:17Z</time>
      </trkpt>
      <trkpt lat="43.96758" lon="3.58819">
        <ele>321</ele>
        <time>2010-03-07T11:35:22Z</time>
      </trkpt>
      <trkpt lat="43.96762" lon="3.58801">
        <ele>318.9</ele>
        <time>2010-03-07T11:35:32Z</time>
      </trkpt>
      <trkpt lat="43.96761" lon="3.58791">
        <ele>319</ele>
        <time>2010-03-07T11:35:37Z</time>
      </trkpt>
      <trkpt lat="43.96764" lon="3.58781">
        <ele>317.3</ele>
        <time>2010-03-07T11:35:42Z</time>
      </trkpt>
      <trkpt lat="43.96768" lon="3.58778">
        <ele>315.7</ele>
        <time>2010-03-07T11:35:47Z</time>
      </trkpt>
      <trkpt lat="43.96769" lon="3.58782">
        <ele>315.2</ele>
        <time>2010-03-07T11:35:52Z</time>
      </trkpt>
      <trkpt lat="43.96768" lon="3.58797">
        <ele>316.1</ele>
        <time>2010-03-07T11:36:02Z</time>
      </trkpt>
      <trkpt lat="43.9678" lon="3.58819">
        <ele>312.5</ele>
        <time>2010-03-07T11:36:17Z</time>
      </trkpt>
      <trkpt lat="43.96785" lon="3.58823">
        <ele>311.8</ele>
        <time>2010-03-07T11:36:22Z</time>
      </trkpt>
      <trkpt lat="43.96792" lon="3.58822">
        <ele>310.4</ele>
        <time>2010-03-07T11:36:27Z</time>
      </trkpt>
      <trkpt lat="43.96797" lon="3.58825">
        <ele>309.5</ele>
        <time>2010-03-07T11:36:32Z</time>
      </trkpt>
      <trkpt lat="43.968" lon="3.5884">
        <ele>309.9</ele>
        <time>2010-03-07T11:36:42Z</time>
      </trkpt>
      <trkpt lat="43.96815" lon="3.58867">
        <ele>310.5</ele>
        <time>2010-03-07T11:36:57Z</time>
      </trkpt>
      <trkpt lat="43.96824" lon="3.58878">
        <ele>310.4</ele>
        <time>2010-03-07T11:37:02Z</time>
      </trkpt>
      <trkpt lat="43.96828" lon="3.58889">
        <ele>310.8</ele>
        <time>2010-03-07T11:37:07Z</time>
      </trkpt>
      <trkpt lat="43.96828" lon="3.58899">
        <ele>310.2</ele>
        <time>2010-03-07T11:37:12Z</time>
      </trkpt>
      <trkpt lat="43.96827" lon="3.5891">
        <ele>310</ele>
        <time>2010-03-07T11:37:17Z</time>
      </trkpt>
      <trkpt lat="43.96828" lon="3.58963">
        <ele>309.3</ele>
        <time>2010-03-07T11:37:37Z</time>
      </trkpt>
      <trkpt lat="43.96831" lon="3.58981">
        <ele>308.8</ele>
        <time>2010-03-07T11:37:47Z</time>
      </trkpt>
      <trkpt lat="43.96847" lon="3.58992">
        <ele>303.9</ele>
        <time>2010-03-07T11:38:02Z</time>
      </trkpt>
      <trkpt lat="43.96854" lon="3.59023">
        <ele>302.6</ele>
        <time>2010-03-07T11:38:22Z</time>
      </trkpt>
      <trkpt lat="43.9686" lon="3.59036">
        <ele>301</ele>
        <time>2010-03-07T11:38:32Z</time>
      </trkpt>
      <trkpt lat="43.96867" lon="3.59039">
        <ele>299.2</ele>
        <time>2010-03-07T11:38:37Z</time>
      </trkpt>
      <trkpt lat="43.96875" lon="3.59033">
        <ele>296.6</ele>
        <time>2010-03-07T11:38:47Z</time>
      </trkpt>
      <trkpt lat="43.96879" lon="3.59035">
        <ele>295.6</ele>
        <time>2010-03-07T11:38:52Z</time>
      </trkpt>
      <trkpt lat="43.96884" lon="3.59048">
        <ele>293.8</ele>
        <time>2010-03-07T11:39:02Z</time>
      </trkpt>
      <trkpt lat="43.96885" lon="3.59057">
        <ele>293.5</ele>
        <time>2010-03-07T11:39:07Z</time>
      </trkpt>
      <trkpt lat="43.96892" lon="3.59065">
        <ele>291.4</ele>
        <time>2010-03-07T11:39:12Z</time>
      </trkpt>
      <trkpt lat="43.96905" lon="3.59097">
        <ele>288.1</ele>
        <time>2010-03-07T11:39:37Z</time>
      </trkpt>
      <trkpt lat="43.96919" lon="3.59107">
        <ele>283.1</ele>
        <time>2010-03-07T11:39:47Z</time>
      </trkpt>
      <trkpt lat="43.96921" lon="3.59112">
        <ele>282.4</ele>
        <time>2010-03-07T11:39:52Z</time>
      </trkpt>
      <trkpt lat="43.96921" lon="3.59132">
        <ele>283</ele>
        <time>2010-03-07T11:40:02Z</time>
      </trkpt>
      <trkpt lat="43.96918" lon="3.5915">
        <ele>284.5</ele>
        <time>2010-03-07T11:40:12Z</time>
      </trkpt>
      <trkpt lat="43.96918" lon="3.59164">
        <ele>284.4</ele>
        <time>2010-03-07T11:40:22Z</time>
      </trkpt>
      <trkpt lat="43.96921" lon="3.59173">
        <ele>283.4</ele>
        <time>2010-03-07T11:40:27Z</time>
      </trkpt>
      <trkpt lat="43.96929" lon="3.59236">
        <ele>281.9</ele>
        <time>2010-03-07T11:40:52Z</time>
      </trkpt>
      <trkpt lat="43.96933" lon="3.59252">
        <ele>280.7</ele>
        <time>2010-03-07T11:40:57Z</time>
      </trkpt>
      <trkpt lat="43.96941" lon="3.59305">
        <ele>278.6</ele>
        <time>2010-03-07T11:41:17Z</time>
      </trkpt>
      <trkpt lat="43.96935" lon="3.59332">
        <ele>279.1</ele>
        <time>2010-03-07T11:41:32Z</time>
      </trkpt>
      <trkpt lat="43.96936" lon="3.5934">
        <ele>278.4</ele>
        <time>2010-03-07T11:41:37Z</time>
      </trkpt>
      <trkpt lat="43.96943" lon="3.59346">
        <ele>274.6</ele>
        <time>2010-03-07T11:41:42Z</time>
      </trkpt>
      <trkpt lat="43.96957" lon="3.59378">
        <ele>267.1</ele>
        <time>2010-03-07T11:42:12Z</time>
      </trkpt>
      <trkpt lat="43.96962" lon="3.59414">
        <ele>265.7</ele>
        <time>2010-03-07T11:42:37Z</time>
      </trkpt>
      <trkpt lat="43.96981" lon="3.59443">
        <ele>255.5</ele>
        <time>2010-03-07T11:43:02Z</time>
      </trkpt>
      <trkpt lat="43.96982" lon="3.5946">
        <ele>255.3</ele>
        <time>2010-03-07T11:43:12Z</time>
      </trkpt>
      <trkpt lat="43.96978" lon="3.59472">
        <ele>257.1</ele>
        <time>2010-03-07T11:43:27Z</time>
      </trkpt>
      <trkpt lat="43.96985" lon="3.59488">
        <ele>253.9</ele>
        <time>2010-03-07T11:43:42Z</time>
      </trkpt>
      <trkpt lat="43.9699" lon="3.59491">
        <ele>251.5</ele>
        <time>2010-03-07T11:43:47Z</time>
      </trkpt>
      <trkpt lat="43.96998" lon="3.59505">
        <ele>247.4</ele>
        <time>2010-03-07T11:43:57Z</time>
      </trkpt>
      <trkpt lat="43.97009" lon="3.59567">
        <ele>245.5</ele>
        <time>2010-03-07T11:44:22Z</time>
      </trkpt>
      <trkpt lat="43.97029" lon="3.59605">
        <ele>243.9</ele>
        <time>2010-03-07T11:44:37Z</time>
      </trkpt>
      <trkpt lat="43.97037" lon="3.59628">
        <ele>242.7</ele>
        <time>2010-03-07T11:44:47Z</time>
      </trkpt>
      <trkpt lat="43.97041" lon="3.59648">
        <ele>242.8</ele>
        <time>2010-03-07T11:44:57Z</time>
      </trkpt>
      <trkpt lat="43.97052" lon="3.59667">
        <ele>240.3</ele>
        <time>2010-03-07T11:45:07Z</time>
      </trkpt>
      <trkpt lat="43.97056" lon="3.59682">
        <ele>241.3</ele>
        <time>2010-03-07T11:45:17Z</time>
      </trkpt>
      <trkpt lat="43.97057" lon="3.59723">
        <ele>245.3</ele>
        <time>2010-03-07T11:45:42Z</time>
      </trkpt>
      <trkpt lat="43.97062" lon="3.5974">
        <ele>243.3</ele>
        <time>2010-03-07T11:45:52Z</time>
      </trkpt>
      <trkpt lat="43.97082" lon="3.5977">
        <ele>238.8</ele>
        <time>2010-03-07T11:46:12Z</time>
      </trkpt>
      <trkpt lat="43.97086" lon="3.59789">
        <ele>239.2</ele>
        <time>2010-03-07T11:46:22Z</time>
      </trkpt>
      <trkpt lat="43.97082" lon="3.59798">
        <ele>239.5</ele>
        <time>2010-03-07T11:46:27Z</time>
      </trkpt>
      <trkpt lat="43.97077" lon="3.59802">
        <ele>240.2</ele>
        <time>2010-03-07T11:46:32Z</time>
      </trkpt>
      <trkpt lat="43.97069" lon="3.59819">
        <ele>240.4</ele>
        <time>2010-03-07T11:46:42Z</time>
      </trkpt>
      <trkpt lat="43.97069" lon="3.5983">
        <ele>239.4</ele>
        <time>2010-03-07T11:46:47Z</time>
      </trkpt>
      <trkpt lat="43.97085" lon="3.5987">
        <ele>241.3</ele>
        <time>2010-03-07T11:47:12Z</time>
      </trkpt>
      <trkpt lat="43.97103" lon="3.59899">
        <ele>242</ele>
        <time>2010-03-07T11:47:37Z</time>
      </trkpt>
      <trkpt lat="43.97106" lon="3.59917">
        <ele>242</ele>
        <time>2010-03-07T11:47:47Z</time>
      </trkpt>
      <trkpt lat="43.97113" lon="3.59926">
        <ele>242.4</ele>
        <time>2010-03-07T11:47:57Z</time>
      </trkpt>
      <trkpt lat="43.9711" lon="3.59937">
        <ele>242.7</ele>
        <time>2010-03-07T11:48:02Z</time>
      </trkpt>
      <trkpt lat="43.97119" lon="3.59944">
        <ele>243.3</ele>
        <time>2010-03-07T11:48:07Z</time>
      </trkpt>
      <trkpt lat="43.9713" lon="3.59945">
        <ele>243.7</ele>
        <time>2010-03-07T11:48:12Z</time>
      </trkpt>
      <trkpt lat="43.97139" lon="3.59953">
        <ele>244.3</ele>
        <time>2010-03-07T11:48:17Z</time>
      </trkpt>
      <trkpt lat="43.97144" lon="3.59965">
        <ele>245</ele>
        <time>2010-03-07T11:48:22Z</time>
      </trkpt>
      <trkpt lat="43.97152" lon="3.59964">
        <ele>245.4</ele>
        <time>2010-03-07T11:48:27Z</time>
      </trkpt>
      <trkpt lat="43.97155" lon="3.59961">
        <ele>245.3</ele>
        <time>2010-03-07T11:48:32Z</time>
      </trkpt>
      <trkpt lat="43.97168" lon="3.59963">
        <ele>246.1</ele>
        <time>2010-03-07T11:48:47Z</time>
      </trkpt>
      <trkpt lat="43.97171" lon="3.59972">
        <ele>247.1</ele>
        <time>2010-03-07T11:48:52Z</time>
      </trkpt>
      <trkpt lat="43.97176" lon="3.59976">
        <ele>247.9</ele>
        <time>2010-03-07T11:48:57Z</time>
      </trkpt>
      <trkpt lat="43.97173" lon="3.59981">
        <ele>248.4</ele>
        <time>2010-03-07T11:49:02Z</time>
      </trkpt>
      <trkpt lat="43.97173" lon="3.59997">
        <ele>250.5</ele>
        <time>2010-03-07T11:49:12Z</time>
      </trkpt>
      <trkpt lat="43.97171" lon="3.60006">
        <ele>251.9</ele>
        <time>2010-03-07T11:49:17Z</time>
      </trkpt>
      <trkpt lat="43.97172" lon="3.60013">
        <ele>252.9</ele>
        <time>2010-03-07T11:49:22Z</time>
      </trkpt>
      <trkpt lat="43.97181" lon="3.60021">
        <ele>254.4</ele>
        <time>2010-03-07T11:49:37Z</time>
      </trkpt>
      <trkpt lat="43.97176" lon="3.60022">
        <ele>254.5</ele>
        <time>2010-03-07T11:49:42Z</time>
      </trkpt>
      <trkpt lat="43.97166" lon="3.6004">
        <ele>255.4</ele>
        <time>2010-03-07T11:49:52Z</time>
      </trkpt>
      <trkpt lat="43.97168" lon="3.60042">
        <ele>255.6</ele>
        <time>2010-03-07T11:49:57Z</time>
      </trkpt>
      <trkpt lat="43.97167" lon="3.60046">
        <ele>255.7</ele>
        <time>2010-03-07T11:50:02Z</time>
      </trkpt>
      <trkpt lat="43.97169" lon="3.60058">
        <ele>256.4</ele>
        <time>2010-03-07T11:50:12Z</time>
      </trkpt>
      <trkpt lat="43.97163" lon="3.60071">
        <ele>257.3</ele>
        <time>2010-03-07T11:50:22Z</time>
      </trkpt>
      <trkpt lat="43.97153" lon="3.60081">
        <ele>258.8</ele>
        <time>2010-03-07T11:50:32Z</time>
      </trkpt>
      <trkpt lat="43.97151" lon="3.60092">
        <ele>259.8</ele>
        <time>2010-03-07T11:50:37Z</time>
      </trkpt>
      <trkpt lat="43.97155" lon="3.6011">
        <ele>260.8</ele>
        <time>2010-03-07T11:50:52Z</time>
      </trkpt>
      <trkpt lat="43.97168" lon="3.60122">
        <ele>260.8</ele>
        <time>2010-03-07T11:51:02Z</time>
      </trkpt>
      <trkpt lat="43.97185" lon="3.60144">
        <ele>261.2</ele>
        <time>2010-03-07T11:51:22Z</time>
      </trkpt>
      <trkpt lat="43.97187" lon="3.60155">
        <ele>262.2</ele>
        <time>2010-03-07T11:51:32Z</time>
      </trkpt>
      <trkpt lat="43.97198" lon="3.60152">
        <ele>262.1</ele>
        <time>2010-03-07T11:51:37Z</time>
      </trkpt>
      <trkpt lat="43.97197" lon="3.60146">
        <ele>261.3</ele>
        <time>2010-03-07T11:51:42Z</time>
      </trkpt>
      <trkpt lat="43.97201" lon="3.60138">
        <ele>261.3</ele>
        <time>2010-03-07T11:51:47Z</time>
      </trkpt>
      <trkpt lat="43.97207" lon="3.60136">
        <ele>262.6</ele>
        <time>2010-03-07T11:51:52Z</time>
      </trkpt>
      <trkpt lat="43.97209" lon="3.60131">
        <ele>262.9</ele>
        <time>2010-03-07T11:51:57Z</time>
      </trkpt>
      <trkpt lat="43.9722" lon="3.60125">
        <ele>264.5</ele>
        <time>2010-03-07T11:52:07Z</time>
      </trkpt>
      <trkpt lat="43.97232" lon="3.60122">
        <ele>266.7</ele>
        <time>2010-03-07T11:52:22Z</time>
      </trkpt>
      <trkpt lat="43.97246" lon="3.60124">
        <ele>269.4</ele>
        <time>2010-03-07T11:52:37Z</time>
      </trkpt>
      <trkpt lat="43.97258" lon="3.60116">
        <ele>270.1</ele>
        <time>2010-03-07T11:52:47Z</time>
      </trkpt>
      <trkpt lat="43.97262" lon="3.60099">
        <ele>266.6</ele>
        <time>2010-03-07T11:52:57Z</time>
      </trkpt>
      <trkpt lat="43.97267" lon="3.60095">
        <ele>266.1</ele>
        <time>2010-03-07T11:53:02Z</time>
      </trkpt>
      <trkpt lat="43.97281" lon="3.60089">
        <ele>266</ele>
        <time>2010-03-07T11:53:12Z</time>
      </trkpt>
      <trkpt lat="43.97309" lon="3.60085">
        <ele>266.5</ele>
        <time>2010-03-07T11:53:27Z</time>
      </trkpt>
      <trkpt lat="43.97332" lon="3.60099">
        <ele>262.1</ele>
        <time>2010-03-07T11:53:42Z</time>
      </trkpt>
      <trkpt lat="43.97348" lon="3.60119">
        <ele>256.2</ele>
        <time>2010-03-07T11:53:57Z</time>
      </trkpt>
      <trkpt lat="43.9735" lon="3.60129">
        <ele>256.1</ele>
        <time>2010-03-07T11:54:02Z</time>
      </trkpt>
      <trkpt lat="43.97349" lon="3.6014">
        <ele>258.1</ele>
        <time>2010-03-07T11:54:07Z</time>
      </trkpt>
      <trkpt lat="43.97354" lon="3.6015">
        <ele>256.9</ele>
        <time>2010-03-07T11:54:17Z</time>
      </trkpt>
      <trkpt lat="43.97367" lon="3.60168">
        <ele>253.8</ele>
        <time>2010-03-07T11:54:32Z</time>
      </trkpt>
      <trkpt lat="43.97369" lon="3.60176">
        <ele>254.3</ele>
        <time>2010-03-07T11:54:37Z</time>
      </trkpt>
      <trkpt lat="43.97377" lon="3.60185">
        <ele>253.4</ele>
        <time>2010-03-07T11:54:42Z</time>
      </trkpt>
      <trkpt lat="43.97378" lon="3.60195">
        <ele>254.6</ele>
        <time>2010-03-07T11:54:47Z</time>
      </trkpt>
      <trkpt lat="43.97386" lon="3.602">
        <ele>252.3</ele>
        <time>2010-03-07T11:54:52Z</time>
      </trkpt>
      <trkpt lat="43.97405" lon="3.60221">
        <ele>251.2</ele>
        <time>2010-03-07T11:55:07Z</time>
      </trkpt>
      <trkpt lat="43.97408" lon="3.60231">
        <ele>251.2</ele>
        <time>2010-03-07T11:55:12Z</time>
      </trkpt>
      <trkpt lat="43.97401" lon="3.60243">
        <ele>252.5</ele>
        <time>2010-03-07T11:55:22Z</time>
      </trkpt>
      <trkpt lat="43.97401" lon="3.6025">
        <ele>252.9</ele>
        <time>2010-03-07T11:55:27Z</time>
      </trkpt>
      <trkpt lat="43.97403" lon="3.60282">
        <ele>255.2</ele>
        <time>2010-03-07T11:55:47Z</time>
      </trkpt>
      <trkpt lat="43.97396" lon="3.60303">
        <ele>257.9</ele>
        <time>2010-03-07T11:56:02Z</time>
      </trkpt>
      <trkpt lat="43.974" lon="3.6031">
        <ele>257.8</ele>
        <time>2010-03-07T11:56:07Z</time>
      </trkpt>
      <trkpt lat="43.97414" lon="3.60322">
        <ele>255.9</ele>
        <time>2010-03-07T11:56:17Z</time>
      </trkpt>
      <trkpt lat="43.97436" lon="3.60322">
        <ele>258.8</ele>
        <time>2010-03-07T11:56:42Z</time>
      </trkpt>
      <trkpt lat="43.97445" lon="3.60315">
        <ele>259.7</ele>
        <time>2010-03-07T11:56:52Z</time>
      </trkpt>
      <trkpt lat="43.97452" lon="3.60295">
        <ele>259.5</ele>
        <time>2010-03-07T11:57:07Z</time>
      </trkpt>
      <trkpt lat="43.97453" lon="3.60289">
        <ele>258.9</ele>
        <time>2010-03-07T11:57:12Z</time>
      </trkpt>
      <trkpt lat="43.97459" lon="3.60277">
        <ele>259.7</ele>
        <time>2010-03-07T11:57:22Z</time>
      </trkpt>
      <trkpt lat="43.97466" lon="3.60274">
        <ele>262.3</ele>
        <time>2010-03-07T11:57:27Z</time>
      </trkpt>
      <trkpt lat="43.97475" lon="3.60276">
        <ele>263.2</ele>
        <time>2010-03-07T11:57:37Z</time>
      </trkpt>
      <trkpt lat="43.97489" lon="3.60287">
        <ele>260</ele>
        <time>2010-03-07T11:58:02Z</time>
      </trkpt>
      <trkpt lat="43.97516" lon="3.60328">
        <ele>260.8</ele>
        <time>2010-03-07T11:58:27Z</time>
      </trkpt>
      <trkpt lat="43.97529" lon="3.6034">
        <ele>260.6</ele>
        <time>2010-03-07T11:58:37Z</time>
      </trkpt>
      <trkpt lat="43.9756" lon="3.60361">
        <ele>261</ele>
        <time>2010-03-07T11:58:52Z</time>
      </trkpt>
      <trkpt lat="43.97583" lon="3.60374">
        <ele>259.8</ele>
        <time>2010-03-07T11:59:07Z</time>
      </trkpt>
      <trkpt lat="43.97596" lon="3.60388">
        <ele>260.7</ele>
        <time>2010-03-07T11:59:17Z</time>
      </trkpt>
      <trkpt lat="43.97638" lon="3.60456">
        <ele>258.8</ele>
        <time>2010-03-07T12:00:07Z</time>
      </trkpt>
      <trkpt lat="43.97641" lon="3.60465">
        <ele>258.8</ele>
        <time>2010-03-07T12:00:12Z</time>
      </trkpt>
      <trkpt lat="43.97647" lon="3.60474">
        <ele>259</ele>
        <time>2010-03-07T12:00:17Z</time>
      </trkpt>
      <trkpt lat="43.97651" lon="3.60483">
        <ele>259.3</ele>
        <time>2010-03-07T12:00:22Z</time>
      </trkpt>
      <trkpt lat="43.97651" lon="3.60493">
        <ele>259.6</ele>
        <time>2010-03-07T12:00:27Z</time>
      </trkpt>
      <trkpt lat="43.97646" lon="3.60501">
        <ele>259.5</ele>
        <time>2010-03-07T12:00:32Z</time>
      </trkpt>
      <trkpt lat="43.97646" lon="3.60511">
        <ele>259.8</ele>
        <time>2010-03-07T12:00:37Z</time>
      </trkpt>
      <trkpt lat="43.97643" lon="3.60535">
        <ele>260.8</ele>
        <time>2010-03-07T12:00:52Z</time>
      </trkpt>
      <trkpt lat="43.97648" lon="3.60542">
        <ele>261.4</ele>
        <time>2010-03-07T12:00:57Z</time>
      </trkpt>
      <trkpt lat="43.97662" lon="3.60518">
        <ele>260.8</ele>
        <time>2010-03-07T12:01:22Z</time>
      </trkpt>
      <trkpt lat="43.97664" lon="3.60508">
        <ele>260.8</ele>
        <time>2010-03-07T12:01:27Z</time>
      </trkpt>
      <trkpt lat="43.97673" lon="3.60492">
        <ele>262.9</ele>
        <time>2010-03-07T12:01:42Z</time>
      </trkpt>
      <trkpt lat="43.97678" lon="3.60488">
        <ele>264.4</ele>
        <time>2010-03-07T12:01:47Z</time>
      </trkpt>
      <trkpt lat="43.9768" lon="3.60481">
        <ele>265.1</ele>
        <time>2010-03-07T12:01:52Z</time>
      </trkpt>
      <trkpt lat="43.97685" lon="3.60477">
        <ele>267</ele>
        <time>2010-03-07T12:01:57Z</time>
      </trkpt>
      <trkpt lat="43.97692" lon="3.60461">
        <ele>269.6</ele>
        <time>2010-03-07T12:02:12Z</time>
      </trkpt>
      <trkpt lat="43.97693" lon="3.60448">
        <ele>269.7</ele>
        <time>2010-03-07T12:02:22Z</time>
      </trkpt>
      <trkpt lat="43.97697" lon="3.60438">
        <ele>271.4</ele>
        <time>2010-03-07T12:02:32Z</time>
      </trkpt>
      <trkpt lat="43.97697" lon="3.60432">
        <ele>271.1</ele>
        <time>2010-03-07T12:02:37Z</time>
      </trkpt>
      <trkpt lat="43.97698" lon="3.6043">
        <ele>271.8</ele>
        <time>2010-03-07T12:02:42Z</time>
      </trkpt>
      <trkpt lat="43.97695" lon="3.60422">
        <ele>270</ele>
        <time>2010-03-07T12:02:47Z</time>
      </trkpt>
      <trkpt lat="43.97692" lon="3.60382">
        <ele>272.9</ele>
        <time>2010-03-07T12:03:17Z</time>
      </trkpt>
      <trkpt lat="43.97698" lon="3.60382">
        <ele>275.1</ele>
        <time>2010-03-07T12:03:27Z</time>
      </trkpt>
      <trkpt lat="43.97722" lon="3.60367">
        <ele>284.5</ele>
        <time>2010-03-07T12:04:07Z</time>
      </trkpt>
      <trkpt lat="43.97726" lon="3.60358">
        <ele>285.3</ele>
        <time>2010-03-07T12:04:22Z</time>
      </trkpt>
      <trkpt lat="43.97737" lon="3.60349">
        <ele>285.6</ele>
        <time>2010-03-07T12:04:37Z</time>
      </trkpt>
      <trkpt lat="43.97751" lon="3.60346">
        <ele>285.9</ele>
        <time>2010-03-07T12:04:57Z</time>
      </trkpt>
      <trkpt lat="43.97766" lon="3.60347">
        <ele>286.3</ele>
        <time>2010-03-07T12:05:07Z</time>
      </trkpt>
      <trkpt lat="43.97782" lon="3.60344">
        <ele>286</ele>
        <time>2010-03-07T12:05:22Z</time>
      </trkpt>
      <trkpt lat="43.97788" lon="3.60352">
        <ele>286.8</ele>
        <time>2010-03-07T12:05:32Z</time>
      </trkpt>
      <trkpt lat="43.9779" lon="3.60359">
        <ele>287.7</ele>
        <time>2010-03-07T12:05:37Z</time>
      </trkpt>
      <trkpt lat="43.97793" lon="3.60364">
        <ele>288.5</ele>
        <time>2010-03-07T12:05:42Z</time>
      </trkpt>
      <trkpt lat="43.97804" lon="3.60371">
        <ele>289.8</ele>
        <time>2010-03-07T12:05:52Z</time>
      </trkpt>
      <trkpt lat="43.97807" lon="3.60379">
        <ele>290.9</ele>
        <time>2010-03-07T12:05:57Z</time>
      </trkpt>
      <trkpt lat="43.97811" lon="3.60383">
        <ele>291</ele>
        <time>2010-03-07T12:06:02Z</time>
      </trkpt>
      <trkpt lat="43.97812" lon="3.60388">
        <ele>291.9</ele>
        <time>2010-03-07T12:06:07Z</time>
      </trkpt>
      <trkpt lat="43.97795" lon="3.60406">
        <ele>296.3</ele>
        <time>2010-03-07T12:06:27Z</time>
      </trkpt>
      <trkpt lat="43.97793" lon="3.60411">
        <ele>297.4</ele>
        <time>2010-03-07T12:06:32Z</time>
      </trkpt>
      <trkpt lat="43.97795" lon="3.60416">
        <ele>298.5</ele>
        <time>2010-03-07T12:06:42Z</time>
      </trkpt>
      <trkpt lat="43.97811" lon="3.60426">
        <ele>300.2</ele>
        <time>2010-03-07T12:07:02Z</time>
      </trkpt>
      <trkpt lat="43.97818" lon="3.60436">
        <ele>301.6</ele>
        <time>2010-03-07T12:07:12Z</time>
      </trkpt>
      <trkpt lat="43.97825" lon="3.60436">
        <ele>301</ele>
        <time>2010-03-07T12:07:22Z</time>
      </trkpt>
      <trkpt lat="43.9784" lon="3.60447">
        <ele>302.2</ele>
        <time>2010-03-07T12:07:37Z</time>
      </trkpt>
      <trkpt lat="43.97851" lon="3.60451">
        <ele>302.1</ele>
        <time>2010-03-07T12:07:47Z</time>
      </trkpt>
      <trkpt lat="43.97866" lon="3.60466">
        <ele>305.1</ele>
        <time>2010-03-07T12:08:07Z</time>
      </trkpt>
      <trkpt lat="43.97872" lon="3.60468">
        <ele>304.8</ele>
        <time>2010-03-07T12:08:12Z</time>
      </trkpt>
      <trkpt lat="43.9788" lon="3.60476">
        <ele>305.6</ele>
        <time>2010-03-07T12:08:22Z</time>
      </trkpt>
      <trkpt lat="43.97896" lon="3.60498">
        <ele>308.1</ele>
        <time>2010-03-07T12:08:42Z</time>
      </trkpt>
      <trkpt lat="43.97901" lon="3.60502">
        <ele>307.9</ele>
        <time>2010-03-07T12:08:47Z</time>
      </trkpt>
      <trkpt lat="43.97933" lon="3.60513">
        <ele>303.1</ele>
        <time>2010-03-07T12:09:22Z</time>
      </trkpt>
      <trkpt lat="43.97948" lon="3.60522">
        <ele>301</ele>
        <time>2010-03-07T12:09:37Z</time>
      </trkpt>
      <trkpt lat="43.97953" lon="3.60519">
        <ele>299.2</ele>
        <time>2010-03-07T12:09:42Z</time>
      </trkpt>
      <trkpt lat="43.97959" lon="3.6052">
        <ele>297.8</ele>
        <time>2010-03-07T12:09:47Z</time>
      </trkpt>
      <trkpt lat="43.97983" lon="3.60537">
        <ele>293.1</ele>
        <time>2010-03-07T12:10:07Z</time>
      </trkpt>
      <trkpt lat="43.97991" lon="3.60552">
        <ele>291.9</ele>
        <time>2010-03-07T12:10:17Z</time>
      </trkpt>
      <trkpt lat="43.97992" lon="3.60562">
        <ele>292.6</ele>
        <time>2010-03-07T12:10:22Z</time>
      </trkpt>
      <trkpt lat="43.97997" lon="3.60578">
        <ele>292.4</ele>
        <time>2010-03-07T12:10:32Z</time>
      </trkpt>
      <trkpt lat="43.98002" lon="3.60582">
        <ele>291.3</ele>
        <time>2010-03-07T12:10:37Z</time>
      </trkpt>
      <trkpt lat="43.98006" lon="3.60577">
        <ele>289.7</ele>
        <time>2010-03-07T12:10:42Z</time>
      </trkpt>
      <trkpt lat="43.98006" lon="3.60569">
        <ele>288.9</ele>
        <time>2010-03-07T12:10:47Z</time>
      </trkpt>
      <trkpt lat="43.98008" lon="3.60565">
        <ele>287.6</ele>
        <time>2010-03-07T12:10:52Z</time>
      </trkpt>
      <trkpt lat="43.9802" lon="3.60575">
        <ele>285.5</ele>
        <time>2010-03-07T12:11:07Z</time>
      </trkpt>
      <trkpt lat="43.98022" lon="3.6058">
        <ele>285.3</ele>
        <time>2010-03-07T12:11:12Z</time>
      </trkpt>
      <trkpt lat="43.98026" lon="3.60572">
        <ele>283.3</ele>
        <time>2010-03-07T12:11:22Z</time>
      </trkpt>
      <trkpt lat="43.98031" lon="3.60569">
        <ele>282.1</ele>
        <time>2010-03-07T12:11:27Z</time>
      </trkpt>
      <trkpt lat="43.98051" lon="3.6056">
        <ele>278.9</ele>
        <time>2010-03-07T12:11:47Z</time>
      </trkpt>
      <trkpt lat="43.98065" lon="3.6055">
        <ele>275.5</ele>
        <time>2010-03-07T12:12:02Z</time>
      </trkpt>
      <trkpt lat="43.98071" lon="3.60539">
        <ele>271.7</ele>
        <time>2010-03-07T12:12:12Z</time>
      </trkpt>
      <trkpt lat="43.98073" lon="3.60526">
        <ele>268</ele>
        <time>2010-03-07T12:12:22Z</time>
      </trkpt>
      <trkpt lat="43.98077" lon="3.60518">
        <ele>266.5</ele>
        <time>2010-03-07T12:12:27Z</time>
      </trkpt>
      <trkpt lat="43.98085" lon="3.60517">
        <ele>265.9</ele>
        <time>2010-03-07T12:12:32Z</time>
      </trkpt>
      <trkpt lat="43.98108" lon="3.60527">
        <ele>265.3</ele>
        <time>2010-03-07T12:12:57Z</time>
      </trkpt>
      <trkpt lat="43.98114" lon="3.60532">
        <ele>264.6</ele>
        <time>2010-03-07T12:13:02Z</time>
      </trkpt>
      <trkpt lat="43.98117" lon="3.60537">
        <ele>264.2</ele>
        <time>2010-03-07T12:13:07Z</time>
      </trkpt>
      <trkpt lat="43.98125" lon="3.60543">
        <ele>262.1</ele>
        <time>2010-03-07T12:13:17Z</time>
      </trkpt>
      <trkpt lat="43.98126" lon="3.60548">
        <ele>261.8</ele>
        <time>2010-03-07T12:13:22Z</time>
      </trkpt>
      <trkpt lat="43.98131" lon="3.60552">
        <ele>260.4</ele>
        <time>2010-03-07T12:13:27Z</time>
      </trkpt>
      <trkpt lat="43.98149" lon="3.6058">
        <ele>251.7</ele>
        <time>2010-03-07T12:13:57Z</time>
      </trkpt>
      <trkpt lat="43.98153" lon="3.60581">
        <ele>250.2</ele>
        <time>2010-03-07T12:14:02Z</time>
      </trkpt>
      <trkpt lat="43.98155" lon="3.60587">
        <ele>248.8</ele>
        <time>2010-03-07T12:14:07Z</time>
      </trkpt>
      <trkpt lat="43.98155" lon="3.60592">
        <ele>248.7</ele>
        <time>2010-03-07T12:14:12Z</time>
      </trkpt>
      <trkpt lat="43.98158" lon="3.60607">
        <ele>246.4</ele>
        <time>2010-03-07T12:14:22Z</time>
      </trkpt>
      <trkpt lat="43.98157" lon="3.60618">
        <ele>246.2</ele>
        <time>2010-03-07T12:14:27Z</time>
      </trkpt>
      <trkpt lat="43.98162" lon="3.60628">
        <ele>243.5</ele>
        <time>2010-03-07T12:14:37Z</time>
      </trkpt>
      <trkpt lat="43.98162" lon="3.60642">
        <ele>242.3</ele>
        <time>2010-03-07T12:14:42Z</time>
      </trkpt>
      <trkpt lat="43.98155" lon="3.60681">
        <ele>239.6</ele>
        <time>2010-03-07T12:15:02Z</time>
      </trkpt>
      <trkpt lat="43.9815" lon="3.60726">
        <ele>234</ele>
        <time>2010-03-07T12:15:32Z</time>
      </trkpt>
      <trkpt lat="43.9814" lon="3.60755">
        <ele>234.4</ele>
        <time>2010-03-07T12:15:47Z</time>
      </trkpt>
      <trkpt lat="43.98141" lon="3.60752">
        <ele>233.6</ele>
        <time>2010-03-07T12:15:52Z</time>
      </trkpt>
      <trkpt lat="43.98156" lon="3.60756">
        <ele>235.8</ele>
        <time>2010-03-07T12:16:07Z</time>
      </trkpt>
      <trkpt lat="43.98161" lon="3.60761">
        <ele>237.8</ele>
        <time>2010-03-07T12:16:12Z</time>
      </trkpt>
      <trkpt lat="43.98165" lon="3.6076">
        <ele>237.7</ele>
        <time>2010-03-07T12:16:17Z</time>
      </trkpt>
      <trkpt lat="43.98168" lon="3.60764">
        <ele>239.2</ele>
        <time>2010-03-07T12:16:22Z</time>
      </trkpt>
      <trkpt lat="43.98164" lon="3.60785">
        <ele>245.1</ele>
        <time>2010-03-07T12:16:32Z</time>
      </trkpt>
      <trkpt lat="43.98174" lon="3.60777">
        <ele>242.9</ele>
        <time>2010-03-07T12:16:47Z</time>
      </trkpt>
      <trkpt lat="43.98183" lon="3.60776">
        <ele>242.7</ele>
        <time>2010-03-07T12:16:57Z</time>
      </trkpt>
      <trkpt lat="43.98192" lon="3.60783">
        <ele>243.8</ele>
        <time>2010-03-07T12:17:07Z</time>
      </trkpt>
      <trkpt lat="43.98195" lon="3.60792">
        <ele>245.1</ele>
        <time>2010-03-07T12:17:17Z</time>
      </trkpt>
      <trkpt lat="43.98204" lon="3.608">
        <ele>248.3</ele>
        <time>2010-03-07T12:17:27Z</time>
      </trkpt>
      <trkpt lat="43.9821" lon="3.60795">
        <ele>248.7</ele>
        <time>2010-03-07T12:17:37Z</time>
      </trkpt>
      <trkpt lat="43.98211" lon="3.60788">
        <ele>248.1</ele>
        <time>2010-03-07T12:17:42Z</time>
      </trkpt>
      <trkpt lat="43.98218" lon="3.60775">
        <ele>247.6</ele>
        <time>2010-03-07T12:17:52Z</time>
      </trkpt>
      <trkpt lat="43.98223" lon="3.60769">
        <ele>247.7</ele>
        <time>2010-03-07T12:17:57Z</time>
      </trkpt>
      <trkpt lat="43.98228" lon="3.60768">
        <ele>247.2</ele>
        <time>2010-03-07T12:18:02Z</time>
      </trkpt>
      <trkpt lat="43.98255" lon="3.60799">
        <ele>250.6</ele>
        <time>2010-03-07T12:18:32Z</time>
      </trkpt>
      <trkpt lat="43.98278" lon="3.60821">
        <ele>250.4</ele>
        <time>2010-03-07T12:18:52Z</time>
      </trkpt>
      <trkpt lat="43.98294" lon="3.60832">
        <ele>249.8</ele>
        <time>2010-03-07T12:19:07Z</time>
      </trkpt>
      <trkpt lat="43.98315" lon="3.60827">
        <ele>246.3</ele>
        <time>2010-03-07T12:19:27Z</time>
      </trkpt>
      <trkpt lat="43.98317" lon="3.60821">
        <ele>245</ele>
        <time>2010-03-07T12:19:32Z</time>
      </trkpt>
      <trkpt lat="43.98338" lon="3.60818">
        <ele>243.1</ele>
        <time>2010-03-07T12:19:47Z</time>
      </trkpt>
      <trkpt lat="43.98356" lon="3.60819">
        <ele>242.6</ele>
        <time>2010-03-07T12:20:02Z</time>
      </trkpt>
      <trkpt lat="43.98364" lon="3.60822">
        <ele>242.5</ele>
        <time>2010-03-07T12:20:07Z</time>
      </trkpt>
      <trkpt lat="43.9837" lon="3.60821">
        <ele>241.5</ele>
        <time>2010-03-07T12:20:12Z</time>
      </trkpt>
      <trkpt lat="43.98381" lon="3.60825">
        <ele>240.9</ele>
        <time>2010-03-07T12:20:22Z</time>
      </trkpt>
      <trkpt lat="43.98386" lon="3.60832">
        <ele>242</ele>
        <time>2010-03-07T12:20:27Z</time>
      </trkpt>
      <trkpt lat="43.98395" lon="3.60839">
        <ele>241.4</ele>
        <time>2010-03-07T12:20:32Z</time>
      </trkpt>
      <trkpt lat="43.98397" lon="3.60845">
        <ele>242</ele>
        <time>2010-03-07T12:20:37Z</time>
      </trkpt>
      <trkpt lat="43.9841" lon="3.60858">
        <ele>241.8</ele>
        <time>2010-03-07T12:20:52Z</time>
      </trkpt>
      <trkpt lat="43.98422" lon="3.60861">
        <ele>240.1</ele>
        <time>2010-03-07T12:20:57Z</time>
      </trkpt>
      <trkpt lat="43.98423" lon="3.60868">
        <ele>241.3</ele>
        <time>2010-03-07T12:21:02Z</time>
      </trkpt>
      <trkpt lat="43.9843" lon="3.60881">
        <ele>242.5</ele>
        <time>2010-03-07T12:21:12Z</time>
      </trkpt>
      <trkpt lat="43.98438" lon="3.60885">
        <ele>241.8</ele>
        <time>2010-03-07T12:21:17Z</time>
      </trkpt>
      <trkpt lat="43.98441" lon="3.60891">
        <ele>242.3</ele>
        <time>2010-03-07T12:21:22Z</time>
      </trkpt>
      <trkpt lat="43.9844" lon="3.60887">
        <ele>241.4</ele>
        <time>2010-03-07T12:21:27Z</time>
      </trkpt>
      <trkpt lat="43.98457" lon="3.60888">
        <ele>239.6</ele>
        <time>2010-03-07T12:21:42Z</time>
      </trkpt>
      <trkpt lat="43.98492" lon="3.609">
        <ele>239.9</ele>
        <time>2010-03-07T12:22:07Z</time>
      </trkpt>
      <trkpt lat="43.98504" lon="3.60901">
        <ele>239</ele>
        <time>2010-03-07T12:22:17Z</time>
      </trkpt>
      <trkpt lat="43.98514" lon="3.60895">
        <ele>236.4</ele>
        <time>2010-03-07T12:22:27Z</time>
      </trkpt>
      <trkpt lat="43.98536" lon="3.609">
        <ele>236.4</ele>
        <time>2010-03-07T12:22:42Z</time>
      </trkpt>
      <trkpt lat="43.98555" lon="3.60897">
        <ele>235</ele>
        <time>2010-03-07T12:22:57Z</time>
      </trkpt>
      <trkpt lat="43.9857" lon="3.60901">
        <ele>236</ele>
        <time>2010-03-07T12:23:07Z</time>
      </trkpt>
      <trkpt lat="43.98623" lon="3.60902">
        <ele>237.5</ele>
        <time>2010-03-07T12:23:47Z</time>
      </trkpt>
      <trkpt lat="43.98658" lon="3.60883">
        <ele>235.1</ele>
        <time>2010-03-07T12:24:17Z</time>
      </trkpt>
      <trkpt lat="43.98691" lon="3.60853">
        <ele>231.3</ele>
        <time>2010-03-07T12:24:47Z</time>
      </trkpt>
      <trkpt lat="43.98705" lon="3.60846">
        <ele>232.5</ele>
        <time>2010-03-07T12:24:57Z</time>
      </trkpt>
      <trkpt lat="43.98721" lon="3.60834">
        <ele>231.9</ele>
        <time>2010-03-07T12:25:12Z</time>
      </trkpt>
      <trkpt lat="43.98758" lon="3.60796">
        <ele>234.5</ele>
        <time>2010-03-07T12:25:47Z</time>
      </trkpt>
      <trkpt lat="43.98762" lon="3.60789">
        <ele>234.2</ele>
        <time>2010-03-07T12:25:52Z</time>
      </trkpt>
      <trkpt lat="43.98768" lon="3.60783">
        <ele>235.6</ele>
        <time>2010-03-07T12:25:57Z</time>
      </trkpt>
      <trkpt lat="43.98792" lon="3.60754">
        <ele>232.1</ele>
        <time>2010-03-07T12:26:22Z</time>
      </trkpt>
      <trkpt lat="43.98803" lon="3.6075">
        <ele>232.4</ele>
        <time>2010-03-07T12:26:32Z</time>
      </trkpt>
      <trkpt lat="43.98823" lon="3.60747">
        <ele>230.6</ele>
        <time>2010-03-07T12:26:47Z</time>
      </trkpt>
      <trkpt lat="43.9884" lon="3.6076">
        <ele>231.1</ele>
        <time>2010-03-07T12:27:02Z</time>
      </trkpt>
      <trkpt lat="43.98851" lon="3.60779">
        <ele>232.2</ele>
        <time>2010-03-07T12:27:17Z</time>
      </trkpt>
      <trkpt lat="43.98858" lon="3.60781">
        <ele>229.7</ele>
        <time>2010-03-07T12:27:22Z</time>
      </trkpt>
      <trkpt lat="43.98868" lon="3.60794">
        <ele>227.1</ele>
        <time>2010-03-07T12:27:32Z</time>
      </trkpt>
      <trkpt lat="43.98875" lon="3.60793">
        <ele>224.6</ele>
        <time>2010-03-07T12:27:37Z</time>
      </trkpt>
      <trkpt lat="43.98884" lon="3.60783">
        <ele>220.4</ele>
        <time>2010-03-07T12:27:42Z</time>
      </trkpt>
      <trkpt lat="43.98919" lon="3.6071">
        <ele>222</ele>
        <time>2010-03-07T12:28:32Z</time>
      </trkpt>
      <trkpt lat="43.98924" lon="3.60703">
        <ele>222.5</ele>
        <time>2010-03-07T12:28:37Z</time>
      </trkpt>
      <trkpt lat="43.98927" lon="3.60703">
        <ele>222.5</ele>
        <time>2010-03-07T12:28:42Z</time>
      </trkpt>
      <trkpt lat="43.98917" lon="3.60724">
        <ele>221</ele>
        <time>2010-03-07T12:28:57Z</time>
      </trkpt>
      <trkpt lat="43.98908" lon="3.60723">
        <ele>221</ele>
        <time>2010-03-07T12:29:02Z</time>
      </trkpt>
      <trkpt lat="43.98905" lon="3.60714">
        <ele>221.5</ele>
        <time>2010-03-07T12:29:07Z</time>
      </trkpt>
      <trkpt lat="43.98904" lon="3.60695">
        <ele>222.5</ele>
        <time>2010-03-07T12:29:17Z</time>
      </trkpt>
      <trkpt lat="43.98895" lon="3.60679">
        <ele>222.8</ele>
        <time>2010-03-07T12:29:27Z</time>
      </trkpt>
      <trkpt lat="43.98879" lon="3.60659">
        <ele>223.3</ele>
        <time>2010-03-07T12:29:42Z</time>
      </trkpt>
      <trkpt lat="43.98872" lon="3.60634">
        <ele>224</ele>
        <time>2010-03-07T12:29:57Z</time>
      </trkpt>
      <trkpt lat="43.98874" lon="3.60619">
        <ele>224</ele>
        <time>2010-03-07T12:30:07Z</time>
      </trkpt>
      <trkpt lat="43.98869" lon="3.60611">
        <ele>224</ele>
        <time>2010-03-07T12:30:12Z</time>
      </trkpt>
      <trkpt lat="43.9886" lon="3.60607">
        <ele>224</ele>
        <time>2010-03-07T12:30:17Z</time>
      </trkpt>
      <trkpt lat="43.98858" lon="3.60598">
        <ele>224.1</ele>
        <time>2010-03-07T12:30:22Z</time>
      </trkpt>
      <trkpt lat="43.98859" lon="3.60572">
        <ele>224.5</ele>
        <time>2010-03-07T12:30:37Z</time>
      </trkpt>
      <trkpt lat="43.98863" lon="3.60553">
        <ele>225.3</ele>
        <time>2010-03-07T12:30:47Z</time>
      </trkpt>
      <trkpt lat="43.98868" lon="3.60541">
        <ele>226.4</ele>
        <time>2010-03-07T12:30:57Z</time>
      </trkpt>
      <trkpt lat="43.98877" lon="3.60472">
        <ele>230</ele>
        <time>2010-03-07T12:31:37Z</time>
      </trkpt>
      <trkpt lat="43.98877" lon="3.60461">
        <ele>230.6</ele>
        <time>2010-03-07T12:31:42Z</time>
      </trkpt>
      <trkpt lat="43.9888" lon="3.60439">
        <ele>231.8</ele>
        <time>2010-03-07T12:31:57Z</time>
      </trkpt>
      <trkpt lat="43.98884" lon="3.60429">
        <ele>232.3</ele>
        <time>2010-03-07T12:32:02Z</time>
      </trkpt>
      <trkpt lat="43.98879" lon="3.60414">
        <ele>232.4</ele>
        <time>2010-03-07T12:32:12Z</time>
      </trkpt>
      <trkpt lat="43.9888" lon="3.60406">
        <ele>232.6</ele>
        <time>2010-03-07T12:32:17Z</time>
      </trkpt>
      <trkpt lat="43.98891" lon="3.60395">
        <ele>233.1</ele>
        <time>2010-03-07T12:32:27Z</time>
      </trkpt>
      <trkpt lat="43.98899" lon="3.60383">
        <ele>233.5</ele>
        <time>2010-03-07T12:32:32Z</time>
      </trkpt>
      <trkpt lat="43.989" lon="3.60374">
        <ele>233.7</ele>
        <time>2010-03-07T12:32:37Z</time>
      </trkpt>
      <trkpt lat="43.98909" lon="3.60366">
        <ele>233.9</ele>
        <time>2010-03-07T12:32:47Z</time>
      </trkpt>
      <trkpt lat="43.98915" lon="3.60352">
        <ele>234.6</ele>
        <time>2010-03-07T12:32:57Z</time>
      </trkpt>
      <trkpt lat="43.98918" lon="3.60341">
        <ele>235.5</ele>
        <time>2010-03-07T12:33:02Z</time>
      </trkpt>
      <trkpt lat="43.98927" lon="3.60327">
        <ele>236.6</ele>
        <time>2010-03-07T12:33:12Z</time>
      </trkpt>
      <trkpt lat="43.98949" lon="3.60302">
        <ele>238.3</ele>
        <time>2010-03-07T12:33:32Z</time>
      </trkpt>
      <trkpt lat="43.98956" lon="3.60289">
        <ele>239</ele>
        <time>2010-03-07T12:33:52Z</time>
      </trkpt>
      <trkpt lat="43.98961" lon="3.6025">
        <ele>241</ele>
        <time>2010-03-07T12:34:17Z</time>
      </trkpt>
      <trkpt lat="43.98959" lon="3.60239">
        <ele>241.4</ele>
        <time>2010-03-07T12:34:22Z</time>
      </trkpt>
      <trkpt lat="43.98961" lon="3.60227">
        <ele>241.8</ele>
        <time>2010-03-07T12:34:32Z</time>
      </trkpt>
      <trkpt lat="43.98967" lon="3.60215">
        <ele>242.4</ele>
        <time>2010-03-07T12:34:42Z</time>
      </trkpt>
    </trkseg>
  </trk>
</gpx>